# Wetter Temperatur Luftdruck Luftfeuchtigkeit Sichtweite Windgeschwindigkeit Windrichtung Zeit
1 Fog 15 1009 100 8000 1 240 23:56 04.08.2020
2 Fog 15 1009 100 8000 1 240 23:38 04.08.2020
3 Clouds 15 1009 100 10000 1.5 230 23:20 04.08.2020
4 Fog 16 1009 100 10000 2.1 210 22:30 04.08.2020
5 Fog 16 1009 100 10000 1.5 170 21:57 04.08.2020
6 Clouds 16 1009 93 10000 1 0 20:33 04.08.2020
7 Clouds 16 1009 93 10000 2.6 140 19:25 04.08.2020
8 Rain 17 1009 93 10000 3.6 140 17:57 04.08.2020
9 Rain 17 1009 100 10000 3.6 130 17:29 04.08.2020
10 Rain 17 1009 93 10000 4.1 160 16:18 04.08.2020
11 Clouds 18 1009 77 10000 3.1 160 15:30 04.08.2020
12 Clouds 19 1009 68 10000 3.1 180 14:24 04.08.2020
13 Clouds 18 1009 77 10000 2.6 170 13:20 04.08.2020
14 Clouds 17 1009 77 10000 4.1 170 11:34 04.08.2020
15 Clouds 18 1009 72 10000 3.6 190 10:54 04.08.2020
16 Clouds 17 1009 72 10000 3.6 190 10:34 04.08.2020
17 Clouds 16 1009 82 10000 3.6 190 09:21 04.08.2020
18 Clouds 15 1008 100 10000 2.1 170 06:57 04.08.2020
19 Clouds 13 1008 93 10000 2.1 220 00:24 04.08.2020
20 Clouds 15 1007 87 10000 3.6 220 22:47 03.08.2020
21 Clouds 15 1007 87 10000 4.6 210 21:55 03.08.2020
22 Clear 16 1007 82 10000 4.6 220 21:27 03.08.2020
23 Clear 16 1007 82 10000 4.6 220 20:52 03.08.2020
24 Clear 17 1006 72 10000 7.2 210 19:46 03.08.2020
25 Clear 20 1006 68 10000 6.2 220 18:56 03.08.2020
26 Clouds 21 1006 68 10000 7.2 210 18:30 03.08.2020
27 Clouds 21 1005 68 10000 6.7 210 17:46 03.08.2020
28 Clouds 21 1005 68 10000 6.7 210 16:27 03.08.2020
29 Clouds 20 1005 82 10000 3.6 200 14:57 03.08.2020
30 Rain 20 1005 82 10000 3.1 230 14:27 03.08.2020
31 Clouds 18 1005 93 10000 3.1 200 13:23 03.08.2020
32 Drizzle 16 1005 100 4000 4.1 180 11:59 03.08.2020
33 Rain 16 1005 93 10000 6.2 190 10:45 03.08.2020
34 Rain 16 1005 93 10000 3.1 200 09:29 03.08.2020
35 Rain 16 1005 82 10000 4.1 190 08:25 03.08.2020
36 Clouds 15 1007 87 10000 2.6 210 02:24 03.08.2020
37 Clouds 15 1007 93 10000 3.6 210 01:53 03.08.2020
38 Clouds 16 1008 87 10000 3.1 220 00:52 03.08.2020
39 Clouds 16 1008 82 10000 4.1 210 21:58 02.08.2020
40 Clouds 17 1008 72 10000 4.6 210 21:23 02.08.2020
41 Clouds 17 1008 77 10000 4.1 210 20:53 02.08.2020
42 Clouds 17 1008 77 10000 4.6 210 20:33 02.08.2020
43 Clouds 17 1009 72 10000 4.6 210 19:45 02.08.2020
44 Clouds 17 1009 77 10000 5.1 210 19:21 02.08.2020
45 Clouds 17 1009 82 10000 5.7 210 18:40 02.08.2020
46 Clouds 17 1010 77 10000 5.1 200 17:22 02.08.2020
47 Rain 17 1010 82 10000 3.6 210 15:38 02.08.2020
48 Rain 18 1010 82 10000 3.6 210 14:46 02.08.2020
49 Clouds 18 1010 71 10000 2.24 267 14:24 02.08.2020
50 Rain 20 1010 56 10000 6.7 230 13:31 02.08.2020
51 Clouds 21 1010 56 10000 6.7 210 12:48 02.08.2020
52 Clouds 21 1010 49 10000 5.7 220 11:51 02.08.2020
53 Clouds 20 1011 60 10000 4.6 230 10:51 02.08.2020
54 Clouds 20 1011 60 10000 4.6 220 10:29 02.08.2020
55 Clouds 20 1011 68 10000 2.6 240 09:26 02.08.2020
56 Clouds 18 1012 77 10000 1.5 240 08:29 02.08.2020
57 Clouds 16 1012 82 10000 2.1 280 07:52 02.08.2020
58 Clouds 12 1012 87 10000 3.1 280 04:47 02.08.2020
59 Clouds 13 1013 93 10000 1 0 01:36 02.08.2020
60 Clouds 14 1013 87 10000 1 230 00:21 02.08.2020
61 Clouds 16 1014 77 10000 2.6 250 22:49 01.08.2020
62 Clouds 17 1014 67 10000 3.1 210 20:46 01.08.2020
63 Clouds 18 1014 68 10000 3.1 220 20:25 01.08.2020
64 Clouds 19 1014 49 10000 2.1 330 19:27 01.08.2020
65 Clouds 20 1014 49 10000 2.1 330 19:27 01.08.2020
66 Clouds 20 1014 49 10000 1 0 18:40 01.08.2020
67 Clouds 21 1015 52 10000 2.1 10 17:43 01.08.2020
68 Clear 21 1015 46 10000 2.6 20 16:31 01.08.2020
69 Clouds 20 1016 52 10000 2.6 360 15:44 01.08.2020
70 Clouds 20 1016 52 10000 3.1 320 15:21 01.08.2020
71 Clouds 20 1016 52 10000 2.6 310 14:40 01.08.2020
72 Clouds 20 1016 52 10000 3.6 350 13:19 01.08.2020
73 Clouds 18 1016 48 10000 5.1 30 11:45 01.08.2020
74 Clouds 18 1016 48 10000 5.7 30 10:55 01.08.2020
75 Clear 13 1015 82 10000 3.1 340 07:27 01.08.2020
76 Clear 10 1015 93 10000 3.1 330 03:19 01.08.2020
77 Clear 11 1014 87 10000 3.1 10 01:52 01.08.2020
78 Clear 12 1014 82 10000 3.6 10 01:31 01.08.2020
79 Clear 13 1013 76 10000 3.1 350 23:34 31.07.2020
80 Clear 14 1012 87 10000 1 10 21:50 31.07.2020
81 Clear 17 1012 67 10000 3.1 30 20:43 31.07.2020
82 Clouds 18 1011 55 10000 4.6 30 20:23 31.07.2020
83 Clouds 19 1011 59 10000 3.6 40 19:46 31.07.2020
84 Clouds 20 1010 49 10000 5.7 350 17:54 31.07.2020
85 Clouds 21 1010 46 10000 5.7 350 16:42 31.07.2020
86 Clouds 21 1009 49 10000 5.7 340 15:47 31.07.2020
87 Clouds 21 1009 52 10000 5.7 360 14:43 31.07.2020
88 Clouds 20 1008 56 10000 5.1 10 13:38 31.07.2020
89 Clouds 19 1008 63 10000 6.2 340 12:40 31.07.2020
90 Clouds 19 1008 63 10000 6.2 10 11:39 31.07.2020
91 Clouds 19 1008 68 10000 5.7 350 11:18 31.07.2020
92 Clouds 17 1007 68 10000 5.1 340 10:25 31.07.2020
93 Clouds 16 1006 82 10000 5.7 340 09:35 31.07.2020
94 Clouds 16 1006 82 10000 5.1 360 08:53 31.07.2020
95 Clouds 15 1006 87 10000 5.1 360 07:35 31.07.2020
96 Clear 11 1004 100 10000 2.6 320 04:35 31.07.2020
97 Clear 12 1004 100 10000 1.5 320 02:24 31.07.2020
98 Clear 14 1003 93 10000 2.6 300 00:39 31.07.2020
99 Clear 14 1003 93 10000 2.1 290 00:19 31.07.2020
100 Clouds 14 1003 93 10000 1.5 290 22:53 30.07.2020
101 Rain 15 1003 87 10000 2.6 250 22:30 30.07.2020
102 Clouds 15 1002 93 10000 1.5 320 21:19 30.07.2020
103 Clouds 15 1002 87 10000 2.1 290 20:56 30.07.2020
104 Rain 17 1002 68 10000 2.1 250 19:44 30.07.2020
105 Rain 18 1002 63 10000 2.1 210 18:58 30.07.2020
106 Clouds 18 1001 68 10000 3.1 140 17:51 30.07.2020
107 Clouds 18 1002 77 10000 5.1 140 16:57 30.07.2020
108 Clouds 18 1002 77 10000 5.1 140 16:35 30.07.2020
109 Rain 18 1002 68 10000 5.7 180 15:56 30.07.2020
110 Rain 19 1002 68 10000 5.7 180 15:38 30.07.2020
111 Rain 19 1002 63 10000 7.2 190 14:56 30.07.2020
112 Rain 18 1002 63 10000 7.2 190 14:38 30.07.2020
113 Rain 18 1002 68 10000 6.7 190 14:20 30.07.2020
114 Clouds 18 1002 77 10000 6.2 190 13:37 30.07.2020
115 Clouds 18 1002 77 10000 6.2 190 13:18 30.07.2020
116 Rain 18 1002 82 10000 6.7 180 12:31 30.07.2020
117 Clouds 17 1002 87 10000 5.7 190 10:49 30.07.2020
118 Clouds 17 1002 82 10000 6.2 190 10:25 30.07.2020
119 Rain 16 1003 93 10000 4.1 220 09:22 30.07.2020
120 Clouds 17 1002 77 10000 5.1 190 08:58 30.07.2020
121 Clouds 17 1002 77 10000 5.1 190 08:36 30.07.2020
122 Clouds 12 1003 87 10000 3.1 200 05:22 30.07.2020
123 Clear 11 1004 93 10000 2.6 200 01:50 30.07.2020
124 Clear 12 1005 93 10000 3.1 220 00:21 30.07.2020
125 Clear 14 1005 82 10000 4.1 230 22:55 29.07.2020
126 Clear 14 1005 82 10000 4.6 230 22:21 29.07.2020
127 Clear 15 1005 77 10000 4.6 230 21:40 29.07.2020
128 Clear 16 1005 72 10000 5.7 230 20:51 29.07.2020
129 Clouds 17 1005 67 10000 5.7 230 20:31 29.07.2020
130 Clouds 18 1004 63 10000 6.2 240 19:49 29.07.2020
131 Clouds 18 1004 59 10000 5.7 250 19:26 29.07.2020
132 Clouds 18 1004 59 10000 4.6 240 18:55 29.07.2020
133 Clouds 19 1004 56 10000 6.7 240 18:31 29.07.2020
134 Clouds 19 1004 68 10000 4.6 260 17:54 29.07.2020
135 Clouds 19 1004 68 10000 6.2 280 16:50 29.07.2020
136 Clouds 19 1004 68 10000 7.2 270 15:59 29.07.2020
137 Clouds 19 1004 68 10000 7.2 270 15:41 29.07.2020
138 Clouds 18 1004 77 10000 7.7 270 15:18 29.07.2020
139 Clouds 18 1003 93 10000 3.6 200 14:21 29.07.2020
140 Clouds 18 1003 100 10000 3.1 130 13:28 29.07.2020
141 Clouds 17 1003 100 10000 2.6 140 12:52 29.07.2020
142 Rain 17 1003 100 10000 3.6 140 12:22 29.07.2020
143 Rain 17 1004 100 7000 3.6 150 11:46 29.07.2020
144 Rain 17 1004 93 10000 2.6 140 11:20 29.07.2020
145 Rain 17 1004 100 10000 1.5 90 10:35 29.07.2020
146 Rain 17 1004 100 7000 2.6 80 09:35 29.07.2020
147 Rain 16 1005 93 6000 4.6 160 08:24 29.07.2020
148 Rain 16 1004 93 7000 3.1 100 07:47 29.07.2020
149 Clouds 16 1005 100 7000 2.6 90 06:23 29.07.2020
150 Fog 16 1007 100 300 2.1 90 02:38 29.07.2020
151 Clouds 16 1008 100 6000 1.5 110 00:37 29.07.2020
152 Mist 16 1008 100 2500 2.6 110 22:48 28.07.2020
153 Clouds 16 1009 100 10000 2.1 100 22:20 28.07.2020
154 Clouds 17 1009 93 10000 1.5 100 21:38 28.07.2020
155 Clouds 17 1009 93 10000 2.1 110 20:58 28.07.2020
156 Clouds 17 1009 93 10000 2.1 110 20:40 28.07.2020
157 Clouds 18 1010 93 10000 3.6 140 19:57 28.07.2020
158 Clouds 18 1010 88 10000 3.6 150 19:37 28.07.2020
159 Clouds 18 1010 88 10000 3.6 150 19:18 28.07.2020
160 Clouds 18 1010 88 10000 3.6 150 18:38 28.07.2020
161 Clouds 18 1010 93 10000 4.6 150 17:55 28.07.2020
162 Rain 18 1011 88 10000 5.1 130 17:21 28.07.2020
163 Clouds 18 1011 93 10000 3.6 110 16:39 28.07.2020
164 Rain 17 1011 93 6000 5.7 120 15:31 28.07.2020
165 Rain 18 1011 82 10000 5.1 120 14:52 28.07.2020
166 Rain 18 1011 82 10000 3.1 110 14:32 28.07.2020
167 Rain 18 1011 82 10000 3.1 110 14:32 28.07.2020
168 Rain 19 1012 88 10000 2.6 100 13:41 28.07.2020
169 Clouds 18 1012 88 10000 3.6 130 12:42 28.07.2020
170 Clouds 18 1012 88 10000 2.6 130 12:21 28.07.2020
171 Clouds 18 1013 93 10000 3.1 160 11:55 28.07.2020
172 Clouds 18 1013 93 10000 2.6 160 10:59 28.07.2020
173 Clouds 18 1013 93 10000 2.6 160 10:40 28.07.2020
174 Rain 18 1012 93 10000 1 0 10:19 28.07.2020
175 Rain 18 1012 88 10000 1.5 120 09:37 28.07.2020
176 Rain 17 1013 88 10000 4.1 120 09:18 28.07.2020
177 Clouds 17 1013 100 10000 2.6 120 08:37 28.07.2020
178 Clouds 17 1013 100 10000 2.1 100 07:50 28.07.2020
179 Rain 17 1013 100 10000 3.1 40 06:53 28.07.2020
180 Rain 17 1015 88 10000 1.5 40 02:20 28.07.2020
181 Rain 17 1015 88 10000 1.5 40 02:20 28.07.2020
182 Rain 17 1015 88 10000 1.5 40 02:20 28.07.2020
183 Rain 18 1015 82 10000 1.5 110 01:50 28.07.2020
184 Rain 18 1015 72 10000 3.1 120 00:52 28.07.2020
185 Rain 18 1016 68 10000 3.1 100 23:45 27.07.2020
186 Rain 19 1016 68 10000 4.1 100 23:24 27.07.2020
187 Rain 19 1016 68 10000 3.6 100 22:34 27.07.2020
188 Rain 19 1016 68 10000 3.6 90 21:55 27.07.2020
189 Rain 19 1016 68 10000 3.6 90 21:36 27.07.2020
190 Rain 20 1016 60 10000 4.6 90 20:49 27.07.2020
191 Clouds 20 1017 64 10000 3.6 100 20:25 27.07.2020
192 Clouds 20 1017 60 10000 3.6 90 19:52 27.07.2020
193 Clouds 20 1017 60 10000 3.6 90 19:52 27.07.2020
194 Clouds 20 1017 60 10000 4.1 100 19:33 27.07.2020
195 Clouds 21 1017 56 10000 6.2 110 18:40 27.07.2020
196 Clouds 22 1017 53 10000 5.1 120 17:47 27.07.2020
197 Clouds 21 1017 53 10000 6.7 130 17:29 27.07.2020
198 Clouds 22 1017 53 10000 6.7 120 16:40 27.07.2020
199 Clouds 22 1017 53 10000 6.7 120 16:19 27.07.2020
200 Clouds 22 1017 53 10000 6.7 130 15:48 27.07.2020
201 Clouds 22 1017 53 10000 6.7 130 15:29 27.07.2020
202 Clouds 22 1018 49 10000 6.2 110 14:43 27.07.2020
203 Clouds 22 1018 49 10000 6.2 110 14:43 27.07.2020
204 Clouds 22 1018 49 10000 6.7 110 14:24 27.07.2020
205 Clouds 22 1018 49 10000 6.7 110 13:31 27.07.2020
206 Clouds 21 1018 53 10000 5.7 130 12:57 27.07.2020
207 Clouds 21 1018 53 10000 5.7 130 12:39 27.07.2020
208 Clouds 21 1018 53 10000 6.2 120 12:18 27.07.2020
209 Clouds 20 1018 56 10000 6.2 110 11:24 27.07.2020
210 Clouds 20 1018 56 10000 5.1 120 10:58 27.07.2020
211 Clouds 20 1018 60 10000 5.7 120 09:44 27.07.2020
212 Clouds 19 1018 64 10000 4.1 110 09:21 27.07.2020
213 Clouds 19 1018 60 10000 4.1 120 08:59 27.07.2020
214 Clouds 19 1018 60 10000 4.1 120 08:41 27.07.2020
215 Clouds 18 1018 68 10000 3.6 110 07:53 27.07.2020
216 Clouds 17 1018 77 10000 3.1 110 06:57 27.07.2020
217 Clouds 16 1018 82 10000 2.6 100 06:25 27.07.2020
218 Clouds 14 1018 82 10000 2.6 100 02:20 27.07.2020
219 Clouds 14 1018 77 10000 2.6 90 01:53 27.07.2020
220 Clouds 16 1018 77 10000 2.6 100 23:47 26.07.2020
221 Clouds 16 1018 77 10000 3.1 100 23:24 26.07.2020
222 Clouds 16 1018 72 10000 2.6 100 22:41 26.07.2020
223 Clouds 16 1018 67 10000 3.1 100 22:19 26.07.2020
224 Clouds 16 1018 63 10000 2.6 100 21:44 26.07.2020
225 Clear 17 1017 59 10000 2.6 110 21:21 26.07.2020
226 Clear 17 1017 52 10000 3.6 130 20:49 26.07.2020
227 Clear 18 1017 48 10000 3.6 120 20:24 26.07.2020
228 Clear 19 1017 45 10000 4.1 110 19:45 26.07.2020
229 Clear 20 1017 49 10000 4.1 140 19:23 26.07.2020
230 Clear 21 1017 43 10000 3.6 180 18:49 26.07.2020
231 Clear 21 1017 43 10000 3.6 160 18:28 26.07.2020
232 Clear 21 1017 43 10000 3.6 190 17:50 26.07.2020
233 Clear 21 1017 43 10000 4.1 170 17:27 26.07.2020
234 Clear 21 1017 40 10000 5.7 180 16:53 26.07.2020
235 Clear 22 1017 40 10000 5.7 180 16:27 26.07.2020
236 Clear 21 1017 43 10000 4.1 170 15:45 26.07.2020
237 Clear 22 1017 37 10000 4.6 210 15:25 26.07.2020
238 Clear 22 1017 40 10000 5.1 190 14:59 26.07.2020
239 Clouds 21 1017 40 10000 5.7 200 14:37 26.07.2020
240 Clouds 22 1017 33 10000 6.2 190 13:54 26.07.2020
241 Clouds 20 1017 40 10000 5.1 210 13:20 26.07.2020
242 Clouds 21 1016 37 10000 5.1 210 12:44 26.07.2020
243 Clouds 20 1016 43 10000 4.6 210 12:23 26.07.2020
244 Clouds 19 1016 56 10000 4.6 190 11:50 26.07.2020
245 Clouds 19 1016 52 10000 4.1 230 11:31 26.07.2020
246 Clouds 20 1016 52 10000 2.6 220 10:47 26.07.2020
247 Clouds 19 1016 68 10000 2.1 180 10:23 26.07.2020
248 Clouds 18 1015 72 10000 2.6 170 09:39 26.07.2020
249 Clouds 17 1015 72 10000 2.1 190 08:56 26.07.2020
250 Clouds 16 1015 82 10000 3.1 210 08:18 26.07.2020
251 Clouds 15 1014 93 10000 3.6 140 06:40 26.07.2020
252 Fog 9 1014 100 10000 1 0 03:52 26.07.2020
253 Fog 10 1012 93 10000 0.5 0 01:44 26.07.2020
254 Fog 12 1012 93 10000 2.1 240 00:21 26.07.2020
255 Fog 12 1011 93 10000 2.1 230 23:32 25.07.2020
256 Clouds 12 1011 93 10000 1 240 22:49 25.07.2020
257 Clouds 14 1010 87 10000 1 240 22:19 25.07.2020
258 Rain 15 1010 82 10000 3.6 310 21:28 25.07.2020
259 Rain 16 1009 72 10000 4.1 230 20:55 25.07.2020
260 Rain 16 1009 72 10000 4.1 230 20:33 25.07.2020
261 Clouds 17 1009 67 10000 2.6 220 19:45 25.07.2020
262 Clouds 17 1008 72 10000 1.5 330 19:22 25.07.2020
263 Rain 17 1008 72 10000 2.6 320 18:40 25.07.2020
264 Rain 18 1008 72 10000 2.6 320 18:21 25.07.2020
265 Rain 18 1008 72 10000 4.1 300 17:42 25.07.2020
266 Rain 19 1007 55 10000 4.1 250 17:22 25.07.2020
267 Rain 19 1007 55 10000 4.6 220 16:57 25.07.2020
268 Rain 18 1007 55 10000 5.1 230 16:35 25.07.2020
269 Clouds 18 1007 63 10000 5.1 220 15:52 25.07.2020
270 Clouds 18 1006 59 10000 4.1 220 15:32 25.07.2020
271 Clouds 18 1006 63 10000 4.1 240 14:57 25.07.2020
272 Rain 18 1006 63 10000 4.1 240 14:35 25.07.2020
273 Rain 17 1006 72 10000 4.1 270 13:44 25.07.2020
274 Rain 17 1005 67 10000 2.1 270 13:22 25.07.2020
275 Rain 17 1005 72 10000 2.6 260 12:59 25.07.2020
276 Clouds 17 1005 77 10000 3.1 330 12:22 25.07.2020
277 Clouds 17 1004 87 10000 4.6 300 11:59 25.07.2020
278 Clouds 17 1004 87 10000 4.6 300 11:39 25.07.2020
279 Drizzle 15 1003 93 10000 1 0 10:48 25.07.2020
280 Drizzle 15 1003 93 10000 1 0 10:30 25.07.2020
281 Rain 15 1003 93 10000 1.5 60 09:59 25.07.2020
282 Rain 15 1003 93 10000 2.1 80 09:37 25.07.2020
283 Rain 14 1002 100 10000 1.5 90 09:18 25.07.2020
284 Rain 15 1002 100 10000 2.1 120 08:38 25.07.2020
285 Rain 15 1002 100 10000 2.6 130 08:19 25.07.2020
286 Rain 14 1002 100 10000 2.6 130 07:39 25.07.2020
287 Rain 14 1003 92 10000 1.79 131 06:56 25.07.2020
288 Rain 13 1003 100 10000 1.5 100 03:33 25.07.2020
289 Rain 13 1003 100 10000 2.6 130 02:36 25.07.2020
290 Rain 13 1003 100 10000 2.6 140 01:46 25.07.2020
291 Rain 13 1003 100 10000 3.6 130 01:20 25.07.2020
292 Rain 13 1003 100 10000 3.6 130 01:20 25.07.2020
293 Rain 13 1003 100 10000 3.1 130 00:45 25.07.2020
294 Rain 13 1003 100 10000 3.6 140 00:23 25.07.2020
295 Rain 13 1003 100 10000 4.1 150 23:57 24.07.2020
296 Rain 14 1003 100 10000 4.1 150 23:37 24.07.2020
297 Rain 14 1003 87 10000 3.6 180 23:19 24.07.2020
298 Rain 14 1003 93 10000 4.6 170 22:41 24.07.2020
299 Rain 14 1003 100 10000 2.6 170 22:22 24.07.2020
300 Clouds 14 1003 87 10000 4.1 170 21:47 24.07.2020
301 Clouds 14 1003 82 10000 4.6 170 21:26 24.07.2020
302 Clouds 15 1003 77 10000 5.7 180 20:48 24.07.2020
303 Clouds 15 1003 72 10000 5.1 180 20:29 24.07.2020
304 Clouds 16 1003 59 10000 5.7 180 19:47 24.07.2020
305 Clouds 16 1003 51 10000 6.2 200 19:25 24.07.2020
306 Clouds 17 1003 72 10000 2.1 70 18:42 24.07.2020
307 Clouds 16 1003 76 10000 1.5 60 18:18 24.07.2020
308 Clouds 16 1003 76 10000 1 0 17:44 24.07.2020
309 Rain 16 1003 76 10000 3.1 270 17:18 24.07.2020
310 Rain 16 1003 71 10000 3.1 240 16:38 24.07.2020
311 Rain 15 1003 72 10000 8.2 210 16:18 24.07.2020
312 Rain 16 1003 72 10000 6.2 210 15:43 24.07.2020
313 Rain 16 1003 72 10000 7.2 210 15:19 24.07.2020
314 Rain 16 1003 72 10000 8.2 200 14:42 24.07.2020
315 Rain 16 1002 72 10000 7.2 190 14:19 24.07.2020
316 Rain 15 1002 72 10000 6.2 200 13:41 24.07.2020
317 Clouds 15 1002 72 10000 6.7 190 13:20 24.07.2020
318 Clouds 15 1002 72 10000 6.7 210 12:38 24.07.2020
319 Clouds 15 1002 72 10000 6.7 210 12:19 24.07.2020
320 Thunderstorm 15 1002 72 10000 4.6 180 11:23 24.07.2020
321 Thunderstorm 15 1002 77 10000 5.1 150 10:58 24.07.2020
322 Thunderstorm 15 1002 77 10000 5.1 150 10:40 24.07.2020
323 Thunderstorm 15 1002 76 10000 4.1 150 10:18 24.07.2020
324 Clouds 14 1002 82 10000 4.6 200 09:41 24.07.2020
325 Clouds 14 1002 54 10000 7.7 210 09:22 24.07.2020
326 Rain 14 1002 93 10000 5.1 200 08:54 24.07.2020
327 Rain 14 1002 93 10000 5.1 200 08:36 24.07.2020
328 Clouds 14 1001 87 10000 4.6 150 07:48 24.07.2020
329 Clouds 13 1002 81 10000 2.6 130 07:23 24.07.2020
330 Rain 12 1002 87 10000 3.6 130 06:56 24.07.2020
331 Rain 12 1002 82 10000 5.1 180 05:55 24.07.2020
332 Rain 13 1002 82 10000 5.1 180 05:31 24.07.2020
333 Rain 13 1002 71 10000 3.6 170 04:37 24.07.2020
334 Rain 12 1003 81 10000 2.6 190 01:47 24.07.2020
335 Clouds 12 1003 76 10000 3.6 210 00:46 24.07.2020
336 Clouds 12 1003 76 10000 3.6 210 00:25 24.07.2020
337 Clouds 12 1003 81 10000 3.6 210 23:43 23.07.2020
338 Clouds 12 1003 81 10000 4.1 210 23:22 23.07.2020
339 Clouds 12 1003 76 10000 4.1 210 22:43 23.07.2020
340 Clouds 12 1003 76 10000 4.1 210 22:22 23.07.2020
341 Clouds 13 1003 71 10000 4.6 230 21:55 23.07.2020
342 Clouds 13 1003 71 10000 4.1 230 21:37 23.07.2020
343 Clouds 13 1003 71 10000 4.1 230 21:18 23.07.2020
344 Clouds 13 1003 71 10000 5.7 230 20:42 23.07.2020
345 Clouds 14 1003 67 10000 3.6 230 20:20 23.07.2020
346 Clouds 14 1003 67 10000 4.6 250 19:59 23.07.2020
347 Clouds 14 1003 67 10000 4.6 250 19:37 23.07.2020
348 Clouds 14 1003 62 10000 4.6 260 19:19 23.07.2020
349 Clouds 15 1003 67 10000 5.7 270 18:42 23.07.2020
350 Clouds 15 1003 62 10000 6.2 260 18:22 23.07.2020
351 Clouds 16 1003 58 10000 6.2 250 17:54 23.07.2020
352 Clouds 16 1003 58 10000 5.7 260 17:26 23.07.2020
353 Clouds 16 1003 58 10000 7.2 260 16:55 23.07.2020
354 Rain 16 1003 62 10000 5.1 230 16:37 23.07.2020
355 Rain 16 1003 62 10000 5.1 230 16:18 23.07.2020
356 Rain 16 1002 55 10000 7.2 270 15:26 23.07.2020
357 Clouds 16 1002 62 10000 5.7 260 14:59 23.07.2020
358 Clouds 16 1002 62 10000 5.7 260 14:39 23.07.2020
359 Clouds 16 1002 58 10000 7.2 270 14:19 23.07.2020
360 Clouds 16 1002 58 10000 6.7 280 13:58 23.07.2020
361 Clouds 16 1002 58 10000 6.7 280 13:39 23.07.2020
362 Rain 15 1002 62 10000 7.7 270 13:20 23.07.2020
363 Clouds 16 1002 59 10000 7.2 280 12:42 23.07.2020
364 Rain 16 1002 62 10000 6.2 260 12:20 23.07.2020
365 Rain 16 1002 67 10000 6.7 270 11:42 23.07.2020
366 Rain 16 1002 67 10000 7.2 270 11:23 23.07.2020
367 Rain 16 1001 58 10000 6.7 300 10:56 23.07.2020
368 Rain 16 1001 58 10000 6.7 300 10:37 23.07.2020
369 Clouds 16 1001 62 10000 8.2 270 10:18 23.07.2020
370 Clouds 15 1001 55 10000 7.2 270 09:42 23.07.2020
371 Clouds 15 1001 67 10000 7.7 270 09:24 23.07.2020
372 Clouds 15 1001 67 10000 7.2 260 08:51 23.07.2020
373 Clouds 15 1001 67 10000 7.2 260 08:51 23.07.2020
374 Clouds 14 1001 71 10000 6.2 260 08:31 23.07.2020
375 Clouds 14 1001 71 10000 7.7 260 07:51 23.07.2020
376 Rain 14 1001 76 10000 6.2 260 07:21 23.07.2020
377 Clouds 13 1002 76 10000 5.1 250 06:36 23.07.2020
378 Clouds 12 1002 76 10000 5.1 250 05:54 23.07.2020
379 Clouds 12 1002 76 10000 4.6 250 05:34 23.07.2020
380 Clouds 12 1002 76 10000 4.1 240 04:37 23.07.2020
381 Clouds 12 1002 76 10000 5.1 260 03:29 23.07.2020
382 Clouds 13 1003 76 10000 4.6 260 00:56 23.07.2020
383 Clouds 13 1003 76 10000 4.6 260 00:25 23.07.2020
384 Clouds 13 1003 71 10000 5.1 250 23:44 22.07.2020
385 Clouds 13 1003 71 10000 5.1 250 23:44 22.07.2020
386 Clouds 13 1004 71 10000 6.2 260 23:24 22.07.2020
387 Clouds 13 1004 71 10000 4.6 260 22:58 22.07.2020
388 Clouds 13 1004 71 10000 4.6 260 22:39 22.07.2020
389 Clouds 13 1004 71 10000 5.7 260 22:18 22.07.2020
390 Clouds 14 1004 66 10000 7.2 260 21:42 22.07.2020
391 Clouds 14 1004 62 10000 7.7 270 21:20 22.07.2020
392 Clouds 15 1004 67 10000 6.7 280 20:58 22.07.2020
393 Clouds 15 1004 67 10000 6.7 280 20:38 22.07.2020
394 Clouds 15 1004 62 10000 6.7 270 20:20 22.07.2020
395 Clouds 15 1004 58 10000 7.2 270 19:56 22.07.2020
396 Clouds 16 1004 58 10000 7.2 270 19:38 22.07.2020
397 Clouds 16 1004 59 10000 7.7 280 19:19 22.07.2020
398 Clouds 16 1004 58 10000 9.3 300 18:44 22.07.2020
399 Clouds 17 1004 48 10000 8.7 290 18:22 22.07.2020
400 Clouds 18 1004 51 10000 7.2 290 17:43 22.07.2020
401 Clouds 18 1004 48 10000 9.3 300 17:24 22.07.2020
402 Clouds 18 1003 55 10000 8.2 310 16:56 22.07.2020
403 Clouds 18 1004 48 10000 9.8 290 16:37 22.07.2020
404 Clouds 18 1004 48 10000 9.8 290 16:19 22.07.2020
405 Clouds 18 1003 45 10000 9.8 300 15:47 22.07.2020
406 Clouds 19 1003 52 10000 7.2 300 15:27 22.07.2020
407 Clouds 19 1003 55 10000 8.2 290 14:58 22.07.2020
408 Clouds 18 1003 55 10000 8.2 290 14:40 22.07.2020
409 Rain 18 1003 67 10000 7.7 300 14:19 22.07.2020
410 Rain 19 1003 55 10000 8.2 270 13:42 22.07.2020
411 Rain 18 1003 52 10000 8.2 290 13:23 22.07.2020
412 Rain 19 1003 55 10000 7.7 290 12:49 22.07.2020
413 Rain 19 1003 55 10000 7.7 290 12:49 22.07.2020
414 Rain 19 1003 55 10000 8.2 290 12:30 22.07.2020
415 Rain 18 1003 67 10000 5.7 290 11:58 22.07.2020
416 Rain 18 1003 67 10000 5.7 290 11:39 22.07.2020
417 Rain 18 1003 63 10000 7.2 290 11:19 22.07.2020
418 Clouds 18 1003 67 10000 7.2 290 10:58 22.07.2020
419 Clouds 17 1003 67 10000 7.2 290 10:39 22.07.2020
420 Clouds 17 1003 67 10000 6.2 290 10:21 22.07.2020
421 Clouds 17 1003 72 10000 5.1 310 09:42 22.07.2020
422 Clouds 16 1003 77 10000 5.1 300 09:20 22.07.2020
423 Clouds 16 1003 82 10000 5.1 310 08:41 22.07.2020
424 Clouds 15 1003 87 10000 4.6 290 08:23 22.07.2020
425 Clouds 14 1004 87 10000 4.1 280 07:37 22.07.2020
426 Clouds 14 1004 93 10000 4.1 290 07:18 22.07.2020
427 Clouds 13 1004 100 10000 5.7 280 06:19 22.07.2020
428 Clouds 13 1004 93 10000 4.6 270 05:54 22.07.2020
429 Clouds 12 1004 93 10000 4.1 280 05:26 22.07.2020
430 Clouds 12 1005 100 10000 3.1 280 04:24 22.07.2020
431 Clouds 13 1005 93 10000 3.1 290 02:53 22.07.2020
432 Clouds 13 1005 93 10000 4.6 290 01:45 22.07.2020
433 Clouds 14 1005 82 10000 2.6 250 00:33 22.07.2020
434 Clouds 15 1005 82 10000 2.6 240 23:56 21.07.2020
435 Clouds 15 1005 82 10000 2.6 240 23:38 21.07.2020
436 Clouds 15 1006 77 10000 3.1 230 23:18 21.07.2020
437 Clouds 15 1006 77 10000 3.6 240 22:56 21.07.2020
438 Clouds 16 1006 77 10000 3.6 240 22:37 21.07.2020
439 Clouds 16 1006 72 10000 4.1 240 22:19 21.07.2020
440 Clouds 17 1006 67 10000 4.1 240 21:55 21.07.2020
441 Clouds 17 1006 67 10000 4.1 240 21:36 21.07.2020
442 Clouds 18 1006 63 10000 3.6 240 21:18 21.07.2020
443 Clouds 18 1006 63 10000 5.7 240 20:43 21.07.2020
444 Clouds 19 1006 59 10000 5.1 240 20:23 21.07.2020
445 Clouds 20 1006 56 10000 6.2 240 19:46 21.07.2020
446 Clouds 20 1006 56 10000 6.2 240 19:22 21.07.2020
447 Clouds 20 1006 52 10000 6.2 240 18:45 21.07.2020
448 Clouds 21 1006 46 10000 6.2 240 18:26 21.07.2020
449 Clouds 21 1006 46 10000 6.2 240 17:59 21.07.2020
450 Clouds 21 1006 46 10000 6.2 240 17:39 21.07.2020
451 Clouds 22 1006 46 10000 6.2 240 17:20 21.07.2020
452 Clouds 22 1006 53 10000 6.7 230 16:41 21.07.2020
453 Clouds 22 1006 53 10000 6.2 230 16:21 21.07.2020
454 Clouds 23 1006 53 10000 6.2 230 15:46 21.07.2020
455 Clouds 23 1006 60 10000 5.1 230 15:27 21.07.2020
456 Clouds 22 1006 60 10000 5.1 230 14:58 21.07.2020
457 Clouds 23 1006 56 10000 5.1 240 14:37 21.07.2020
458 Clouds 23 1006 56 10000 5.1 240 14:18 21.07.2020
459 Clouds 22 1006 56 10000 5.7 240 13:42 21.07.2020
460 Clouds 22 1006 53 10000 4.6 220 13:22 21.07.2020
461 Clouds 22 1007 64 10000 4.6 230 12:56 21.07.2020
462 Clouds 22 1007 68 10000 4.1 230 12:38 21.07.2020
463 Clouds 21 1007 68 10000 4.1 230 12:19 21.07.2020
464 Clouds 21 1007 68 10000 4.1 230 12:19 21.07.2020
465 Clouds 21 1007 68 10000 3.1 260 11:54 21.07.2020
466 Clouds 21 1007 68 10000 3.1 260 11:36 21.07.2020
467 Thunderstorm 20 1007 72 10000 4.1 290 11:18 21.07.2020
468 Thunderstorm 20 1007 88 10000 5.1 290 10:41 21.07.2020
469 Thunderstorm 20 1007 73 10000 4.1 190 10:21 21.07.2020
470 Rain 20 1007 73 10000 3.6 160 09:43 21.07.2020
471 Rain 19 1007 77 10000 3.1 170 09:23 21.07.2020
472 Clouds 19 1007 77 10000 2.1 170 08:46 21.07.2020
473 Rain 19 1007 77 10000 1.5 140 08:25 21.07.2020
474 Clouds 19 1007 82 10000 2.1 220 07:53 21.07.2020
475 Clouds 19 1007 82 10000 2.1 220 07:53 21.07.2020
476 Clouds 20 1007 82 10000 2.1 220 07:34 21.07.2020
477 Clouds 18 1007 88 10000 1.5 140 06:59 21.07.2020
478 Rain 17 1007 93 10000 1.5 90 06:29 21.07.2020
479 Clouds 15 1008 93 10000 1.5 80 04:29 21.07.2020
480 Clouds 15 1009 93 10000 1 120 03:31 21.07.2020
481 Clouds 15 1009 93 10000 1 70 01:58 21.07.2020
482 Clouds 16 1010 93 10000 1 70 00:53 21.07.2020
483 Clouds 16 1010 87 10000 0.5 0 00:30 21.07.2020
484 Clouds 17 1010 88 10000 2.6 200 23:59 20.07.2020
485 Clouds 17 1010 88 10000 2.6 200 23:39 20.07.2020
486 Clouds 18 1010 88 10000 2.1 180 23:21 20.07.2020
487 Clouds 19 1010 72 10000 3.1 190 22:56 20.07.2020
488 Clouds 19 1010 72 10000 3.1 190 22:37 20.07.2020
489 Clouds 19 1010 77 10000 1.5 180 22:18 20.07.2020
490 Clouds 20 1010 68 10000 2.6 170 21:44 20.07.2020
491 Clouds 20 1010 64 10000 3.1 180 21:24 20.07.2020
492 Clouds 20 1011 64 10000 3.6 190 20:55 20.07.2020
493 Clouds 20 1011 64 10000 3.6 190 20:37 20.07.2020
494 Clouds 21 1011 64 10000 4.6 200 20:19 20.07.2020
495 Clouds 22 1011 60 10000 3.1 190 19:38 20.07.2020
496 Rain 22 1011 56 10000 4.1 190 19:18 20.07.2020
497 Clouds 23 1011 57 10000 4.6 190 18:43 20.07.2020
498 Clouds 24 1011 53 10000 4.1 210 18:25 20.07.2020
499 Clouds 23 1011 53 10000 2.1 240 17:57 20.07.2020
500 Clouds 24 1011 53 10000 2.1 240 17:38 20.07.2020
501 Clouds 24 1011 53 10000 3.1 220 17:19 20.07.2020
502 Clouds 24 1011 53 10000 3.1 220 17:19 20.07.2020
503 Clouds 24 1011 50 10000 1.5 240 16:45 20.07.2020
504 Clouds 24 1012 50 10000 1.5 290 16:19 20.07.2020
505 Clouds 25 1012 50 10000 1 0 15:44 20.07.2020
506 Clouds 25 1012 50 10000 2.6 190 15:19 20.07.2020
507 Clouds 24 1012 50 10000 3.6 230 14:46 20.07.2020
508 Clouds 24 1012 50 10000 3.1 220 14:20 20.07.2020
509 Clouds 24 1013 60 10000 2.6 250 13:59 20.07.2020
510 Clouds 23 1013 60 10000 2.6 250 13:40 20.07.2020
511 Clouds 23 1013 53 10000 3.1 260 13:21 20.07.2020
512 Clouds 23 1013 60 10000 2.6 220 12:57 20.07.2020
513 Clouds 22 1014 64 10000 1.5 250 12:38 20.07.2020
514 Clouds 22 1014 64 10000 1.5 250 12:19 20.07.2020
515 Clouds 22 1014 60 10000 1.5 220 11:57 20.07.2020
516 Clouds 21 1014 68 10000 2.6 230 11:39 20.07.2020
517 Clouds 21 1014 68 10000 2.6 230 11:20 20.07.2020
518 Clouds 21 1014 68 10000 1 0 10:42 20.07.2020
519 Clouds 20 1014 72 10000 1.5 230 10:24 20.07.2020
520 Clouds 20 1014 72 10000 1 0 09:47 20.07.2020
521 Clouds 20 1014 72 10000 1.5 230 09:28 20.07.2020
522 Clouds 20 1014 72 10000 2.1 230 08:59 20.07.2020
523 Clouds 20 1014 72 10000 2.1 230 08:41 20.07.2020
524 Clouds 20 1014 72 10000 0.5 0 08:21 20.07.2020
525 Clouds 19 1014 68 10000 1 0 07:42 20.07.2020
526 Clouds 20 1015 72 10000 1 0 07:20 20.07.2020
527 Clouds 19 1015 77 10000 2.1 350 06:41 20.07.2020
528 Clouds 18 1015 88 10000 2.1 270 04:30 20.07.2020
529 Clouds 18 1016 88 10000 1.5 250 02:34 20.07.2020
530 Clouds 18 1016 77 10000 2.6 240 00:49 20.07.2020
531 Clouds 19 1016 77 10000 3.1 230 23:58 19.07.2020
532 Clouds 19 1016 77 10000 3.1 230 23:38 19.07.2020
533 Clouds 19 1016 77 10000 3.1 240 23:19 19.07.2020
534 Clouds 20 1016 72 10000 2.1 250 22:44 19.07.2020
535 Clouds 20 1016 64 10000 2.1 230 22:20 19.07.2020
536 Clouds 21 1016 68 10000 2.6 230 21:58 19.07.2020
537 Clouds 21 1016 68 10000 2.6 230 21:40 19.07.2020
538 Clouds 21 1016 64 10000 3.1 210 21:22 19.07.2020
539 Clouds 21 1016 64 10000 3.6 230 20:56 19.07.2020
540 Clouds 22 1016 64 10000 3.6 230 20:37 19.07.2020
541 Clouds 22 1016 60 10000 3.6 190 20:18 19.07.2020
542 Clouds 23 1016 56 10000 3.6 170 19:40 19.07.2020
543 Clouds 23 1016 56 10000 3.6 170 19:21 19.07.2020
544 Clouds 23 1016 53 10000 3.6 200 18:59 19.07.2020
545 Clouds 24 1017 47 10000 4.1 180 18:40 19.07.2020
546 Clouds 24 1017 47 10000 4.1 180 18:22 19.07.2020
547 Clouds 24 1017 47 10000 4.1 200 17:43 19.07.2020
548 Clouds 24 1017 47 10000 4.6 190 17:24 19.07.2020
549 Clouds 24 1017 47 10000 4.6 190 16:55 19.07.2020
550 Clouds 24 1017 47 10000 4.6 190 16:37 19.07.2020
551 Clouds 25 1018 50 10000 5.1 190 16:18 19.07.2020
552 Clouds 25 1018 50 10000 4.6 190 15:43 19.07.2020
553 Clouds 26 1018 50 10000 4.6 170 15:23 19.07.2020
554 Clouds 24 1018 50 10000 5.1 190 14:46 19.07.2020
555 Clouds 24 1018 53 10000 4.6 180 14:26 19.07.2020
556 Clouds 24 1018 53 10000 4.6 180 13:54 19.07.2020
557 Clouds 23 1019 57 10000 5.1 190 13:36 19.07.2020
558 Clouds 23 1019 57 10000 5.1 190 13:18 19.07.2020
559 Clouds 22 1019 53 10000 2.1 0 12:40 19.07.2020
560 Clouds 22 1019 53 10000 2.1 0 12:22 19.07.2020
561 Clouds 22 1019 57 10000 3.1 240 11:42 19.07.2020
562 Clouds 22 1019 60 10000 3.1 220 11:23 19.07.2020
563 Clouds 21 1019 56 10000 3.6 260 10:56 19.07.2020
564 Clouds 21 1019 56 10000 3.6 260 10:37 19.07.2020
565 Clouds 22 1019 56 10000 2.6 210 10:19 19.07.2020
566 Clouds 21 1019 64 10000 2.1 170 09:41 19.07.2020
567 Clouds 21 1019 68 10000 2.6 230 09:20 19.07.2020
568 Clouds 20 1019 72 10000 1.5 220 08:42 19.07.2020
569 Clouds 19 1019 72 10000 1.5 230 08:23 19.07.2020
570 Clouds 19 1019 77 10000 2.1 230 07:40 19.07.2020
571 Clouds 18 1020 72 10000 2.1 210 07:22 19.07.2020
572 Clouds 17 1020 77 10000 2.1 230 06:42 19.07.2020
573 Clouds 16 1020 87 10000 0.5 0 06:18 19.07.2020
574 Clouds 15 1020 93 10000 1.69 243 05:50 19.07.2020
575 Clouds 14 1020 93 10000 2.1 240 03:36 19.07.2020
576 Clouds 15 1020 100 10000 2.6 240 02:40 19.07.2020
577 Clouds 15 1020 87 10000 2.1 240 02:21 19.07.2020
578 Clouds 16 1020 87 10000 2.6 250 01:43 19.07.2020
579 Clouds 17 1020 93 10000 2.1 240 00:48 19.07.2020
580 Clouds 17 1020 93 10000 2.6 240 00:21 19.07.2020
581 Clouds 18 1019 82 10000 2.1 230 23:45 18.07.2020
582 Clouds 18 1019 82 10000 3.1 220 23:25 18.07.2020
583 Clouds 19 1019 77 10000 3.1 220 22:46 18.07.2020
584 Clouds 19 1019 77 10000 3.1 220 22:46 18.07.2020
585 Clouds 19 1019 72 10000 3.6 210 22:22 18.07.2020
586 Clouds 19 1019 72 10000 3.6 220 21:56 18.07.2020
587 Clouds 19 1019 72 10000 3.6 220 21:38 18.07.2020
588 Clouds 20 1019 68 10000 3.1 220 21:20 18.07.2020
589 Clouds 21 1018 64 10000 3.6 220 20:42 18.07.2020
590 Clouds 22 1018 60 10000 4.6 220 20:22 18.07.2020
591 Clouds 22 1018 60 10000 4.6 220 19:54 18.07.2020
592 Clouds 23 1018 53 10000 4.6 210 19:36 18.07.2020
593 Clouds 23 1018 53 10000 4.6 210 19:18 18.07.2020
594 Clouds 24 1018 50 10000 5.1 220 18:42 18.07.2020
595 Clouds 24 1018 50 10000 5.1 220 18:19 18.07.2020
596 Clouds 24 1018 53 10000 6.2 230 17:43 18.07.2020
597 Clouds 24 1019 50 10000 6.7 220 17:21 18.07.2020
598 Clouds 24 1019 50 10000 6.7 210 16:57 18.07.2020
599 Clouds 25 1019 53 10000 6.7 220 16:36 18.07.2020
600 Clouds 25 1019 53 10000 6.7 220 16:18 18.07.2020
601 Clouds 24 1019 50 10000 6.2 220 15:44 18.07.2020
602 Clouds 24 1019 47 10000 6.2 210 15:23 18.07.2020
603 Clouds 24 1019 47 10000 6.7 200 14:55 18.07.2020
604 Clouds 24 1019 41 10000 6.7 220 14:37 18.07.2020
605 Clear 24 1019 41 10000 6.7 220 14:18 18.07.2020
606 Clear 24 1019 41 10000 6.7 220 14:18 18.07.2020
607 Clear 24 1019 41 10000 6.7 220 14:18 18.07.2020
608 Clear 24 1019 44 10000 7.7 200 13:41 18.07.2020
609 Clouds 24 1019 50 10000 6.2 210 13:22 18.07.2020
610 Clouds 24 1019 53 10000 5.7 210 12:55 18.07.2020
611 Clouds 23 1019 50 10000 4.6 220 12:37 18.07.2020
612 Clouds 23 1019 50 10000 4.6 220 12:18 18.07.2020
613 Clear 23 1019 53 10000 5.1 210 11:42 18.07.2020
614 Clear 22 1019 49 10000 5.1 240 11:19 18.07.2020
615 Clear 23 1019 49 10000 5.7 220 10:48 18.07.2020
616 Clear 23 1019 49 10000 5.1 230 10:29 18.07.2020
617 Clear 23 1019 49 10000 5.1 230 10:29 18.07.2020
618 Clear 22 1019 49 10000 5.7 230 09:59 18.07.2020
619 Clouds 22 1019 49 10000 5.7 230 09:41 18.07.2020
620 Clouds 22 1019 53 10000 4.1 240 09:21 18.07.2020
621 Clouds 21 1019 60 10000 4.6 250 08:49 18.07.2020
622 Clouds 21 1019 60 10000 4.6 250 08:30 18.07.2020
623 Clouds 19 1019 68 10000 3.1 230 07:48 18.07.2020
624 Clouds 19 1019 68 10000 3.1 230 07:25 18.07.2020
625 Clouds 18 1019 72 10000 2.1 230 06:56 18.07.2020
626 Clouds 17 1019 77 10000 1.5 230 06:37 18.07.2020
627 Clouds 14 1018 100 10000 0.5 0 04:29 18.07.2020
628 Clouds 14 1018 93 10000 1 0 03:32 18.07.2020
629 Clouds 16 1018 93 10000 2.1 260 01:28 18.07.2020
630 Clouds 16 1018 87 10000 2.1 260 00:55 18.07.2020
631 Clouds 17 1018 87 10000 2.1 260 00:34 18.07.2020
632 Clouds 18 1017 82 10000 2.1 240 23:55 17.07.2020
633 Clouds 18 1017 72 10000 3.1 260 23:36 17.07.2020
634 Clouds 19 1017 72 10000 3.1 260 23:18 17.07.2020
635 Clouds 20 1017 68 10000 3.1 250 22:40 17.07.2020
636 Clouds 20 1017 82 10000 2.1 270 22:19 17.07.2020
637 Clouds 20 1017 82 10000 2.6 240 21:57 17.07.2020
638 Clear 20 1017 82 10000 2.6 240 21:39 17.07.2020
639 Clear 21 1016 77 10000 2.1 230 21:19 17.07.2020
640 Clear 22 1016 64 10000 2.1 250 20:43 17.07.2020
641 Clouds 23 1016 53 10000 1.5 290 20:25 17.07.2020
642 Clouds 23 1016 53 10000 2.1 310 19:54 17.07.2020
643 Clouds 24 1016 53 10000 2.1 310 19:36 17.07.2020
644 Clouds 24 1016 53 10000 2.1 310 19:18 17.07.2020
645 Clouds 24 1016 48 10000 0.45 155 18:42 17.07.2020
646 Clouds 23 1016 60 10000 2.6 330 18:24 17.07.2020
647 Rain 23 1016 60 10000 5.1 340 17:43 17.07.2020
648 Rain 24 1016 44 10000 3.6 330 17:25 17.07.2020
649 Rain 25 1015 44 10000 3.1 280 16:44 17.07.2020
650 Clouds 25 1015 44 10000 3.1 300 16:23 17.07.2020
651 Clouds 24 1015 39 10000 4.1 300 15:56 17.07.2020
652 Clouds 25 1016 44 10000 3.1 0 15:37 17.07.2020
653 Clouds 24 1016 44 10000 3.1 0 15:18 17.07.2020
654 Clouds 24 1016 47 10000 4.1 290 14:39 17.07.2020
655 Clouds 25 1016 47 10000 3.6 270 14:20 17.07.2020
656 Clouds 24 1016 47 10000 2.6 320 13:41 17.07.2020
657 Clouds 25 1016 47 10000 3.1 280 13:21 17.07.2020
658 Clouds 26 1015 44 10000 3.1 280 12:57 17.07.2020
659 Clouds 25 1015 47 10000 3.1 270 12:38 17.07.2020
660 Clear 25 1015 47 10000 3.1 270 12:20 17.07.2020
661 Clear 23 1015 47 10000 3.1 320 11:45 17.07.2020
662 Clear 23 1016 46 10000 3.1 350 11:23 17.07.2020
663 Clouds 24 1016 46 10000 3.6 350 10:59 17.07.2020
664 Clouds 24 1016 46 10000 3.6 350 10:41 17.07.2020
665 Clouds 23 1015 49 10000 3.1 310 10:22 17.07.2020
666 Clear 22 1015 49 10000 2.6 310 09:57 17.07.2020
667 Clear 22 1015 53 10000 2.6 300 09:38 17.07.2020
668 Clear 21 1015 53 10000 2.6 300 09:19 17.07.2020
669 Clear 21 1015 60 10000 2.1 280 08:46 17.07.2020
670 Clear 21 1015 64 10000 1.5 310 08:28 17.07.2020
671 Clear 20 1015 68 10000 2.1 350 07:50 17.07.2020
672 Clear 18 1015 72 10000 2.1 330 07:26 17.07.2020
673 Clear 16 1015 77 10000 1.5 330 06:54 17.07.2020
674 Clear 15 1014 82 10000 1.5 330 06:20 17.07.2020
675 Clear 13 1014 93 10000 1.5 310 04:59 17.07.2020
676 Clear 14 1014 82 10000 1 300 02:49 17.07.2020
677 Clear 13 1014 93 10000 2.1 330 01:46 17.07.2020
678 Clear 14 1013 87 10000 2.6 310 00:46 17.07.2020
679 Clear 15 1013 87 10000 2.6 320 00:22 17.07.2020
680 Clear 15 1013 87 10000 3.1 330 23:45 16.07.2020
681 Clear 15 1013 93 10000 2.6 330 23:22 16.07.2020
682 Clear 16 1013 87 10000 2.1 340 22:59 16.07.2020
683 Clear 16 1013 87 10000 2.1 340 22:40 16.07.2020
684 Clouds 17 1013 87 10000 2.6 320 22:22 16.07.2020
685 Clouds 18 1013 82 10000 2.6 300 21:56 16.07.2020
686 Clouds 20 1013 77 10000 2.1 320 21:37 16.07.2020
687 Clouds 20 1013 77 10000 2.1 320 21:19 16.07.2020
688 Clouds 20 1013 77 10000 2.1 320 21:19 16.07.2020
689 Clouds 20 1013 64 10000 2.1 320 20:56 16.07.2020
690 Clouds 20 1013 64 10000 2.1 320 20:38 16.07.2020
691 Clouds 21 1013 49 10000 2.6 350 20:20 16.07.2020
692 Clouds 22 1012 46 10000 3.1 360 19:47 16.07.2020
693 Clouds 23 1012 49 10000 3.1 10 19:27 16.07.2020
694 Clouds 23 1012 46 10000 2.1 350 18:48 16.07.2020
695 Clouds 23 1012 49 10000 4.1 360 18:26 16.07.2020
696 Clouds 23 1012 43 10000 3.6 330 17:59 16.07.2020
697 Clouds 23 1012 43 10000 3.6 330 17:38 16.07.2020
698 Clouds 23 1013 46 10000 3.1 350 17:19 16.07.2020
699 Clouds 23 1012 38 10000 4.02 3 16:57 16.07.2020
700 Clouds 23 1012 46 10000 5.7 360 16:39 16.07.2020
701 Clouds 23 1012 38 10000 4.02 342 16:20 16.07.2020
702 Clouds 23 1012 46 10000 4.6 330 15:45 16.07.2020
703 Clouds 23 1012 46 10000 4.1 350 15:27 16.07.2020
704 Clouds 23 1012 49 10000 3.6 360 14:57 16.07.2020
705 Clouds 23 1012 49 10000 3.6 360 14:37 16.07.2020
706 Clouds 23 1012 49 10000 4.1 340 14:19 16.07.2020
707 Clouds 23 1012 49 10000 4.1 340 14:19 16.07.2020
708 Clouds 22 1013 52 10000 4.1 340 13:42 16.07.2020
709 Clouds 23 1012 49 10000 4.1 360 13:23 16.07.2020
710 Clouds 22 1012 43 10000 4.1 330 12:59 16.07.2020
711 Clear 22 1012 46 10000 4.6 330 12:41 16.07.2020
712 Clear 22 1012 46 10000 4.6 330 12:19 16.07.2020
713 Clear 22 1012 46 10000 4.6 330 12:19 16.07.2020
714 Clear 22 1013 46 10000 5.7 310 11:39 16.07.2020
715 Clear 22 1013 46 10000 5.1 350 11:19 16.07.2020
716 Clear 22 1013 49 10000 5.1 330 10:59 16.07.2020
717 Clear 22 1013 49 10000 5.1 330 10:39 16.07.2020
718 Clouds 21 1013 49 10000 4.6 350 10:20 16.07.2020
719 Clouds 21 1013 49 10000 4.6 350 10:20 16.07.2020
720 Clouds 21 1013 46 10000 2.6 350 09:49 16.07.2020
721 Clouds 20 1013 56 10000 3.1 330 09:30 16.07.2020
722 Clouds 20 1013 56 10000 2.6 330 08:58 16.07.2020
723 Clouds 20 1013 56 10000 2.6 330 08:39 16.07.2020
724 Clouds 20 1013 56 10000 2.6 330 08:39 16.07.2020
725 Clouds 19 1013 59 10000 2.6 340 08:20 16.07.2020
726 Clouds 18 1013 63 10000 1.5 360 07:42 16.07.2020
727 Clouds 16 1013 72 10000 1.5 360 07:23 16.07.2020
728 Clouds 15 1013 87 10000 1.5 340 06:46 16.07.2020
729 Clouds 14 1013 87 10000 1.5 340 06:20 16.07.2020
730 Clouds 13 1013 87 10000 1.5 330 05:54 16.07.2020
731 Fog 11 1013 93 10000 1.5 340 05:21 16.07.2020
732 Clouds 12 1013 93 10000 2.1 310 03:57 16.07.2020
733 Clouds 12 1013 93 10000 2.1 310 03:35 16.07.2020
734 Clouds 12 1013 87 10000 1.5 320 02:36 16.07.2020
735 Clouds 13 1013 81 10000 1 330 01:59 16.07.2020
736 Clouds 13 1013 76 10000 2.1 310 01:39 16.07.2020
737 Clouds 12 1013 81 10000 1.5 320 00:50 16.07.2020
738 Clouds 14 1013 81 10000 1.5 310 00:29 16.07.2020
739 Clouds 14 1013 87 10000 1.5 310 23:57 15.07.2020
740 Clouds 14 1013 87 10000 1.5 310 23:38 15.07.2020
741 Clouds 14 1013 82 10000 1 0 23:19 15.07.2020
742 Clouds 15 1013 76 10000 1.5 280 22:41 15.07.2020
743 Clouds 16 1013 77 10000 2.1 260 22:20 15.07.2020
744 Clouds 17 1013 67 10000 2.6 250 21:59 15.07.2020
745 Clouds 17 1013 67 10000 2.6 250 21:41 15.07.2020
746 Clouds 18 1013 52 10000 2.6 240 21:23 15.07.2020
747 Clouds 19 1013 48 10000 3.6 240 20:59 15.07.2020
748 Clouds 20 1013 45 10000 2.6 240 20:39 15.07.2020
749 Clouds 20 1013 45 10000 2.6 240 20:21 15.07.2020
750 Clouds 20 1013 40 10000 2.1 210 19:58 15.07.2020
751 Clouds 20 1013 45 10000 3.1 220 19:39 15.07.2020
752 Clouds 21 1013 45 10000 3.1 220 19:20 15.07.2020
753 Clouds 21 1013 43 10000 4.1 220 18:58 15.07.2020
754 Clouds 21 1014 43 10000 4.1 210 18:38 15.07.2020
755 Clouds 21 1014 43 10000 4.1 210 18:19 15.07.2020
756 Clouds 21 1014 40 10000 4.1 200 17:54 15.07.2020
757 Clouds 21 1014 40 10000 4.1 200 17:36 15.07.2020
758 Clouds 21 1014 43 10000 4.1 200 17:18 15.07.2020
759 Clouds 21 1014 43 10000 3.6 190 16:41 15.07.2020
760 Clouds 21 1014 43 10000 3.6 190 16:22 15.07.2020
761 Clouds 21 1015 46 10000 3.1 200 15:57 15.07.2020
762 Clouds 21 1015 46 10000 3.1 200 15:39 15.07.2020
763 Clouds 21 1015 46 10000 4.1 170 15:21 15.07.2020
764 Clouds 21 1015 56 10000 3.6 100 14:43 15.07.2020
765 Clouds 21 1015 46 10000 0.5 0 14:21 15.07.2020
766 Clouds 21 1015 40 10000 1.5 140 13:59 15.07.2020
767 Clouds 21 1015 40 10000 1.5 140 13:41 15.07.2020
768 Clouds 20 1015 45 10000 1.5 140 13:21 15.07.2020
769 Clouds 20 1015 43 10000 1.5 0 12:42 15.07.2020
770 Clouds 20 1015 45 10000 1.5 290 12:22 15.07.2020
771 Clouds 19 1015 49 10000 1 0 11:58 15.07.2020
772 Clouds 20 1015 49 10000 2.1 220 11:39 15.07.2020
773 Clouds 20 1015 49 10000 2.1 220 11:20 15.07.2020
774 Clouds 20 1015 52 10000 2.1 0 10:56 15.07.2020
775 Clouds 19 1015 52 10000 2.6 250 10:38 15.07.2020
776 Clouds 19 1015 52 10000 2.6 250 10:20 15.07.2020
777 Clouds 18 1015 55 10000 2.1 260 09:43 15.07.2020
778 Clouds 18 1015 63 10000 1.5 280 09:25 15.07.2020
779 Clouds 17 1015 59 10000 1 0 08:48 15.07.2020
780 Clear 18 1015 63 10000 1.5 320 08:28 15.07.2020
781 Clear 17 1015 63 10000 1 0 07:52 15.07.2020
782 Clear 16 1015 72 10000 1 0 07:28 15.07.2020
783 Clear 14 1016 82 10000 1 0 06:47 15.07.2020
784 Clear 12 1015 87 10000 0.8 13 06:26 15.07.2020
785 Clear 10 1015 93 10000 0.5 0 05:51 15.07.2020
786 Clear 10 1015 93 10000 1.75 357 04:29 15.07.2020
787 Clear 9 1015 93 10000 1.5 290 03:42 15.07.2020
788 Clouds 10 1015 93 10000 0.5 340 01:57 15.07.2020
789 Clouds 10 1015 93 10000 0.5 340 01:39 15.07.2020
790 Clouds 11 1015 93 10000 1 320 00:58 15.07.2020
791 Clouds 12 1015 87 10000 0.5 0 00:36 15.07.2020
792 Clouds 12 1015 87 10000 0.5 0 00:18 15.07.2020
793 Clouds 12 1015 93 10000 1 0 23:38 14.07.2020
794 Clouds 12 1015 93 10000 1 0 23:20 14.07.2020
795 Clouds 14 1015 76 10000 2.1 240 22:39 14.07.2020
796 Clouds 15 1015 77 10000 2.6 230 22:19 14.07.2020
797 Clouds 16 1015 72 10000 2.6 230 21:55 14.07.2020
798 Clouds 16 1015 72 10000 2.6 230 21:37 14.07.2020
799 Clouds 17 1015 67 10000 2.6 230 21:19 14.07.2020
800 Clouds 17 1015 63 10000 3.1 230 20:42 14.07.2020
801 Clouds 18 1015 55 10000 4.1 230 20:22 14.07.2020
802 Clouds 18 1015 52 10000 4.1 240 19:56 14.07.2020
803 Clouds 18 1015 52 10000 4.1 240 19:38 14.07.2020
804 Clouds 19 1015 55 10000 5.1 210 19:20 14.07.2020
805 Clouds 19 1014 55 10000 4.6 210 18:44 14.07.2020
806 Clouds 19 1014 55 10000 5.7 230 18:20 14.07.2020
807 Clouds 19 1014 52 10000 5.1 230 17:58 14.07.2020
808 Clouds 19 1014 52 10000 5.1 230 17:40 14.07.2020
809 Clouds 19 1014 55 10000 4.6 230 17:21 14.07.2020
810 Clouds 19 1014 52 10000 5.1 220 16:55 14.07.2020
811 Clouds 19 1014 52 10000 5.1 220 16:37 14.07.2020
812 Clouds 19 1015 59 10000 5.1 220 16:18 14.07.2020
813 Clouds 19 1015 59 10000 6.2 210 15:42 14.07.2020
814 Clouds 19 1014 63 10000 5.7 210 15:22 14.07.2020
815 Clouds 19 1015 55 10000 5.1 210 14:57 14.07.2020
816 Clouds 19 1015 55 10000 5.1 210 14:39 14.07.2020
817 Clouds 18 1015 52 10000 4.1 220 14:18 14.07.2020
818 Clouds 19 1015 55 10000 4.1 230 13:41 14.07.2020
819 Clouds 18 1015 48 10000 2.6 240 13:22 14.07.2020
820 Clouds 18 1015 52 10000 4.6 260 12:55 14.07.2020
821 Clouds 18 1015 52 10000 4.6 260 12:36 14.07.2020
822 Clouds 18 1015 52 10000 4.6 260 12:18 14.07.2020
823 Clouds 18 1015 55 10000 5.1 250 11:41 14.07.2020
824 Clouds 17 1015 52 10000 4.6 240 11:19 14.07.2020
825 Clouds 16 1015 59 10000 4.6 260 10:43 14.07.2020
826 Clouds 16 1015 59 10000 5.1 260 10:25 14.07.2020
827 Clouds 16 1014 67 10000 4.1 240 09:58 14.07.2020
828 Clouds 16 1015 67 10000 3.1 230 09:37 14.07.2020
829 Clouds 15 1015 67 10000 3.1 230 09:19 14.07.2020
830 Clouds 14 1015 72 10000 3.6 250 08:43 14.07.2020
831 Clear 14 1015 71 10000 3.6 250 08:23 14.07.2020
832 Clear 13 1015 76 10000 2.6 250 07:56 14.07.2020
833 Clear 13 1014 81 10000 2.6 260 07:37 14.07.2020
834 Clear 12 1014 81 10000 2.6 260 07:18 14.07.2020
835 Clear 10 1014 87 10000 2.6 280 06:36 14.07.2020
836 Clear 10 1014 87 10000 2.6 280 06:18 14.07.2020
837 Clear 9 1014 100 10000 3.1 280 05:22 14.07.2020
838 Clear 9 1014 93 10000 2.6 290 04:35 14.07.2020
839 Clear 9 1014 93 10000 3.1 290 03:34 14.07.2020
840 Fog 10 1014 100 10000 3.1 270 02:41 14.07.2020
841 Fog 10 1014 100 10000 1.5 260 01:58 14.07.2020
842 Clouds 10 1013 93 10000 1.5 250 01:24 14.07.2020
843 Rain 10 1013 93 10000 1.5 240 00:48 14.07.2020
844 Rain 11 1013 100 10000 4.1 150 00:28 14.07.2020
845 Rain 12 1013 93 10000 2.1 160 23:57 13.07.2020
846 Rain 11 1014 100 5000 1.5 200 23:36 13.07.2020
847 Rain 11 1014 100 5000 1.5 200 23:18 13.07.2020
848 Rain 13 1013 93 10000 2.1 150 22:40 13.07.2020
849 Rain 13 1014 93 10000 1.5 20 22:21 13.07.2020
850 Thunderstorm 13 1013 100 10000 0.5 0 21:56 13.07.2020
851 Thunderstorm 13 1013 100 10000 0.5 0 21:38 13.07.2020
852 Rain 14 1013 93 10000 1 40 21:19 13.07.2020
853 Rain 14 1013 93 10000 1 0 20:57 13.07.2020
854 Rain 14 1013 93 10000 1 0 20:38 13.07.2020
855 Clouds 14 1014 87 10000 1 0 20:19 13.07.2020
856 Clouds 14 1014 87 10000 1 0 20:19 13.07.2020
857 Clouds 15 1014 76 10000 2.6 350 19:43 13.07.2020
858 Clouds 16 1014 77 10000 2.6 350 19:25 13.07.2020
859 Rain 16 1014 82 10000 3.6 340 18:59 13.07.2020
860 Rain 16 1014 82 10000 3.6 340 18:40 13.07.2020
861 Rain 16 1014 87 10000 2.6 330 18:21 13.07.2020
862 Rain 16 1014 82 10000 4.1 240 17:56 13.07.2020
863 Rain 16 1014 82 10000 4.1 240 17:56 13.07.2020
864 Rain 16 1014 76 10000 5.7 220 17:37 13.07.2020
865 Rain 16 1014 76 10000 5.7 220 17:19 13.07.2020
866 Rain 16 1013 77 10000 4.6 210 16:55 13.07.2020
867 Rain 15 1013 77 10000 4.6 210 16:36 13.07.2020
868 Rain 16 1014 67 10000 3.6 180 16:18 13.07.2020
869 Rain 17 1014 67 10000 5.1 210 15:41 13.07.2020
870 Rain 18 1014 59 10000 4.1 220 15:21 13.07.2020
871 Rain 18 1014 59 10000 3.1 200 14:59 13.07.2020
872 Rain 18 1014 59 10000 3.1 200 14:39 13.07.2020
873 Rain 18 1014 63 10000 3.1 180 14:21 13.07.2020
874 Rain 17 1014 67 10000 3.6 180 13:56 13.07.2020
875 Rain 16 1014 72 10000 2.6 160 13:38 13.07.2020
876 Rain 16 1014 72 10000 2.6 160 13:20 13.07.2020
877 Rain 15 1015 82 10000 2.1 240 12:43 13.07.2020
878 Rain 15 1015 82 10000 2.1 240 12:23 13.07.2020
879 Rain 15 1014 75 0 1.34 278 11:58 13.07.2020
880 Rain 14 1015 81 10000 3.6 260 11:38 13.07.2020
881 Rain 15 1014 72 10000 5.7 310 11:19 13.07.2020
882 Rain 16 1015 63 10000 3.6 270 10:38 13.07.2020
883 Rain 16 1015 67 10000 2.1 220 10:20 13.07.2020
884 Thunderstorm 16 1015 72 10000 1 0 09:43 13.07.2020
885 Clouds 15 1015 87 10000 1.5 220 09:25 13.07.2020
886 Clouds 14 1015 87 10000 1 0 08:53 13.07.2020
887 Clouds 14 1015 87 10000 1 0 08:34 13.07.2020
888 Mist 13 1015 93 5000 0.5 0 07:44 13.07.2020
889 Fog 13 1015 100 1200 1.5 350 07:20 13.07.2020
890 Mist 12 1015 100 1000 1 0 06:44 13.07.2020
891 Fog 12 1015 100 500 2.1 300 06:22 13.07.2020
892 Clouds 11 1015 93 10000 1 250 04:43 13.07.2020
893 Clouds 11 1015 100 10000 1.5 220 01:57 13.07.2020
894 Clear 11 1015 93 10000 1.5 230 01:29 13.07.2020
895 Clear 12 1015 93 10000 1.5 220 00:59 13.07.2020
896 Clear 13 1015 87 10000 2.1 220 00:27 13.07.2020
897 Clouds 13 1015 93 10000 3.1 210 23:58 12.07.2020
898 Clouds 13 1015 93 10000 3.1 210 23:40 12.07.2020
899 Clouds 13 1015 87 10000 3.1 200 23:21 12.07.2020
900 Clouds 14 1015 82 10000 4.1 210 22:54 12.07.2020
901 Clouds 14 1015 82 10000 3.1 220 22:36 12.07.2020
902 Clouds 15 1015 82 10000 3.1 220 22:18 12.07.2020
903 Clouds 15 1015 82 10000 3.1 220 21:41 12.07.2020
904 Clouds 16 1015 72 10000 4.1 230 21:20 12.07.2020
905 Clouds 16 1015 55 10000 4.1 240 20:58 12.07.2020
906 Clouds 16 1015 55 10000 4.1 240 20:40 12.07.2020
907 Clouds 17 1015 59 10000 4.6 230 20:20 12.07.2020
908 Clouds 17 1015 63 10000 5.1 210 19:55 12.07.2020
909 Clouds 18 1014 59 10000 5.1 220 19:37 12.07.2020
910 Clouds 18 1014 59 10000 5.1 220 19:18 12.07.2020
911 Clouds 17 1014 55 10000 4.6 210 18:42 12.07.2020
912 Clouds 19 1015 52 10000 5.1 220 18:20 12.07.2020
913 Clouds 18 1014 48 10000 6.7 200 17:58 12.07.2020
914 Clouds 18 1014 48 10000 6.7 200 17:37 12.07.2020
915 Clouds 18 1015 48 10000 6.2 200 17:19 12.07.2020
916 Clouds 19 1015 42 10000 6.2 210 16:44 12.07.2020
917 Clouds 19 1015 49 10000 6.7 220 16:20 12.07.2020
918 Clouds 19 1015 55 10000 6.7 230 15:43 12.07.2020
919 Clouds 19 1015 55 10000 6.7 230 15:25 12.07.2020
920 Clouds 19 1015 49 10000 7.2 200 14:46 12.07.2020
921 Clouds 19 1015 49 10000 6.7 200 14:27 12.07.2020
922 Clouds 19 1015 45 10000 7.2 200 13:57 12.07.2020
923 Clouds 19 1015 45 10000 7.2 200 13:39 12.07.2020
924 Rain 19 1015 60 10000 6.7 180 13:20 12.07.2020
925 Rain 18 1015 59 10000 6.7 180 12:54 12.07.2020
926 Rain 18 1015 59 10000 6.7 180 12:54 12.07.2020
927 Rain 18 1015 68 10000 4.6 200 12:36 12.07.2020
928 Rain 18 1015 68 10000 4.6 200 12:18 12.07.2020
929 Rain 18 1015 59 10000 3.6 180 11:42 12.07.2020
930 Clouds 17 1015 55 10000 4.1 180 11:19 12.07.2020
931 Clouds 16 1015 52 10000 2.6 200 10:42 12.07.2020
932 Clouds 16 1015 52 10000 2.6 200 10:42 12.07.2020
933 Clouds 17 1015 48 10000 2.6 220 10:22 12.07.2020
934 Clouds 16 1015 55 10000 3.1 210 09:54 12.07.2020
935 Clouds 16 1015 63 10000 2.6 220 09:36 12.07.2020
936 Clouds 16 1015 63 10000 2.6 220 09:18 12.07.2020
937 Clouds 16 1015 63 10000 2.1 210 08:41 12.07.2020
938 Clear 15 1015 72 10000 2.6 230 08:22 12.07.2020
939 Clear 15 1015 72 10000 1.5 0 07:56 12.07.2020
940 Clear 14 1015 87 10000 1.5 230 07:36 12.07.2020
941 Clear 13 1015 87 10000 1.5 230 07:18 12.07.2020
942 Clear 12 1015 93 10000 1 0 06:48 12.07.2020
943 Clear 11 1014 93 10000 1.5 220 06:19 12.07.2020
944 Fog 9 1014 93 7000 2.32 284 05:22 12.07.2020
945 Fog 9 1014 100 10000 1 0 04:29 12.07.2020
946 Fog 9 1014 100 10000 1.5 240 03:53 12.07.2020
947 Fog 9 1014 100 10000 1.5 240 03:31 12.07.2020
948 Fog 9 1014 100 10000 0.5 0 03:31 12.07.2020
949 Clouds 9 1014 100 10000 1.5 220 02:45 12.07.2020
950 Fog 10 1013 100 10000 1.5 230 01:36 12.07.2020
951 Clouds 11 1013 100 10000 2.1 240 00:41 12.07.2020
952 Clouds 12 1013 93 10000 2.1 240 00:22 12.07.2020
953 Clouds 12 1012 93 10000 2.1 250 23:55 11.07.2020
954 Clouds 12 1012 93 10000 2.6 230 23:37 11.07.2020
955 Clouds 12 1012 93 10000 2.6 230 23:18 11.07.2020
956 Clouds 13 1012 87 10000 2.6 240 22:44 11.07.2020
957 Clouds 13 1012 87 10000 3.1 250 22:25 11.07.2020
958 Clouds 13 1012 82 10000 4.1 240 21:57 11.07.2020
959 Clouds 13 1012 82 10000 4.1 240 21:38 11.07.2020
960 Clouds 13 1011 82 10000 4.1 260 21:20 11.07.2020
961 Clouds 14 1011 76 10000 4.6 260 20:55 11.07.2020
962 Clouds 14 1011 76 10000 4.6 260 20:37 11.07.2020
963 Clouds 14 1010 76 10000 6.2 270 20:18 11.07.2020
964 Clouds 15 1010 77 10000 5.7 260 19:48 11.07.2020
965 Clouds 15 1009 77 10000 5.7 270 19:30 11.07.2020
966 Clouds 15 1008 82 10000 6.2 280 18:58 11.07.2020
967 Clouds 15 1008 82 10000 5.7 290 18:39 11.07.2020
968 Clouds 15 1008 82 10000 5.7 290 18:21 11.07.2020
969 Clouds 15 1007 82 10000 5.7 270 17:57 11.07.2020
970 Clouds 15 1007 82 10000 5.7 270 17:38 11.07.2020
971 Clouds 15 1006 82 10000 6.2 290 17:19 11.07.2020
972 Clouds 15 1005 82 10000 6.7 310 16:56 11.07.2020
973 Clouds 15 1004 87 10000 5.7 310 16:36 11.07.2020
974 Clouds 15 1004 87 10000 5.7 310 16:36 11.07.2020
975 Clouds 15 1004 87 10000 5.7 310 16:18 11.07.2020
976 Clouds 14 1003 93 10000 7.2 320 15:41 11.07.2020
977 Clouds 14 1002 87 10000 7.2 340 15:21 11.07.2020
978 Clouds 14 1002 87 10000 7.2 340 15:21 11.07.2020
979 Clouds 14 1001 93 10000 8.7 340 14:58 11.07.2020
980 Rain 14 1000 100 7000 7.7 330 14:39 11.07.2020
981 Rain 14 1000 100 7000 7.7 330 14:20 11.07.2020
982 Rain 14 1000 100 3000 4.1 350 13:43 11.07.2020
983 Rain 15 999 93 10000 1.5 0 13:22 11.07.2020
984 Rain 15 999 93 2000 2.6 40 12:58 11.07.2020
985 Rain 15 999 93 2000 2.6 40 12:40 11.07.2020
986 Rain 14 999 100 8000 3.1 20 12:21 11.07.2020
987 Rain 14 999 93 7000 4.1 30 11:56 11.07.2020
988 Rain 14 999 93 7000 4.1 30 11:38 11.07.2020
989 Rain 14 999 93 7000 3.6 50 11:18 11.07.2020
990 Rain 14 999 100 4500 3.6 100 10:41 11.07.2020
991 Rain 14 999 93 4000 6.2 60 10:23 11.07.2020
992 Rain 13 1000 100 7000 5.7 50 09:45 11.07.2020
993 Rain 13 1000 93 10000 4.6 50 09:21 11.07.2020
994 Rain 13 1001 93 7000 5.7 40 08:55 11.07.2020
995 Rain 13 1001 93 4500 5.7 30 08:36 11.07.2020
996 Rain 13 1001 93 4500 5.7 30 08:18 11.07.2020
997 Rain 13 1002 93 10000 5.1 40 07:40 11.07.2020
998 Rain 13 1002 93 10000 5.1 40 07:20 11.07.2020
999 Rain 13 1003 93 8000 3.6 40 06:53 11.07.2020
1000 Rain 13 1004 93 10000 3.6 40 06:20 11.07.2020
1001 Rain 13 1005 93 10000 3.1 40 05:21 11.07.2020
1002 Rain 13 1005 93 10000 3.1 40 04:55 11.07.2020
1003 Clouds 13 1006 87 10000 2.6 60 04:31 11.07.2020
1004 Clouds 13 1007 93 10000 2.1 50 02:59 11.07.2020
1005 Clouds 13 1007 93 10000 2.1 50 02:36 11.07.2020
1006 Clouds 11 1008 93 10000 1.5 60 01:32 11.07.2020
1007 Clouds 12 1008 93 10000 2.1 50 00:59 11.07.2020
1008 Clouds 12 1008 93 10000 2.1 50 00:40 11.07.2020
1009 Clouds 12 1008 100 10000 1 0 00:21 11.07.2020
1010 Clouds 13 1008 93 10000 1 80 23:57 10.07.2020
1011 Clouds 13 1008 93 10000 1 80 23:38 10.07.2020
1012 Clouds 13 1008 93 10000 1 80 23:38 10.07.2020
1013 Clouds 13 1009 93 10000 2.1 70 23:18 10.07.2020
1014 Clouds 14 1009 82 10000 2.1 110 22:43 10.07.2020
1015 Clouds 14 1009 82 10000 2.1 110 22:19 10.07.2020
1016 Clouds 15 1009 67 10000 3.1 120 21:41 10.07.2020
1017 Clouds 15 1009 67 10000 3.1 120 21:21 10.07.2020
1018 Clouds 15 1009 67 10000 3.1 120 20:59 10.07.2020
1019 Clouds 16 1009 67 10000 3.1 150 20:41 10.07.2020
1020 Clouds 16 1009 63 10000 3.1 120 20:21 10.07.2020
1021 Clouds 17 1009 59 10000 4.1 150 19:57 10.07.2020
1022 Clouds 17 1009 59 10000 4.1 150 19:39 10.07.2020
1023 Clouds 17 1010 59 10000 4.1 160 19:20 10.07.2020
1024 Clouds 17 1009 55 10000 4.1 170 18:41 10.07.2020
1025 Clouds 17 1009 55 10000 4.6 160 18:20 10.07.2020
1026 Clouds 17 1009 55 10000 4.1 180 17:57 10.07.2020
1027 Clouds 18 1009 55 10000 4.1 180 17:38 10.07.2020
1028 Clouds 18 1010 52 10000 4.1 170 17:20 10.07.2020
1029 Clouds 18 1010 59 10000 4.6 160 16:42 10.07.2020
1030 Clouds 18 1010 55 10000 5.1 160 16:20 10.07.2020
1031 Clouds 19 1010 45 10000 4.6 160 15:47 10.07.2020
1032 Clouds 19 1010 48 10000 5.7 170 15:25 10.07.2020
1033 Clouds 18 1010 52 10000 6.2 190 14:55 10.07.2020
1034 Clouds 18 1010 52 10000 6.2 190 14:37 10.07.2020
1035 Clouds 19 1010 48 10000 6.2 180 14:19 10.07.2020
1036 Clouds 18 1010 45 10000 6.2 190 13:57 10.07.2020
1037 Clouds 18 1010 45 10000 6.2 190 13:38 10.07.2020
1038 Clear 18 1010 45 10000 6.2 170 13:20 10.07.2020
1039 Clear 18 1010 39 10000 6.7 170 12:44 10.07.2020
1040 Clouds 18 1010 52 10000 6.7 180 12:25 10.07.2020
1041 Clouds 17 1010 45 10000 6.7 170 11:59 10.07.2020
1042 Clouds 17 1010 52 10000 6.2 180 11:38 10.07.2020
1043 Clouds 17 1010 52 10000 6.2 180 11:38 10.07.2020
1044 Clouds 17 1010 63 10000 5.1 180 11:19 10.07.2020
1045 Clouds 17 1010 63 10000 5.1 180 10:55 10.07.2020
1046 Clouds 16 1011 67 10000 4.6 180 10:36 10.07.2020
1047 Clouds 16 1011 67 10000 4.6 180 10:18 10.07.2020
1048 Clouds 15 1011 67 10000 4.6 180 09:38 10.07.2020
1049 Clouds 15 1011 67 10000 4.6 180 09:20 10.07.2020
1050 Clouds 15 1011 67 10000 5.1 200 08:58 10.07.2020
1051 Clouds 15 1011 67 10000 5.1 200 08:39 10.07.2020
1052 Clouds 15 1011 72 10000 4.6 210 08:21 10.07.2020
1053 Clouds 14 1011 72 10000 6.2 210 07:42 10.07.2020
1054 Clouds 14 1011 82 10000 5.7 210 07:22 10.07.2020
1055 Clouds 14 1011 87 10000 4.6 200 06:51 10.07.2020
1056 Clouds 13 1010 87 10000 3.6 190 06:24 10.07.2020
1057 Fog 11 1011 100 10000 1.5 200 04:43 10.07.2020
1058 Rain 11 1011 93 10000 2.6 190 03:38 10.07.2020
1059 Clouds 12 1010 93 10000 2.6 210 02:52 10.07.2020
1060 Rain 11 1010 93 10000 2.6 210 01:50 10.07.2020
1061 Clear 11 1010 87 10000 3.6 210 00:48 10.07.2020
1062 Clear 11 1010 87 10000 3.6 210 00:20 10.07.2020
1063 Clear 11 1010 81 10000 4.1 210 23:46 09.07.2020
1064 Clouds 12 1010 81 10000 3.1 220 23:23 09.07.2020
1065 Clouds 12 1010 76 10000 3.1 230 22:59 09.07.2020
1066 Clouds 12 1010 76 10000 3.1 230 22:41 09.07.2020
1067 Clouds 13 1009 76 10000 3.6 240 22:21 09.07.2020
1068 Clouds 13 1009 71 10000 4.1 230 21:56 09.07.2020
1069 Clouds 14 1009 67 10000 4.6 240 21:38 09.07.2020
1070 Clouds 14 1009 67 10000 4.6 240 21:19 09.07.2020
1071 Clouds 14 1009 67 10000 5.1 250 20:45 09.07.2020
1072 Clouds 15 1009 71 10000 5.1 250 20:25 09.07.2020
1073 Clouds 15 1008 72 10000 4.6 250 19:58 09.07.2020
1074 Clouds 15 1008 72 10000 4.6 250 19:40 09.07.2020
1075 Rain 15 1008 76 10000 5.1 280 19:21 09.07.2020
1076 Rain 15 1008 67 10000 8.2 240 18:42 09.07.2020
1077 Rain 15 1008 72 10000 6.2 230 18:22 09.07.2020
1078 Rain 15 1008 72 10000 6.2 230 18:22 09.07.2020
1079 Rain 15 1008 67 10000 5.7 250 17:56 09.07.2020
1080 Rain 15 1008 67 10000 5.7 250 17:37 09.07.2020
1081 Rain 15 1008 67 10000 5.1 230 17:19 09.07.2020
1082 Rain 15 1008 72 10000 4.1 220 16:55 09.07.2020
1083 Rain 15 1008 72 10000 4.1 220 16:37 09.07.2020
1084 Rain 15 1008 71 10000 1 0 16:18 09.07.2020
1085 Rain 15 1008 82 10000 2.6 290 15:46 09.07.2020
1086 Rain 16 1008 72 10000 6.2 230 15:28 09.07.2020
1087 Rain 16 1007 59 10000 5.7 210 14:59 09.07.2020
1088 Rain 16 1007 59 10000 5.7 210 14:41 09.07.2020
1089 Rain 17 1007 55 10000 5.7 220 14:23 09.07.2020
1090 Rain 17 1007 51 10000 5.7 220 13:59 09.07.2020
1091 Rain 17 1007 51 10000 5.7 220 13:41 09.07.2020
1092 Rain 16 1007 55 10000 5.7 220 13:20 09.07.2020
1093 Rain 16 1007 63 10000 5.1 240 12:57 09.07.2020
1094 Clouds 17 1007 63 10000 4.1 250 12:39 09.07.2020
1095 Clouds 17 1007 63 10000 4.1 250 12:20 09.07.2020
1096 Rain 15 1007 76 10000 6.7 280 11:44 09.07.2020
1097 Rain 15 1007 58 10000 5.1 200 11:26 09.07.2020
1098 Clouds 15 1007 67 10000 4.1 210 10:59 09.07.2020
1099 Clouds 15 1007 67 10000 4.1 210 10:41 09.07.2020
1100 Clouds 15 1007 72 10000 3.6 230 10:23 09.07.2020
1101 Rain 13 1007 81 10000 0.5 0 09:58 09.07.2020
1102 Rain 13 1007 81 10000 0.5 0 09:39 09.07.2020
1103 Rain 13 1007 93 8000 1.5 170 09:21 09.07.2020
1104 Rain 14 1007 87 7000 4.6 280 08:43 09.07.2020
1105 Rain 13 1007 71 10000 3.6 190 08:24 09.07.2020
1106 Rain 14 1007 76 10000 4.6 170 07:47 09.07.2020
1107 Rain 13 1007 71 10000 4.6 190 07:22 09.07.2020
1108 Clouds 13 1007 67 10000 3.6 180 06:50 09.07.2020
1109 Rain 12 1007 71 10000 4.1 180 06:19 09.07.2020
1110 Rain 10 1006 81 10000 3.1 190 04:29 09.07.2020
1111 Rain 10 1006 76 10000 3.6 190 03:32 09.07.2020
1112 Clouds 11 1006 81 10000 3.6 180 02:19 09.07.2020
1113 Clouds 11 1006 81 10000 3.6 180 01:32 09.07.2020
1114 Clouds 11 1006 81 10000 3.6 180 01:32 09.07.2020
1115 Clouds 11 1006 81 10000 3.1 170 00:47 09.07.2020
1116 Clear 12 1006 76 10000 3.6 180 00:23 09.07.2020
1117 Clouds 11 1006 81 10000 3.6 150 23:46 08.07.2020
1118 Clouds 11 1006 87 10000 3.6 140 23:27 08.07.2020
1119 Clear 12 1006 81 10000 4.1 150 22:58 08.07.2020
1120 Clear 12 1006 81 10000 4.1 150 22:39 08.07.2020
1121 Clear 13 1006 76 10000 4.1 160 22:21 08.07.2020
1122 Clear 13 1006 76 10000 4.1 150 21:58 08.07.2020
1123 Clear 13 1006 76 10000 4.1 150 21:38 08.07.2020
1124 Clouds 13 1006 76 10000 3.6 170 21:20 08.07.2020
1125 Clear 14 1006 71 10000 4.1 170 20:45 08.07.2020
1126 Clouds 14 1006 71 10000 4.6 170 20:26 08.07.2020
1127 Clouds 14 1006 71 10000 4.6 190 19:58 08.07.2020
1128 Clouds 15 1006 71 10000 4.6 190 19:40 08.07.2020
1129 Clouds 15 1006 62 10000 4.6 180 19:21 08.07.2020
1130 Clouds 14 1006 67 10000 5.1 180 18:55 08.07.2020
1131 Clouds 14 1006 67 10000 5.1 180 18:55 08.07.2020
1132 Clouds 15 1006 67 10000 4.1 190 18:36 08.07.2020
1133 Clouds 15 1006 67 10000 4.1 190 18:18 08.07.2020
1134 Clouds 15 1006 67 10000 4.1 190 18:18 08.07.2020
1135 Clouds 15 1006 62 10000 4.1 210 17:54 08.07.2020
1136 Clouds 15 1006 62 10000 4.1 210 17:54 08.07.2020
1137 Clouds 14 1006 67 10000 4.6 240 17:36 08.07.2020
1138 Clouds 14 1006 67 10000 4.6 240 17:18 08.07.2020
1139 Rain 15 1006 58 10000 4.6 200 16:38 08.07.2020
1140 Rain 15 1006 62 10000 5.7 200 16:20 08.07.2020
1141 Clouds 15 1006 63 10000 6.2 210 15:58 08.07.2020
1142 Clouds 15 1006 63 10000 6.2 210 15:39 08.07.2020
1143 Thunderstorm 16 1005 59 10000 5.7 190 15:19 08.07.2020
1144 Rain 16 1005 72 10000 4.6 240 14:44 08.07.2020
1145 Rain 16 1005 63 10000 7.7 210 14:25 08.07.2020
1146 Rain 16 1005 59 10000 7.2 190 13:58 08.07.2020
1147 Rain 16 1005 59 10000 7.2 190 13:40 08.07.2020
1148 Rain 16 1005 55 10000 5.7 190 13:19 08.07.2020
1149 Clouds 18 1005 63 10000 5.7 190 12:42 08.07.2020
1150 Clouds 17 1005 63 10000 7.7 190 12:20 08.07.2020
1151 Clouds 17 1005 63 10000 6.2 170 11:56 08.07.2020
1152 Clouds 17 1005 63 10000 6.2 170 11:38 08.07.2020
1153 Clouds 17 1005 63 10000 6.7 170 11:20 08.07.2020
1154 Clouds 16 1005 59 10000 6.2 170 10:43 08.07.2020
1155 Clouds 16 1005 72 10000 6.2 170 10:24 08.07.2020
1156 Clouds 15 1005 77 10000 6.2 180 09:46 08.07.2020
1157 Clouds 16 1005 67 10000 4.6 160 09:25 08.07.2020
1158 Clouds 16 1005 82 10000 4.6 170 08:57 08.07.2020
1159 Clouds 15 1005 82 10000 4.6 170 08:38 08.07.2020
1160 Clouds 15 1005 82 10000 5.1 170 08:19 08.07.2020
1161 Clouds 15 1005 82 10000 4.1 180 07:43 08.07.2020
1162 Clouds 14 1005 87 10000 4.6 160 07:22 08.07.2020
1163 Clouds 14 1005 93 10000 3.6 170 06:46 08.07.2020
1164 Clouds 14 1005 93 10000 2.1 170 06:27 08.07.2020
1165 Clouds 12 1005 93 10000 1.5 150 05:48 08.07.2020
1166 Fog 10 1005 100 10000 1.5 150 04:50 08.07.2020
1167 Fog 10 1005 93 10000 1 0 04:19 08.07.2020
1168 Clouds 10 1006 100 10000 2.1 200 02:19 08.07.2020
1169 Clouds 12 1006 93 10000 2.6 200 01:38 08.07.2020
1170 Clouds 11 1005 100 10000 3.1 210 00:51 08.07.2020
1171 Clouds 11 1005 93 10000 2.6 210 00:20 08.07.2020
1172 Clouds 12 1005 87 10000 3.1 210 23:44 07.07.2020
1173 Clouds 12 1006 93 10000 3.1 210 23:22 07.07.2020
1174 Clouds 12 1006 93 10000 3.1 220 22:57 07.07.2020
1175 Clouds 12 1006 93 10000 3.1 220 22:57 07.07.2020
1176 Clouds 13 1006 93 10000 3.1 220 22:38 07.07.2020
1177 Clouds 13 1005 87 10000 3.6 210 22:20 07.07.2020
1178 Clouds 14 1005 87 10000 3.6 210 21:56 07.07.2020
1179 Clouds 14 1005 87 10000 3.6 210 21:38 07.07.2020
1180 Clouds 14 1005 87 10000 3.6 210 21:38 07.07.2020
1181 Clouds 14 1005 87 10000 2.6 240 21:18 07.07.2020
1182 Clouds 15 1005 87 10000 2.6 240 20:42 07.07.2020
1183 Rain 15 1005 87 10000 3.1 240 20:23 07.07.2020
1184 Rain 15 1005 87 10000 4.1 260 19:58 07.07.2020
1185 Rain 15 1005 87 10000 4.1 260 19:39 07.07.2020
1186 Rain 15 1005 87 10000 4.1 260 19:39 07.07.2020
1187 Rain 15 1004 93 10000 3.6 230 19:20 07.07.2020
1188 Rain 15 1004 93 10000 3.6 230 19:20 07.07.2020
1189 Rain 15 1004 77 10000 4.1 230 18:55 07.07.2020
1190 Rain 16 1004 77 10000 6.2 230 18:37 07.07.2020
1191 Rain 16 1004 77 10000 6.2 230 18:18 07.07.2020
1192 Clouds 16 1004 67 10000 6.7 220 17:44 07.07.2020
1193 Clouds 16 1004 72 10000 7.2 210 17:23 07.07.2020
1194 Clouds 15 1003 72 10000 7.7 210 16:59 07.07.2020
1195 Clouds 16 1003 72 10000 7.7 210 16:40 07.07.2020
1196 Clouds 15 1003 72 10000 7.7 210 16:22 07.07.2020
1197 Clouds 16 1003 67 10000 8.2 210 15:55 07.07.2020
1198 Clouds 16 1003 67 10000 8.2 210 15:37 07.07.2020
1199 Clouds 16 1003 63 10000 8.2 210 15:18 07.07.2020
1200 Clouds 16 1003 63 10000 8.2 210 14:42 07.07.2020
1201 Clouds 16 1003 63 10000 8.2 210 14:42 07.07.2020
1202 Clouds 16 1002 63 10000 8.7 210 14:24 07.07.2020
1203 Clouds 17 1002 59 10000 10.3 210 13:43 07.07.2020
1204 Rain 17 1002 55 10000 9.8 190 13:20 07.07.2020
1205 Rain 17 1001 59 10000 9.3 200 12:56 07.07.2020
1206 Rain 17 1001 72 10000 8.7 200 12:37 07.07.2020
1207 Rain 16 1001 72 10000 8.7 200 12:18 07.07.2020
1208 Rain 16 1001 77 10000 9.3 200 11:43 07.07.2020
1209 Rain 16 1001 82 10000 7.2 180 11:22 07.07.2020
1210 Rain 15 1000 87 10000 6.2 180 10:58 07.07.2020
1211 Rain 15 1000 87 10000 6.2 180 10:39 07.07.2020
1212 Rain 14 1000 93 10000 6.7 180 10:20 07.07.2020
1213 Rain 14 1000 100 8000 6.2 190 09:42 07.07.2020
1214 Rain 14 999 93 7000 5.7 170 09:21 07.07.2020
1215 Rain 14 999 82 10000 7.7 180 08:54 07.07.2020
1216 Rain 14 999 87 10000 6.2 180 08:36 07.07.2020
1217 Rain 14 999 87 10000 6.2 180 08:18 07.07.2020
1218 Rain 14 999 87 8000 7.2 170 07:38 07.07.2020
1219 Rain 14 999 87 8000 7.2 170 07:19 07.07.2020
1220 Clouds 14 999 82 10000 7.7 180 06:41 07.07.2020
1221 Clouds 14 999 82 10000 7.7 180 06:22 07.07.2020
1222 Clouds 14 999 82 10000 6.7 180 05:28 07.07.2020
1223 Clouds 14 999 82 10000 7.2 180 04:44 07.07.2020
1224 Clouds 13 999 82 10000 6.7 180 03:42 07.07.2020
1225 Clouds 13 999 82 10000 6.7 180 03:23 07.07.2020
1226 Clouds 14 999 82 10000 7.2 180 01:41 07.07.2020
1227 Clouds 14 999 76 10000 7.2 180 00:59 07.07.2020
1228 Clouds 14 999 76 10000 6.7 190 00:40 07.07.2020
1229 Clouds 14 999 76 10000 6.7 190 00:20 07.07.2020
1230 Clouds 14 999 77 10000 5.7 180 23:43 06.07.2020
1231 Clouds 15 999 77 10000 6.7 190 23:25 06.07.2020
1232 Clouds 15 999 72 10000 6.7 190 22:57 06.07.2020
1233 Clouds 15 999 72 10000 6.7 190 22:38 06.07.2020
1234 Clouds 15 998 67 10000 6.7 190 22:18 06.07.2020
1235 Rain 15 998 67 10000 6.7 210 21:56 06.07.2020
1236 Rain 15 998 63 10000 7.2 210 21:36 06.07.2020
1237 Rain 15 998 63 10000 7.2 210 21:18 06.07.2020
1238 Clouds 16 998 67 10000 8.2 210 20:40 06.07.2020
1239 Clouds 16 998 63 10000 10.3 210 20:20 06.07.2020
1240 Clouds 16 998 59 10000 9.8 210 19:58 06.07.2020
1241 Clouds 17 998 63 10000 9.3 210 19:40 06.07.2020
1242 Clouds 17 998 63 10000 9.3 210 19:22 06.07.2020
1243 Clouds 17 998 67 10000 10.8 220 18:58 06.07.2020
1244 Clouds 17 998 59 10000 12.3 210 18:39 06.07.2020
1245 Clouds 17 998 59 10000 12.3 210 18:21 06.07.2020
1246 Clouds 17 998 59 10000 10.8 210 17:54 06.07.2020
1247 Clouds 18 998 59 10000 10.8 210 17:36 06.07.2020
1248 Clouds 18 998 59 10000 10.8 210 17:36 06.07.2020
1249 Clouds 18 998 59 10000 11.8 200 17:18 06.07.2020
1250 Clouds 17 997 52 10000 11.8 210 16:42 06.07.2020
1251 Rain 17 998 55 10000 10.8 210 16:22 06.07.2020
1252 Rain 17 997 55 10000 12.3 210 15:44 06.07.2020
1253 Clouds 17 997 52 10000 12.9 210 15:26 06.07.2020
1254 Rain 17 997 59 10000 11.8 210 14:57 06.07.2020
1255 Rain 17 997 59 10000 11.8 210 14:57 06.07.2020
1256 Rain 17 997 59 10000 11.8 210 14:38 06.07.2020
1257 Rain 17 997 55 10000 13.9 210 14:20 06.07.2020
1258 Rain 17 996 55 10000 12.3 210 13:58 06.07.2020
1259 Rain 17 996 55 10000 12.3 210 13:39 06.07.2020
1260 Rain 17 996 67 10000 9.8 220 13:20 06.07.2020
1261 Rain 17 996 67 10000 11.8 220 12:43 06.07.2020
1262 Rain 17 995 59 10000 12.3 220 12:20 06.07.2020
1263 Rain 17 995 59 10000 11.8 220 11:58 06.07.2020
1264 Rain 17 995 59 10000 11.8 220 11:39 06.07.2020
1265 Rain 17 995 59 10000 10.8 210 11:21 06.07.2020
1266 Clouds 17 995 59 10000 11.3 210 10:57 06.07.2020
1267 Clouds 16 995 59 10000 11.3 210 10:39 06.07.2020
1268 Clouds 17 994 59 10000 11.8 210 10:18 06.07.2020
1269 Clouds 17 994 63 10000 11.8 210 09:42 06.07.2020
1270 Clouds 17 994 59 10000 9.8 220 09:22 06.07.2020
1271 Clouds 16 993 72 10000 9.8 210 08:58 06.07.2020
1272 Clouds 16 993 77 10000 10.8 210 08:38 06.07.2020
1273 Clouds 16 993 77 10000 10.8 210 08:20 06.07.2020
1274 Clouds 16 993 77 10000 8.7 210 07:47 06.07.2020
1275 Clouds 16 993 77 10000 8.2 210 07:28 06.07.2020
1276 Clouds 15 993 87 10000 9.3 210 06:42 06.07.2020
1277 Clouds 16 993 82 10000 8.2 210 06:24 06.07.2020
1278 Clouds 15 993 87 10000 8.7 210 05:42 06.07.2020
1279 Clouds 15 993 87 10000 8.2 210 05:19 06.07.2020
1280 Clouds 16 992 87 10000 6.7 210 03:44 06.07.2020
1281 Rain 16 992 93 10000 8.7 220 02:24 06.07.2020
1282 Rain 16 992 93 10000 8.2 220 01:39 06.07.2020
1283 Clouds 16 992 93 10000 10.8 210 00:39 06.07.2020
1284 Clouds 16 992 93 10000 10.8 210 00:20 06.07.2020
1285 Rain 16 993 93 10000 8.7 210 23:44 05.07.2020
1286 Rain 16 993 93 10000 9.3 200 23:25 05.07.2020
1287 Rain 17 993 93 8000 10.8 190 22:59 05.07.2020
1288 Rain 17 993 93 8000 10.8 190 22:40 05.07.2020
1289 Rain 17 993 93 5000 10.3 190 22:20 05.07.2020
1290 Rain 16 993 93 4000 10.8 170 21:57 05.07.2020
1291 Rain 16 993 93 4000 10.8 170 21:39 05.07.2020
1292 Rain 16 993 100 4000 9.8 160 21:18 05.07.2020
1293 Rain 16 994 100 4000 8.7 160 20:57 05.07.2020
1294 Rain 15 995 100 4000 6.7 140 20:39 05.07.2020
1295 Rain 16 995 100 4000 6.7 140 20:20 05.07.2020
1296 Rain 15 996 93 2500 6.7 130 19:43 05.07.2020
1297 Rain 15 997 93 4000 6.2 140 19:21 05.07.2020
1298 Rain 15 998 93 8000 4.6 140 18:56 05.07.2020
1299 Rain 15 998 93 8000 4.6 140 18:38 05.07.2020
1300 Rain 16 999 87 7000 5.7 150 18:20 05.07.2020
1301 Rain 16 999 82 10000 3.6 140 17:43 05.07.2020
1302 Rain 17 1000 77 10000 3.6 170 17:20 05.07.2020
1303 Clouds 17 1000 77 10000 3.6 190 16:59 05.07.2020
1304 Clouds 17 1000 77 10000 3.6 190 16:41 05.07.2020
1305 Clouds 17 1001 77 10000 3.6 190 16:22 05.07.2020
1306 Clouds 17 1001 77 10000 4.1 190 15:41 05.07.2020
1307 Clouds 17 1001 77 10000 4.6 170 15:20 05.07.2020
1308 Clouds 17 1001 77 10000 4.6 160 14:59 05.07.2020
1309 Clouds 17 1001 77 10000 4.6 160 14:40 05.07.2020
1310 Clouds 16 1001 77 10000 3.6 170 14:20 05.07.2020
1311 Clouds 16 1001 77 10000 3.6 180 13:41 05.07.2020
1312 Clouds 16 1001 77 10000 3.6 180 13:41 05.07.2020
1313 Clouds 17 1001 77 10000 3.1 170 13:23 05.07.2020
1314 Clouds 17 1001 77 10000 3.1 160 12:46 05.07.2020
1315 Clouds 16 1002 72 10000 2.1 160 12:23 05.07.2020
1316 Clouds 16 1002 77 10000 1.5 100 11:57 05.07.2020
1317 Clouds 16 1002 77 10000 1.5 100 11:38 05.07.2020
1318 Clouds 15 1002 77 10000 1 0 11:38 05.07.2020
1319 Clouds 15 1002 77 10000 1 0 11:20 05.07.2020
1320 Clouds 15 1002 77 10000 1.5 0 10:56 05.07.2020
1321 Clouds 15 1002 82 10000 2.1 10 10:37 05.07.2020
1322 Clouds 15 1002 82 10000 2.1 10 10:18 05.07.2020
1323 Clouds 14 1002 87 10000 2.6 350 09:42 05.07.2020
1324 Clouds 14 1002 93 10000 2.6 340 09:20 05.07.2020
1325 Clouds 13 1002 93 10000 2.1 20 08:57 05.07.2020
1326 Clouds 13 1002 93 10000 2.1 20 08:38 05.07.2020
1327 Rain 13 1002 100 10000 3.1 360 08:18 05.07.2020
1328 Rain 13 1001 100 10000 3.1 330 07:40 05.07.2020
1329 Rain 13 1001 100 4000 3.1 340 07:22 05.07.2020
1330 Rain 13 1001 100 7000 2.6 340 06:45 05.07.2020
1331 Rain 14 1001 100 10000 1.5 340 04:27 05.07.2020
1332 Rain 15 1001 100 6000 6.7 230 03:18 05.07.2020
1333 Rain 15 1001 100 7000 4.6 200 02:40 05.07.2020
1334 Rain 15 1002 100 4500 5.1 200 01:59 05.07.2020
1335 Rain 15 1002 100 7000 5.7 200 01:28 05.07.2020
1336 Rain 15 1002 93 7000 5.7 200 00:52 05.07.2020
1337 Rain 15 1002 87 7000 6.2 210 00:31 05.07.2020
1338 Clouds 16 1003 87 10000 7.2 210 23:57 04.07.2020
1339 Clouds 16 1003 87 10000 7.7 210 23:33 04.07.2020
1340 Clouds 16 1003 87 10000 7.7 210 22:59 04.07.2020
1341 Clouds 16 1003 87 10000 7.7 210 22:41 04.07.2020
1342 Clouds 16 1003 87 10000 7.2 210 22:23 04.07.2020
1343 Clouds 16 1003 87 10000 7.7 210 21:58 04.07.2020
1344 Clouds 16 1003 87 10000 8.2 210 21:40 04.07.2020
1345 Clouds 16 1003 87 10000 8.2 210 21:22 04.07.2020
1346 Clouds 16 1003 87 10000 8.7 210 20:43 04.07.2020
1347 Rain 16 1003 87 10000 8.7 210 20:21 04.07.2020
1348 Rain 16 1003 87 10000 8.7 210 19:58 04.07.2020
1349 Rain 15 1003 87 10000 8.7 210 19:39 04.07.2020
1350 Rain 15 1003 87 10000 7.2 200 19:20 04.07.2020
1351 Rain 15 1003 87 10000 6.7 200 18:44 04.07.2020
1352 Rain 15 1004 93 10000 6.7 200 18:23 04.07.2020
1353 Rain 15 1004 93 7000 7.2 200 17:55 04.07.2020
1354 Rain 15 1004 93 7000 7.2 200 17:37 04.07.2020
1355 Rain 16 1004 87 10000 7.7 200 17:18 04.07.2020
1356 Clouds 16 1004 87 10000 6.2 220 16:55 04.07.2020
1357 Rain 15 1004 100 10000 4.6 190 16:36 04.07.2020
1358 Rain 15 1004 100 10000 4.6 190 16:18 04.07.2020
1359 Rain 14 1005 93 6000 6.2 180 15:41 04.07.2020
1360 Rain 14 1005 93 6000 8.2 170 15:21 04.07.2020
1361 Rain 14 1005 93 3000 6.2 160 14:57 04.07.2020
1362 Rain 14 1005 93 3000 6.2 160 14:37 04.07.2020
1363 Rain 14 1005 93 7000 7.7 170 14:18 04.07.2020
1364 Rain 15 1006 82 10000 5.1 170 13:42 04.07.2020
1365 Rain 15 1006 82 10000 4.6 180 13:20 04.07.2020
1366 Rain 16 1006 72 10000 5.1 200 12:56 04.07.2020
1367 Rain 16 1007 67 10000 7.7 200 12:38 04.07.2020
1368 Rain 16 1007 67 10000 7.7 200 12:19 04.07.2020
1369 Rain 17 1007 67 10000 7.2 190 11:44 04.07.2020
1370 Clouds 16 1007 77 10000 7.7 190 11:23 04.07.2020
1371 Clouds 16 1007 72 10000 8.2 180 10:56 04.07.2020
1372 Clouds 17 1007 72 10000 8.2 180 10:38 04.07.2020
1373 Clouds 16 1007 77 10000 6.2 180 10:19 04.07.2020
1374 Clouds 16 1007 72 10000 8.2 180 09:41 04.07.2020
1375 Clouds 17 1007 68 10000 7.2 180 09:22 04.07.2020
1376 Clouds 16 1007 77 10000 6.2 190 08:58 04.07.2020
1377 Clouds 16 1007 77 10000 6.2 190 08:39 04.07.2020
1378 Clouds 16 1007 82 10000 4.6 180 08:21 04.07.2020
1379 Clouds 16 1007 77 10000 6.2 180 07:41 04.07.2020
1380 Clouds 15 1008 77 10000 5.7 190 07:18 04.07.2020
1381 Clouds 15 1008 77 10000 5.7 190 06:38 04.07.2020
1382 Clouds 15 1008 77 10000 5.7 190 06:19 04.07.2020
1383 Clouds 14 1008 82 10000 3.6 190 05:29 04.07.2020
1384 Clouds 13 1008 76 10000 3.6 180 04:21 04.07.2020
1385 Clouds 13 1008 81 10000 3.1 180 02:41 04.07.2020
1386 Clouds 14 1009 76 10000 3.1 220 01:40 04.07.2020
1387 Clouds 14 1009 82 10000 3.1 210 00:54 04.07.2020
1388 Clouds 14 1009 82 10000 3.1 220 00:36 04.07.2020
1389 Clouds 14 1009 82 10000 3.1 220 00:18 04.07.2020
1390 Clouds 15 1009 76 10000 3.6 210 23:39 03.07.2020
1391 Clouds 15 1009 76 10000 3.6 210 23:18 03.07.2020
1392 Clouds 15 1009 71 10000 4.6 220 22:42 03.07.2020
1393 Clouds 15 1009 71 10000 4.1 220 22:24 03.07.2020
1394 Clouds 15 1008 67 10000 5.1 210 21:59 03.07.2020
1395 Clouds 15 1008 67 10000 5.1 210 21:38 03.07.2020
1396 Clouds 15 1008 67 10000 5.1 210 21:19 03.07.2020
1397 Clouds 16 1008 67 10000 5.7 200 20:43 03.07.2020
1398 Clouds 16 1008 59 10000 5.1 220 20:25 03.07.2020
1399 Clouds 17 1008 51 10000 5.7 220 19:56 03.07.2020
1400 Clouds 17 1008 48 10000 6.2 220 19:38 03.07.2020
1401 Clouds 18 1008 48 10000 6.2 220 19:18 03.07.2020
1402 Clouds 17 1008 52 10000 7.2 210 18:42 03.07.2020
1403 Clouds 18 1008 52 10000 6.7 220 18:23 03.07.2020
1404 Clouds 18 1008 52 10000 7.2 210 17:56 03.07.2020
1405 Clouds 18 1008 52 10000 7.2 210 17:37 03.07.2020
1406 Clouds 18 1008 52 10000 7.2 220 17:19 03.07.2020
1407 Clouds 18 1008 52 10000 7.2 220 17:19 03.07.2020
1408 Clouds 18 1008 48 10000 7.7 220 16:40 03.07.2020
1409 Clouds 19 1008 52 10000 8.2 210 16:20 03.07.2020
1410 Clouds 18 1008 55 10000 8.7 200 15:44 03.07.2020
1411 Clouds 19 1008 55 10000 8.7 210 15:23 03.07.2020
1412 Clouds 19 1007 56 10000 7.7 220 14:55 03.07.2020
1413 Clouds 19 1007 55 10000 7.7 210 14:37 03.07.2020
1414 Clouds 19 1007 55 10000 7.7 210 14:19 03.07.2020
1415 Clouds 19 1007 52 10000 7.7 220 13:41 03.07.2020
1416 Clouds 19 1007 52 10000 7.7 220 13:23 03.07.2020
1417 Clouds 18 1007 59 10000 8.2 210 12:45 03.07.2020
1418 Clouds 18 1007 59 10000 7.2 220 12:23 03.07.2020
1419 Clouds 18 1006 59 10000 7.2 210 11:57 03.07.2020
1420 Clouds 18 1006 59 10000 7.2 210 11:39 03.07.2020
1421 Clouds 18 1006 52 10000 7.2 220 11:19 03.07.2020
1422 Clouds 18 1006 52 10000 6.2 240 10:54 03.07.2020
1423 Clouds 18 1006 52 10000 6.2 240 10:36 03.07.2020
1424 Clouds 18 1006 55 10000 7.7 230 10:18 03.07.2020
1425 Clouds 18 1006 59 10000 6.7 220 09:40 03.07.2020
1426 Clouds 18 1005 59 10000 6.2 230 09:22 03.07.2020
1427 Clouds 18 1005 67 10000 6.2 240 08:58 03.07.2020
1428 Clouds 17 1005 77 10000 5.1 230 08:38 03.07.2020
1429 Clouds 16 1005 77 10000 5.1 230 08:18 03.07.2020
1430 Clouds 16 1005 77 10000 5.1 230 08:18 03.07.2020
1431 Clouds 16 1004 82 10000 4.6 250 07:47 03.07.2020
1432 Clouds 15 1004 87 10000 4.1 250 07:22 03.07.2020
1433 Clouds 15 1004 93 10000 3.6 250 06:38 03.07.2020
1434 Clouds 15 1003 93 10000 3.1 210 05:55 03.07.2020
1435 Clouds 15 1003 93 10000 3.1 210 05:55 03.07.2020
1436 Clouds 14 1003 93 10000 5.1 200 04:26 03.07.2020
1437 Clouds 14 1002 100 10000 2.6 210 02:57 03.07.2020
1438 Clouds 14 1002 100 10000 2.6 210 02:32 03.07.2020
1439 Clouds 15 1002 93 10000 3.6 230 01:43 03.07.2020
1440 Clouds 14 1002 100 10000 3.6 230 01:20 03.07.2020
1441 Clouds 14 1002 100 10000 3.6 230 01:20 03.07.2020
1442 Rain 15 1002 93 10000 5.1 250 00:42 03.07.2020
1443 Rain 15 1002 93 6000 3.6 140 23:59 02.07.2020
1444 Rain 15 1002 93 6000 3.6 140 23:39 02.07.2020
1445 Rain 16 1002 87 10000 3.6 150 23:19 02.07.2020
1446 Clouds 16 1002 93 10000 4.6 150 22:56 02.07.2020
1447 Clouds 16 1002 93 10000 4.6 150 22:38 02.07.2020
1448 Clouds 16 1002 93 10000 3.1 120 22:19 02.07.2020
1449 Clouds 16 1002 93 10000 3.6 120 21:42 02.07.2020
1450 Clouds 16 1003 93 10000 3.1 110 21:20 02.07.2020
1451 Clouds 16 1003 93 10000 3.6 120 20:59 02.07.2020
1452 Clouds 16 1003 93 10000 3.6 120 20:41 02.07.2020
1453 Rain 16 1003 93 10000 4.6 150 20:20 02.07.2020
1454 Rain 16 1003 93 7000 4.6 140 19:56 02.07.2020
1455 Rain 16 1003 82 10000 2.6 110 19:38 02.07.2020
1456 Rain 16 1003 82 10000 2.6 110 19:19 02.07.2020
1457 Rain 17 1003 82 10000 2.1 160 18:42 02.07.2020
1458 Rain 17 1003 72 7000 5.1 150 18:22 02.07.2020
1459 Rain 18 1003 68 10000 4.1 160 17:58 02.07.2020
1460 Rain 18 1003 68 10000 4.1 160 17:39 02.07.2020
1461 Clouds 18 1003 68 10000 4.1 160 17:19 02.07.2020
1462 Clouds 19 1003 55 10000 3.6 160 16:44 02.07.2020
1463 Clouds 19 1003 59 10000 3.1 0 16:22 02.07.2020
1464 Clouds 19 1003 55 10000 3.6 190 15:59 02.07.2020
1465 Clouds 19 1003 55 10000 3.6 190 15:38 02.07.2020
1466 Clouds 19 1003 55 10000 3.6 160 15:20 02.07.2020
1467 Clouds 19 1004 55 10000 4.1 180 14:46 02.07.2020
1468 Clouds 19 1004 55 10000 4.1 190 14:23 02.07.2020
1469 Clouds 18 1004 52 10000 3.1 0 13:57 02.07.2020
1470 Clouds 18 1004 52 10000 3.1 0 13:39 02.07.2020
1471 Clouds 19 1004 59 10000 2.6 150 13:19 02.07.2020
1472 Clouds 19 1004 52 10000 3.1 0 12:57 02.07.2020
1473 Clouds 18 1004 48 10000 2.1 0 12:38 02.07.2020
1474 Clouds 18 1004 48 10000 2.1 0 12:19 02.07.2020
1475 Clouds 17 1003 42 10000 1.5 0 11:42 02.07.2020
1476 Clouds 17 1003 48 10000 1.5 110 11:24 02.07.2020
1477 Clouds 17 1003 51 10000 1.5 0 10:47 02.07.2020
1478 Clouds 16 1003 55 10000 1 0 10:27 02.07.2020
1479 Clouds 16 1003 51 10000 0.5 0 09:57 02.07.2020
1480 Clouds 16 1003 51 10000 0.5 0 09:37 02.07.2020
1481 Clouds 16 1003 54 10000 2.1 80 09:19 02.07.2020
1482 Clouds 15 1003 58 10000 1 0 08:43 02.07.2020
1483 Rain 15 1003 62 10000 1.5 60 08:24 02.07.2020
1484 Rain 14 1002 67 10000 1 0 07:55 02.07.2020
1485 Rain 14 1002 67 10000 1 0 07:37 02.07.2020
1486 Clouds 14 1002 71 10000 0.5 0 07:18 02.07.2020
1487 Clouds 13 1002 76 10000 1 0 06:39 02.07.2020
1488 Clouds 13 1002 76 10000 1 0 06:19 02.07.2020
1489 Clouds 13 1002 87 10000 0.5 0 05:43 02.07.2020
1490 Clouds 13 1001 87 10000 1 320 03:36 02.07.2020
1491 Clouds 13 1000 87 10000 2.1 330 02:59 02.07.2020
1492 Clouds 13 1000 100 10000 1.5 270 00:47 02.07.2020
1493 Clouds 14 999 100 10000 1 270 00:23 02.07.2020
1494 Clouds 13 999 93 10000 2.1 240 23:46 01.07.2020
1495 Clouds 14 999 87 10000 3.1 230 23:27 01.07.2020
1496 Clouds 14 999 82 10000 3.6 250 22:56 01.07.2020
1497 Clouds 15 999 82 10000 3.6 250 22:38 01.07.2020
1498 Clouds 15 998 82 10000 3.1 250 22:19 01.07.2020
1499 Clouds 15 998 77 10000 3.1 260 21:58 01.07.2020
1500 Clouds 16 998 77 10000 3.1 260 21:39 01.07.2020
1501 Clouds 16 998 77 10000 4.6 260 21:20 01.07.2020
1502 Clouds 16 997 72 10000 5.7 260 20:47 01.07.2020
1503 Clouds 16 997 82 10000 5.1 250 20:29 01.07.2020
1504 Clouds 17 997 77 10000 4.6 240 19:58 01.07.2020
1505 Clouds 17 997 77 10000 4.6 240 19:40 01.07.2020
1506 Clouds 17 996 77 10000 5.7 230 19:21 01.07.2020
1507 Clouds 17 996 77 10000 5.1 240 18:58 01.07.2020
1508 Clouds 17 996 77 10000 5.1 240 18:40 01.07.2020
1509 Clouds 17 996 77 10000 6.2 240 18:21 01.07.2020
1510 Clouds 17 995 88 10000 4.1 230 17:55 01.07.2020
1511 Clouds 17 995 88 10000 4.1 230 17:55 01.07.2020
1512 Clouds 17 995 88 10000 4.1 230 17:55 01.07.2020
1513 Clouds 16 995 88 10000 4.1 230 17:37 01.07.2020
1514 Rain 17 995 93 8000 4.1 230 17:18 01.07.2020
1515 Rain 17 995 72 10000 4.6 230 16:42 01.07.2020
1516 Rain 17 995 72 10000 4.6 230 16:42 01.07.2020
1517 Clouds 18 994 72 10000 5.7 220 16:23 01.07.2020
1518 Thunderstorm 17 994 68 10000 7.2 220 15:43 01.07.2020
1519 Thunderstorm 17 994 68 10000 7.7 210 15:23 01.07.2020
1520 Thunderstorm 18 993 72 10000 7.7 210 14:58 01.07.2020
1521 Thunderstorm 17 993 72 10000 7.7 210 14:38 01.07.2020
1522 Clouds 17 993 82 10000 7.7 210 14:20 01.07.2020
1523 Clouds 17 993 77 10000 7.7 210 13:54 01.07.2020
1524 Clouds 17 993 77 10000 7.7 210 13:36 01.07.2020
1525 Thunderstorm 16 993 77 10000 7.2 210 13:18 01.07.2020
1526 Thunderstorm 16 993 87 10000 6.2 220 12:41 01.07.2020
1527 Thunderstorm 16 993 87 10000 5.7 220 12:22 01.07.2020
1528 Rain 17 992 77 7000 6.7 210 11:58 01.07.2020
1529 Rain 17 992 77 7000 6.7 210 11:40 01.07.2020
1530 Rain 16 992 82 10000 8.7 210 11:21 01.07.2020
1531 Thunderstorm 16 992 87 10000 7.2 180 10:43 01.07.2020
1532 Rain 16 992 93 10000 5.1 220 10:24 01.07.2020
1533 Rain 15 992 93 10000 5.1 230 09:59 01.07.2020
1534 Rain 15 992 93 10000 5.1 230 09:59 01.07.2020
1535 Rain 15 992 93 10000 5.1 230 09:38 01.07.2020
1536 Rain 15 992 93 10000 6.7 230 09:20 01.07.2020
1537 Rain 16 992 87 3000 9.3 210 08:57 01.07.2020
1538 Rain 16 992 87 3000 9.3 210 08:38 01.07.2020
1539 Rain 16 991 77 10000 9.3 210 08:19 01.07.2020
1540 Rain 16 991 77 10000 9.3 210 08:19 01.07.2020
1541 Rain 16 992 82 10000 8.2 200 07:40 01.07.2020
1542 Rain 16 992 82 10000 8.2 200 07:21 01.07.2020
1543 Rain 15 992 87 10000 6.7 210 06:51 01.07.2020
1544 Rain 15 992 87 10000 6.7 200 06:30 01.07.2020
1545 Rain 15 992 93 10000 6.7 200 05:30 01.07.2020
1546 Clouds 15 992 87 10000 6.2 200 03:55 01.07.2020
1547 Clouds 15 992 93 10000 5.7 200 03:36 01.07.2020
1548 Clouds 15 992 93 10000 5.7 200 03:18 01.07.2020
1549 Clouds 15 992 93 10000 6.2 210 01:53 01.07.2020
1550 Clouds 15 992 93 10000 5.1 220 00:48 01.07.2020
1551 Clouds 15 992 93 10000 6.7 200 00:26 01.07.2020
1552 Rain 15 993 100 9000 6.2 200 23:42 30.06.2020
1553 Rain 15 993 93 7000 4.6 200 23:23 30.06.2020
1554 Rain 14 993 93 8000 7.2 200 22:59 30.06.2020
1555 Rain 15 993 93 8000 7.2 200 22:40 30.06.2020
1556 Rain 15 993 82 10000 7.2 190 22:18 30.06.2020
1557 Clouds 15 993 82 10000 8.2 200 21:41 30.06.2020
1558 Clouds 15 993 82 10000 8.2 200 21:41 30.06.2020
1559 Clouds 16 993 72 10000 6.7 210 21:19 30.06.2020
1560 Clouds 16 993 72 10000 6.7 210 21:19 30.06.2020
1561 Clouds 16 993 77 10000 6.2 220 20:55 30.06.2020
1562 Rain 16 993 77 10000 5.7 230 20:37 30.06.2020
1563 Rain 16 993 77 10000 5.7 230 20:19 30.06.2020
1564 Rain 17 993 82 10000 6.7 230 19:42 30.06.2020
1565 Clouds 17 993 77 10000 6.2 220 19:19 30.06.2020
1566 Clouds 17 993 77 10000 5.7 220 18:46 30.06.2020
1567 Rain 16 993 87 10000 4.6 200 18:21 30.06.2020
1568 Rain 16 993 87 10000 3.6 200 17:59 30.06.2020
1569 Rain 16 993 87 10000 3.6 200 17:38 30.06.2020
1570 Rain 15 993 87 10000 5.1 240 17:19 30.06.2020
1571 Rain 14 993 93 10000 5.7 230 16:43 30.06.2020
1572 Rain 14 993 93 10000 5.7 220 16:24 30.06.2020
1573 Rain 14 993 93 10000 3.6 220 15:59 30.06.2020
1574 Rain 14 993 93 10000 3.6 220 15:40 30.06.2020
1575 Rain 14 993 100 8000 4.6 230 15:22 30.06.2020
1576 Rain 14 993 93 7000 4.6 240 14:56 30.06.2020
1577 Rain 14 993 93 10000 5.7 270 14:38 30.06.2020
1578 Rain 13 993 93 10000 5.7 270 14:18 30.06.2020
1579 Rain 13 992 93 10000 6.2 270 13:40 30.06.2020
1580 Rain 13 992 93 8000 6.7 270 13:20 30.06.2020
1581 Rain 13 992 93 8000 7.2 290 12:58 30.06.2020
1582 Rain 13 992 93 8000 7.2 290 12:58 30.06.2020
1583 Rain 13 992 93 8000 7.2 290 12:39 30.06.2020
1584 Rain 14 991 87 9000 8.2 300 12:20 30.06.2020
1585 Rain 14 992 93 7000 8.7 290 11:58 30.06.2020
1586 Rain 14 992 93 7000 8.7 290 11:38 30.06.2020
1587 Rain 15 992 93 4000 6.2 310 11:19 30.06.2020
1588 Rain 15 992 87 10000 6.2 330 10:56 30.06.2020
1589 Clouds 22 1011 64 10000 6.2 140 16:38 28.06.2020
1590 Clouds 22 1011 60 10000 5.7 130 16:20 28.06.2020
1591 Clouds 22 1011 60 10000 5.1 120 15:56 28.06.2020
1592 Clouds 22 1011 60 10000 5.1 120 15:56 28.06.2020
1593 Clouds 22 1011 60 10000 5.1 120 15:37 28.06.2020
1594 Clouds 23 1011 60 10000 5.1 130 15:18 28.06.2020
1595 Clouds 22 1011 64 10000 5.7 130 14:44 28.06.2020
1596 Clouds 22 1011 64 10000 6.2 140 14:25 28.06.2020
1597 Clouds 23 1011 57 10000 6.2 150 13:55 28.06.2020
1598 Clouds 23 1011 61 10000 6.7 150 13:37 28.06.2020
1599 Clouds 23 1011 61 10000 6.7 150 13:18 28.06.2020
1600 Clouds 23 1011 57 10000 4.6 140 12:55 28.06.2020
1601 Clouds 24 1011 57 10000 4.6 140 12:36 28.06.2020
1602 Clouds 24 1011 50 10000 2.6 0 12:18 28.06.2020
1603 Clouds 25 1011 47 10000 2.6 50 11:44 28.06.2020
1604 Clouds 24 1011 50 10000 3.6 70 11:21 28.06.2020
1605 Clouds 24 1011 50 10000 4.1 70 10:59 28.06.2020
1606 Clouds 24 1011 50 10000 4.1 70 10:41 28.06.2020
1607 Clear 24 1011 50 10000 4.1 60 10:23 28.06.2020
1608 Clear 24 1011 50 10000 3.1 60 09:43 28.06.2020
1609 Clouds 23 1011 53 10000 3.6 80 09:24 28.06.2020
1610 Clouds 23 1011 56 10000 4.1 90 08:58 28.06.2020
1611 Clouds 23 1011 56 10000 4.1 90 08:40 28.06.2020
1612 Clear 23 1011 56 10000 4.6 70 08:21 28.06.2020
1613 Clear 22 1011 60 10000 4.6 80 07:39 28.06.2020
1614 Clear 20 1011 68 10000 3.6 60 06:58 28.06.2020
1615 Clear 19 1011 72 10000 4.1 70 06:32 28.06.2020
1616 Clear 20 1011 72 10000 4.6 60 05:54 28.06.2020
1617 Clear 18 1010 77 10000 4.6 50 04:36 28.06.2020
1618 Clear 17 1010 87 10000 2.1 20 03:18 28.06.2020
1619 Clear 18 1010 87 10000 1 0 02:22 28.06.2020
1620 Clear 19 1011 77 10000 2.1 70 01:45 28.06.2020
1621 Clear 20 1010 87 10000 1 0 00:57 28.06.2020
1622 Clouds 20 1010 82 10000 2.09 329 00:31 28.06.2020
1623 Clouds 20 1011 82 10000 1 230 23:58 27.06.2020
1624 Clouds 20 1011 82 10000 1 230 23:40 27.06.2020
1625 Clouds 20 1011 77 10000 2.05 315 23:21 27.06.2020
1626 Clouds 21 1011 68 10000 1.5 210 22:43 27.06.2020
1627 Clear 22 1011 68 10000 2.1 180 22:23 27.06.2020
1628 Clear 22 1011 47 10000 2.6 190 21:59 27.06.2020
1629 Clear 25 1011 47 10000 2.6 190 21:41 27.06.2020
1630 Clear 25 1011 36 10000 2.6 200 21:20 27.06.2020
1631 Clear 26 1011 36 10000 3.1 210 20:55 27.06.2020
1632 Clear 26 1011 36 10000 3.1 210 20:37 27.06.2020
1633 Clear 26 1011 34 10000 2.6 220 20:18 27.06.2020
1634 Clear 27 1011 34 10000 3.6 220 19:38 27.06.2020
1635 Clear 27 1011 34 10000 3.6 220 19:19 27.06.2020
1636 Clear 28 1011 32 10000 4.6 210 18:57 27.06.2020
1637 Clouds 28 1011 35 10000 5.7 190 18:37 27.06.2020
1638 Clouds 28 1011 35 10000 5.7 190 18:19 27.06.2020
1639 Clouds 28 1012 35 10000 5.1 220 17:40 27.06.2020
1640 Clouds 28 1012 35 10000 6.2 180 17:20 27.06.2020
1641 Clouds 28 1012 35 10000 6.2 180 17:20 27.06.2020
1642 Clouds 28 1012 37 10000 5.7 180 16:57 27.06.2020
1643 Clouds 28 1012 37 10000 5.7 180 16:38 27.06.2020
1644 Clear 29 1012 37 10000 5.7 200 16:19 27.06.2020
1645 Clear 29 1013 37 10000 6.2 190 15:42 27.06.2020
1646 Clear 29 1013 37 10000 5.7 180 15:24 27.06.2020
1647 Clear 29 1013 37 10000 5.7 180 15:24 27.06.2020
1648 Clear 28 1013 39 10000 5.7 200 14:56 27.06.2020
1649 Clear 28 1013 39 10000 5.7 200 14:37 27.06.2020
1650 Clear 29 1013 35 10000 3.1 250 14:19 27.06.2020
1651 Clear 28 1014 36 10000 2.6 290 13:41 27.06.2020
1652 Clear 28 1014 39 10000 2.6 260 13:20 27.06.2020
1653 Clear 28 1014 37 10000 2.6 260 12:58 27.06.2020
1654 Clear 28 1014 37 10000 2.6 260 12:40 27.06.2020
1655 Clear 27 1014 36 10000 3.6 260 12:21 27.06.2020
1656 Clear 27 1014 39 10000 4.6 230 11:55 27.06.2020
1657 Clear 27 1014 39 10000 4.6 230 11:37 27.06.2020
1658 Clear 27 1015 37 10000 4.1 250 11:18 27.06.2020
1659 Clear 27 1015 39 10000 4.6 240 10:39 27.06.2020
1660 Clear 27 1015 44 10000 4.1 230 10:19 27.06.2020
1661 Clear 26 1015 47 10000 4.1 230 09:54 27.06.2020
1662 Clear 25 1015 47 10000 4.1 230 09:36 27.06.2020
1663 Clear 24 1015 47 10000 3.6 230 09:18 27.06.2020
1664 Clear 23 1015 50 10000 3.6 220 08:41 27.06.2020
1665 Clouds 22 1016 53 10000 3.6 230 08:22 27.06.2020
1666 Clouds 22 1016 53 10000 4.1 230 07:46 27.06.2020
1667 Clouds 22 1016 53 10000 3.1 230 07:24 27.06.2020
1668 Clouds 21 1016 52 10000 2.1 230 06:50 27.06.2020
1669 Clouds 19 1016 63 10000 2.1 230 06:29 27.06.2020
1670 Clear 15 1017 87 10000 2.35 269 04:24 27.06.2020
1671 Clear 15 1017 93 10000 1 0 03:53 27.06.2020
1672 Clear 16 1017 82 10000 2.6 240 03:23 27.06.2020
1673 Clear 16 1017 87 10000 3.6 230 02:36 27.06.2020
1674 Clear 17 1018 72 10000 3.1 250 01:49 27.06.2020
1675 Clear 18 1018 77 10000 2.6 280 01:24 27.06.2020
1676 Clear 19 1018 63 10000 2.1 250 00:38 27.06.2020
1677 Clear 20 1018 59 10000 3.1 240 23:46 26.06.2020
1678 Clear 20 1018 60 10000 3.6 230 23:26 26.06.2020
1679 Clear 19 1018 56 10000 4.1 230 22:57 26.06.2020
1680 Clear 21 1018 53 10000 4.1 230 22:38 26.06.2020
1681 Clear 22 1018 53 10000 4.1 230 22:19 26.06.2020
1682 Clear 22 1018 49 10000 4.1 230 21:57 26.06.2020
1683 Clear 23 1018 47 10000 4.6 220 21:37 26.06.2020
1684 Clear 23 1018 47 10000 4.6 220 21:19 26.06.2020
1685 Clear 24 1018 47 10000 4.6 230 20:43 26.06.2020
1686 Clear 25 1018 41 10000 4.6 220 20:21 26.06.2020
1687 Clear 25 1018 36 10000 5.1 230 19:47 26.06.2020
1688 Clear 25 1019 31 10000 5.7 220 19:23 26.06.2020
1689 Clear 26 1019 30 10000 6.7 220 18:57 26.06.2020
1690 Clear 26 1019 34 10000 6.7 230 18:37 26.06.2020
1691 Clear 27 1019 34 10000 6.7 230 18:19 26.06.2020
1692 Clear 27 1020 34 10000 6.7 220 17:44 26.06.2020
1693 Clear 27 1020 34 10000 7.2 220 17:24 26.06.2020
1694 Clear 27 1020 34 10000 6.7 220 16:49 26.06.2020
1695 Clear 27 1021 37 10000 6.2 230 16:27 26.06.2020
1696 Clear 27 1021 37 10000 6.2 220 15:55 26.06.2020
1697 Clear 27 1021 37 10000 6.2 220 15:37 26.06.2020
1698 Clear 27 1021 39 10000 7.7 200 15:19 26.06.2020
1699 Clear 28 1021 37 10000 6.2 220 14:56 26.06.2020
1700 Clear 28 1022 37 10000 6.7 210 14:38 26.06.2020
1701 Clear 27 1022 37 10000 6.7 210 14:19 26.06.2020
1702 Clear 27 1022 37 10000 6.2 220 13:44 26.06.2020
1703 Clear 27 1022 37 10000 5.1 220 13:22 26.06.2020
1704 Clear 25 1022 36 10000 5.1 230 12:43 26.06.2020
1705 Clear 26 1022 34 10000 6.2 230 12:24 26.06.2020
1706 Clear 26 1023 36 10000 5.1 230 11:59 26.06.2020
1707 Clear 25 1023 36 10000 5.1 230 11:41 26.06.2020
1708 Clear 25 1023 39 10000 4.6 230 11:22 26.06.2020
1709 Clear 25 1023 38 10000 5.1 230 10:59 26.06.2020
1710 Clear 25 1023 38 10000 5.1 230 10:40 26.06.2020
1711 Clear 23 1023 38 10000 4.6 230 10:19 26.06.2020
1712 Clear 23 1024 41 10000 4.6 230 09:45 26.06.2020
1713 Clear 22 1024 46 10000 5.1 220 09:26 26.06.2020
1714 Clear 22 1024 49 10000 5.1 210 08:59 26.06.2020
1715 Clear 22 1024 49 10000 5.1 210 08:41 26.06.2020
1716 Clear 22 1024 46 10000 3.1 230 08:23 26.06.2020
1717 Clear 21 1024 56 10000 1 0 07:44 26.06.2020
1718 Clear 20 1024 64 10000 1.5 260 07:22 26.06.2020
1719 Clear 20 1024 63 10000 2.1 280 06:47 26.06.2020
1720 Clear 19 1024 68 10000 1.5 240 06:28 26.06.2020
1721 Clear 17 1025 77 10000 1.5 270 05:51 26.06.2020
1722 Clear 16 1024 87 10000 0.5 260 04:44 26.06.2020
1723 Clear 16 1025 82 10000 2.46 267 02:27 26.06.2020
1724 Clear 18 1025 72 10000 1.5 270 01:25 26.06.2020
1725 Clear 17 1025 77 10000 2.1 270 00:42 26.06.2020
1726 Clear 19 1025 72 10000 2.6 240 00:20 26.06.2020
1727 Clear 19 1025 67 10000 2.1 240 23:46 25.06.2020
1728 Clear 18 1025 68 10000 1.5 260 23:21 25.06.2020
1729 Clear 17 1025 59 10000 2.6 240 22:57 25.06.2020
1730 Clear 18 1025 59 10000 2.6 240 22:38 25.06.2020
1731 Clear 20 1025 40 10000 3.1 240 22:19 25.06.2020
1732 Clear 21 1025 38 10000 2.6 240 21:56 25.06.2020
1733 Clear 23 1025 38 10000 2.6 240 21:38 25.06.2020
1734 Clear 25 1025 36 10000 3.1 240 21:20 25.06.2020
1735 Clear 25 1025 36 10000 4.1 230 20:45 25.06.2020
1736 Clear 26 1025 31 10000 5.1 230 20:24 25.06.2020
1737 Clear 26 1025 32 10000 4.6 220 19:59 25.06.2020
1738 Clear 27 1025 32 10000 4.6 220 19:40 25.06.2020
1739 Clear 27 1025 32 10000 5.1 220 19:19 25.06.2020
1740 Clear 27 1025 32 10000 5.1 220 19:19 25.06.2020
1741 Clear 27 1025 32 10000 5.1 220 18:58 25.06.2020
1742 Clear 28 1025 32 10000 5.1 210 18:38 25.06.2020
1743 Clear 28 1025 32 10000 5.1 210 18:19 25.06.2020
1744 Clear 28 1025 32 10000 4.6 230 17:42 25.06.2020
1745 Clear 28 1025 32 10000 5.1 220 17:20 25.06.2020
1746 Clear 28 1025 32 10000 5.1 220 17:20 25.06.2020
1747 Clear 29 1025 33 10000 4.6 220 16:57 25.06.2020
1748 Clear 28 1025 33 10000 4.6 220 16:37 25.06.2020
1749 Clear 28 1025 32 10000 4.1 240 16:18 25.06.2020
1750 Clear 28 1026 32 10000 4.1 230 15:41 25.06.2020
1751 Clear 29 1026 27 10000 4.1 210 15:22 25.06.2020
1752 Clear 29 1026 30 10000 3.6 220 14:44 25.06.2020
1753 Clear 29 1026 28 10000 3.6 240 14:25 25.06.2020
1754 Clear 29 1026 28 10000 3.1 230 13:59 25.06.2020
1755 Clear 29 1026 28 10000 3.1 230 13:41 25.06.2020
1756 Clear 28 1026 28 10000 2.6 0 13:19 25.06.2020
1757 Clear 28 1026 30 10000 3.6 220 12:46 25.06.2020
1758 Clear 27 1026 30 10000 4.1 230 12:21 25.06.2020
1759 Clear 27 1026 34 10000 3.1 300 11:59 25.06.2020
1760 Clear 27 1026 34 10000 3.1 290 11:40 25.06.2020
1761 Clear 27 1026 34 10000 3.1 290 11:21 25.06.2020
1762 Clear 27 1026 36 10000 3.1 280 10:42 25.06.2020
1763 Clear 26 1027 36 10000 3.1 280 10:24 25.06.2020
1764 Clear 25 1026 38 10000 4.1 280 09:42 25.06.2020
1765 Clear 24 1027 44 10000 3.6 280 09:23 25.06.2020
1766 Clear 24 1026 50 10000 2.6 280 08:59 25.06.2020
1767 Clear 24 1026 50 10000 2.6 280 08:40 25.06.2020
1768 Clear 23 1026 56 10000 2.6 270 08:18 25.06.2020
1769 Clear 23 1026 56 10000 3.6 280 07:42 25.06.2020
1770 Clear 22 1026 56 10000 3.6 280 07:24 25.06.2020
1771 Clear 21 1026 60 10000 3.6 280 06:37 25.06.2020
1772 Clear 18 1026 68 10000 2.6 280 06:18 25.06.2020
1773 Clear 18 1026 68 10000 2.6 280 05:31 25.06.2020
1774 Clear 17 1026 63 10000 3.6 290 03:39 25.06.2020
1775 Clear 17 1026 72 10000 3.6 290 02:46 25.06.2020
1776 Clear 17 1026 82 10000 3.6 290 02:25 25.06.2020
1777 Clear 18 1026 82 10000 2.6 280 01:41 25.06.2020
1778 Clear 18 1026 87 10000 1 280 00:50 25.06.2020
1779 Clear 19 1025 87 10000 3.06 305 00:22 25.06.2020
1780 Clear 20 1025 82 10000 0.5 0 23:58 24.06.2020
1781 Clear 20 1025 82 10000 0.5 0 23:38 24.06.2020
1782 Clear 20 1025 82 10000 1.5 230 23:19 24.06.2020
1783 Clear 20 1025 68 10000 2.6 210 22:42 24.06.2020
1784 Clear 21 1025 68 10000 2.1 180 22:21 24.06.2020
1785 Clear 22 1025 53 10000 2.1 130 21:57 24.06.2020
1786 Clear 22 1025 53 10000 2.1 130 21:37 24.06.2020
1787 Clouds 23 1025 44 10000 2.6 150 21:19 24.06.2020
1788 Clouds 24 1025 41 10000 3.1 180 20:58 24.06.2020
1789 Clouds 24 1025 41 10000 3.1 180 20:39 24.06.2020
1790 Clouds 25 1025 38 10000 3.6 180 20:21 24.06.2020
1791 Clouds 25 1025 39 10000 3.6 190 19:58 24.06.2020
1792 Clouds 25 1025 39 10000 3.6 190 19:38 24.06.2020
1793 Clouds 25 1025 31 10000 4.1 190 19:20 24.06.2020
1794 Clouds 25 1025 34 10000 4.1 180 18:58 24.06.2020
1795 Clouds 26 1025 34 10000 4.1 190 18:39 24.06.2020
1796 Clouds 26 1025 34 10000 4.1 190 18:20 24.06.2020
1797 Clouds 26 1025 36 10000 4.1 180 17:55 24.06.2020
1798 Clouds 26 1025 36 10000 4.1 180 17:37 24.06.2020
1799 Clouds 26 1025 28 10000 4.1 160 17:18 24.06.2020
1800 Clouds 26 1025 30 10000 4.1 160 16:55 24.06.2020
1801 Clouds 26 1025 32 10000 4.1 160 16:37 24.06.2020
1802 Clouds 26 1025 32 10000 4.1 160 16:19 24.06.2020
1803 Clouds 26 1025 36 10000 5.1 170 15:54 24.06.2020
1804 Clouds 25 1025 39 10000 5.1 180 15:36 24.06.2020
1805 Clouds 25 1025 39 10000 5.1 180 15:18 24.06.2020
1806 Clouds 24 1025 39 10000 5.1 160 14:40 24.06.2020
1807 Clouds 26 1024 42 10000 5.7 160 14:22 24.06.2020
1808 Clouds 26 1024 39 10000 4.1 170 13:42 24.06.2020
1809 Clouds 27 1024 39 10000 4.6 160 13:21 24.06.2020
1810 Clouds 26 1024 42 10000 1 0 12:45 24.06.2020
1811 Clouds 26 1024 34 10000 2.1 340 12:22 24.06.2020
1812 Clouds 26 1024 39 10000 1.5 0 11:58 24.06.2020
1813 Clouds 27 1024 39 10000 1.5 0 11:40 24.06.2020
1814 Clouds 26 1024 39 10000 2.1 110 11:22 24.06.2020
1815 Clouds 25 1024 44 10000 1.5 310 10:48 24.06.2020
1816 Clear 25 1024 41 10000 1.5 0 10:20 24.06.2020
1817 Clouds 26 1024 47 10000 0.5 0 09:56 24.06.2020
1818 Clear 24 1024 47 10000 1 0 09:38 24.06.2020
1819 Clear 24 1024 47 10000 1 0 09:19 24.06.2020
1820 Clear 23 1024 50 10000 0.5 0 08:40 24.06.2020
1821 Clear 22 1024 53 10000 0.5 0 08:19 24.06.2020
1822 Clear 21 1024 60 10000 1 0 07:48 24.06.2020
1823 Clear 21 1024 64 10000 1 0 07:25 24.06.2020
1824 Clear 19 1023 68 10000 1 0 06:46 24.06.2020
1825 Clear 18 1023 72 10000 0.5 0 06:24 24.06.2020
1826 Clear 18 1023 72 10000 0.5 0 06:24 24.06.2020
1827 Clear 17 1023 72 10000 1 0 05:45 24.06.2020
1828 Clear 16 1023 82 10000 1.5 320 04:39 24.06.2020
1829 Clear 15 1023 77 10000 1.5 300 03:39 24.06.2020
1830 Clear 16 1022 77 10000 2.1 300 02:55 24.06.2020
1831 Clear 16 1022 72 10000 1.5 300 02:36 24.06.2020
1832 Clear 17 1022 77 10000 3.6 310 00:53 24.06.2020
1833 Clear 17 1022 77 10000 3.6 310 00:53 24.06.2020
1834 Clear 18 1022 72 10000 2.6 310 00:34 24.06.2020
1835 Clear 18 1021 72 10000 2.1 270 23:49 23.06.2020
1836 Clear 19 1021 77 10000 2.1 250 23:23 23.06.2020
1837 Clear 19 1021 67 10000 1.5 240 22:59 23.06.2020
1838 Clear 19 1021 67 10000 1.5 240 22:59 23.06.2020
1839 Clear 16 1021 67 10000 1.5 240 22:41 23.06.2020
1840 Clear 20 1021 49 10000 2.6 230 22:19 23.06.2020
1841 Clear 21 1021 49 10000 3.1 220 21:56 23.06.2020
1842 Clear 21 1021 43 10000 3.1 220 21:37 23.06.2020
1843 Clear 22 1021 43 10000 3.1 220 21:18 23.06.2020
1844 Clear 22 1021 40 10000 3.1 240 20:55 23.06.2020
1845 Clear 23 1020 40 10000 3.6 230 20:36 23.06.2020
1846 Clear 23 1020 40 10000 3.6 230 20:36 23.06.2020
1847 Clear 23 1020 40 10000 3.6 230 20:18 23.06.2020
1848 Clear 23 1020 38 10000 4.1 180 19:41 23.06.2020
1849 Clear 24 1020 38 10000 4.1 180 19:23 23.06.2020
1850 Clear 24 1020 36 10000 5.1 180 18:39 23.06.2020
1851 Clear 24 1020 36 10000 5.1 180 18:19 23.06.2020
1852 Clear 24 1020 33 10000 5.1 180 17:43 23.06.2020
1853 Clear 24 1020 36 10000 5.1 180 17:25 23.06.2020
1854 Clear 24 1020 38 10000 5.1 180 16:57 23.06.2020
1855 Clear 24 1020 38 10000 5.1 180 16:38 23.06.2020
1856 Clear 24 1020 36 10000 5.1 170 16:20 23.06.2020
1857 Clear 24 1020 36 10000 5.7 160 15:57 23.06.2020
1858 Clear 23 1020 36 10000 5.7 160 15:57 23.06.2020
1859 Clear 25 1020 38 10000 5.7 180 15:39 23.06.2020
1860 Clear 25 1020 38 10000 5.7 180 15:18 23.06.2020
1861 Clear 24 1020 38 10000 5.7 180 14:43 23.06.2020
1862 Clear 24 1020 38 10000 5.7 190 14:20 23.06.2020
1863 Clear 24 1020 41 10000 6.2 200 13:57 23.06.2020
1864 Clear 24 1020 41 10000 6.2 200 13:39 23.06.2020
1865 Clear 23 1019 41 10000 5.1 180 13:20 23.06.2020
1866 Clear 23 1019 41 10000 5.1 170 12:45 23.06.2020
1867 Clear 23 1019 44 10000 3.6 0 12:23 23.06.2020
1868 Clear 23 1019 33 10000 1.5 0 11:58 23.06.2020
1869 Clear 23 1019 33 10000 1.5 0 11:40 23.06.2020
1870 Clear 24 1019 33 10000 2.1 80 11:19 23.06.2020
1871 Clear 23 1019 33 10000 1.5 0 10:57 23.06.2020
1872 Clear 23 1019 33 10000 1.5 0 10:39 23.06.2020
1873 Clear 22 1019 40 10000 2.6 320 10:21 23.06.2020
1874 Clear 23 1019 43 10000 1.5 310 09:42 23.06.2020
1875 Clear 21 1019 46 10000 0.5 0 09:21 23.06.2020
1876 Clear 21 1019 52 10000 1 0 08:58 23.06.2020
1877 Clear 20 1019 52 10000 1 0 08:39 23.06.2020
1878 Clear 20 1019 56 10000 2.1 320 08:20 23.06.2020
1879 Clear 19 1019 55 10000 1.5 350 07:40 23.06.2020
1880 Clear 19 1018 63 10000 2.1 350 07:22 23.06.2020
1881 Clear 17 1019 63 10000 1.5 340 06:49 23.06.2020
1882 Clear 16 1018 77 10000 1.5 310 06:31 23.06.2020
1883 Clear 14 1018 82 10000 1.88 33 05:42 23.06.2020
1884 Clear 11 1018 93 10000 1.58 25 03:39 23.06.2020
1885 Clear 11 1018 93 10000 1 30 02:56 23.06.2020
1886 Clear 12 1018 93 10000 1.69 5 02:37 23.06.2020
1887 Clear 12 1018 93 10000 1.72 8 02:19 23.06.2020
1888 Clear 12 1018 93 10000 1.72 8 01:37 23.06.2020
1889 Clear 12 1018 93 10000 1 270 01:18 23.06.2020
1890 Clear 13 1017 87 10000 1.21 338 00:24 23.06.2020
1891 Clear 14 1017 87 10000 1.21 338 23:57 22.06.2020
1892 Clear 14 1017 87 10000 1 0 23:38 22.06.2020
1893 Clear 14 1017 87 10000 1 0 23:19 22.06.2020
1894 Clear 15 1017 81 10000 1 0 22:57 22.06.2020
1895 Clear 15 1017 81 10000 1 0 22:38 22.06.2020
1896 Clear 16 1017 71 10000 0.5 0 22:19 22.06.2020
1897 Clear 16 1017 71 10000 0.5 0 22:19 22.06.2020
1898 Clear 17 1017 72 10000 1.5 140 21:57 22.06.2020
1899 Clear 18 1017 45 10000 2.6 120 21:38 22.06.2020
1900 Clear 18 1017 45 10000 2.6 120 21:20 22.06.2020
1901 Clear 18 1017 45 10000 2.6 120 21:20 22.06.2020
1902 Clear 19 1017 42 10000 2.6 130 20:41 22.06.2020
1903 Clear 19 1017 42 10000 2.6 120 20:23 22.06.2020
1904 Clear 20 1017 42 10000 3.1 120 19:56 22.06.2020
1905 Clear 20 1017 43 10000 2.6 110 19:37 22.06.2020
1906 Clear 20 1017 43 10000 2.6 110 19:18 22.06.2020
1907 Clear 20 1017 43 10000 3.1 140 18:40 22.06.2020
1908 Clear 20 1017 43 10000 2.6 140 18:21 22.06.2020
1909 Clear 20 1017 46 10000 3.1 150 17:57 22.06.2020
1910 Clear 20 1017 46 10000 3.1 150 17:38 22.06.2020
1911 Clear 20 1018 43 10000 4.6 150 17:19 22.06.2020
1912 Clear 20 1018 43 10000 4.6 150 16:55 22.06.2020
1913 Clear 20 1018 46 10000 4.1 140 16:37 22.06.2020
1914 Clear 20 1018 46 10000 4.6 130 16:18 22.06.2020
1915 Clear 20 1018 43 10000 5.1 150 15:42 22.06.2020
1916 Clear 20 1018 43 10000 5.1 150 15:24 22.06.2020
1917 Clear 20 1018 46 10000 5.1 140 14:56 22.06.2020
1918 Clear 20 1018 43 10000 5.1 140 14:36 22.06.2020
1919 Clear 20 1018 43 10000 5.1 150 14:18 22.06.2020
1920 Clear 20 1018 46 10000 5.1 130 13:39 22.06.2020
1921 Clear 20 1018 46 10000 5.1 130 13:39 22.06.2020
1922 Clear 20 1018 46 10000 5.1 130 13:21 22.06.2020
1923 Clear 20 1018 42 10000 3.6 120 12:57 22.06.2020
1924 Clear 20 1018 42 10000 3.6 120 12:39 22.06.2020
1925 Clear 20 1018 42 10000 3.6 120 12:39 22.06.2020
1926 Clear 20 1018 42 10000 3.6 120 12:21 22.06.2020
1927 Clouds 19 1019 45 10000 3.1 50 11:37 22.06.2020
1928 Clouds 19 1019 45 10000 3.1 50 11:19 22.06.2020
1929 Clouds 19 1019 45 10000 3.6 80 10:56 22.06.2020
1930 Clouds 19 1019 45 10000 2.6 80 10:37 22.06.2020
1931 Clouds 19 1019 45 10000 2.6 80 10:37 22.06.2020
1932 Clear 19 1019 45 10000 2.6 60 10:18 22.06.2020
1933 Clear 19 1019 45 10000 2.6 60 09:56 22.06.2020
1934 Clear 18 1019 55 10000 3.1 50 09:38 22.06.2020
1935 Clear 18 1019 52 10000 3.6 60 09:18 22.06.2020
1936 Clear 18 1019 52 10000 3.6 60 08:54 22.06.2020
1937 Clear 18 1019 48 10000 3.1 60 08:36 22.06.2020
1938 Clear 17 1019 55 10000 2.6 40 08:18 22.06.2020
1939 Clear 17 1019 59 10000 3.1 50 07:44 22.06.2020
1940 Clear 15 1019 62 10000 3.1 50 07:23 22.06.2020
1941 Clear 14 1020 67 10000 3.1 40 06:38 22.06.2020
1942 Clear 14 1020 71 10000 2.6 40 06:19 22.06.2020
1943 Clear 13 1020 81 10000 2.6 50 05:41 22.06.2020
1944 Fog 11 1020 100 10000 3.22 49 02:59 22.06.2020
1945 Clear 12 1021 93 10000 1 10 01:39 22.06.2020
1946 Clear 13 1021 93 10000 2.1 40 00:44 22.06.2020
1947 Clear 13 1021 93 10000 2.1 40 00:25 22.06.2020
1948 Clear 14 1021 87 10000 1.5 60 23:56 21.06.2020
1949 Clear 14 1021 87 10000 1.5 70 23:37 21.06.2020
1950 Clear 14 1021 87 10000 1.5 70 23:19 21.06.2020
1951 Clear 15 1020 87 10000 1.5 50 22:55 21.06.2020
1952 Clear 16 1020 82 10000 1 0 22:36 21.06.2020
1953 Clouds 16 1020 72 10000 1.5 100 22:18 21.06.2020
1954 Clouds 17 1020 52 10000 2.1 110 21:55 21.06.2020
1955 Clouds 17 1020 52 10000 2.1 110 21:37 21.06.2020
1956 Clouds 18 1020 52 10000 3.6 130 21:18 21.06.2020
1957 Clouds 18 1020 48 10000 4.1 130 20:40 21.06.2020
1958 Clouds 18 1020 48 10000 4.1 130 20:40 21.06.2020
1959 Clouds 19 1020 48 10000 4.1 130 20:21 21.06.2020
1960 Clouds 19 1020 48 10000 3.6 140 19:59 21.06.2020
1961 Clouds 19 1020 48 10000 4.1 120 19:40 21.06.2020
1962 Clouds 19 1020 48 10000 4.1 120 19:20 21.06.2020
1963 Clouds 19 1020 48 10000 4.1 140 18:56 21.06.2020
1964 Clouds 19 1020 48 10000 3.6 150 18:38 21.06.2020
1965 Clouds 19 1020 48 10000 5.1 140 18:19 21.06.2020
1966 Clouds 19 1020 49 10000 5.7 140 17:41 21.06.2020
1967 Clouds 19 1020 49 10000 5.7 140 17:21 21.06.2020
1968 Clouds 19 1021 49 10000 5.1 130 16:57 21.06.2020
1969 Clouds 19 1021 52 10000 4.6 130 16:39 21.06.2020
1970 Clouds 19 1021 49 10000 5.1 160 16:21 21.06.2020
1971 Clouds 20 1021 49 10000 4.6 150 15:40 21.06.2020
1972 Clouds 20 1021 49 10000 4.6 150 15:40 21.06.2020
1973 Clouds 19 1021 52 10000 4.1 140 15:22 21.06.2020
1974 Clouds 19 1021 52 10000 4.1 140 14:58 21.06.2020
1975 Clear 19 1021 52 10000 5.1 140 14:37 21.06.2020
1976 Clouds 19 1021 52 10000 5.1 140 14:19 21.06.2020
1977 Clouds 19 1021 40 10000 3.1 50 13:43 21.06.2020
1978 Clouds 20 1021 40 10000 3.1 50 13:25 21.06.2020
1979 Clouds 19 1022 43 10000 4.6 40 12:59 21.06.2020
1980 Clouds 19 1022 49 10000 4.6 50 12:41 21.06.2020
1981 Clouds 19 1022 49 10000 4.6 50 12:23 21.06.2020
1982 Clouds 19 1022 45 10000 4.1 50 11:43 21.06.2020
1983 Clouds 19 1022 45 10000 4.1 60 11:24 21.06.2020
1984 Clouds 19 1022 45 10000 4.1 60 10:59 21.06.2020
1985 Clouds 19 1022 48 10000 4.6 80 10:40 21.06.2020
1986 Clouds 18 1022 48 10000 4.6 80 10:22 21.06.2020
1987 Clouds 18 1022 55 10000 5.1 80 09:44 21.06.2020
1988 Clouds 18 1022 55 10000 5.1 80 09:25 21.06.2020
1989 Clouds 18 1022 55 10000 4.6 70 08:59 21.06.2020
1990 Clouds 18 1022 59 10000 4.6 60 08:41 21.06.2020
1991 Clouds 17 1022 59 10000 4.6 60 08:20 21.06.2020
1992 Clouds 17 1022 63 10000 4.1 70 07:59 21.06.2020
1993 Clouds 17 1022 67 10000 3.6 70 07:39 21.06.2020
1994 Clear 16 1022 67 10000 3.6 60 07:19 21.06.2020
1995 Clear 15 1022 71 10000 3.1 60 06:46 21.06.2020
1996 Clear 15 1022 67 10000 3.6 50 05:57 21.06.2020
1997 Clear 13 1022 76 10000 3.6 50 04:49 21.06.2020
1998 Clear 13 1023 81 10000 2.6 50 03:20 21.06.2020
1999 Clear 13 1022 81 10000 2.6 50 02:49 21.06.2020
2000 Clear 14 1022 81 10000 3.1 80 01:48 21.06.2020
2001 Clear 15 1022 81 10000 3.1 80 01:21 21.06.2020
2002 Clear 14 1022 87 10000 2.6 50 00:55 21.06.2020
2003 Clear 14 1022 87 10000 1.5 80 00:36 21.06.2020
2004 Clear 15 1022 87 10000 1.5 80 00:18 21.06.2020
2005 Clear 16 1022 76 10000 2.1 60 23:41 20.06.2020
2006 Clear 15 1022 76 10000 2.1 60 23:21 20.06.2020
2007 Clear 16 1021 59 10000 2.6 90 22:55 20.06.2020
2008 Clear 16 1021 59 10000 2.6 90 22:36 20.06.2020
2009 Clear 17 1021 66 0 4.61 84 22:18 20.06.2020
2010 Clear 17 1021 59 10000 4.1 100 21:55 20.06.2020
2011 Clear 17 1021 59 10000 3.6 100 21:37 20.06.2020
2012 Clear 18 1021 59 10000 4.1 100 21:18 20.06.2020
2013 Clear 18 1021 59 10000 4.1 100 20:54 20.06.2020
2014 Clouds 18 1020 55 10000 4.6 100 20:36 20.06.2020
2015 Clouds 18 1020 55 10000 4.6 100 20:36 20.06.2020
2016 Clouds 19 1020 56 10000 4.6 110 20:18 20.06.2020
2017 Clouds 19 1020 60 10000 4.1 110 19:41 20.06.2020
2018 Clouds 20 1020 56 10000 5.7 130 19:21 20.06.2020
2019 Clouds 20 1020 49 10000 5.1 110 18:43 20.06.2020
2020 Clouds 21 1020 49 10000 5.1 110 18:21 20.06.2020
2021 Clouds 21 1020 49 10000 5.7 100 17:58 20.06.2020
2022 Clouds 21 1020 49 10000 5.7 90 17:40 20.06.2020
2023 Clouds 21 1020 49 10000 5.7 90 17:40 20.06.2020
2024 Clouds 21 1020 49 10000 6.2 100 17:20 20.06.2020
2025 Clouds 21 1020 49 10000 6.2 100 16:56 20.06.2020
2026 Clouds 22 1020 49 10000 5.7 80 16:37 20.06.2020
2027 Clear 22 1020 49 10000 6.7 110 16:18 20.06.2020
2028 Clear 22 1020 49 10000 5.7 110 15:42 20.06.2020
2029 Clear 22 1020 43 10000 7.7 100 15:18 20.06.2020
2030 Clouds 22 1020 46 10000 6.7 100 14:43 20.06.2020
2031 Clouds 21 1020 46 10000 6.7 100 14:21 20.06.2020
2032 Clouds 21 1020 43 10000 6.2 80 13:55 20.06.2020
2033 Clouds 21 1020 43 10000 7.2 90 13:37 20.06.2020
2034 Clouds 21 1020 43 10000 7.2 90 13:19 20.06.2020
2035 Clouds 21 1020 40 10000 8.7 90 12:42 20.06.2020
2036 Clouds 21 1020 43 10000 7.2 90 12:21 20.06.2020
2037 Clouds 21 1020 43 10000 7.2 90 11:57 20.06.2020
2038 Clouds 21 1020 52 10000 6.7 70 11:37 20.06.2020
2039 Clouds 21 1019 53 10000 6.2 80 11:19 20.06.2020
2040 Clouds 21 1019 60 10000 4.6 70 10:47 20.06.2020
2041 Clouds 20 1019 60 10000 5.7 80 10:22 20.06.2020
2042 Clouds 20 1019 64 10000 5.1 70 09:55 20.06.2020
2043 Clouds 20 1019 64 10000 5.1 70 09:37 20.06.2020
2044 Clouds 20 1019 64 10000 5.1 70 09:19 20.06.2020
2045 Clouds 19 1019 68 10000 6.2 60 08:46 20.06.2020
2046 Clouds 19 1019 68 10000 6.2 60 08:27 20.06.2020
2047 Clouds 19 1018 68 10000 5.1 60 07:51 20.06.2020
2048 Clear 19 1018 72 10000 5.7 70 07:28 20.06.2020
2049 Clear 19 1018 72 10000 4.6 60 06:56 20.06.2020
2050 Clear 17 1018 77 10000 4.1 50 06:23 20.06.2020
2051 Clear 17 1018 77 10000 4.1 50 06:23 20.06.2020
2052 Clear 17 1018 82 10000 4.1 40 05:52 20.06.2020
2053 Clear 17 1018 87 10000 4.1 40 04:58 20.06.2020
2054 Clear 18 1017 77 10000 4.1 50 02:27 20.06.2020
2055 Clear 18 1017 77 10000 4.1 40 01:48 20.06.2020
2056 Clear 19 1017 77 10000 4.1 40 00:55 20.06.2020
2057 Clear 19 1017 72 10000 4.1 30 00:21 20.06.2020
2058 Clear 20 1017 72 10000 3.6 40 23:55 19.06.2020
2059 Clear 20 1017 68 10000 4.1 40 23:37 19.06.2020
2060 Clear 20 1017 64 10000 4.1 50 23:18 19.06.2020
2061 Clear 21 1016 68 10000 4.1 40 22:40 19.06.2020
2062 Clear 21 1016 64 10000 5.1 40 22:22 19.06.2020
2063 Clear 22 1016 64 10000 5.1 40 21:58 19.06.2020
2064 Clear 22 1016 60 10000 4.1 30 21:38 19.06.2020
2065 Clear 22 1015 64 10000 2.6 30 21:18 19.06.2020
2066 Clear 22 1015 64 10000 2.6 30 20:58 19.06.2020
2067 Clear 23 1015 68 10000 1.5 30 20:40 19.06.2020
2068 Clear 23 1015 68 10000 1.5 30 20:21 19.06.2020
2069 Clear 24 1015 53 10000 2.1 130 19:57 19.06.2020
2070 Clear 24 1015 50 10000 2.6 160 19:38 19.06.2020
2071 Clear 24 1015 50 10000 1.5 130 19:19 19.06.2020
2072 Clear 25 1015 50 10000 2.1 180 18:41 19.06.2020
2073 Clear 24 1015 50 10000 2.1 180 18:21 19.06.2020
2074 Clear 24 1015 50 10000 4.1 170 17:58 19.06.2020
2075 Clear 25 1015 47 10000 3.1 110 17:38 19.06.2020
2076 Clear 25 1015 47 10000 3.1 110 17:20 19.06.2020
2077 Clear 25 1015 47 10000 3.1 110 17:20 19.06.2020
2078 Clear 24 1015 47 10000 3.1 50 16:54 19.06.2020
2079 Clear 25 1014 47 10000 4.1 30 16:36 19.06.2020
2080 Clear 25 1014 47 10000 4.1 30 16:18 19.06.2020
2081 Clear 25 1015 44 10000 2.1 0 15:42 19.06.2020
2082 Clear 25 1015 44 10000 2.1 0 15:20 19.06.2020
2083 Clear 25 1015 41 10000 3.1 20 14:56 19.06.2020
2084 Clear 25 1015 44 10000 2.1 0 14:38 19.06.2020
2085 Clear 25 1015 44 10000 3.6 20 14:18 19.06.2020
2086 Clear 25 1015 44 10000 3.1 330 13:43 19.06.2020
2087 Clear 25 1015 44 10000 3.1 330 13:25 19.06.2020
2088 Clear 24 1015 44 10000 1.5 0 12:48 19.06.2020
2089 Clear 25 1015 44 10000 1.5 0 12:23 19.06.2020
2090 Clear 24 1015 47 10000 1.5 40 11:58 19.06.2020
2091 Clear 24 1015 44 10000 2.6 50 11:38 19.06.2020
2092 Clear 24 1015 53 10000 3.6 350 11:18 19.06.2020
2093 Clear 23 1015 53 10000 3.1 340 10:46 19.06.2020
2094 Clear 21 1015 53 10000 3.1 340 10:26 19.06.2020
2095 Clear 22 1015 56 10000 3.1 360 09:59 19.06.2020
2096 Clear 21 1015 64 10000 3.6 350 09:41 19.06.2020
2097 Clear 21 1015 64 10000 2.6 350 09:20 19.06.2020
2098 Clear 20 1015 68 10000 3.1 360 08:44 19.06.2020
2099 Clear 20 1015 68 10000 3.1 360 08:26 19.06.2020
2100 Clear 19 1015 64 10000 3.6 20 07:56 19.06.2020
2101 Clear 19 1014 68 10000 3.1 10 07:38 19.06.2020
2102 Clear 18 1015 72 10000 2.6 10 07:19 19.06.2020
2103 Clear 16 1014 77 10000 3.6 360 06:25 19.06.2020
2104 Clear 16 1014 82 10000 3.6 350 05:44 19.06.2020
2105 Clear 16 1014 82 10000 2.6 340 04:25 19.06.2020
2106 Clear 16 1014 93 10000 2.6 330 02:51 19.06.2020
2107 Clear 17 1014 93 10000 2.1 340 00:49 19.06.2020
2108 Clear 18 1014 93 10000 2.1 340 00:22 19.06.2020
2109 Clear 18 1014 93 10000 1.5 340 23:59 18.06.2020
2110 Clear 18 1013 93 10000 1.5 340 23:41 18.06.2020
2111 Clear 18 1013 93 10000 1.5 340 23:23 18.06.2020
2112 Clear 19 1013 93 10000 2.6 320 22:58 18.06.2020
2113 Clear 20 1013 82 10000 2.1 300 22:37 18.06.2020
2114 Clear 20 1013 77 10000 2.1 270 22:18 18.06.2020
2115 Clear 20 1013 77 10000 2.1 270 22:18 18.06.2020
2116 Clear 21 1012 73 10000 1.5 250 21:39 18.06.2020
2117 Clear 22 1012 73 10000 1.5 250 21:20 18.06.2020
2118 Clear 22 1012 60 10000 2.6 240 20:56 18.06.2020
2119 Clear 23 1012 57 10000 3.1 230 20:38 18.06.2020
2120 Clear 23 1012 60 10000 2.6 220 20:18 18.06.2020
2121 Clouds 24 1012 60 10000 3.1 210 19:42 18.06.2020
2122 Clouds 24 1012 61 10000 2.6 200 19:21 18.06.2020
2123 Clouds 24 1012 61 10000 2.6 200 18:57 18.06.2020
2124 Clouds 24 1013 64 10000 3.1 200 18:37 18.06.2020
2125 Clouds 24 1013 69 10000 2.6 180 18:18 18.06.2020
2126 Clouds 24 1013 64 10000 3.1 180 17:45 18.06.2020
2127 Clouds 24 1013 64 10000 3.1 180 17:25 18.06.2020
2128 Clouds 23 1013 64 10000 2.1 220 16:56 18.06.2020
2129 Clouds 23 1013 65 10000 3.1 180 16:37 18.06.2020
2130 Clouds 23 1013 73 10000 3.1 120 16:18 18.06.2020
2131 Clouds 22 1013 73 10000 3.1 120 15:55 18.06.2020
2132 Clouds 22 1013 73 10000 4.1 170 15:37 18.06.2020
2133 Clouds 22 1013 73 10000 4.1 180 15:18 18.06.2020
2134 Clouds 22 1013 73 10000 2.6 170 14:41 18.06.2020
2135 Clouds 22 1013 73 10000 2.6 170 14:23 18.06.2020
2136 Clouds 21 1013 78 10000 2.1 140 13:58 18.06.2020
2137 Clouds 21 1014 78 10000 2.6 130 13:40 18.06.2020
2138 Clouds 21 1014 78 10000 2.6 130 13:40 18.06.2020
2139 Clouds 21 1014 78 10000 2.6 130 13:20 18.06.2020
2140 Clouds 21 1014 88 10000 3.1 140 12:55 18.06.2020
2141 Clouds 20 1014 83 10000 2.6 230 12:37 18.06.2020
2142 Clouds 20 1014 83 10000 2.6 230 12:19 18.06.2020
2143 Clouds 20 1014 88 10000 2.1 240 11:46 18.06.2020
2144 Clouds 19 1013 94 10000 2.6 330 11:21 18.06.2020
2145 Clouds 19 1012 93 10000 1.5 310 10:41 18.06.2020
2146 Clouds 19 1012 93 10000 1.5 310 10:20 18.06.2020
2147 Clouds 19 1013 93 10000 2.1 200 09:58 18.06.2020
2148 Clouds 19 1014 93 7000 3.6 210 09:40 18.06.2020
2149 Clouds 19 1014 93 7000 3.6 210 09:40 18.06.2020
2150 Clouds 19 1014 93 7000 3.6 210 09:21 18.06.2020
2151 Rain 19 1014 93 6000 3.1 200 08:41 18.06.2020
2152 Rain 18 1014 100 6000 2.1 140 08:22 18.06.2020
2153 Rain 18 1014 100 6000 2.1 140 07:57 18.06.2020
2154 Thunderstorm 18 1013 100 4000 3.1 60 07:37 18.06.2020
2155 Thunderstorm 18 1013 100 4000 3.1 60 07:37 18.06.2020
2156 Rain 18 1014 91 0 0.93 90 07:19 18.06.2020
2157 Rain 18 1014 100 3000 1.5 300 06:22 18.06.2020
2158 Rain 18 1014 100 6000 2.6 290 04:26 18.06.2020
2159 Clear 17 1014 100 10000 1 0 03:18 18.06.2020
2160 Rain 19 1014 82 10000 2.1 80 01:32 18.06.2020
2161 Rain 18 1015 82 10000 1 0 00:59 18.06.2020
2162 Rain 18 1015 88 10000 1 0 00:39 18.06.2020
2163 Rain 19 1015 77 10000 1.5 80 00:21 18.06.2020
2164 Rain 19 1015 77 10000 2.6 110 23:45 17.06.2020
2165 Clouds 19 1015 73 10000 2.1 110 23:21 17.06.2020
2166 Clouds 19 1015 73 10000 2.1 110 22:58 17.06.2020
2167 Clouds 20 1015 73 10000 2.6 130 22:39 17.06.2020
2168 Clouds 20 1015 73 10000 2.6 130 22:20 17.06.2020
2169 Clouds 20 1015 73 10000 3.1 130 21:55 17.06.2020
2170 Clear 21 1015 68 10000 3.1 120 21:37 17.06.2020
2171 Clear 22 1015 68 10000 4.6 130 21:18 17.06.2020
2172 Clear 21 1015 60 10000 4.1 120 20:38 17.06.2020
2173 Clear 21 1015 60 10000 4.1 120 20:38 17.06.2020
2174 Clear 22 1015 57 10000 4.1 130 20:20 17.06.2020
2175 Clear 22 1015 57 10000 4.1 130 19:57 17.06.2020
2176 Clear 22 1015 57 10000 4.1 130 19:57 17.06.2020
2177 Clear 22 1015 60 10000 4.6 130 19:38 17.06.2020
2178 Clear 23 1015 60 10000 4.6 130 19:19 17.06.2020
2179 Clear 23 1015 47 10000 2.6 120 18:45 17.06.2020
2180 Clear 24 1015 47 10000 2.6 120 18:27 17.06.2020
2181 Clear 24 1015 47 10000 2.6 130 17:45 17.06.2020
2182 Clear 25 1015 50 10000 3.1 130 17:23 17.06.2020
2183 Clear 24 1015 50 10000 3.1 130 16:58 17.06.2020
2184 Clear 24 1015 53 10000 3.6 130 16:39 17.06.2020
2185 Clear 24 1015 47 10000 3.1 150 16:21 17.06.2020
2186 Clear 24 1015 47 10000 3.1 150 15:56 17.06.2020
2187 Clear 24 1015 44 10000 4.1 160 15:38 17.06.2020
2188 Clear 23 1015 41 10000 3.1 160 15:19 17.06.2020
2189 Clear 23 1015 41 10000 3.1 160 14:57 17.06.2020
2190 Clear 23 1015 39 10000 4.1 160 14:38 17.06.2020
2191 Clear 23 1015 38 10000 4.1 170 14:19 17.06.2020
2192 Clear 23 1015 38 10000 4.1 170 14:19 17.06.2020
2193 Clear 24 1015 41 10000 4.1 150 13:42 17.06.2020
2194 Clear 24 1015 41 10000 4.1 150 13:22 17.06.2020
2195 Clear 24 1015 41 10000 2.1 180 12:59 17.06.2020
2196 Clouds 24 1015 47 10000 2.1 0 12:40 17.06.2020
2197 Clouds 24 1015 44 10000 2.6 120 12:21 17.06.2020
2198 Clouds 24 1016 41 10000 2.1 110 11:44 17.06.2020
2199 Clouds 24 1016 41 10000 2.1 110 11:26 17.06.2020
2200 Clouds 23 1015 49 10000 1 0 10:58 17.06.2020
2201 Clouds 23 1015 53 10000 2.1 90 10:38 17.06.2020
2202 Clouds 23 1015 53 10000 1 0 10:19 17.06.2020
2203 Clouds 23 1015 53 10000 1 0 09:55 17.06.2020
2204 Clouds 21 1015 60 10000 1 0 09:36 17.06.2020
2205 Clouds 21 1015 72 10000 2.1 290 09:18 17.06.2020
2206 Clouds 21 1015 72 10000 2.1 290 09:18 17.06.2020
2207 Clouds 21 1015 68 10000 1.5 280 08:42 17.06.2020
2208 Clouds 20 1015 77 10000 1 0 08:19 17.06.2020
2209 Clouds 19 1015 82 10000 1 0 07:44 17.06.2020
2210 Clouds 19 1015 88 10000 2.1 230 07:23 17.06.2020
2211 Clouds 18 1015 88 10000 2.1 230 06:58 17.06.2020
2212 Clouds 18 1015 88 10000 1.5 230 06:39 17.06.2020
2213 Clouds 18 1015 88 10000 1 0 06:21 17.06.2020
2214 Clouds 18 1015 88 10000 1 0 05:48 17.06.2020
2215 Clouds 17 1015 100 10000 1.5 60 04:38 17.06.2020
2216 Clouds 17 1015 93 10000 1.5 70 01:59 17.06.2020
2217 Clouds 17 1014 93 10000 1.5 80 00:49 17.06.2020
2218 Clouds 17 1014 93 10000 1.5 80 00:30 17.06.2020
2219 Clouds 18 1015 88 10000 2.1 60 23:58 16.06.2020
2220 Clouds 17 1015 93 10000 1 50 23:40 16.06.2020
2221 Clear 18 1015 93 10000 1.5 50 23:22 16.06.2020
2222 Clear 17 1015 93 10000 1.5 50 22:57 16.06.2020
2223 Clear 19 1015 77 10000 2.1 130 22:38 16.06.2020
2224 Clear 19 1015 77 10000 1.5 130 22:19 16.06.2020
2225 Clear 19 1015 77 10000 1.5 130 21:57 16.06.2020
2226 Clear 20 1014 68 10000 1 0 21:39 16.06.2020
2227 Clear 20 1014 68 10000 1 0 21:39 16.06.2020
2228 Clear 20 1014 68 10000 3.6 130 21:20 16.06.2020
2229 Clear 21 1014 68 10000 4.1 170 20:43 16.06.2020
2230 Clouds 21 1014 68 10000 4.1 170 20:22 16.06.2020
2231 Clouds 22 1014 57 10000 3.1 130 19:58 16.06.2020
2232 Clouds 22 1014 60 10000 3.1 110 19:40 16.06.2020
2233 Clouds 22 1014 60 10000 2.6 100 19:22 16.06.2020
2234 Clouds 23 1014 60 10000 2.6 100 18:56 16.06.2020
2235 Clouds 24 1014 60 10000 3.1 110 18:38 16.06.2020
2236 Clouds 24 1014 60 10000 3.1 110 18:20 16.06.2020
2237 Clouds 24 1015 60 10000 3.1 120 17:56 16.06.2020
2238 Clouds 24 1014 60 10000 3.1 140 17:37 16.06.2020
2239 Clouds 24 1015 60 10000 3.6 120 17:19 16.06.2020
2240 Clouds 24 1015 60 10000 3.6 120 16:55 16.06.2020
2241 Clouds 24 1015 64 10000 3.1 120 16:37 16.06.2020
2242 Clouds 24 1015 64 10000 2.6 100 16:18 16.06.2020
2243 Clouds 24 1015 64 10000 2.6 100 15:55 16.06.2020
2244 Clouds 24 1015 64 10000 4.6 70 15:37 16.06.2020
2245 Clouds 24 1015 69 10000 4.6 90 15:19 16.06.2020
2246 Clouds 24 1015 78 10000 3.1 70 14:42 16.06.2020
2247 Clouds 24 1015 78 10000 3.1 70 14:23 16.06.2020
2248 Clouds 23 1015 94 10000 2.6 80 13:50 16.06.2020
2249 Clouds 22 1015 94 10000 2.6 80 13:27 16.06.2020
2250 Rain 21 1015 94 10000 3.1 50 12:57 16.06.2020
2251 Rain 22 1016 93 10000 3.6 80 12:39 16.06.2020
2252 Rain 21 1016 93 10000 3.6 80 12:21 16.06.2020
2253 Rain 22 1015 73 10000 4.6 120 11:55 16.06.2020
2254 Clouds 23 1015 60 10000 4.1 100 11:37 16.06.2020
2255 Clouds 23 1015 60 10000 4.1 80 11:19 16.06.2020
2256 Clouds 23 1015 64 10000 5.1 60 10:43 16.06.2020
2257 Clear 23 1015 60 10000 4.1 50 10:21 16.06.2020
2258 Clear 23 1015 60 10000 4.1 50 09:58 16.06.2020
2259 Clouds 22 1015 64 10000 3.6 80 09:40 16.06.2020
2260 Clouds 22 1015 64 10000 3.6 80 09:21 16.06.2020
2261 Clouds 22 1015 64 10000 3.6 80 09:21 16.06.2020
2262 Clouds 21 1015 68 10000 3.6 50 08:44 16.06.2020
2263 Clouds 21 1015 68 10000 3.6 50 08:25 16.06.2020
2264 Clouds 21 1015 72 10000 3.1 50 07:50 16.06.2020
2265 Clouds 20 1015 72 10000 1.5 80 07:27 16.06.2020
2266 Clouds 20 1015 72 10000 1.5 80 07:27 16.06.2020
2267 Clouds 19 1014 72 10000 2.1 30 06:48 16.06.2020
2268 Clouds 18 1014 72 10000 2.1 30 06:27 16.06.2020
2269 Clouds 17 1015 88 10000 2.1 30 05:39 16.06.2020
2270 Clouds 17 1014 93 10000 2.6 340 04:39 16.06.2020
2271 Clouds 18 1015 88 10000 1 70 02:59 16.06.2020
2272 Clouds 16 1015 82 10000 1 0 01:59 16.06.2020
2273 Clouds 18 1015 77 10000 1.5 70 01:27 16.06.2020
2274 Clouds 17 1015 77 10000 1 90 00:43 16.06.2020
2275 Clouds 18 1015 77 10000 1 90 00:19 16.06.2020
2276 Clear 18 1015 77 10000 1 0 23:42 15.06.2020
2277 Clouds 18 1015 82 10000 1.5 60 23:22 15.06.2020
2278 Clouds 18 1015 82 10000 1.5 60 22:55 15.06.2020
2279 Clear 19 1015 72 10000 2.1 90 22:37 15.06.2020
2280 Clear 19 1015 60 10000 2.6 100 22:18 15.06.2020
2281 Clear 19 1015 60 10000 2.6 100 21:55 15.06.2020
2282 Clouds 20 1015 56 10000 2.1 110 21:36 15.06.2020
2283 Clouds 20 1015 56 10000 3.1 110 21:18 15.06.2020
2284 Clouds 20 1015 56 10000 3.1 110 20:55 15.06.2020
2285 Clouds 21 1015 53 10000 3.6 110 20:36 15.06.2020
2286 Clear 21 1015 53 10000 3.1 90 20:18 15.06.2020
2287 Clear 21 1015 53 10000 4.1 110 19:41 15.06.2020
2288 Clear 22 1015 49 10000 5.1 120 19:22 15.06.2020
2289 Clear 21 1015 53 10000 4.1 110 19:22 15.06.2020
2290 Clear 22 1015 49 10000 5.1 120 18:59 15.06.2020
2291 Clear 22 1016 49 10000 4.6 120 18:41 15.06.2020
2292 Clear 23 1016 49 10000 5.1 120 18:21 15.06.2020
2293 Clear 23 1016 49 10000 5.1 120 17:58 15.06.2020
2294 Clear 23 1016 47 10000 6.2 130 17:40 15.06.2020
2295 Clear 23 1016 47 10000 6.2 130 17:40 15.06.2020
2296 Clear 23 1016 43 10000 6.2 110 17:20 15.06.2020
2297 Clear 23 1016 38 10000 6.2 110 16:57 15.06.2020
2298 Clear 23 1016 38 10000 6.2 110 16:39 15.06.2020
2299 Clear 23 1016 38 10000 5.7 110 16:18 15.06.2020
2300 Clear 23 1016 38 10000 4.1 90 15:41 15.06.2020
2301 Clear 23 1016 38 10000 5.1 90 15:21 15.06.2020
2302 Clear 23 1016 38 10000 5.1 90 14:58 15.06.2020
2303 Clear 23 1017 38 10000 5.7 80 14:40 15.06.2020
2304 Clear 24 1017 36 10000 4.6 80 14:19 15.06.2020
2305 Clear 23 1017 36 10000 4.6 80 13:56 15.06.2020
2306 Clear 23 1017 36 10000 5.1 80 13:38 15.06.2020
2307 Clear 23 1017 36 10000 5.1 80 13:18 15.06.2020
2308 Clear 23 1018 36 10000 4.6 60 12:43 15.06.2020
2309 Clear 23 1018 36 10000 4.6 60 12:22 15.06.2020
2310 Clear 23 1018 38 10000 5.7 70 11:58 15.06.2020
2311 Clear 23 1018 38 10000 5.7 70 11:58 15.06.2020
2312 Clear 23 1018 36 10000 4.6 80 11:40 15.06.2020
2313 Clear 23 1018 36 10000 4.6 80 11:22 15.06.2020
2314 Clear 22 1018 40 10000 5.1 60 10:41 15.06.2020
2315 Clear 22 1018 40 10000 5.1 60 10:41 15.06.2020
2316 Clear 21 1018 40 10000 5.1 60 10:21 15.06.2020
2317 Clear 21 1018 43 10000 5.1 40 09:43 15.06.2020
2318 Clouds 21 1018 43 10000 5.1 40 09:23 15.06.2020
2319 Clear 20 1019 52 10000 4.1 80 08:47 15.06.2020
2320 Clear 20 1019 52 10000 4.1 80 08:27 15.06.2020
2321 Clear 19 1019 55 10000 3.6 60 07:57 15.06.2020
2322 Clear 19 1019 59 10000 3.1 60 07:37 15.06.2020
2323 Clear 19 1019 59 10000 3.1 60 07:37 15.06.2020
2324 Clear 18 1019 63 10000 3.6 50 07:19 15.06.2020
2325 Clear 15 1019 67 10000 4.1 50 06:28 15.06.2020
2326 Clear 15 1019 71 10000 3.1 50 05:51 15.06.2020
2327 Clear 15 1019 71 10000 3.1 50 05:29 15.06.2020
2328 Clear 12 1020 76 10000 2.6 50 04:22 15.06.2020
2329 Clear 12 1020 81 10000 3.1 50 03:49 15.06.2020
2330 Clear 12 1020 81 10000 2.6 50 02:57 15.06.2020
2331 Clouds 12 1020 81 10000 2.6 40 02:29 15.06.2020
2332 Clouds 12 1020 87 10000 2.1 40 01:47 15.06.2020
2333 Clouds 13 1021 81 10000 1 30 01:24 15.06.2020
2334 Clouds 13 1021 81 10000 1.5 30 00:45 15.06.2020
2335 Clouds 13 1021 81 10000 1.5 30 00:23 15.06.2020
2336 Clouds 14 1021 81 10000 1 70 23:57 14.06.2020
2337 Clouds 14 1021 76 10000 1.5 70 23:39 14.06.2020
2338 Clouds 14 1021 71 10000 2.1 50 23:21 14.06.2020
2339 Clouds 15 1021 71 10000 2.1 50 22:57 14.06.2020
2340 Clouds 15 1021 62 10000 1.5 40 22:37 14.06.2020
2341 Clouds 16 1021 59 10000 1.5 60 22:18 14.06.2020
2342 Clouds 18 1021 59 10000 1.5 60 21:56 14.06.2020
2343 Clouds 19 1021 40 10000 2.6 80 21:37 14.06.2020
2344 Clear 20 1021 40 10000 3.6 90 21:18 14.06.2020
2345 Clear 20 1021 40 10000 3.6 90 20:57 14.06.2020
2346 Clear 21 1021 37 10000 4.1 80 20:38 14.06.2020
2347 Clear 21 1021 37 0 2.61 82 20:18 14.06.2020
2348 Clear 21 1021 37 10000 4.1 110 19:56 14.06.2020
2349 Clear 21 1021 33 10000 4.1 110 19:37 14.06.2020
2350 Clear 22 1021 33 10000 5.1 100 19:18 14.06.2020
2351 Clear 21 1021 30 10000 5.7 100 18:55 14.06.2020
2352 Clear 21 1021 30 10000 5.7 100 18:37 14.06.2020
2353 Clear 22 1022 28 10000 5.1 100 18:18 14.06.2020
2354 Clear 21 1022 28 10000 5.1 100 17:55 14.06.2020
2355 Clear 21 1022 28 10000 5.1 80 17:36 14.06.2020
2356 Clear 21 1022 30 10000 4.1 100 17:18 14.06.2020
2357 Clear 21 1023 28 10000 4.6 100 16:40 14.06.2020
2358 Clear 22 1023 28 10000 4.6 100 16:20 14.06.2020
2359 Clear 22 1023 28 10000 4.6 100 16:20 14.06.2020
2360 Clear 21 1023 35 10000 5.1 120 15:57 14.06.2020
2361 Clear 21 1024 28 10000 6.2 100 15:38 14.06.2020
2362 Clear 21 1024 28 10000 6.2 100 15:18 14.06.2020
2363 Clear 22 1024 31 10000 5.1 90 14:55 14.06.2020
2364 Clear 21 1024 37 10000 5.1 110 14:36 14.06.2020
2365 Clear 21 1024 37 10000 6.2 140 14:18 14.06.2020
2366 Clear 21 1024 35 10000 5.1 120 13:41 14.06.2020
2367 Clear 21 1024 30 10000 7.2 80 13:22 14.06.2020
2368 Clear 21 1024 30 10000 7.2 80 12:59 14.06.2020
2369 Clear 21 1025 33 10000 6.2 100 12:40 14.06.2020
2370 Clear 21 1025 33 10000 5.7 70 12:21 14.06.2020
2371 Clear 20 1025 33 10000 5.7 70 11:58 14.06.2020
2372 Clear 20 1025 33 10000 6.7 90 11:38 14.06.2020
2373 Clear 20 1025 35 10000 5.1 60 11:20 14.06.2020
2374 Clear 20 1025 32 10000 5.1 50 10:42 14.06.2020
2375 Clear 20 1026 32 10000 4.1 50 10:20 14.06.2020
2376 Clear 20 1026 32 10000 4.1 50 09:57 14.06.2020
2377 Clear 20 1026 32 10000 3.6 60 09:39 14.06.2020
2378 Clear 20 1026 32 10000 3.6 60 09:20 14.06.2020
2379 Clear 20 1026 42 10000 2.6 40 08:42 14.06.2020
2380 Clear 19 1026 45 10000 3.6 60 08:21 14.06.2020
2381 Clear 18 1026 45 10000 3.6 60 07:52 14.06.2020
2382 Clear 18 1026 45 10000 3.1 50 07:34 14.06.2020
2383 Clear 15 1026 58 10000 1.5 20 06:40 14.06.2020
2384 Clear 13 1026 76 10000 1 360 05:49 14.06.2020
2385 Clear 12 1026 76 10000 1 360 05:21 14.06.2020
2386 Clear 10 1026 87 10000 1 350 04:36 14.06.2020
2387 Clear 10 1026 87 10000 1.5 360 03:44 14.06.2020
2388 Clear 10 1026 87 10000 1 350 02:34 14.06.2020
2389 Clear 11 1026 87 10000 0.5 0 01:49 14.06.2020
2390 Clear 11 1026 87 10000 0.5 0 01:26 14.06.2020
2391 Clear 12 1026 81 10000 1 0 00:42 14.06.2020
2392 Clear 13 1026 81 10000 1 0 00:20 14.06.2020
2393 Clear 13 1026 81 10000 1 360 23:44 13.06.2020
2394 Clear 13 1026 81 10000 1 360 23:25 13.06.2020
2395 Clear 13 1026 81 10000 1 360 23:25 13.06.2020
2396 Clear 14 1026 71 10000 0.5 0 22:58 13.06.2020
2397 Clear 15 1026 66 10000 0.5 0 22:37 13.06.2020
2398 Clear 16 1026 48 10000 2.6 120 22:18 13.06.2020
2399 Clear 16 1026 48 10000 2.6 120 21:56 13.06.2020
2400 Clear 17 1026 37 10000 2.1 100 21:38 13.06.2020
2401 Clear 18 1026 37 10000 2.6 100 21:20 13.06.2020
2402 Clear 19 1025 34 10000 4.1 120 20:43 13.06.2020
2403 Clear 20 1026 34 10000 4.6 140 20:19 13.06.2020
2404 Clear 20 1026 34 10000 4.6 140 19:57 13.06.2020
2405 Clear 20 1025 32 10000 4.6 140 19:36 13.06.2020
2406 Clear 20 1026 34 10000 5.1 120 19:18 13.06.2020
2407 Clear 20 1026 34 10000 5.1 120 18:55 13.06.2020
2408 Clear 20 1026 35 10000 5.1 120 18:37 13.06.2020
2409 Clear 20 1026 35 10000 5.1 120 18:18 13.06.2020
2410 Clear 20 1026 35 10000 4.6 120 17:42 13.06.2020
2411 Clear 20 1026 35 10000 4.6 120 17:23 13.06.2020
2412 Clear 20 1026 35 10000 4.6 150 16:58 13.06.2020
2413 Clear 20 1026 37 10000 5.1 130 16:40 13.06.2020
2414 Clear 20 1026 35 10000 4.6 140 16:19 13.06.2020
2415 Clear 20 1026 35 10000 4.6 140 15:58 13.06.2020
2416 Clear 20 1026 35 10000 5.1 120 15:39 13.06.2020
2417 Clear 20 1026 35 10000 5.1 110 15:20 13.06.2020
2418 Clear 20 1026 35 10000 5.1 110 15:20 13.06.2020
2419 Clear 20 1026 37 10000 5.7 120 14:43 13.06.2020
2420 Clouds 20 1026 40 10000 4.6 130 14:22 13.06.2020
2421 Clouds 20 1026 37 10000 5.1 130 13:56 13.06.2020
2422 Clouds 21 1026 37 10000 5.1 130 13:37 13.06.2020
2423 Clouds 21 1026 37 10000 5.1 130 13:18 13.06.2020
2424 Clouds 21 1026 43 10000 5.7 130 12:42 13.06.2020
2425 Clouds 21 1026 43 10000 5.7 130 12:24 13.06.2020
2426 Clouds 21 1026 37 10000 4.1 80 11:40 13.06.2020
2427 Clear 21 1027 37 10000 3.6 80 11:19 13.06.2020
2428 Clear 21 1027 37 10000 3.6 80 10:58 13.06.2020
2429 Clear 20 1027 37 10000 3.6 50 10:40 13.06.2020
2430 Clear 20 1027 35 10000 3.1 50 10:22 13.06.2020
2431 Clear 20 1027 35 10000 3.1 50 09:54 13.06.2020
2432 Clear 20 1027 40 10000 2.6 20 09:36 13.06.2020
2433 Clear 20 1027 42 10000 3.1 60 09:18 13.06.2020
2434 Clear 19 1027 45 10000 2.1 50 08:42 13.06.2020
2435 Clouds 20 1027 45 10000 2.1 50 08:24 13.06.2020
2436 Clouds 18 1026 55 10000 2.1 40 07:43 13.06.2020
2437 Clouds 17 1026 55 10000 2.1 40 07:25 13.06.2020
2438 Clouds 16 1026 62 10000 2.1 10 06:44 13.06.2020
2439 Clouds 14 1026 62 10000 2.1 10 06:25 13.06.2020
2440 Clouds 13 1026 66 10000 1.5 360 05:28 13.06.2020
2441 Clouds 11 1026 81 10000 1.5 360 04:37 13.06.2020
2442 Clouds 10 1025 93 10000 1 340 03:43 13.06.2020
2443 Clouds 11 1025 93 10000 0.5 20 02:45 13.06.2020
2444 Clear 12 1025 87 10000 1.5 30 01:49 13.06.2020
2445 Clear 12 1025 87 10000 1.5 30 01:23 13.06.2020
2446 Clear 13 1025 81 10000 2.1 40 00:54 13.06.2020
2447 Clear 13 1025 76 10000 1 70 00:27 13.06.2020
2448 Clear 14 1025 76 10000 1.5 80 23:58 12.06.2020
2449 Clear 15 1024 76 10000 2.6 60 23:38 12.06.2020
2450 Clear 14 1024 76 10000 2.1 50 23:18 12.06.2020
2451 Clear 14 1024 62 10000 1.5 90 22:42 12.06.2020
2452 Clear 16 1024 62 10000 1.5 90 22:19 12.06.2020
2453 Clear 17 1024 42 10000 2.6 100 21:56 12.06.2020
2454 Clear 18 1024 39 10000 3.1 100 21:37 12.06.2020
2455 Clear 19 1023 39 10000 3.1 100 21:19 12.06.2020
2456 Clear 19 1023 37 10000 4.1 110 20:56 12.06.2020
2457 Clear 19 1023 37 10000 4.1 110 20:37 12.06.2020
2458 Clear 20 1023 35 10000 3.1 100 20:19 12.06.2020
2459 Clear 20 1023 32 10000 4.1 110 19:39 12.06.2020
2460 Clear 20 1023 32 10000 4.1 110 19:21 12.06.2020
2461 Clear 20 1023 37 10000 4.6 120 18:56 12.06.2020
2462 Clear 21 1023 35 10000 5.7 140 18:36 12.06.2020
2463 Clear 21 1023 35 10000 5.1 120 18:18 12.06.2020
2464 Clear 21 1023 35 10000 5.1 120 17:40 12.06.2020
2465 Clear 21 1023 37 10000 5.1 130 17:21 12.06.2020
2466 Clear 21 1023 35 10000 6.7 130 16:45 12.06.2020
2467 Clear 21 1023 35 10000 5.1 110 16:21 12.06.2020
2468 Clear 21 1023 33 10000 4.6 110 15:49 12.06.2020
2469 Clear 21 1023 33 10000 4.6 110 15:28 12.06.2020
2470 Clear 22 1023 27 10000 5.1 70 14:58 12.06.2020
2471 Clear 22 1023 28 10000 5.1 110 14:39 12.06.2020
2472 Clear 22 1023 27 10000 7.2 60 14:21 12.06.2020
2473 Clear 22 1023 26 10000 6.7 40 13:43 12.06.2020
2474 Clouds 22 1023 48 10000 5.1 80 13:22 12.06.2020
2475 Clouds 21 1023 48 10000 5.1 80 12:55 12.06.2020
2476 Clouds 22 1024 26 10000 6.7 70 12:37 12.06.2020
2477 Clouds 21 1023 30 10000 6.7 80 12:18 12.06.2020
2478 Clouds 21 1023 32 10000 6.2 40 11:42 12.06.2020
2479 Clouds 21 1023 32 10000 6.2 40 11:23 12.06.2020
2480 Clouds 20 1023 37 10000 7.7 70 10:49 12.06.2020
2481 Clouds 20 1023 37 10000 7.7 70 10:26 12.06.2020
2482 Clouds 20 1023 37 10000 6.7 70 09:58 12.06.2020
2483 Clouds 20 1023 45 10000 5.7 50 09:38 12.06.2020
2484 Clouds 19 1023 48 10000 6.7 50 09:18 12.06.2020
2485 Clouds 19 1023 52 10000 5.7 50 08:41 12.06.2020
2486 Clouds 19 1023 52 10000 5.7 50 08:22 12.06.2020
2487 Clouds 18 1022 59 10000 4.6 40 07:40 12.06.2020
2488 Clouds 17 1022 67 10000 4.6 40 07:22 12.06.2020
2489 Clouds 16 1022 72 10000 4.1 30 06:40 12.06.2020
2490 Clouds 15 1022 72 10000 3.6 30 06:19 12.06.2020
2491 Clouds 15 1022 76 10000 3.6 20 05:49 12.06.2020
2492 Clouds 15 1022 76 10000 3.6 20 05:23 12.06.2020
2493 Clouds 13 1022 82 10000 3.1 20 03:52 12.06.2020
2494 Clouds 14 1022 82 10000 2.6 20 02:25 12.06.2020
2495 Clouds 14 1022 87 10000 2.1 360 01:34 12.06.2020
2496 Clouds 13 1021 93 10000 2.1 350 00:58 12.06.2020
2497 Clouds 13 1021 93 10000 3.6 350 00:38 12.06.2020
2498 Clouds 13 1021 100 10000 2.6 340 00:20 12.06.2020
2499 Clouds 13 1021 100 10000 2.6 340 00:20 12.06.2020
2500 Clouds 14 1021 100 10000 2.6 340 23:56 11.06.2020
2501 Clouds 14 1021 93 10000 2.1 340 23:37 11.06.2020
2502 Clouds 14 1021 93 10000 1.5 10 23:19 11.06.2020
2503 Clouds 15 1021 82 10000 2.1 90 22:41 11.06.2020
2504 Clear 15 1021 82 10000 2.1 90 22:21 11.06.2020
2505 Clear 15 1021 82 10000 2.1 90 21:57 11.06.2020
2506 Clear 16 1021 77 10000 3.1 110 21:38 11.06.2020
2507 Clear 16 1021 77 10000 3.1 110 21:20 11.06.2020
2508 Clear 17 1021 72 10000 4.1 120 20:56 11.06.2020
2509 Clear 17 1021 68 10000 4.6 130 20:38 11.06.2020
2510 Clouds 18 1020 68 10000 4.1 120 20:20 11.06.2020
2511 Clouds 19 1020 63 10000 3.1 120 19:42 11.06.2020
2512 Clouds 19 1020 63 10000 3.1 120 19:22 11.06.2020
2513 Clouds 19 1020 68 10000 4.1 140 18:44 11.06.2020
2514 Clouds 19 1020 68 10000 4.1 140 18:26 11.06.2020
2515 Clouds 19 1020 64 10000 5.7 140 17:57 11.06.2020
2516 Clouds 19 1020 64 10000 5.7 140 17:39 11.06.2020
2517 Clouds 19 1020 64 10000 5.7 140 17:20 11.06.2020
2518 Clouds 19 1020 64 10000 5.1 160 16:58 11.06.2020
2519 Clouds 20 1020 64 10000 5.1 160 16:40 11.06.2020
2520 Clear 21 1020 60 10000 2.6 120 16:22 11.06.2020
2521 Clear 21 1020 64 10000 3.6 120 15:56 11.06.2020
2522 Clear 20 1020 64 10000 3.6 130 15:38 11.06.2020
2523 Clear 21 1020 64 10000 3.6 130 15:19 11.06.2020
2524 Clear 21 1020 60 10000 4.1 150 14:42 11.06.2020
2525 Clouds 18 1020 64 10000 5.1 140 14:21 11.06.2020
2526 Clouds 20 1020 60 10000 6.7 160 13:56 11.06.2020
2527 Clouds 20 1020 43 10000 4.6 30 13:38 11.06.2020
2528 Clouds 20 1020 43 10000 4.6 30 13:38 11.06.2020
2529 Clouds 20 1020 43 10000 4.6 30 13:19 11.06.2020
2530 Clouds 21 1020 43 10000 5.7 30 12:56 11.06.2020
2531 Clouds 20 1019 46 10000 4.6 30 12:37 11.06.2020
2532 Clouds 20 1019 46 10000 4.6 30 12:19 11.06.2020
2533 Clouds 22 1019 46 10000 5.1 30 11:56 11.06.2020
2534 Clouds 22 1019 46 10000 5.1 30 11:37 11.06.2020
2535 Clouds 22 1020 43 10000 5.1 30 11:18 11.06.2020
2536 Clouds 21 1020 49 10000 5.1 10 10:43 11.06.2020
2537 Clouds 21 1020 52 10000 5.7 350 10:20 11.06.2020
2538 Clouds 21 1020 52 10000 5.7 350 10:20 11.06.2020
2539 Clouds 20 1019 56 10000 5.1 360 09:59 11.06.2020
2540 Clouds 20 1019 56 10000 5.1 360 09:40 11.06.2020
2541 Clouds 19 1020 59 10000 5.1 20 09:21 11.06.2020
2542 Clouds 19 1020 59 10000 4.1 10 08:42 11.06.2020
2543 Clouds 18 1020 59 10000 3.6 20 08:19 11.06.2020
2544 Clouds 17 1020 67 10000 3.6 30 07:42 11.06.2020
2545 Clouds 16 1020 63 10000 3.6 20 07:24 11.06.2020
2546 Clouds 14 1020 62 10000 3.6 10 06:38 11.06.2020
2547 Clouds 14 1020 58 10000 3.6 20 05:58 11.06.2020
2548 Clouds 14 1019 58 10000 3.6 10 04:49 11.06.2020
2549 Clouds 14 1019 54 10000 3.6 10 03:25 11.06.2020
2550 Clouds 15 1019 51 10000 4.1 10 02:49 11.06.2020
2551 Clouds 15 1019 54 10000 3.6 10 01:57 11.06.2020
2552 Clouds 15 1019 54 10000 3.1 10 01:35 11.06.2020
2553 Clouds 15 1019 54 10000 3.1 20 00:59 11.06.2020
2554 Clouds 15 1019 51 10000 3.6 10 00:39 11.06.2020
2555 Clouds 16 1019 51 10000 3.6 10 00:20 11.06.2020
2556 Clouds 16 1019 51 10000 4.1 360 23:43 10.06.2020
2557 Clouds 16 1018 48 10000 3.6 360 23:23 10.06.2020
2558 Clouds 16 1018 51 10000 3.6 350 22:55 10.06.2020
2559 Clouds 17 1018 55 10000 3.1 360 22:37 10.06.2020
2560 Clouds 17 1018 55 10000 3.1 360 22:18 10.06.2020
2561 Clouds 18 1018 45 10000 2.6 360 21:55 10.06.2020
2562 Clouds 19 1018 42 10000 3.1 10 21:37 10.06.2020
2563 Clouds 19 1018 42 10000 3.1 10 21:18 10.06.2020
2564 Clouds 19 1018 40 10000 3.6 360 20:55 10.06.2020
2565 Clouds 20 1018 43 10000 4.1 20 20:37 10.06.2020
2566 Clouds 20 1018 43 10000 4.1 20 20:18 10.06.2020
2567 Clouds 21 1018 40 10000 3.6 10 19:38 10.06.2020
2568 Clouds 21 1018 40 10000 3.6 10 19:18 10.06.2020
2569 Clouds 21 1017 38 10000 4.6 20 18:56 10.06.2020
2570 Clouds 22 1018 40 10000 4.1 10 18:37 10.06.2020
2571 Clouds 22 1018 40 10000 4.1 10 18:19 10.06.2020
2572 Clouds 22 1018 38 10000 4.6 10 17:54 10.06.2020
2573 Clouds 22 1018 38 10000 3.6 10 17:36 10.06.2020
2574 Clouds 23 1018 38 10000 3.6 10 17:18 10.06.2020
2575 Clouds 22 1018 38 10000 3.6 20 16:41 10.06.2020
2576 Clouds 23 1018 38 10000 4.1 360 16:22 10.06.2020
2577 Clouds 23 1018 38 10000 4.1 360 16:22 10.06.2020
2578 Clouds 22 1018 38 10000 4.6 10 15:59 10.06.2020
2579 Clouds 22 1018 38 10000 4.6 10 15:38 10.06.2020
2580 Clouds 22 1018 43 10000 5.1 350 15:20 10.06.2020
2581 Clouds 23 1018 43 10000 4.1 10 14:41 10.06.2020
2582 Clouds 23 1018 43 10000 5.7 350 14:22 10.06.2020
2583 Clouds 23 1018 46 10000 4.6 30 13:58 10.06.2020
2584 Clouds 22 1018 46 10000 4.6 30 13:39 10.06.2020
2585 Clear 22 1018 46 10000 6.2 360 13:21 10.06.2020
2586 Clear 22 1018 46 10000 5.7 360 12:42 10.06.2020
2587 Clear 22 1018 46 10000 5.1 30 12:20 10.06.2020
2588 Clear 22 1018 46 10000 4.1 30 11:56 10.06.2020
2589 Clouds 22 1018 52 10000 4.1 350 11:38 10.06.2020
2590 Clouds 21 1018 52 10000 4.1 350 11:19 10.06.2020
2591 Clouds 21 1018 52 10000 4.6 350 10:55 10.06.2020
2592 Clear 21 1018 52 10000 4.1 20 10:36 10.06.2020
2593 Clear 21 1018 52 10000 4.1 20 10:36 10.06.2020
2594 Clear 20 1018 52 10000 4.1 20 10:18 10.06.2020
2595 Clear 19 1018 55 10000 4.1 350 09:39 10.06.2020
2596 Clear 19 1018 55 10000 4.1 350 09:21 10.06.2020
2597 Clear 18 1018 63 10000 4.1 340 08:44 10.06.2020
2598 Clouds 17 1018 63 10000 4.1 340 08:23 10.06.2020
2599 Clouds 16 1018 67 10000 3.6 350 07:43 10.06.2020
2600 Clouds 16 1018 72 10000 3.6 360 07:24 10.06.2020
2601 Clouds 15 1018 82 10000 3.1 340 06:59 10.06.2020
2602 Clouds 15 1018 82 10000 3.1 330 06:40 10.06.2020
2603 Clouds 14 1018 82 10000 3.1 330 06:19 10.06.2020
2604 Clouds 14 1017 87 10000 3.1 330 05:54 10.06.2020
2605 Clouds 13 1018 87 10000 2.6 330 05:19 10.06.2020
2606 Clouds 13 1017 93 10000 3.1 330 04:30 10.06.2020
2607 Clouds 12 1017 93 10000 2.6 330 02:49 10.06.2020
2608 Clouds 12 1017 100 10000 3.1 320 01:51 10.06.2020
2609 Clouds 13 1017 93 10000 2.6 330 01:28 10.06.2020
2610 Clouds 13 1017 93 10000 2.1 340 00:39 10.06.2020
2611 Clouds 13 1017 93 10000 2.1 340 00:21 10.06.2020
2612 Clouds 14 1017 87 10000 2.6 320 23:54 09.06.2020
2613 Clouds 14 1017 87 10000 2.6 320 23:36 09.06.2020
2614 Clouds 14 1017 87 10000 2.6 320 23:18 09.06.2020
2615 Clouds 15 1017 77 10000 2.1 340 22:54 09.06.2020
2616 Clouds 15 1017 82 10000 3.1 320 22:36 09.06.2020
2617 Clouds 16 1017 82 10000 3.1 320 22:18 09.06.2020
2618 Clouds 16 1017 72 10000 1.5 350 21:54 09.06.2020
2619 Clouds 16 1017 72 10000 1.5 350 21:54 09.06.2020
2620 Clouds 16 1017 72 10000 1.5 350 21:36 09.06.2020
2621 Clouds 16 1017 72 10000 2.1 350 21:36 09.06.2020
2622 Clouds 16 1017 72 10000 2.1 350 21:36 09.06.2020
2623 Clouds 16 1017 72 10000 2.1 350 21:36 09.06.2020
2624 Clouds 16 1017 72 10000 2.1 350 21:18 09.06.2020
2625 Clouds 17 1017 67 10000 2.6 10 20:54 09.06.2020
2626 Clouds 17 1017 67 10000 2.6 10 20:36 09.06.2020
2627 Clouds 17 1016 63 10000 4.1 350 20:18 09.06.2020
2628 Clouds 17 1016 67 10000 3.6 360 19:54 09.06.2020
2629 Clouds 17 1016 67 10000 3.6 360 19:54 09.06.2020
2630 Clouds 18 1016 67 10000 3.6 360 19:36 09.06.2020
2631 Clouds 18 1016 63 10000 4.1 10 19:18 09.06.2020
2632 Clouds 18 1016 59 10000 5.1 10 18:41 09.06.2020
2633 Clouds 18 1016 68 10000 5.1 340 18:23 09.06.2020
2634 Clouds 18 1017 63 10000 5.7 350 17:56 09.06.2020
2635 Clouds 18 1017 61 0 4.23 7 17:38 09.06.2020
2636 Clouds 18 1017 63 10000 6.2 10 17:20 09.06.2020
2637 Clouds 17 1017 67 10000 6.2 360 16:43 09.06.2020
2638 Clouds 17 1017 67 10000 6.2 20 16:25 09.06.2020
2639 Clouds 17 1017 72 10000 5.1 360 15:57 09.06.2020
2640 Clouds 17 1017 72 10000 5.1 360 15:38 09.06.2020
2641 Clouds 17 1017 72 10000 5.7 350 15:20 09.06.2020
2642 Clouds 17 1017 72 10000 5.7 360 14:55 09.06.2020
2643 Clouds 17 1017 72 10000 5.7 360 14:37 09.06.2020
2644 Clouds 16 1017 77 10000 6.2 10 14:18 09.06.2020
2645 Clouds 16 1017 72 10000 5.7 360 13:43 09.06.2020
2646 Clouds 16 1017 72 10000 5.1 360 13:21 09.06.2020
2647 Clouds 16 1016 72 10000 5.7 350 12:58 09.06.2020
2648 Clouds 16 1016 72 10000 5.7 350 12:40 09.06.2020
2649 Clouds 15 1016 77 10000 5.7 360 12:18 09.06.2020
2650 Clouds 15 1016 82 10000 5.7 10 11:55 09.06.2020
2651 Clouds 15 1016 82 10000 5.1 350 11:37 09.06.2020
2652 Clouds 15 1016 82 10000 5.1 350 11:19 09.06.2020
2653 Clouds 14 1016 82 10000 4.6 360 10:44 09.06.2020
2654 Clouds 14 1016 87 10000 4.6 350 10:25 09.06.2020
2655 Rain 13 1016 87 10000 5.7 340 09:44 09.06.2020
2656 Rain 13 1016 87 10000 5.7 320 09:25 09.06.2020
2657 Rain 13 1015 87 10000 4.1 330 08:57 09.06.2020
2658 Rain 13 1015 87 10000 4.1 330 08:39 09.06.2020
2659 Clouds 13 1015 87 10000 3.1 340 08:20 09.06.2020
2660 Clouds 13 1015 93 10000 3.6 340 07:39 09.06.2020
2661 Clouds 13 1014 93 10000 3.6 330 07:20 09.06.2020
2662 Clouds 13 1014 93 10000 3.6 330 06:54 09.06.2020
2663 Clouds 13 1014 87 10000 3.6 340 06:35 09.06.2020
2664 Clouds 12 1013 100 10000 3.6 340 05:36 09.06.2020
2665 Clouds 12 1013 93 10000 3.1 330 03:50 09.06.2020
2666 Rain 12 1013 100 10000 4.1 340 01:45 09.06.2020
2667 Rain 12 1012 93 10000 3.6 330 01:20 09.06.2020
2668 Rain 13 1012 87 10000 4.6 350 00:58 09.06.2020
2669 Rain 13 1012 87 10000 5.1 350 00:38 09.06.2020
2670 Rain 13 1012 87 10000 5.1 350 00:18 09.06.2020
2671 Clouds 13 1012 87 10000 4.6 360 23:40 08.06.2020
2672 Clouds 13 1012 87 10000 3.1 10 23:20 08.06.2020
2673 Clouds 13 1011 87 10000 4.6 340 22:55 08.06.2020
2674 Clouds 13 1011 87 10000 4.6 340 22:37 08.06.2020
2675 Clouds 13 1011 87 10000 4.1 350 22:19 08.06.2020
2676 Clouds 13 1011 93 10000 4.6 340 21:55 08.06.2020
2677 Clouds 14 1011 87 10000 4.6 340 21:36 08.06.2020
2678 Clouds 14 1011 87 10000 4.6 340 21:18 08.06.2020
2679 Clouds 14 1012 93 10000 4.1 330 20:54 08.06.2020
2680 Clouds 14 1012 93 10000 4.1 330 20:54 08.06.2020
2681 Clouds 14 1012 93 10000 4.1 330 20:36 08.06.2020
2682 Clouds 14 1011 93 10000 3.6 350 20:18 08.06.2020
2683 Clouds 14 1011 93 10000 4.6 350 19:41 08.06.2020
2684 Clouds 15 1011 93 10000 4.6 350 19:20 08.06.2020
2685 Clouds 14 1011 93 10000 4.1 350 18:42 08.06.2020
2686 Clouds 15 1011 93 10000 4.1 350 18:20 08.06.2020
2687 Clouds 15 1011 93 10000 4.1 350 18:20 08.06.2020
2688 Clouds 15 1011 93 10000 5.1 330 17:57 08.06.2020
2689 Clouds 15 1011 93 10000 5.1 330 17:39 08.06.2020
2690 Clouds 15 1011 93 10000 4.6 330 17:21 08.06.2020
2691 Clouds 15 1011 93 10000 3.1 350 16:56 08.06.2020
2692 Clouds 15 1011 93 10000 3.1 350 16:38 08.06.2020
2693 Rain 15 1011 93 10000 3.6 350 16:20 08.06.2020
2694 Rain 15 1011 93 10000 3.6 350 16:20 08.06.2020
2695 Rain 15 1011 93 10000 3.1 360 15:42 08.06.2020
2696 Rain 16 1012 93 10000 3.1 330 15:21 08.06.2020
2697 Rain 16 1012 93 10000 2.6 330 14:56 08.06.2020
2698 Rain 16 1012 93 10000 2.6 330 14:38 08.06.2020
2699 Clouds 16 1012 93 10000 1 0 14:18 08.06.2020
2700 Rain 16 1012 87 10000 1.5 130 13:42 08.06.2020
2701 Rain 16 1012 87 7000 1.5 160 13:21 08.06.2020
2702 Rain 16 1011 82 10000 3.1 100 12:42 08.06.2020
2703 Rain 16 1011 82 10000 3.1 100 12:20 08.06.2020
2704 Rain 17 1011 72 10000 3.1 120 11:58 08.06.2020
2705 Rain 17 1011 72 10000 3.1 120 11:40 08.06.2020
2706 Rain 17 1012 55 10000 2.6 60 11:21 08.06.2020
2707 Clouds 18 1012 55 10000 2.1 70 10:56 08.06.2020
2708 Clouds 19 1012 52 10000 2.1 60 10:37 08.06.2020
2709 Clouds 19 1012 52 10000 2.1 60 10:19 08.06.2020
2710 Clouds 19 1012 52 10000 2.1 60 10:19 08.06.2020
2711 Clouds 18 1012 52 10000 2.6 50 09:47 08.06.2020
2712 Clouds 17 1012 55 10000 2.6 60 09:23 08.06.2020
2713 Clouds 17 1011 59 10000 2.6 50 08:50 08.06.2020
2714 Clouds 17 1011 59 10000 2.6 50 08:25 08.06.2020
2715 Clouds 17 1012 63 10000 2.1 60 07:59 08.06.2020
2716 Clouds 16 1012 63 10000 2.1 50 07:39 08.06.2020
2717 Clouds 16 1012 63 10000 2.1 50 07:20 08.06.2020
2718 Clouds 15 1011 82 10000 1 0 06:39 08.06.2020
2719 Clouds 14 1011 87 10000 1.5 40 05:55 08.06.2020
2720 Clouds 13 1011 93 10000 0.5 10 05:23 08.06.2020
2721 Clouds 13 1011 100 10000 1 20 03:26 08.06.2020
2722 Clouds 13 1011 100 10000 1 60 02:26 08.06.2020
2723 Clouds 13 1011 100 10000 0.5 0 01:43 08.06.2020
2724 Clouds 13 1011 93 10000 1 0 00:57 08.06.2020
2725 Clouds 13 1011 87 10000 1 100 00:25 08.06.2020
2726 Clouds 13 1011 93 10000 0.5 0 23:39 07.06.2020
2727 Clouds 13 1011 87 10000 2.6 140 23:19 07.06.2020
2728 Clouds 14 1011 82 10000 3.1 130 22:57 07.06.2020
2729 Clouds 14 1011 82 10000 2.6 120 22:37 07.06.2020
2730 Clouds 14 1011 82 10000 2.6 120 22:18 07.06.2020
2731 Clouds 14 1011 82 10000 2.6 120 21:58 07.06.2020
2732 Clouds 15 1011 82 10000 3.1 130 21:36 07.06.2020
2733 Clouds 15 1011 82 10000 3.1 130 21:18 07.06.2020
2734 Clouds 15 1011 77 10000 3.1 150 20:40 07.06.2020
2735 Clouds 16 1011 72 10000 4.6 150 20:21 07.06.2020
2736 Clouds 16 1010 63 10000 5.7 140 19:57 07.06.2020
2737 Clouds 16 1010 51 10000 4.6 100 19:39 07.06.2020
2738 Clouds 16 1010 51 10000 4.6 100 19:20 07.06.2020
2739 Clouds 16 1011 42 10000 5.1 120 18:59 07.06.2020
2740 Clouds 16 1011 42 10000 5.7 120 18:38 07.06.2020
2741 Clouds 16 1011 42 10000 5.7 120 18:20 07.06.2020
2742 Clouds 16 1011 45 10000 5.1 130 17:57 07.06.2020
2743 Clouds 17 1011 42 10000 5.7 110 17:38 07.06.2020
2744 Clouds 17 1011 42 10000 5.7 110 17:20 07.06.2020
2745 Clouds 17 1011 42 10000 4.6 120 16:43 07.06.2020
2746 Clouds 18 1011 37 10000 5.1 150 16:21 07.06.2020
2747 Clouds 18 1011 37 10000 4.6 170 15:43 07.06.2020
2748 Clouds 18 1012 39 10000 4.1 170 15:22 07.06.2020
2749 Clouds 19 1012 34 10000 5.7 160 14:41 07.06.2020
2750 Clouds 18 1012 37 10000 6.7 190 14:22 07.06.2020
2751 Clouds 18 1012 37 10000 6.7 190 14:22 07.06.2020
2752 Clouds 18 1012 36 10000 6.2 180 13:50 07.06.2020
2753 Clouds 17 1012 39 10000 6.7 190 13:22 07.06.2020
2754 Clouds 16 1012 42 10000 6.2 180 12:57 07.06.2020
2755 Clouds 17 1011 45 10000 6.7 190 12:39 07.06.2020
2756 Clouds 17 1011 45 10000 6.7 190 12:39 07.06.2020
2757 Clouds 16 1011 45 10000 6.7 190 12:20 07.06.2020
2758 Clouds 16 1011 48 10000 6.2 180 11:55 07.06.2020
2759 Clouds 16 1011 55 10000 6.2 180 11:36 07.06.2020
2760 Clouds 16 1011 55 10000 6.2 180 11:18 07.06.2020
2761 Clouds 16 1011 45 10000 6.2 200 10:45 07.06.2020
2762 Clouds 14 1011 58 10000 6.7 190 10:21 07.06.2020
2763 Clouds 15 1010 58 10000 7.2 180 09:59 07.06.2020
2764 Clouds 15 1010 58 10000 7.2 180 09:39 07.06.2020
2765 Clouds 15 1010 58 10000 7.2 180 09:39 07.06.2020
2766 Clouds 15 1010 58 10000 7.2 180 09:20 07.06.2020
2767 Clouds 14 1009 54 10000 7.7 210 08:57 07.06.2020
2768 Clouds 14 1009 54 10000 7.7 210 08:39 07.06.2020
2769 Clouds 14 1009 62 10000 6.7 190 08:21 07.06.2020
2770 Clouds 13 1009 66 10000 7.2 200 07:38 07.06.2020
2771 Clouds 13 1008 66 10000 7.2 200 06:54 07.06.2020
2772 Clouds 12 1007 66 10000 8.7 200 05:53 07.06.2020
2773 Clear 11 1006 71 10000 7.7 190 04:21 07.06.2020
2774 Clear 11 1006 71 10000 8.2 190 03:46 07.06.2020
2775 Clear 11 1005 71 10000 8.2 180 02:18 07.06.2020
2776 Clear 11 1005 62 10000 7.7 180 01:25 07.06.2020
2777 Clear 12 1004 62 10000 7.7 180 00:48 07.06.2020
2778 Clear 12 1004 62 10000 8.7 180 00:20 07.06.2020
2779 Clear 12 1004 58 10000 9.3 190 23:59 06.06.2020
2780 Clear 12 1004 58 10000 9.3 190 23:38 06.06.2020
2781 Clear 12 1004 62 10000 7.7 180 23:19 06.06.2020
2782 Clear 12 1004 62 10000 7.7 190 22:56 06.06.2020
2783 Clear 12 1004 62 10000 7.7 190 22:38 06.06.2020
2784 Clear 12 1004 62 10000 7.7 180 22:19 06.06.2020
2785 Clear 12 1003 66 10000 5.7 180 21:47 06.06.2020
2786 Clouds 12 1003 58 10000 7.7 190 21:23 06.06.2020
2787 Clouds 13 1003 62 10000 7.7 190 20:58 06.06.2020
2788 Clouds 13 1003 62 10000 7.7 190 20:40 06.06.2020
2789 Clouds 13 1003 58 10000 7.7 200 20:19 06.06.2020
2790 Clouds 14 1002 58 10000 9.8 210 19:57 06.06.2020
2791 Clouds 14 1002 58 10000 9.8 210 19:38 06.06.2020
2792 Clouds 14 1002 58 10000 11.8 210 19:20 06.06.2020
2793 Clouds 14 1001 58 10000 10.3 210 18:54 06.06.2020
2794 Clouds 15 1001 62 10000 9.8 220 18:36 06.06.2020
2795 Clouds 15 1001 62 10000 9.8 220 18:18 06.06.2020
2796 Clouds 14 1001 67 10000 8.2 200 17:41 06.06.2020
2797 Clouds 14 1000 71 10000 7.2 200 17:19 06.06.2020
2798 Clouds 14 1000 76 10000 6.7 200 16:55 06.06.2020
2799 Clouds 14 1000 76 10000 6.7 200 16:55 06.06.2020
2800 Clouds 13 1000 76 10000 6.7 200 16:36 06.06.2020
2801 Rain 13 1000 82 10000 6.7 200 16:18 06.06.2020
2802 Rain 13 1000 87 4000 10.8 190 15:42 06.06.2020
2803 Clouds 16 999 67 10000 6.7 160 15:20 06.06.2020
2804 Clouds 16 998 72 10000 6.2 180 14:54 06.06.2020
2805 Clouds 16 998 72 10000 6.2 180 14:36 06.06.2020
2806 Clouds 17 998 63 10000 7.2 180 14:18 06.06.2020
2807 Clouds 17 998 72 10000 7.7 180 13:41 06.06.2020
2808 Clouds 16 998 77 10000 6.2 180 13:18 06.06.2020
2809 Clouds 16 998 77 10000 6.2 180 12:43 06.06.2020
2810 Clouds 16 998 77 10000 6.2 180 12:43 06.06.2020
2811 Clouds 16 997 87 10000 5.7 180 12:24 06.06.2020
2812 Clouds 15 997 87 10000 4.6 180 11:59 06.06.2020
2813 Clouds 15 997 87 10000 4.6 180 11:39 06.06.2020
2814 Clouds 14 997 93 10000 4.6 170 11:20 06.06.2020
2815 Clouds 14 997 93 10000 5.1 160 10:59 06.06.2020
2816 Clouds 13 997 93 10000 5.1 160 10:39 06.06.2020
2817 Clouds 13 997 100 10000 5.7 140 10:21 06.06.2020
2818 Rain 12 997 93 10000 6.2 130 09:58 06.06.2020
2819 Rain 12 997 93 10000 6.2 130 09:58 06.06.2020
2820 Rain 12 997 93 10000 6.2 130 09:40 06.06.2020
2821 Rain 12 996 93 7000 6.2 120 09:20 06.06.2020
2822 Rain 12 996 93 10000 6.7 120 08:40 06.06.2020
2823 Rain 12 996 93 5000 6.7 110 08:20 06.06.2020
2824 Rain 12 996 93 10000 7.2 110 07:46 06.06.2020
2825 Rain 13 997 67 10000 6.7 110 07:22 06.06.2020
2826 Rain 14 997 67 10000 6.7 110 06:48 06.06.2020
2827 Rain 14 997 67 10000 6.2 100 06:30 06.06.2020
2828 Rain 14 997 67 10000 6.2 100 05:55 06.06.2020
2829 Clouds 14 997 76 10000 4.6 100 05:28 06.06.2020
2830 Clouds 14 998 76 10000 4.1 90 04:44 06.06.2020
2831 Clouds 13 1000 87 10000 3.6 110 02:52 06.06.2020
2832 Clouds 13 1000 82 10000 4.1 110 01:56 06.06.2020
2833 Clouds 14 1000 82 10000 3.1 100 01:19 06.06.2020
2834 Clouds 14 1001 82 10000 3.1 100 00:45 06.06.2020
2835 Clouds 14 1001 82 10000 3.6 100 00:27 06.06.2020
2836 Clouds 14 1001 82 10000 3.6 100 00:27 06.06.2020
2837 Clouds 14 1001 82 10000 2.6 100 23:55 05.06.2020
2838 Clouds 14 1001 82 10000 2.6 100 23:36 05.06.2020
2839 Clouds 13 1001 93 10000 2.6 100 23:18 05.06.2020
2840 Clouds 13 1001 93 10000 3.1 100 22:41 05.06.2020
2841 Clouds 14 1001 93 10000 2.6 100 22:23 05.06.2020
2842 Clouds 14 1001 82 10000 3.1 110 21:59 05.06.2020
2843 Clouds 14 1001 76 10000 3.6 120 21:40 05.06.2020
2844 Clouds 14 1001 76 10000 3.6 120 21:21 05.06.2020
2845 Clouds 14 1001 76 10000 4.6 130 20:57 05.06.2020
2846 Clouds 15 1000 72 10000 4.1 120 20:38 05.06.2020
2847 Clouds 15 1000 72 10000 4.1 120 20:20 05.06.2020
2848 Clouds 17 1000 45 10000 4.6 200 19:41 05.06.2020
2849 Clouds 17 1000 45 10000 4.6 200 19:22 05.06.2020
2850 Clouds 18 1000 48 10000 5.1 210 18:56 05.06.2020
2851 Clouds 18 1000 48 10000 5.1 210 18:38 05.06.2020
2852 Clouds 18 999 48 10000 6.2 200 18:19 05.06.2020
2853 Clouds 19 999 55 10000 5.1 210 17:56 05.06.2020
2854 Clouds 18 999 55 10000 5.1 210 17:37 05.06.2020
2855 Clouds 17 999 63 10000 3.1 180 17:18 05.06.2020
2856 Clouds 15 999 72 10000 3.1 200 16:38 05.06.2020
2857 Clouds 15 999 72 10000 3.1 200 16:19 05.06.2020
2858 Clouds 14 999 82 10000 4.1 200 15:42 05.06.2020
2859 Clouds 14 999 82 10000 3.6 180 15:21 05.06.2020
2860 Rain 14 999 87 10000 4.1 180 14:58 05.06.2020
2861 Rain 14 999 87 10000 4.1 180 14:40 05.06.2020
2862 Rain 14 998 82 10000 4.6 190 14:22 05.06.2020
2863 Rain 15 998 82 10000 3.6 210 13:57 05.06.2020
2864 Rain 14 998 87 10000 4.1 220 13:37 05.06.2020
2865 Clouds 14 998 87 10000 4.1 220 13:18 05.06.2020
2866 Rain 14 998 87 10000 4.1 220 12:40 05.06.2020
2867 Clouds 13 997 93 10000 3.6 220 12:19 05.06.2020
2868 Rain 13 997 87 10000 3.1 230 11:43 05.06.2020
2869 Rain 13 997 93 8000 3.6 240 11:25 05.06.2020
2870 Rain 13 997 93 8000 3.6 250 10:59 05.06.2020
2871 Rain 13 997 93 8000 3.6 250 10:41 05.06.2020
2872 Drizzle 12 996 100 10000 3.6 260 10:21 05.06.2020
2873 Drizzle 12 996 100 8000 3.1 270 09:57 05.06.2020
2874 Drizzle 12 996 100 8000 3.1 270 09:39 05.06.2020
2875 Drizzle 12 996 100 8000 3.1 270 09:39 05.06.2020
2876 Drizzle 12 996 100 3500 3.1 270 09:20 05.06.2020
2877 Drizzle 12 996 100 3000 3.6 280 08:58 05.06.2020
2878 Drizzle 12 996 100 3000 3.6 280 08:40 05.06.2020
2879 Rain 12 996 93 3000 3.1 280 08:18 05.06.2020
2880 Rain 12 996 93 3000 3.1 290 07:50 05.06.2020
2881 Drizzle 11 996 100 4500 3.6 300 07:32 05.06.2020
2882 Rain 11 996 100 5000 4.1 300 06:49 05.06.2020
2883 Rain 11 996 93 10000 4.1 300 05:23 05.06.2020
2884 Rain 11 996 93 10000 4.6 310 04:28 05.06.2020
2885 Rain 11 997 93 10000 4.6 310 03:30 05.06.2020
2886 Rain 11 998 93 10000 4.1 310 02:29 05.06.2020
2887 Rain 11 998 93 10000 4.1 320 01:58 05.06.2020
2888 Rain 11 998 93 10000 4.6 320 01:31 05.06.2020
2889 Rain 11 999 93 10000 4.1 320 00:44 05.06.2020
2890 Rain 11 999 93 10000 4.1 320 00:22 05.06.2020
2891 Rain 12 999 87 10000 5.1 310 23:48 04.06.2020
2892 Rain 12 999 87 10000 5.1 310 23:48 04.06.2020
2893 Clouds 12 1000 93 10000 4.1 310 23:29 04.06.2020
2894 Rain 12 1000 87 10000 4.1 300 22:57 04.06.2020
2895 Rain 12 1000 87 10000 4.1 300 22:39 04.06.2020
2896 Rain 12 1001 87 10000 3.6 310 22:21 04.06.2020
2897 Rain 12 1001 87 10000 3.1 300 21:58 04.06.2020
2898 Rain 12 1001 87 10000 3.1 300 21:38 04.06.2020
2899 Rain 13 1002 93 10000 1.5 320 21:20 04.06.2020
2900 Rain 12 1002 87 10000 1 0 20:56 04.06.2020
2901 Rain 13 1002 87 10000 1 0 20:38 04.06.2020
2902 Rain 13 1002 76 10000 2.1 70 20:19 04.06.2020
2903 Rain 13 1002 76 10000 2.1 70 20:19 04.06.2020
2904 Clouds 14 1002 71 10000 6.7 130 19:43 04.06.2020
2905 Clouds 14 1002 71 10000 6.7 130 19:21 04.06.2020
2906 Clouds 14 1002 71 10000 6.7 130 19:21 04.06.2020
2907 Clouds 15 1002 63 10000 3.6 320 18:58 04.06.2020
2908 Clouds 15 1002 67 10000 3.6 330 18:38 04.06.2020
2909 Clouds 15 1002 67 10000 3.6 330 18:20 04.06.2020
2910 Clouds 15 1002 72 10000 4.1 320 17:44 04.06.2020
2911 Rain 15 1003 77 10000 3.1 340 17:22 04.06.2020
2912 Clouds 15 1003 77 10000 3.6 340 16:57 04.06.2020
2913 Clouds 15 1003 77 10000 3.6 340 16:39 04.06.2020
2914 Rain 16 1004 82 10000 4.1 360 16:19 04.06.2020
2915 Rain 16 1004 72 10000 4.1 10 15:43 04.06.2020
2916 Rain 16 1004 77 10000 4.1 20 15:25 04.06.2020
2917 Rain 16 1005 77 10000 5.7 40 14:42 04.06.2020
2918 Rain 16 1005 77 10000 3.6 60 14:22 04.06.2020
2919 Rain 16 1005 77 10000 3.6 60 14:22 04.06.2020
2920 Rain 16 1005 82 10000 2.6 70 13:58 04.06.2020
2921 Rain 15 1005 82 10000 4.1 110 13:39 04.06.2020
2922 Rain 15 1005 82 10000 4.1 110 13:20 04.06.2020
2923 Rain 16 1005 77 10000 4.6 100 12:58 04.06.2020
2924 Rain 16 1005 77 10000 4.6 100 12:58 04.06.2020
2925 Rain 16 1005 77 10000 4.6 100 12:40 04.06.2020
2926 Rain 17 1005 59 10000 5.1 120 12:21 04.06.2020
2927 Rain 18 1006 55 10000 6.7 90 11:54 04.06.2020
2928 Clouds 18 1006 52 10000 6.2 70 11:36 04.06.2020
2929 Clouds 18 1006 52 10000 6.2 70 11:18 04.06.2020
2930 Clouds 19 1006 48 10000 7.2 90 10:39 04.06.2020
2931 Clouds 19 1006 45 10000 6.2 60 10:21 04.06.2020
2932 Clouds 19 1006 48 10000 6.2 50 09:56 04.06.2020
2933 Clouds 16 1006 51 10000 3.6 50 09:37 04.06.2020
2934 Clouds 16 1006 51 10000 3.6 50 09:18 04.06.2020
2935 Clouds 16 1007 55 10000 2.6 30 08:38 04.06.2020
2936 Clouds 15 1007 58 10000 2.6 360 08:20 04.06.2020
2937 Clouds 13 1007 58 10000 4.1 20 07:32 04.06.2020
2938 Clouds 12 1008 62 10000 3.1 30 06:57 04.06.2020
2939 Clouds 12 1008 62 10000 2.6 30 06:39 04.06.2020
2940 Clouds 12 1008 62 10000 3.1 40 06:18 04.06.2020
2941 Clouds 11 1008 66 10000 2.6 40 05:32 04.06.2020
2942 Clouds 11 1009 62 10000 3.1 40 03:37 04.06.2020
2943 Clouds 11 1009 58 10000 3.1 40 02:21 04.06.2020
2944 Clouds 11 1009 58 10000 3.1 40 02:21 04.06.2020
2945 Clouds 11 1010 71 10000 2.6 30 01:22 04.06.2020
2946 Clouds 11 1010 70 10000 2.6 40 01:00 04.06.2020
2947 Clouds 10 1010 75 10000 2.6 40 00:18 04.06.2020
2948 Clouds 11 1011 76 10000 2.6 40 23:38 03.06.2020
2949 Clouds 11 1011 76 10000 2.6 40 23:19 03.06.2020
2950 Clouds 12 1011 71 10000 2.1 50 22:54 03.06.2020
2951 Clouds 12 1011 71 10000 2.1 60 22:36 03.06.2020
2952 Clouds 11 1011 71 10000 2.1 60 22:18 03.06.2020
2953 Clouds 13 1011 62 10000 1.5 50 21:55 03.06.2020
2954 Clear 14 1011 62 10000 1.5 50 21:36 03.06.2020
2955 Clear 15 1011 50 10000 1.5 60 21:18 03.06.2020
2956 Clear 16 1011 38 10000 2.1 80 20:41 03.06.2020
2957 Clear 16 1011 38 10000 3.6 100 20:21 03.06.2020
2958 Clear 16 1011 41 10000 3.6 110 19:57 03.06.2020
2959 Clear 16 1012 38 10000 4.6 100 19:38 03.06.2020
2960 Clear 16 1012 38 10000 4.6 100 19:20 03.06.2020
2961 Clear 16 1012 38 10000 5.7 110 18:57 03.06.2020
2962 Clear 16 1012 36 10000 5.7 130 18:39 03.06.2020
2963 Clear 16 1012 36 10000 5.7 130 18:19 03.06.2020
2964 Clear 16 1012 36 10000 4.1 110 17:44 03.06.2020
2965 Clear 17 1012 36 10000 5.7 110 17:22 03.06.2020
2966 Clear 17 1012 33 10000 5.1 130 16:57 03.06.2020
2967 Clear 17 1012 33 10000 5.1 130 16:39 03.06.2020
2968 Clear 17 1012 33 10000 4.1 90 16:19 03.06.2020
2969 Clear 16 1013 36 10000 6.2 140 15:42 03.06.2020
2970 Clear 17 1013 48 10000 6.7 100 15:21 03.06.2020
2971 Clear 17 1013 48 10000 7.2 110 14:59 03.06.2020
2972 Clear 17 1013 48 10000 7.2 110 14:40 03.06.2020
2973 Clear 17 1013 50 10000 6.2 100 14:21 03.06.2020
2974 Clear 16 1014 50 10000 7.7 100 13:40 03.06.2020
2975 Clear 17 1014 33 10000 8.2 110 13:20 03.06.2020
2976 Clear 17 1014 53 10000 7.2 70 12:44 03.06.2020
2977 Clear 17 1014 33 10000 7.2 80 12:24 03.06.2020
2978 Clear 16 1014 33 10000 5.1 100 11:59 03.06.2020
2979 Clear 16 1014 33 10000 5.1 100 11:40 03.06.2020
2980 Clear 16 1014 38 10000 2.6 0 11:22 03.06.2020
2981 Clear 16 1014 41 10000 6.7 130 10:42 03.06.2020
2982 Clear 16 1015 38 10000 6.2 100 10:24 03.06.2020
2983 Clear 16 1015 36 10000 6.2 100 09:47 03.06.2020
2984 Clear 16 1015 36 10000 6.2 100 09:47 03.06.2020
2985 Clear 15 1015 38 10000 5.7 80 09:22 03.06.2020
2986 Clouds 15 1015 44 10000 3.6 90 08:59 03.06.2020
2987 Clouds 15 1015 44 10000 3.6 90 08:40 03.06.2020
2988 Clear 14 1015 50 10000 3.1 80 08:20 03.06.2020
2989 Clear 14 1015 54 10000 3.1 80 07:43 03.06.2020
2990 Clear 13 1015 58 10000 2.6 90 07:22 03.06.2020
2991 Clear 13 1015 58 10000 2.6 90 06:54 03.06.2020
2992 Clear 12 1015 62 10000 4.1 70 06:33 03.06.2020
2993 Clear 12 1015 62 10000 4.1 70 06:33 03.06.2020
2994 Clear 10 1015 57 10000 4.1 70 05:48 03.06.2020
2995 Clear 8 1015 61 10000 3.6 50 04:59 03.06.2020
2996 Clear 7 1016 70 10000 3.1 40 03:51 03.06.2020
2997 Clear 7 1016 70 10000 2.6 40 03:23 03.06.2020
2998 Clear 7 1016 80 10000 2.1 20 02:24 03.06.2020
2999 Clear 8 1017 81 10000 1 10 00:49 03.06.2020
3000 Clear 8 1017 86 10000 1 0 00:26 03.06.2020
3001 Clear 9 1017 81 10000 1 10 23:52 02.06.2020
3002 Clear 9 1017 75 10000 1 360 23:28 02.06.2020
3003 Clear 10 1017 70 10000 1 10 22:58 02.06.2020
3004 Clear 11 1017 70 10000 1 10 22:39 02.06.2020
3005 Clear 11 1017 75 10000 1 0 22:19 02.06.2020
3006 Clear 12 1017 66 10000 1 0 21:56 02.06.2020
3007 Clear 12 1017 66 10000 1 0 21:38 02.06.2020
3008 Clear 12 1017 66 10000 1 0 21:38 02.06.2020
3009 Clear 14 1017 44 10000 1.5 120 21:19 02.06.2020
3010 Clear 14 1017 38 10000 4.1 130 20:58 02.06.2020
3011 Clear 15 1017 38 10000 4.1 130 20:40 02.06.2020
3012 Clear 15 1017 38 10000 4.1 130 20:21 02.06.2020
3013 Clear 15 1017 58 10000 4.1 120 19:44 02.06.2020
3014 Clear 15 1017 51 10000 4.1 120 19:26 02.06.2020
3015 Clear 15 1017 51 10000 4.1 120 18:58 02.06.2020
3016 Clear 15 1017 51 10000 4.1 120 18:58 02.06.2020
3017 Clear 16 1018 36 10000 5.7 120 18:40 02.06.2020
3018 Clouds 16 1018 36 10000 5.7 120 18:20 02.06.2020
3019 Clouds 15 1018 36 10000 5.7 120 17:55 02.06.2020
3020 Clouds 16 1018 36 10000 5.7 120 17:37 02.06.2020
3021 Clouds 16 1018 36 10000 5.7 120 17:37 02.06.2020
3022 Clear 15 1018 49 10000 5.1 110 17:19 02.06.2020
3023 Clear 15 1019 36 10000 4.6 130 16:54 02.06.2020
3024 Clear 15 1019 36 10000 4.6 130 16:36 02.06.2020
3025 Clear 15 1019 49 10000 4.1 150 16:18 02.06.2020
3026 Clear 15 1019 49 10000 4.1 150 15:40 02.06.2020
3027 Clear 15 1020 36 10000 5.1 120 15:20 02.06.2020
3028 Clear 15 1020 36 10000 5.7 160 14:46 02.06.2020
3029 Clouds 15 1020 50 10000 5.1 150 14:27 02.06.2020
3030 Clouds 15 1021 38 10000 6.2 160 13:55 02.06.2020
3031 Clouds 15 1021 38 10000 6.2 160 13:36 02.06.2020
3032 Clouds 15 1021 38 10000 5.7 120 13:18 02.06.2020
3033 Clouds 15 1021 41 10000 5.7 140 12:55 02.06.2020
3034 Clouds 15 1021 41 10000 5.7 140 12:37 02.06.2020
3035 Clouds 15 1021 41 10000 5.1 130 12:18 02.06.2020
3036 Clouds 16 1021 41 10000 4.6 130 11:41 02.06.2020
3037 Clouds 15 1022 38 10000 5.1 50 11:22 02.06.2020
3038 Clouds 15 1022 38 10000 4.1 60 10:55 02.06.2020
3039 Clouds 15 1022 38 10000 4.1 60 10:37 02.06.2020
3040 Clouds 14 1022 53 10000 5.1 40 10:19 02.06.2020
3041 Clouds 14 1022 41 10000 3.6 60 09:42 02.06.2020
3042 Clouds 14 1023 41 10000 3.6 90 09:21 02.06.2020
3043 Clouds 14 1023 41 10000 3.1 50 08:53 02.06.2020
3044 Clouds 14 1023 43 10000 3.1 70 08:28 02.06.2020
3045 Clouds 13 1023 47 10000 3.1 50 07:58 02.06.2020
3046 Clouds 13 1023 54 10000 3.6 40 07:33 02.06.2020
3047 Clouds 12 1023 53 10000 3.1 40 06:59 02.06.2020
3048 Clouds 11 1023 53 10000 3.1 40 06:37 02.06.2020
3049 Clouds 8 1023 87 10000 1.5 40 05:37 02.06.2020
3050 Clouds 6 1023 93 10000 2.1 30 04:20 02.06.2020
3051 Clear 7 1024 87 10000 1 0 02:37 02.06.2020
3052 Clouds 7 1024 93 10000 1.5 350 01:48 02.06.2020
3053 Clouds 7 1024 86 10000 1.5 340 00:40 02.06.2020
3054 Clouds 7 1024 86 10000 0.5 0 00:20 02.06.2020
3055 Clouds 8 1024 93 10000 0.5 0 23:39 01.06.2020
3056 Clouds 8 1024 93 10000 1 50 23:19 01.06.2020
3057 Clouds 9 1024 93 10000 1 70 22:56 01.06.2020
3058 Clouds 9 1024 93 10000 1 70 22:56 01.06.2020
3059 Clouds 9 1024 93 10000 1 70 22:37 01.06.2020
3060 Clouds 9 1024 87 10000 1 0 22:18 01.06.2020
3061 Clouds 10 1024 76 10000 1 0 21:41 01.06.2020
3062 Clouds 11 1024 66 10000 2.6 130 21:20 01.06.2020
3063 Clouds 11 1023 66 10000 3.1 160 20:58 01.06.2020
3064 Clouds 11 1023 66 10000 3.1 160 20:40 01.06.2020
3065 Clouds 12 1023 58 10000 3.6 150 20:20 01.06.2020
3066 Clouds 12 1023 58 10000 3.6 150 19:57 01.06.2020
3067 Clouds 12 1023 58 10000 3.6 150 19:39 01.06.2020
3068 Clouds 13 1023 58 10000 5.1 150 19:20 01.06.2020
3069 Clouds 13 1023 58 10000 5.7 140 18:56 01.06.2020
3070 Clouds 13 1023 58 10000 5.7 140 18:56 01.06.2020
3071 Clouds 13 1023 54 10000 6.7 150 18:38 01.06.2020
3072 Clouds 14 1023 54 10000 6.7 150 18:18 01.06.2020
3073 Clouds 15 1023 55 10000 3.1 170 17:41 01.06.2020
3074 Clouds 16 1023 55 10000 3.1 170 17:20 01.06.2020
3075 Clouds 16 1023 55 10000 4.6 150 16:48 01.06.2020
3076 Clouds 15 1023 62 10000 3.1 160 16:26 01.06.2020
3077 Clouds 14 1024 62 10000 3.6 140 15:59 01.06.2020
3078 Clouds 14 1024 62 10000 3.6 140 15:40 01.06.2020
3079 Clouds 14 1024 62 10000 4.1 140 15:21 01.06.2020
3080 Clouds 14 1024 58 10000 4.1 160 14:59 01.06.2020
3081 Clouds 13 1024 58 10000 4.1 160 14:41 01.06.2020
3082 Clouds 14 1024 58 10000 4.1 140 14:21 01.06.2020
3083 Clouds 14 1024 62 10000 5.1 140 13:55 01.06.2020
3084 Clouds 14 1024 62 10000 5.1 140 13:55 01.06.2020
3085 Clouds 14 1024 62 10000 5.1 140 13:37 01.06.2020
3086 Clouds 15 1024 62 10000 4.6 140 13:19 01.06.2020
3087 Clouds 14 1024 48 10000 3.6 80 12:55 01.06.2020
3088 Clouds 14 1024 48 10000 3.6 80 12:37 01.06.2020
3089 Clouds 14 1024 48 10000 3.6 80 12:37 01.06.2020
3090 Clouds 14 1025 48 10000 3.1 80 12:18 01.06.2020
3091 Clouds 16 1025 44 10000 2.1 70 11:40 01.06.2020
3092 Clouds 16 1025 44 10000 3.1 70 11:22 01.06.2020
3093 Clouds 17 1025 44 10000 3.1 70 10:57 01.06.2020
3094 Clouds 16 1025 44 10000 2.6 10 10:37 01.06.2020
3095 Clouds 16 1025 48 10000 3.1 20 10:19 01.06.2020
3096 Clouds 15 1025 54 10000 3.1 340 09:55 01.06.2020
3097 Clouds 15 1025 54 10000 3.1 340 09:37 01.06.2020
3098 Clouds 15 1025 58 10000 2.6 10 09:19 01.06.2020
3099 Clouds 14 1025 58 10000 3.1 360 08:41 01.06.2020
3100 Clouds 13 1025 58 10000 2.6 10 08:22 01.06.2020
3101 Clouds 13 1025 58 10000 3.6 10 07:44 01.06.2020
3102 Clouds 13 1025 58 10000 3.6 10 07:25 01.06.2020
3103 Clouds 12 1025 66 10000 3.6 350 06:52 01.06.2020
3104 Clear 12 1025 66 10000 3.1 350 06:20 01.06.2020
3105 Clear 11 1025 71 10000 2.6 330 05:49 01.06.2020
3106 Clear 10 1025 81 10000 2.6 340 04:18 01.06.2020
3107 Clear 10 1025 81 10000 3.1 350 03:44 01.06.2020
3108 Clear 10 1025 81 10000 1.5 10 02:59 01.06.2020
3109 Clouds 12 1025 66 10000 3.1 350 01:47 01.06.2020
3110 Clouds 12 1025 66 10000 3.1 350 01:26 01.06.2020
3111 Clouds 12 1025 81 10000 3.1 350 00:56 01.06.2020
3112 Clouds 12 1025 71 10000 2.6 350 00:38 01.06.2020
3113 Clouds 12 1025 71 10000 2.1 350 00:19 01.06.2020
3114 Clouds 13 1025 66 10000 2.1 360 23:42 31.05.2020
3115 Clear 13 1025 54 10000 3.1 360 23:23 31.05.2020
3116 Clear 13 1025 54 10000 3.1 360 22:59 31.05.2020
3117 Clear 14 1025 62 10000 2.1 10 22:41 31.05.2020
3118 Clear 14 1025 62 10000 2.1 10 22:22 31.05.2020
3119 Clear 16 1025 45 10000 2.1 10 21:57 31.05.2020
3120 Clear 16 1024 42 10000 3.1 10 21:39 31.05.2020
3121 Clear 18 1024 42 10000 3.1 10 21:21 31.05.2020
3122 Clear 18 1024 39 10000 5.1 10 20:47 31.05.2020
3123 Clear 19 1024 39 10000 5.1 10 20:25 31.05.2020
3124 Clear 19 1024 37 10000 4.6 20 19:56 31.05.2020
3125 Clear 19 1024 34 10000 6.2 20 19:38 31.05.2020
3126 Clear 18 1024 34 10000 6.2 20 19:20 31.05.2020
3127 Clear 18 1025 34 10000 5.7 10 18:56 31.05.2020
3128 Clear 18 1025 34 10000 7.2 10 18:37 31.05.2020
3129 Clear 18 1025 34 10000 7.2 10 18:19 31.05.2020
3130 Clear 19 1025 32 10000 7.7 10 17:42 31.05.2020
3131 Clear 18 1025 32 10000 7.7 10 17:24 31.05.2020
3132 Clear 18 1025 32 10000 5.7 10 16:42 31.05.2020
3133 Clear 18 1025 32 10000 5.7 10 16:22 31.05.2020
3134 Clear 18 1026 34 10000 7.7 350 15:56 31.05.2020
3135 Clear 19 1026 34 10000 7.7 20 15:37 31.05.2020
3136 Clear 18 1026 34 10000 7.7 20 15:19 31.05.2020
3137 Clear 19 1026 34 10000 6.2 360 14:42 31.05.2020
3138 Clouds 18 1027 34 10000 8.2 10 14:19 31.05.2020
3139 Clouds 19 1027 34 10000 8.2 10 13:56 31.05.2020
3140 Clouds 19 1027 32 10000 7.2 10 13:37 31.05.2020
3141 Clouds 20 1027 32 10000 6.7 360 13:19 31.05.2020
3142 Clouds 19 1027 34 10000 6.2 10 12:46 31.05.2020
3143 Clear 19 1027 34 10000 6.2 10 12:24 31.05.2020
3144 Clear 19 1027 32 10000 6.7 360 11:59 31.05.2020
3145 Clear 18 1028 31 10000 7.2 10 11:39 31.05.2020
3146 Clear 18 1028 31 10000 7.2 10 11:21 31.05.2020
3147 Clear 18 1028 50 10000 6.7 30 10:45 31.05.2020
3148 Clear 18 1028 50 10000 6.7 30 10:27 31.05.2020
3149 Clear 17 1028 33 10000 6.7 40 09:59 31.05.2020
3150 Clear 16 1028 38 10000 5.1 20 09:41 31.05.2020
3151 Clear 16 1028 44 10000 5.1 50 09:21 31.05.2020
3152 Clear 15 1028 44 10000 4.6 40 08:43 31.05.2020
3153 Clear 14 1028 47 10000 4.6 40 08:24 31.05.2020
3154 Clear 14 1028 44 10000 4.6 40 08:24 31.05.2020
3155 Clear 15 1028 47 10000 4.6 40 07:50 31.05.2020
3156 Clear 14 1028 50 10000 4.1 30 07:22 31.05.2020
3157 Clear 13 1028 54 10000 3.6 30 06:57 31.05.2020
3158 Clear 12 1028 58 10000 3.6 20 06:35 31.05.2020
3159 Clear 11 1028 57 10000 4.1 20 05:51 31.05.2020
3160 Clear 11 1028 57 10000 4.1 20 05:32 31.05.2020
3161 Clear 10 1028 61 10000 4.1 10 04:18 31.05.2020
3162 Clear 10 1028 61 10000 3.6 360 03:39 31.05.2020
3163 Clear 11 1028 57 10000 4.1 360 02:47 31.05.2020
3164 Clear 11 1027 57 10000 3.6 360 01:46 31.05.2020
3165 Clear 11 1027 57 10000 2.6 360 00:42 31.05.2020
3166 Clear 12 1027 57 10000 2.6 360 00:24 31.05.2020
3167 Clear 13 1027 50 10000 3.1 10 23:42 30.05.2020
3168 Clear 13 1027 50 10000 3.1 10 23:24 30.05.2020
3169 Clear 14 1027 44 10000 3.1 20 22:56 30.05.2020
3170 Clear 14 1026 41 10000 3.1 20 22:38 30.05.2020
3171 Clear 15 1026 41 10000 3.1 20 22:20 30.05.2020
3172 Clear 16 1026 38 10000 4.6 30 21:43 30.05.2020
3173 Clear 17 1026 36 10000 6.7 30 21:22 30.05.2020
3174 Clear 17 1026 36 10000 6.7 30 20:58 30.05.2020
3175 Clear 18 1025 34 10000 5.7 40 20:39 30.05.2020
3176 Clouds 18 1025 34 10000 5.7 40 20:21 30.05.2020
3177 Clouds 18 1025 34 10000 7.2 10 19:55 30.05.2020
3178 Clouds 19 1025 32 10000 6.7 20 19:37 30.05.2020
3179 Clouds 19 1025 34 10000 6.2 20 19:18 30.05.2020
3180 Clouds 19 1025 32 10000 6.7 20 18:43 30.05.2020
3181 Clouds 19 1025 32 10000 6.2 20 18:19 30.05.2020
3182 Clouds 20 1025 32 10000 7.2 20 17:42 30.05.2020
3183 Clouds 20 1025 32 10000 7.2 20 17:24 30.05.2020
3184 Clouds 20 1025 32 10000 7.2 20 17:24 30.05.2020
3185 Clouds 20 1025 34 10000 7.2 20 16:58 30.05.2020
3186 Clouds 19 1025 34 10000 8.2 30 16:39 30.05.2020
3187 Clouds 19 1025 34 10000 8.2 30 16:20 30.05.2020
3188 Clouds 20 1026 32 10000 7.2 10 15:42 30.05.2020
3189 Clouds 20 1026 32 10000 7.2 10 15:24 30.05.2020
3190 Clouds 19 1026 34 10000 7.2 10 14:44 30.05.2020
3191 Clear 19 1026 34 10000 7.2 10 14:25 30.05.2020
3192 Clear 19 1026 36 10000 7.7 10 13:44 30.05.2020
3193 Clear 19 1026 36 10000 7.7 10 13:24 30.05.2020
3194 Clear 18 1026 39 10000 7.2 20 12:42 30.05.2020
3195 Clear 18 1027 39 10000 6.7 360 12:21 30.05.2020
3196 Clear 18 1027 39 10000 6.7 360 12:21 30.05.2020
3197 Clear 18 1027 39 10000 6.7 360 11:58 30.05.2020
3198 Clear 18 1027 42 10000 6.7 10 11:40 30.05.2020
3199 Clear 17 1027 42 10000 6.7 10 11:22 30.05.2020
3200 Clear 17 1027 42 10000 6.2 350 10:41 30.05.2020
3201 Clear 17 1027 42 10000 6.2 350 10:21 30.05.2020
3202 Clouds 15 1027 44 10000 5.7 360 09:51 30.05.2020
3203 Clouds 15 1027 44 10000 5.7 360 09:32 30.05.2020
3204 Clouds 15 1027 47 10000 6.2 20 08:52 30.05.2020
3205 Clouds 15 1027 47 10000 6.2 20 08:33 30.05.2020
3206 Clear 13 1026 50 10000 5.1 20 07:50 30.05.2020
3207 Clear 13 1026 50 10000 5.1 20 07:26 30.05.2020
3208 Clear 13 1026 54 10000 4.6 10 06:58 30.05.2020
3209 Clear 12 1026 58 10000 4.6 360 06:25 30.05.2020
3210 Clear 12 1026 62 10000 3.6 350 05:49 30.05.2020
3211 Clear 11 1026 66 10000 3.1 350 03:57 30.05.2020
3212 Clear 10 1025 75 10000 3.1 340 02:31 30.05.2020
3213 Clear 10 1025 75 10000 3.1 340 01:50 30.05.2020
3214 Clear 11 1025 75 10000 3.1 340 00:40 30.05.2020
3215 Clear 11 1025 75 10000 3.1 340 00:21 30.05.2020
3216 Clear 11 1025 81 10000 2.6 330 23:58 29.05.2020
3217 Clear 11 1025 81 10000 3.1 330 23:38 29.05.2020
3218 Clear 12 1024 76 10000 2.1 330 23:19 29.05.2020
3219 Clear 12 1024 71 10000 2.6 320 22:41 29.05.2020
3220 Clear 12 1024 71 10000 2.6 320 22:21 29.05.2020
3221 Clear 13 1024 62 10000 2.1 320 21:59 29.05.2020
3222 Clear 14 1024 47 10000 2.1 340 21:39 29.05.2020
3223 Clouds 15 1024 47 10000 2.1 340 21:20 29.05.2020
3224 Clouds 15 1024 41 10000 2.1 350 20:54 29.05.2020
3225 Clouds 15 1024 41 0 1.67 322 20:36 29.05.2020
3226 Clouds 15 1024 41 10000 3.1 340 20:18 29.05.2020
3227 Clouds 16 1024 36 10000 5.7 330 19:42 29.05.2020
3228 Clouds 17 1024 36 10000 4.6 320 19:23 29.05.2020
3229 Clouds 17 1024 36 10000 4.6 320 18:47 29.05.2020
3230 Clouds 17 1024 36 10000 4.1 300 18:21 29.05.2020
3231 Clouds 17 1024 36 10000 4.1 300 17:57 29.05.2020
3232 Clouds 17 1024 36 10000 5.1 310 17:38 29.05.2020
3233 Clouds 17 1024 36 10000 5.1 310 17:19 29.05.2020
3234 Clouds 17 1024 41 10000 5.1 320 16:45 29.05.2020
3235 Clouds 17 1024 41 10000 5.1 320 16:27 29.05.2020
3236 Clouds 18 1024 39 10000 4.6 350 15:57 29.05.2020
3237 Clouds 17 1024 38 10000 4.6 330 15:38 29.05.2020
3238 Clouds 17 1024 38 10000 4.6 330 15:20 29.05.2020
3239 Clouds 17 1024 38 10000 5.1 320 14:50 29.05.2020
3240 Clouds 17 1024 39 10000 4.1 320 14:24 29.05.2020
3241 Clouds 17 1025 38 10000 5.1 330 13:58 29.05.2020
3242 Clouds 17 1025 36 10000 4.1 320 13:39 29.05.2020
3243 Clear 17 1025 38 10000 5.1 320 13:18 29.05.2020
3244 Clear 17 1025 38 10000 3.6 310 12:44 29.05.2020
3245 Clear 17 1025 38 10000 3.6 310 12:25 29.05.2020
3246 Clear 16 1025 45 10000 4.6 300 11:46 29.05.2020
3247 Clear 16 1025 47 10000 4.6 300 11:27 29.05.2020
3248 Clear 16 1025 47 10000 5.1 300 10:58 29.05.2020
3249 Clear 15 1025 38 10000 3.6 300 10:38 29.05.2020
3250 Clear 15 1025 41 10000 4.1 330 10:19 29.05.2020
3251 Clouds 14 1025 44 10000 3.6 320 09:44 29.05.2020
3252 Clouds 13 1025 44 10000 3.6 320 09:20 29.05.2020
3253 Clouds 13 1025 50 10000 3.6 320 08:56 29.05.2020
3254 Clear 13 1026 54 10000 4.1 330 08:37 29.05.2020
3255 Clear 13 1026 54 10000 4.1 330 08:19 29.05.2020
3256 Clear 11 1026 62 10000 4.1 340 07:40 29.05.2020
3257 Clear 11 1026 61 10000 2.6 330 07:21 29.05.2020
3258 Clear 10 1026 66 10000 3.1 330 06:48 29.05.2020
3259 Clear 9 1026 66 10000 3.1 330 06:27 29.05.2020
3260 Clear 8 1026 70 10000 2.6 320 05:52 29.05.2020
3261 Clear 8 1026 65 10000 4.1 320 02:56 29.05.2020
3262 Clear 9 1025 61 10000 4.1 310 01:42 29.05.2020
3263 Clear 9 1025 61 10000 4.1 320 01:23 29.05.2020
3264 Clear 10 1025 61 10000 4.1 310 00:46 29.05.2020
3265 Clear 10 1024 57 10000 3.6 310 00:21 29.05.2020
3266 Clear 11 1024 61 10000 4.1 300 23:39 28.05.2020
3267 Clear 11 1024 57 10000 3.1 300 23:19 28.05.2020
3268 Clear 11 1024 50 10000 3.6 300 22:44 28.05.2020
3269 Clear 12 1024 50 10000 3.6 300 22:26 28.05.2020
3270 Clear 13 1024 46 10000 3.6 310 21:57 28.05.2020
3271 Clouds 14 1024 65 10000 4.1 320 21:39 28.05.2020
3272 Clouds 14 1023 38 10000 5.7 330 21:20 28.05.2020
3273 Clouds 15 1023 38 10000 5.7 330 20:57 28.05.2020
3274 Clouds 15 1023 61 10000 6.2 330 20:39 28.05.2020
3275 Clouds 15 1023 57 10000 6.2 330 20:18 28.05.2020
3276 Clouds 16 1023 38 10000 4.1 320 19:56 28.05.2020
3277 Clouds 16 1022 36 10000 5.1 330 19:37 28.05.2020
3278 Clouds 16 1022 36 10000 5.1 330 19:19 28.05.2020
3279 Clouds 16 1022 42 10000 4.1 260 18:42 28.05.2020
3280 Rain 16 1022 48 10000 2.6 240 18:23 28.05.2020
3281 Rain 16 1022 48 10000 4.1 230 17:43 28.05.2020
3282 Rain 16 1022 48 10000 4.1 230 17:23 28.05.2020
3283 Clouds 17 1022 48 10000 4.6 230 16:59 28.05.2020
3284 Clouds 16 1022 36 10000 3.6 270 16:39 28.05.2020
3285 Clouds 17 1022 36 10000 3.6 270 16:20 28.05.2020
3286 Clouds 17 1022 36 10000 4.1 270 15:46 28.05.2020
3287 Clouds 17 1022 36 10000 4.1 270 15:25 28.05.2020
3288 Clouds 17 1022 38 10000 3.1 270 14:57 28.05.2020
3289 Clouds 17 1022 36 10000 4.6 300 14:39 28.05.2020
3290 Clouds 17 1022 36 10000 4.6 300 14:21 28.05.2020
3291 Rain 16 1022 41 10000 5.7 290 13:43 28.05.2020
3292 Rain 16 1022 41 10000 5.7 290 13:25 28.05.2020
3293 Clouds 16 1022 39 10000 5.1 330 12:43 28.05.2020
3294 Clouds 17 1022 39 10000 5.1 330 12:19 28.05.2020
3295 Clouds 16 1022 44 10000 3.6 290 11:45 28.05.2020
3296 Clouds 15 1022 44 10000 3.6 290 11:26 28.05.2020
3297 Clouds 15 1023 54 10000 4.6 290 10:58 28.05.2020
3298 Clouds 14 1022 54 10000 4.6 290 10:40 28.05.2020
3299 Clouds 14 1022 58 10000 4.6 300 10:22 28.05.2020
3300 Clouds 13 1022 62 10000 4.6 290 09:40 28.05.2020
3301 Clouds 13 1022 62 10000 3.6 300 09:22 28.05.2020
3302 Clouds 13 1022 62 10000 3.6 300 08:52 28.05.2020
3303 Clouds 12 1022 62 10000 4.6 310 08:32 28.05.2020
3304 Clouds 12 1022 66 10000 5.1 310 07:58 28.05.2020
3305 Clouds 12 1021 81 10000 3.6 310 07:38 28.05.2020
3306 Clouds 11 1021 81 10000 3.6 310 07:20 28.05.2020
3307 Rain 11 1021 81 10000 4.1 310 06:39 28.05.2020
3308 Rain 11 1021 81 10000 4.1 310 06:20 28.05.2020
3309 Rain 11 1021 81 10000 3.6 290 05:37 28.05.2020
3310 Rain 11 1020 81 10000 3.6 310 04:34 28.05.2020
3311 Rain 12 1020 76 10000 4.1 300 03:51 28.05.2020
3312 Rain 12 1020 76 10000 4.1 340 02:49 28.05.2020
3313 Rain 13 1020 71 10000 3.6 340 01:56 28.05.2020
3314 Clouds 13 1020 71 10000 2.6 330 01:27 28.05.2020
3315 Clouds 14 1020 67 10000 3.6 310 00:46 28.05.2020
3316 Clouds 14 1020 67 10000 3.6 310 00:19 28.05.2020
3317 Clouds 13 1020 71 10000 3.1 230 23:40 27.05.2020
3318 Clouds 13 1020 71 10000 3.1 230 23:22 27.05.2020
3319 Clouds 13 1020 71 10000 3.1 230 23:22 27.05.2020
3320 Clouds 13 1020 71 10000 3.1 240 22:59 27.05.2020
3321 Clouds 13 1020 71 10000 2.6 230 22:40 27.05.2020
3322 Clouds 13 1020 71 10000 2.6 230 22:22 27.05.2020
3323 Clouds 13 1020 71 10000 2.6 230 22:22 27.05.2020
3324 Clouds 14 1019 58 10000 3.1 230 21:43 27.05.2020
3325 Clouds 15 1019 58 10000 3.1 230 21:24 27.05.2020
3326 Clouds 15 1019 54 10000 2.6 230 20:59 27.05.2020
3327 Clouds 15 1019 51 10000 4.1 230 20:41 27.05.2020
3328 Clouds 15 1019 51 10000 4.6 240 20:23 27.05.2020
3329 Clouds 16 1019 51 10000 4.6 240 19:59 27.05.2020
3330 Clouds 17 1020 42 10000 4.1 240 19:41 27.05.2020
3331 Clouds 17 1020 39 10000 5.1 230 19:19 27.05.2020
3332 Clouds 17 1020 39 10000 5.1 230 19:19 27.05.2020
3333 Clouds 18 1020 45 10000 6.2 230 18:41 27.05.2020
3334 Clouds 18 1020 48 10000 7.2 220 18:20 27.05.2020
3335 Clouds 19 1020 48 10000 7.2 220 17:57 27.05.2020
3336 Clouds 19 1020 48 10000 7.2 220 17:38 27.05.2020
3337 Clouds 20 1020 42 10000 6.2 220 17:19 27.05.2020
3338 Clouds 20 1020 42 10000 6.2 220 16:55 27.05.2020
3339 Clouds 20 1021 42 10000 6.7 220 16:37 27.05.2020
3340 Clear 20 1021 34 10000 6.7 220 16:18 27.05.2020
3341 Clear 20 1021 32 10000 6.2 220 15:41 27.05.2020
3342 Clear 20 1022 28 10000 7.2 220 15:21 27.05.2020
3343 Clear 20 1022 58 10000 7.2 210 14:45 27.05.2020
3344 Clouds 20 1022 28 10000 7.2 220 14:22 27.05.2020
3345 Clouds 20 1022 28 10000 7.2 220 14:22 27.05.2020
3346 Clouds 20 1022 28 10000 7.2 220 14:22 27.05.2020
3347 Clouds 20 1022 28 10000 7.2 220 13:57 27.05.2020
3348 Clouds 20 1022 28 10000 7.2 220 13:38 27.05.2020
3349 Clouds 20 1023 26 10000 5.7 220 13:20 27.05.2020
3350 Clouds 21 1023 24 10000 5.1 200 12:41 27.05.2020
3351 Clouds 20 1023 24 10000 5.1 200 12:22 27.05.2020
3352 Clouds 20 1024 28 10000 3.6 200 11:41 27.05.2020
3353 Clouds 20 1024 28 10000 3.6 200 11:22 27.05.2020
3354 Clouds 20 1024 30 10000 4.1 240 10:59 27.05.2020
3355 Clouds 20 1024 50 10000 3.1 200 10:40 27.05.2020
3356 Clouds 19 1024 52 10000 3.1 200 10:22 27.05.2020
3357 Clouds 18 1025 34 10000 1.5 220 09:42 27.05.2020
3358 Clouds 18 1025 34 10000 1.5 220 09:24 27.05.2020
3359 Clouds 17 1025 39 10000 2.1 270 08:58 27.05.2020
3360 Clouds 16 1025 44 10000 2.1 280 08:40 27.05.2020
3361 Clouds 17 1025 44 10000 2.1 280 08:22 27.05.2020
3362 Clouds 16 1025 47 10000 3.1 280 08:22 27.05.2020
3363 Clouds 15 1026 50 10000 4.1 280 07:51 27.05.2020
3364 Clouds 15 1026 50 10000 4.1 280 07:33 27.05.2020
3365 Clouds 14 1026 54 10000 4.6 280 06:52 27.05.2020
3366 Clouds 10 1026 76 10000 2.1 270 06:24 27.05.2020
3367 Clouds 9 1026 87 10000 1 290 05:50 27.05.2020
3368 Clouds 9 1026 87 10000 1 290 05:23 27.05.2020
3369 Clouds 10 1027 61 10000 3.1 310 02:42 27.05.2020
3370 Clouds 10 1027 61 10000 3.1 310 02:24 27.05.2020
3371 Clouds 11 1027 57 10000 3.1 300 01:31 27.05.2020
3372 Clouds 12 1027 50 10000 4.6 290 00:47 27.05.2020
3373 Clear 13 1027 50 10000 2.6 280 00:20 27.05.2020
3374 Clear 13 1027 50 10000 2.6 280 23:57 26.05.2020
3375 Clear 13 1028 54 10000 3.1 250 23:39 26.05.2020
3376 Clear 14 1028 44 10000 3.1 250 23:20 26.05.2020
3377 Clear 16 1028 38 10000 2.1 240 22:42 26.05.2020
3378 Clear 16 1028 38 10000 2.1 240 22:23 26.05.2020
3379 Clear 16 1028 38 10000 2.6 250 21:59 26.05.2020
3380 Clear 16 1028 34 10000 4.1 250 21:40 26.05.2020
3381 Clouds 18 1028 34 10000 4.1 250 21:22 26.05.2020
3382 Clouds 18 1028 32 10000 5.1 240 20:57 26.05.2020
3383 Clouds 19 1028 34 10000 5.7 240 20:39 26.05.2020
3384 Clouds 19 1028 34 10000 5.7 240 20:39 26.05.2020
3385 Clouds 19 1028 34 10000 5.7 240 20:19 26.05.2020
3386 Clouds 20 1028 30 10000 5.7 220 19:40 26.05.2020
3387 Clouds 20 1028 30 10000 6.7 220 19:20 26.05.2020
3388 Clouds 21 1028 30 10000 6.7 220 18:58 26.05.2020
3389 Clouds 21 1028 28 10000 6.7 230 18:39 26.05.2020
3390 Clouds 21 1028 30 10000 5.7 290 18:20 26.05.2020
3391 Clouds 22 1028 26 10000 4.1 230 17:40 26.05.2020
3392 Clouds 22 1028 26 10000 4.1 230 17:21 26.05.2020
3393 Clouds 22 1029 44 10000 2.1 320 16:48 26.05.2020
3394 Clouds 22 1029 44 10000 2.1 320 16:23 26.05.2020
3395 Clouds 21 1029 44 10000 4.6 320 15:58 26.05.2020
3396 Clouds 22 1029 44 10000 2.6 0 15:39 26.05.2020
3397 Clouds 22 1029 22 10000 2.1 0 15:19 26.05.2020
3398 Clouds 22 1029 47 10000 2.6 0 14:44 26.05.2020
3399 Clouds 22 1029 47 10000 2.6 0 14:44 26.05.2020
3400 Clouds 22 1029 49 10000 2.6 0 14:25 26.05.2020
3401 Clouds 22 1029 49 10000 3.1 0 13:57 26.05.2020
3402 Clouds 22 1029 26 10000 1.5 0 13:39 26.05.2020
3403 Clouds 21 1030 45 10000 2.6 310 13:21 26.05.2020
3404 Clouds 21 1030 24 10000 1.5 0 12:44 26.05.2020
3405 Clear 21 1030 24 10000 1.5 0 12:22 26.05.2020
3406 Clear 21 1030 28 10000 4.1 310 11:59 26.05.2020
3407 Clear 21 1030 42 10000 3.6 300 11:40 26.05.2020
3408 Clear 21 1030 28 10000 3.1 310 11:19 26.05.2020
3409 Clear 21 1030 28 10000 3.1 340 10:44 26.05.2020
3410 Clear 20 1030 32 10000 2.6 300 10:19 26.05.2020
3411 Clear 20 1030 37 10000 1.5 0 09:55 26.05.2020
3412 Clear 19 1030 37 10000 1.5 0 09:37 26.05.2020
3413 Clear 19 1030 42 10000 1.5 290 09:18 26.05.2020
3414 Clear 17 1030 51 10000 1.5 300 08:39 26.05.2020
3415 Clear 17 1030 54 10000 2.1 310 08:20 26.05.2020
3416 Clear 15 1030 62 10000 2.6 340 07:40 26.05.2020
3417 Clear 14 1030 62 10000 2.6 340 07:22 26.05.2020
3418 Clear 12 1029 76 10000 2.1 310 06:49 26.05.2020
3419 Clear 10 1029 76 10000 2.1 310 06:23 26.05.2020
3420 Clear 9 1029 87 10000 1.5 300 05:35 26.05.2020
3421 Clear 9 1029 87 10000 2.6 310 04:58 26.05.2020
3422 Clear 9 1029 87 10000 2.1 310 04:40 26.05.2020
3423 Clear 9 1028 87 10000 3.1 320 04:21 26.05.2020
3424 Clear 10 1028 81 10000 3.1 300 02:52 26.05.2020
3425 Clouds 10 1028 81 10000 3.6 300 02:21 26.05.2020
3426 Clouds 11 1028 76 10000 3.1 290 01:40 26.05.2020
3427 Clouds 11 1028 71 10000 3.1 300 00:39 26.05.2020
3428 Clouds 12 1028 66 10000 4.6 290 00:20 26.05.2020
3429 Clouds 12 1028 66 10000 4.6 290 23:58 25.05.2020
3430 Clouds 13 1027 66 10000 4.1 290 23:38 25.05.2020
3431 Clouds 13 1027 62 10000 4.1 290 23:19 25.05.2020
3432 Clouds 13 1027 62 10000 4.1 290 22:55 25.05.2020
3433 Clouds 12 1027 62 10000 3.6 280 22:37 25.05.2020
3434 Clouds 12 1027 62 10000 3.6 280 22:37 25.05.2020
3435 Clouds 12 1027 66 10000 3.1 280 22:19 25.05.2020
3436 Clouds 12 1027 66 10000 3.1 280 21:58 25.05.2020
3437 Clouds 14 1026 54 10000 3.1 270 21:37 25.05.2020
3438 Clouds 15 1026 51 10000 4.1 270 21:18 25.05.2020
3439 Clouds 15 1025 51 10000 3.1 310 20:43 25.05.2020
3440 Clouds 15 1025 51 10000 3.1 310 20:43 25.05.2020
3441 Clouds 15 1025 51 10000 3.1 310 20:22 25.05.2020
3442 Clouds 16 1025 44 10000 3.1 320 19:59 25.05.2020
3443 Clouds 17 1025 42 10000 2.6 310 19:41 25.05.2020
3444 Clouds 17 1025 39 10000 2.6 330 19:19 25.05.2020
3445 Clouds 17 1025 39 10000 2.6 330 18:58 25.05.2020
3446 Rain 17 1025 34 10000 4.1 360 18:40 25.05.2020
3447 Clouds 18 1024 29 10000 2.6 330 18:20 25.05.2020
3448 Clouds 18 1024 31 10000 4.6 330 17:44 25.05.2020
3449 Clouds 18 1024 31 10000 4.6 330 17:44 25.05.2020
3450 Rain 18 1024 31 10000 4.6 330 17:24 25.05.2020
3451 Rain 18 1024 34 10000 5.1 340 16:58 25.05.2020
3452 Rain 17 1024 31 10000 4.6 310 16:40 25.05.2020
3453 Rain 18 1024 34 10000 5.1 320 16:20 25.05.2020
3454 Rain 18 1024 34 10000 5.7 310 15:45 25.05.2020
3455 Rain 17 1024 31 10000 3.6 310 15:20 25.05.2020
3456 Rain 18 1024 31 10000 3.6 310 14:59 25.05.2020
3457 Rain 18 1023 39 10000 1.5 0 14:39 25.05.2020
3458 Rain 19 1023 36 0 0.45 284 14:21 25.05.2020
3459 Clouds 18 1023 36 10000 3.6 20 13:40 25.05.2020
3460 Clouds 18 1023 36 10000 3.6 20 13:21 25.05.2020
3461 Clouds 17 1023 42 10000 2.6 340 12:59 25.05.2020
3462 Clouds 16 1023 41 10000 3.6 360 12:39 25.05.2020
3463 Clouds 16 1023 41 10000 3.6 360 12:20 25.05.2020
3464 Clouds 17 1022 48 10000 4.1 360 11:40 25.05.2020
3465 Clouds 16 1022 48 10000 4.1 360 11:21 25.05.2020
3466 Clouds 17 1022 44 10000 4.6 330 10:59 25.05.2020
3467 Clouds 16 1022 44 10000 5.1 340 10:41 25.05.2020
3468 Clouds 16 1022 44 10000 5.1 340 10:20 25.05.2020
3469 Clouds 15 1021 51 10000 4.6 350 09:55 25.05.2020
3470 Clouds 15 1021 51 10000 4.6 350 09:36 25.05.2020
3471 Clouds 14 1021 51 10000 4.1 350 09:18 25.05.2020
3472 Clouds 14 1021 51 10000 4.1 350 09:18 25.05.2020
3473 Clouds 13 1021 54 10000 4.1 10 08:40 25.05.2020
3474 Clouds 12 1020 58 10000 4.1 360 08:21 25.05.2020
3475 Clouds 13 1020 58 10000 4.1 360 07:56 25.05.2020
3476 Clouds 12 1020 58 10000 4.1 360 07:38 25.05.2020
3477 Clouds 12 1020 58 10000 4.1 360 07:38 25.05.2020
3478 Clouds 12 1020 62 10000 4.1 360 07:18 25.05.2020
3479 Clouds 11 1020 62 10000 3.6 350 06:38 25.05.2020
3480 Clouds 10 1019 62 10000 3.6 350 05:27 25.05.2020
3481 Clouds 10 1019 71 10000 2.1 340 03:30 25.05.2020
3482 Clouds 10 1019 71 10000 2.6 360 02:51 25.05.2020
3483 Clouds 10 1018 66 10000 4.6 360 02:32 25.05.2020
3484 Clouds 10 1018 71 10000 3.1 330 01:42 25.05.2020
3485 Clouds 10 1018 66 10000 2.1 340 00:47 25.05.2020
3486 Clouds 10 1018 70 10000 3.1 310 00:26 25.05.2020
3487 Clouds 10 1018 70 10000 3.1 310 23:58 24.05.2020
3488 Clouds 10 1017 61 10000 3.1 330 23:39 24.05.2020
3489 Clouds 10 1017 61 10000 3.1 330 23:39 24.05.2020
3490 Clouds 10 1017 61 10000 3.1 330 23:39 24.05.2020
3491 Clouds 10 1017 61 10000 3.1 330 23:20 24.05.2020
3492 Clouds 10 1017 61 10000 3.1 330 23:20 24.05.2020
3493 Clouds 10 1017 66 10000 2.6 320 22:55 24.05.2020
3494 Clouds 10 1017 66 10000 2.6 320 22:55 24.05.2020
3495 Clouds 10 1017 61 10000 2.6 300 22:37 24.05.2020
3496 Clouds 11 1017 57 10000 2.6 290 22:18 24.05.2020
3497 Clouds 11 1017 57 10000 2.6 290 21:54 24.05.2020
3498 Clouds 11 1017 57 10000 2.1 270 21:36 24.05.2020
3499 Clouds 12 1017 50 10000 1.5 250 21:18 24.05.2020
3500 Rain 12 1017 35 10000 1.5 200 20:42 24.05.2020
3501 Clouds 13 1017 75 10000 2.6 200 20:21 24.05.2020
3502 Clouds 13 1017 37 10000 2.6 170 19:56 24.05.2020
3503 Clouds 13 1017 37 10000 2.6 170 19:37 24.05.2020
3504 Clouds 14 1017 35 10000 2.6 150 19:18 24.05.2020
3505 Clouds 14 1017 33 10000 3.6 150 18:42 24.05.2020
3506 Clouds 14 1017 33 10000 3.6 150 18:23 24.05.2020
3507 Clouds 14 1016 33 10000 3.6 120 17:57 24.05.2020
3508 Clouds 14 1016 33 10000 3.6 130 17:38 24.05.2020
3509 Clouds 15 1016 36 10000 4.1 120 17:19 24.05.2020
3510 Clouds 15 1016 36 10000 4.1 120 16:56 24.05.2020
3511 Clouds 15 1016 36 10000 4.1 120 16:56 24.05.2020
3512 Clouds 14 1016 69 10000 4.6 90 16:36 24.05.2020
3513 Clouds 14 1016 35 10000 3.6 120 16:18 24.05.2020
3514 Clouds 14 1016 35 10000 3.6 120 15:55 24.05.2020
3515 Clouds 14 1017 35 10000 4.6 110 15:36 24.05.2020
3516 Clouds 15 1017 35 10000 4.6 110 15:18 24.05.2020
3517 Clouds 14 1016 68 10000 4.1 120 14:41 24.05.2020
3518 Clouds 14 1016 68 10000 4.1 120 14:41 24.05.2020
3519 Clouds 14 1016 66 10000 4.1 120 14:22 24.05.2020
3520 Clouds 13 1017 50 10000 3.6 140 13:55 24.05.2020
3521 Clouds 13 1017 50 10000 3.6 140 13:37 24.05.2020
3522 Clouds 13 1017 54 10000 4.1 170 13:19 24.05.2020
3523 Clouds 13 1017 54 10000 4.1 170 12:56 24.05.2020
3524 Clouds 13 1017 54 10000 4.1 150 12:37 24.05.2020
3525 Clouds 13 1016 58 10000 4.1 170 12:19 24.05.2020
3526 Clouds 12 1016 58 10000 4.1 170 11:54 24.05.2020
3527 Clouds 13 1016 54 10000 3.6 190 11:36 24.05.2020
3528 Clouds 12 1016 54 10000 3.1 170 11:18 24.05.2020
3529 Clouds 12 1016 50 10000 3.1 170 10:41 24.05.2020
3530 Clouds 12 1016 50 10000 3.1 130 10:23 24.05.2020
3531 Clouds 12 1016 50 10000 3.1 130 09:56 24.05.2020
3532 Clouds 11 1016 46 10000 3.6 100 09:38 24.05.2020
3533 Clouds 11 1016 50 10000 4.6 130 09:18 24.05.2020
3534 Clouds 10 1016 50 10000 4.6 110 08:41 24.05.2020
3535 Clouds 10 1016 50 10000 4.6 110 08:23 24.05.2020
3536 Clouds 10 1016 57 10000 4.6 120 07:58 24.05.2020
3537 Clouds 10 1016 53 10000 5.7 90 07:39 24.05.2020
3538 Clouds 10 1016 53 10000 5.7 90 07:20 24.05.2020
3539 Clouds 10 1016 61 10000 4.1 100 06:39 24.05.2020
3540 Clouds 9 1017 57 10000 2.6 90 05:49 24.05.2020
3541 Clouds 9 1017 61 10000 3.6 100 03:56 24.05.2020
3542 Clouds 9 1017 61 10000 3.6 100 03:35 24.05.2020
3543 Clouds 9 1018 61 10000 4.1 100 02:24 24.05.2020
3544 Clouds 10 1019 68 10000 4.1 100 00:59 24.05.2020
3545 Clouds 10 1019 68 10000 3.6 110 00:36 24.05.2020
3546 Clouds 10 1019 64 10000 4.1 110 00:18 24.05.2020
3547 Clouds 10 1019 64 10000 4.1 100 23:38 23.05.2020
3548 Clouds 10 1019 60 10000 4.1 100 23:19 23.05.2020
3549 Clouds 11 1019 60 10000 4.1 100 22:55 23.05.2020
3550 Clouds 11 1019 46 10000 4.1 100 22:37 23.05.2020
3551 Clouds 11 1019 46 10000 4.1 100 22:37 23.05.2020
3552 Clouds 11 1019 43 10000 3.1 100 22:18 23.05.2020
3553 Clouds 11 1019 43 10000 3.1 100 21:56 23.05.2020
3554 Clouds 11 1019 43 10000 3.6 100 21:36 23.05.2020
3555 Clouds 11 1019 43 10000 4.1 100 21:18 23.05.2020
3556 Clouds 12 1019 37 10000 4.1 110 20:40 23.05.2020
3557 Clouds 12 1019 37 10000 4.1 110 20:20 23.05.2020
3558 Clouds 12 1020 32 10000 5.1 100 19:59 23.05.2020
3559 Clouds 13 1020 32 10000 5.7 140 19:40 23.05.2020
3560 Clouds 13 1020 28 10000 6.2 120 19:19 23.05.2020
3561 Clouds 14 1020 26 10000 5.7 140 18:42 23.05.2020
3562 Clouds 14 1020 26 10000 5.7 140 18:23 23.05.2020
3563 Clouds 14 1020 26 10000 6.7 130 17:58 23.05.2020
3564 Clouds 15 1021 29 10000 5.1 140 17:40 23.05.2020
3565 Clouds 15 1021 29 10000 5.7 140 17:21 23.05.2020
3566 Clouds 15 1021 29 10000 5.7 140 16:59 23.05.2020
3567 Clouds 15 1021 29 10000 5.1 150 16:41 23.05.2020
3568 Clouds 16 1021 29 10000 5.1 150 16:20 23.05.2020
3569 Clouds 16 1021 27 10000 6.2 170 15:57 23.05.2020
3570 Clouds 16 1021 27 10000 6.2 140 15:39 23.05.2020
3571 Clouds 16 1021 27 10000 6.2 140 15:20 23.05.2020
3572 Clouds 16 1022 25 10000 4.6 170 14:42 23.05.2020
3573 Clouds 16 1022 25 10000 4.6 170 14:23 23.05.2020
3574 Clouds 16 1022 26 10000 5.7 160 13:55 23.05.2020
3575 Clouds 16 1022 25 10000 5.1 180 13:37 23.05.2020
3576 Clouds 16 1022 25 10000 5.1 170 13:18 23.05.2020
3577 Clouds 16 1023 26 10000 5.7 200 12:41 23.05.2020
3578 Clear 16 1023 25 10000 5.1 180 12:19 23.05.2020
3579 Clear 16 1023 25 10000 5.1 180 11:57 23.05.2020
3580 Clear 16 1023 26 10000 5.1 190 11:37 23.05.2020
3581 Clear 16 1023 31 10000 4.6 190 11:18 23.05.2020
3582 Clear 16 1023 31 10000 4.6 190 10:54 23.05.2020
3583 Clear 15 1023 33 10000 4.6 180 10:36 23.05.2020
3584 Clear 15 1023 33 10000 4.6 180 10:18 23.05.2020
3585 Clear 15 1023 48 10000 4.6 160 09:41 23.05.2020
3586 Clear 15 1023 50 10000 4.6 160 09:23 23.05.2020
3587 Clear 15 1023 38 10000 2.6 150 08:56 23.05.2020
3588 Clear 14 1023 41 10000 2.1 130 08:37 23.05.2020
3589 Clear 14 1023 47 10000 1 0 08:18 23.05.2020
3590 Clear 12 1023 50 10000 2.97 196 07:43 23.05.2020
3591 Clear 11 1023 53 10000 2.64 205 07:22 23.05.2020
3592 Clear 10 1023 75 10000 1 100 06:42 23.05.2020
3593 Clear 6 1023 81 10000 1 0 05:51 23.05.2020
3594 Clear 4 1023 93 10000 1.34 287 03:52 23.05.2020
3595 Clear 4 1023 93 10000 1.71 285 03:23 23.05.2020
3596 Clear 4 1023 93 10000 0.5 0 02:31 23.05.2020
3597 Clear 5 1023 86 10000 0.5 0 01:28 23.05.2020
3598 Clear 6 1023 80 10000 1 0 00:53 23.05.2020
3599 Clear 6 1023 80 10000 0.5 0 00:34 23.05.2020
3600 Clear 8 1023 65 10000 2.1 210 23:59 22.05.2020
3601 Clear 8 1023 61 10000 2.1 200 23:40 22.05.2020
3602 Clear 9 1023 57 10000 2.6 200 23:20 22.05.2020
3603 Clear 10 1023 57 10000 2.6 200 22:57 22.05.2020
3604 Clear 10 1023 50 10000 2.6 190 22:39 22.05.2020
3605 Clear 10 1022 50 10000 3.1 180 22:20 22.05.2020
3606 Clear 11 1023 60 0 2.96 254 21:46 22.05.2020
3607 Clear 12 1022 67 10000 3.1 180 21:22 22.05.2020
3608 Clear 12 1022 64 10000 3.1 190 20:55 22.05.2020
3609 Clear 13 1022 61 10000 3.1 180 20:37 22.05.2020
3610 Clear 13 1022 61 10000 3.1 180 20:18 22.05.2020
3611 Clear 14 1022 38 10000 3.6 160 19:44 22.05.2020
3612 Clear 14 1022 38 10000 3.6 160 19:25 22.05.2020
3613 Clear 14 1022 38 10000 4.6 160 19:25 22.05.2020
3614 Clear 15 1022 36 10000 5.1 180 18:54 22.05.2020
3615 Clear 15 1022 36 10000 5.1 180 18:36 22.05.2020
3616 Clear 15 1023 54 10000 5.1 160 18:18 22.05.2020
3617 Clear 16 1023 29 10000 5.7 190 17:39 22.05.2020
3618 Clear 16 1023 29 10000 5.7 190 17:39 22.05.2020
3619 Clear 15 1023 29 10000 5.7 190 17:19 22.05.2020
3620 Clear 16 1023 22 10000 2.6 340 16:55 22.05.2020
3621 Clear 16 1023 23 10000 5.1 350 16:37 22.05.2020
3622 Clear 17 1023 22 10000 2.6 0 16:19 22.05.2020
3623 Clear 16 1023 21 10000 3.6 0 15:42 22.05.2020
3624 Clear 16 1023 21 10000 3.6 0 15:21 22.05.2020
3625 Clear 16 1023 25 10000 4.1 350 14:45 22.05.2020
3626 Clear 16 1023 25 10000 4.1 350 14:26 22.05.2020
3627 Clear 16 1024 29 10000 3.6 0 13:50 22.05.2020
3628 Clear 15 1024 30 10000 3.6 10 13:22 22.05.2020
3629 Clear 15 1024 30 10000 3.6 10 12:59 22.05.2020
3630 Clear 15 1024 30 10000 4.1 10 12:39 22.05.2020
3631 Clear 15 1024 30 10000 4.1 10 12:20 22.05.2020
3632 Clear 15 1024 33 10000 4.6 10 11:44 22.05.2020
3633 Clear 15 1024 33 10000 4.6 10 11:22 22.05.2020
3634 Clear 14 1024 35 10000 3.6 20 10:57 22.05.2020
3635 Clear 13 1024 37 10000 4.1 360 10:38 22.05.2020
3636 Clear 13 1024 37 10000 4.1 360 10:19 22.05.2020
3637 Clear 13 1024 34 10000 3.6 40 09:47 22.05.2020
3638 Clear 11 1024 34 10000 3.6 40 09:21 22.05.2020
3639 Clear 12 1024 34 10000 4.1 50 08:57 22.05.2020
3640 Clear 11 1024 34 10000 5.1 60 08:39 22.05.2020
3641 Clouds 11 1024 34 10000 5.1 60 08:18 22.05.2020
3642 Clouds 10 1024 37 10000 4.1 40 07:48 22.05.2020
3643 Clouds 9 1024 45 10000 5.7 40 07:22 22.05.2020
3644 Clouds 9 1024 49 10000 5.1 50 06:46 22.05.2020
3645 Clouds 8 1023 52 10000 3.6 40 06:28 22.05.2020
3646 Clouds 7 1023 56 10000 3.1 20 05:35 22.05.2020
3647 Clouds 6 1023 60 10000 2.6 10 04:48 22.05.2020
3648 Clouds 7 1022 56 10000 3.1 360 03:50 22.05.2020
3649 Clouds 7 1022 56 10000 3.6 360 03:29 22.05.2020
3650 Clouds 8 1022 52 10000 4.1 350 01:58 22.05.2020
3651 Clouds 8 1021 52 10000 4.1 350 01:32 22.05.2020
3652 Clouds 8 1021 52 10000 4.1 350 00:52 22.05.2020
3653 Clouds 9 1021 45 10000 4.1 350 00:30 22.05.2020
3654 Clouds 9 1021 45 10000 5.1 350 23:56 21.05.2020
3655 Clouds 9 1021 45 10000 5.1 350 23:37 21.05.2020
3656 Clouds 9 1021 45 10000 5.1 350 23:37 21.05.2020
3657 Clouds 9 1021 45 10000 5.1 350 23:19 21.05.2020
3658 Clouds 10 1020 43 10000 5.1 340 22:57 21.05.2020
3659 Clouds 10 1020 43 10000 5.7 340 22:37 21.05.2020
3660 Clouds 10 1020 43 10000 5.1 330 22:18 21.05.2020
3661 Clouds 11 1020 37 10000 5.1 340 21:46 21.05.2020
3662 Clouds 11 1020 37 10000 5.1 340 21:26 21.05.2020
3663 Clouds 11 1020 37 10000 5.1 330 20:56 21.05.2020
3664 Clouds 12 1019 34 10000 4.1 350 20:37 21.05.2020
3665 Clouds 12 1019 34 10000 6.2 340 20:19 21.05.2020
3666 Clouds 13 1019 28 10000 6.7 360 19:39 21.05.2020
3667 Clouds 14 1019 28 10000 6.7 360 19:19 21.05.2020
3668 Clouds 14 1019 30 10000 7.2 350 18:41 21.05.2020
3669 Clouds 14 1018 30 10000 6.7 350 18:21 21.05.2020
3670 Clouds 14 1018 30 10000 6.7 350 17:59 21.05.2020
3671 Clouds 14 1018 30 10000 6.7 350 17:59 21.05.2020
3672 Clouds 14 1018 28 10000 7.7 350 17:41 21.05.2020
3673 Clouds 15 1018 28 10000 7.7 350 17:22 21.05.2020
3674 Clouds 15 1018 28 10000 6.2 360 16:47 21.05.2020
3675 Clouds 15 1018 28 10000 6.2 360 16:25 21.05.2020
3676 Clouds 14 1018 30 10000 8.7 20 15:56 21.05.2020
3677 Clouds 14 1018 28 10000 8.2 20 15:38 21.05.2020
3678 Clouds 15 1018 28 10000 7.7 10 15:19 21.05.2020
3679 Clouds 14 1017 28 10000 7.2 360 14:40 21.05.2020
3680 Clouds 14 1017 28 10000 8.2 340 14:19 21.05.2020
3681 Clouds 14 1017 30 10000 8.7 350 13:42 21.05.2020
3682 Clouds 14 1017 30 10000 8.7 350 13:22 21.05.2020
3683 Clouds 14 1017 30 10000 8.7 360 12:58 21.05.2020
3684 Clouds 13 1017 30 10000 8.7 340 12:38 21.05.2020
3685 Clouds 13 1017 32 10000 9.3 360 12:19 21.05.2020
3686 Clouds 12 1017 37 10000 8.7 360 11:42 21.05.2020
3687 Clouds 12 1017 37 10000 8.7 360 11:24 21.05.2020
3688 Clouds 12 1017 40 10000 9.3 340 10:59 21.05.2020
3689 Clouds 11 1017 37 10000 9.8 350 10:39 21.05.2020
3690 Clouds 11 1017 46 10000 9.3 340 10:20 21.05.2020
3691 Clouds 10 1017 46 10000 9.3 340 09:55 21.05.2020
3692 Clouds 10 1017 49 10000 8.7 340 09:37 21.05.2020
3693 Clouds 9 1016 52 10000 9.3 340 09:18 21.05.2020
3694 Clouds 8 1017 52 10000 9.8 340 08:45 21.05.2020
3695 Clouds 8 1017 52 10000 9.8 340 08:26 21.05.2020
3696 Clouds 8 1017 62 10000 7.2 340 07:47 21.05.2020
3697 Clouds 7 1017 66 10000 7.2 340 07:27 21.05.2020
3698 Clouds 7 1017 66 10000 7.2 340 06:52 21.05.2020
3699 Clouds 6 1017 70 10000 7.2 330 05:58 21.05.2020
3700 Clouds 6 1017 75 10000 5.7 320 05:22 21.05.2020
3701 Clouds 6 1017 81 10000 5.7 330 03:22 21.05.2020
3702 Clouds 6 1017 84 10000 5.7 330 02:45 21.05.2020
3703 Clouds 6 1017 86 10000 6.2 330 02:25 21.05.2020
3704 Clouds 6 1017 60 10000 6.7 320 01:45 21.05.2020
3705 Clouds 6 1017 60 10000 5.7 320 01:19 21.05.2020
3706 Clouds 6 1017 85 10000 4.1 310 00:48 21.05.2020
3707 Clouds 6 1017 84 10000 3.6 310 00:23 21.05.2020
3708 Clouds 6 1017 84 10000 4.1 320 23:41 20.05.2020
3709 Clouds 7 1017 83 10000 3.6 310 23:20 20.05.2020
3710 Clouds 7 1017 83 10000 3.6 310 22:57 20.05.2020
3711 Clouds 8 1017 83 10000 3.6 320 22:38 20.05.2020
3712 Clouds 7 1017 81 10000 3.6 330 22:20 20.05.2020
3713 Clear 8 1017 75 10000 3.6 340 21:40 20.05.2020
3714 Clear 9 1017 57 10000 4.1 340 21:21 20.05.2020
3715 Rain 10 1017 75 10000 5.1 350 20:44 20.05.2020
3716 Rain 10 1017 71 10000 5.1 350 20:25 20.05.2020
3717 Rain 10 1017 71 10000 4.1 360 19:57 20.05.2020
3718 Rain 10 1017 53 10000 6.2 350 19:38 20.05.2020
3719 Rain 10 1017 53 10000 6.2 350 19:19 20.05.2020
3720 Rain 11 1017 50 10000 7.7 350 18:43 20.05.2020
3721 Rain 11 1016 46 10000 6.7 350 18:23 20.05.2020
3722 Rain 10 1016 57 10000 6.7 10 17:43 20.05.2020
3723 Rain 12 1016 57 10000 6.7 10 17:24 20.05.2020
3724 Rain 12 1016 57 10000 6.7 10 17:24 20.05.2020
3725 Rain 12 1016 61 10000 8.2 320 16:58 20.05.2020
3726 Rain 12 1016 40 10000 8.2 340 16:39 20.05.2020
3727 Rain 12 1016 40 10000 8.2 340 16:21 20.05.2020
3728 Rain 12 1016 50 10000 8.7 330 15:44 20.05.2020
3729 Rain 12 1016 47 0 4.22 353 15:25 20.05.2020
3730 Rain 11 1016 53 10000 5.7 320 14:59 20.05.2020
3731 Rain 11 1016 61 10000 9.8 320 14:37 20.05.2020
3732 Rain 11 1015 46 10000 7.7 330 14:19 20.05.2020
3733 Rain 11 1015 57 10000 8.2 330 13:39 20.05.2020
3734 Rain 11 1015 53 10000 8.2 340 13:18 20.05.2020
3735 Rain 11 1015 61 10000 5.7 320 12:42 20.05.2020
3736 Rain 10 1015 57 10000 7.2 330 12:21 20.05.2020
3737 Rain 10 1015 50 10000 5.1 360 11:39 20.05.2020
3738 Rain 10 1015 53 10000 6.2 340 11:20 20.05.2020
3739 Rain 10 1015 53 10000 6.2 340 10:55 20.05.2020
3740 Clouds 10 1014 61 10000 6.7 330 10:37 20.05.2020
3741 Clouds 10 1014 70 10000 5.7 330 10:19 20.05.2020
3742 Clouds 9 1014 75 10000 5.7 330 09:41 20.05.2020
3743 Clouds 8 1014 75 10000 5.7 330 09:20 20.05.2020
3744 Clouds 7 1014 81 10000 5.7 320 08:42 20.05.2020
3745 Clouds 7 1014 81 10000 5.7 320 08:20 20.05.2020
3746 Clouds 6 1014 81 10000 6.2 330 07:50 20.05.2020
3747 Clouds 5 1013 86 10000 4.6 330 07:25 20.05.2020
3748 Clouds 5 1013 86 10000 4.1 320 06:55 20.05.2020
3749 Clouds 4 1013 86 10000 3.1 310 06:20 20.05.2020
3750 Clouds 4 1013 93 10000 4.1 310 04:59 20.05.2020
3751 Clouds 2 1012 93 10000 3.6 300 04:19 20.05.2020
3752 Clouds 3 1012 93 10000 3.6 300 03:35 20.05.2020
3753 Clouds 3 1012 93 10000 3.1 280 01:45 20.05.2020
3754 Clouds 4 1012 93 10000 3.1 280 01:23 20.05.2020
3755 Clouds 4 1011 86 10000 2.6 290 00:41 20.05.2020
3756 Clouds 4 1011 86 10000 3.6 290 00:21 20.05.2020
3757 Clouds 5 1011 86 10000 4.1 290 23:37 19.05.2020
3758 Clouds 5 1011 93 10000 3.6 280 23:19 19.05.2020
3759 Clouds 5 1011 93 10000 3.6 280 22:55 19.05.2020
3760 Clouds 5 1011 80 10000 3.6 280 22:36 19.05.2020
3761 Clouds 5 1011 80 10000 3.6 280 22:18 19.05.2020
3762 Rain 6 1011 75 10000 3.1 320 21:55 19.05.2020
3763 Rain 6 1011 75 10000 3.1 320 21:36 19.05.2020
3764 Rain 6 1011 86 10000 5.7 280 21:18 19.05.2020
3765 Rain 6 1011 75 10000 4.1 320 20:55 19.05.2020
3766 Rain 7 1011 75 10000 4.1 320 20:37 19.05.2020
3767 Rain 7 1011 75 10000 4.1 320 20:19 19.05.2020
3768 Rain 7 1010 81 10000 3.1 240 19:38 19.05.2020
3769 Rain 7 1011 80 10000 7.2 290 19:20 19.05.2020
3770 Rain 7 1010 81 10000 8.7 300 18:45 19.05.2020
3771 Rain 7 1010 81 10000 8.7 300 18:23 19.05.2020
3772 Rain 8 1010 75 10000 4.1 290 17:58 19.05.2020
3773 Rain 9 1010 66 10000 2.6 310 17:39 19.05.2020
3774 Rain 10 1010 70 10000 3.1 290 17:20 19.05.2020
3775 Rain 9 1010 65 10000 4.1 250 16:42 19.05.2020
3776 Rain 9 1010 65 10000 4.1 250 16:23 19.05.2020
3777 Rain 9 1010 70 10000 4.1 250 15:58 19.05.2020
3778 Rain 9 1010 81 10000 3.6 260 15:39 19.05.2020
3779 Rain 9 1010 81 10000 3.6 260 15:20 19.05.2020
3780 Rain 9 1011 63 0 4.81 262 14:54 19.05.2020
3781 Rain 8 1010 75 10000 10.3 270 14:36 19.05.2020
3782 Rain 9 1009 57 10000 2.1 0 14:18 19.05.2020
3783 Rain 10 1009 57 10000 2.1 0 13:54 19.05.2020
3784 Rain 11 1009 46 10000 2.1 0 13:36 19.05.2020
3785 Rain 11 1009 57 10000 4.1 360 13:18 19.05.2020
3786 Rain 11 1009 40 10000 3.1 220 12:40 19.05.2020
3787 Rain 11 1009 40 10000 3.1 220 12:22 19.05.2020
3788 -273 0 0 0 0 0 11:59 19.05.2020
3789 Rain 11 1009 43 10000 4.1 240 11:40 19.05.2020
3790 Clouds 11 1009 43 10000 3.6 260 11:21 19.05.2020
3791 Clouds 10 1009 46 10000 2.1 0 10:49 19.05.2020
3792 Clouds 10 1009 46 10000 2.1 0 10:29 19.05.2020
3793 Clouds 10 1009 49 10000 2.6 190 09:59 19.05.2020
3794 Clouds 9 1009 54 10000 2.1 240 09:41 19.05.2020
3795 Clouds 9 1009 60 10000 2.1 240 09:23 19.05.2020
3796 Clouds 8 1009 65 10000 2.1 280 08:44 19.05.2020
3797 Clouds 8 1009 65 10000 2.1 280 08:24 19.05.2020
3798 Clouds 7 1010 75 10000 1.5 260 07:45 19.05.2020
3799 Clouds 6 1010 75 10000 1.5 260 07:26 19.05.2020
3800 Clouds 5 1010 80 10000 2.6 280 06:54 19.05.2020
3801 Clouds 4 1010 86 10000 3.1 290 06:25 19.05.2020
3802 Fog 3 1010 93 10000 1 0 05:42 19.05.2020
3803 Fog 1 1010 100 10000 0.5 0 04:56 19.05.2020
3804 Fog 2 1010 100 10000 1.5 260 04:32 19.05.2020
3805 Clouds 3 1010 86 10000 3.1 240 01:32 19.05.2020
3806 Clouds 4 1010 86 10000 2.6 240 00:47 19.05.2020
3807 Clouds 5 1010 80 10000 3.6 220 00:25 19.05.2020
3808 Clouds 5 1010 80 10000 3.6 220 23:58 18.05.2020
3809 Clouds 5 1010 80 10000 3.6 220 23:58 18.05.2020
3810 Clouds 5 1010 86 10000 2.6 220 23:39 18.05.2020
3811 Clouds 6 1010 75 10000 2.6 220 23:19 18.05.2020
3812 Clouds 7 1010 75 10000 3.1 230 22:41 18.05.2020
3813 Clouds 7 1010 75 10000 3.1 230 22:22 18.05.2020
3814 Clouds 6 1010 75 10000 3.1 240 21:56 18.05.2020
3815 Clouds 7 1010 75 10000 3.1 230 21:38 18.05.2020
3816 Rain 7 1010 65 10000 3.6 240 21:18 18.05.2020
3817 Rain 8 1010 65 10000 3.6 240 20:43 18.05.2020
3818 Rain 8 1010 61 10000 3.1 270 20:22 18.05.2020
3819 Rain 9 1010 61 10000 3.1 270 19:58 18.05.2020
3820 Rain 9 1010 61 10000 2.6 310 19:40 18.05.2020
3821 Rain 9 1010 61 10000 2.6 290 19:19 18.05.2020
3822 Rain 9 1010 70 10000 4.6 310 18:46 18.05.2020
3823 Rain 8 1010 70 10000 4.6 310 18:24 18.05.2020
3824 Rain 8 1010 93 10000 1.5 70 17:54 18.05.2020
3825 Rain 8 1010 93 10000 1.5 70 17:36 18.05.2020
3826 Rain 8 1010 93 10000 1.5 70 17:18 18.05.2020
3827 Rain 8 1010 93 10000 1.5 70 17:18 18.05.2020
3828 Rain 8 1010 93 10000 1.5 70 17:18 18.05.2020
3829 Rain 11 1008 50 10000 3.1 70 16:43 18.05.2020
3830 Rain 11 1008 50 10000 3.1 70 16:21 18.05.2020
3831 Rain 12 1008 40 10000 5.1 290 15:57 18.05.2020
3832 Rain 12 1008 55 10000 6.2 270 15:39 18.05.2020
3833 Rain 12 1008 55 10000 6.2 270 15:20 18.05.2020
3834 Rain 12 1008 50 10000 5.7 280 14:56 18.05.2020
3835 Clouds 11 1007 58 10000 5.1 280 14:38 18.05.2020
3836 Clouds 11 1007 59 10000 5.1 280 14:19 18.05.2020
3837 Rain 11 1007 58 10000 4.6 260 13:41 18.05.2020
3838 Rain 10 1007 62 10000 4.6 260 13:20 18.05.2020
3839 Rain 10 1007 62 10000 5.1 320 12:58 18.05.2020
3840 Rain 9 1007 64 10000 5.1 280 12:39 18.05.2020
3841 Clouds 9 1006 57 10000 5.1 290 12:19 18.05.2020
3842 Clouds 9 1006 61 10000 5.7 300 11:47 18.05.2020
3843 Clouds 9 1006 61 10000 5.7 300 11:27 18.05.2020
3844 Clouds 8 1006 61 10000 4.6 300 10:59 18.05.2020
3845 Clouds 8 1005 61 10000 5.1 310 10:41 18.05.2020
3846 Clouds 8 1005 61 10000 5.1 310 10:22 18.05.2020
3847 Clouds 7 1005 65 10000 4.6 330 09:44 18.05.2020
3848 Clouds 7 1005 65 10000 4.6 330 09:25 18.05.2020
3849 Clouds 7 1004 70 10000 4.6 320 08:46 18.05.2020
3850 Clouds 6 1004 70 10000 4.6 320 08:27 18.05.2020
3851 Clouds 6 1004 75 10000 3.6 310 07:58 18.05.2020
3852 Clouds 5 1004 75 10000 4.1 310 07:39 18.05.2020
3853 Clouds 5 1004 75 10000 4.1 310 07:20 18.05.2020
3854 Clouds 4 1003 84 10000 3.1 310 06:45 18.05.2020
3855 Clouds 3 1003 86 10000 3.6 290 05:50 18.05.2020
3856 Clouds 3 1003 87 10000 3.6 290 05:26 18.05.2020
3857 Clouds 2 1002 87 10000 3.6 310 03:37 18.05.2020
3858 Clouds 2 1002 89 10000 3.1 310 02:30 18.05.2020
3859 Clouds 3 1001 93 10000 2.6 290 01:23 18.05.2020
3860 Clouds 3 1001 93 10000 2.6 280 00:27 18.05.2020
3861 Clouds 4 1001 93 10000 2.6 270 23:58 17.05.2020
3862 Clouds 4 1001 93 10000 2.6 270 23:58 17.05.2020
3863 Clouds 4 1001 93 10000 3.1 270 23:40 17.05.2020
3864 Clouds 4 1001 93 10000 3.1 270 23:20 17.05.2020
3865 Clouds 4 1001 93 10000 2.6 270 22:57 17.05.2020
3866 Clouds 4 1001 86 10000 3.1 280 22:37 17.05.2020
3867 Clouds 4 1001 86 10000 3.1 280 22:37 17.05.2020
3868 Clouds 4 1001 86 10000 3.1 280 22:37 17.05.2020
3869 Clouds 4 1001 86 10000 3.1 280 22:19 17.05.2020
3870 Clouds 5 1001 86 10000 2.6 280 21:56 17.05.2020
3871 Clouds 5 1001 86 10000 3.1 280 21:38 17.05.2020
3872 Clouds 5 1001 86 10000 3.1 280 21:18 17.05.2020
3873 Clouds 5 1001 80 10000 3.1 280 20:42 17.05.2020
3874 Clouds 6 1001 80 10000 3.1 240 20:22 17.05.2020
3875 Clouds 6 1001 80 10000 3.1 240 19:57 17.05.2020
3876 Clouds 6 1001 75 10000 5.7 230 19:39 17.05.2020
3877 Clouds 7 1001 70 10000 4.1 240 19:20 17.05.2020
3878 Clouds 7 1001 65 10000 4.1 240 18:43 17.05.2020
3879 Clouds 7 1001 65 10000 4.1 240 18:24 17.05.2020
3880 Clouds 8 1001 70 10000 4.1 220 17:59 17.05.2020
3881 Clouds 7 1001 70 10000 3.1 230 17:39 17.05.2020
3882 Clouds 7 1001 70 10000 3.1 230 17:21 17.05.2020
3883 Rain 7 1002 81 10000 4.6 250 16:40 17.05.2020
3884 Rain 7 1002 81 10000 4.6 250 16:40 17.05.2020
3885 Rain 7 1002 80 10000 2.6 270 16:21 17.05.2020
3886 Rain 7 1002 80 10000 2.6 270 15:59 17.05.2020
3887 Clouds 7 1002 86 10000 2.6 290 15:39 17.05.2020
3888 Clouds 6 1002 86 10000 2.6 290 15:21 17.05.2020
3889 Clouds 6 1003 93 10000 4.1 290 14:54 17.05.2020
3890 Clouds 6 1003 93 10000 4.1 290 14:54 17.05.2020
3891 Clouds 6 1003 93 10000 4.1 290 14:36 17.05.2020
3892 Clouds 5 1003 93 10000 4.6 340 14:18 17.05.2020
3893 Thunderstorm 6 1003 67 10000 2.1 0 13:40 17.05.2020
3894 Thunderstorm 6 1003 65 10000 2.1 0 13:20 17.05.2020
3895 Clear 0 1002 100 10000 2.6 250 04:51 17.05.2020
3896 Clear 0 1002 89 10000 3.1 250 03:18 17.05.2020
3897 Clouds 1 1002 87 10000 3.1 260 02:20 17.05.2020
3898 Clouds 2 1002 87 10000 3.6 270 01:47 17.05.2020
3899 Clouds 2 1002 93 10000 4.1 260 00:41 17.05.2020
3900 Clouds 2 1002 93 10000 3.6 250 00:21 17.05.2020
3901 Clouds 3 1001 93 10000 3.1 240 23:40 16.05.2020
3902 Clouds 3 1001 93 10000 3.1 240 23:21 16.05.2020
3903 Clouds 3 1001 93 10000 2.6 240 22:58 16.05.2020
3904 Clouds 3 1001 86 10000 3.6 250 22:40 16.05.2020
3905 Clouds 3 1001 86 10000 3.6 250 22:20 16.05.2020
3906 Clouds 4 1001 80 10000 4.1 260 21:54 16.05.2020
3907 Clouds 4 1001 86 10000 5.7 270 21:36 16.05.2020
3908 Clouds 4 1001 93 10000 5.1 260 21:18 16.05.2020
3909 Rain 5 1000 80 10000 5.7 270 20:42 16.05.2020
3910 Rain 5 1000 75 10000 6.7 280 20:22 16.05.2020
3911 Rain 5 1000 75 10000 6.7 280 19:59 16.05.2020
3912 Rain 6 1000 80 10000 5.1 290 19:40 16.05.2020
3913 Rain 6 1000 80 10000 5.1 290 19:22 16.05.2020
3914 Rain 6 1000 80 10000 5.1 290 19:22 16.05.2020
3915 Rain 6 999 80 10000 7.2 290 18:44 16.05.2020
3916 Rain 6 999 80 10000 7.2 290 18:25 16.05.2020
3917 Rain 7 999 81 10000 5.7 270 17:58 16.05.2020
3918 Rain 6 998 86 10000 5.7 270 17:40 16.05.2020
3919 Rain 7 998 81 10000 7.2 240 17:20 16.05.2020
3920 Rain 6 998 81 10000 4.6 260 16:42 16.05.2020
3921 Rain 6 998 81 10000 4.6 260 16:23 16.05.2020
3922 Rain 6 998 81 10000 4.6 260 16:23 16.05.2020
3923 Rain 6 998 81 10000 3.6 300 15:58 16.05.2020
3924 Rain 6 997 86 10000 3.1 310 15:40 16.05.2020
3925 Rain 6 997 86 10000 3.1 310 15:20 16.05.2020
3926 Rain 7 998 75 10000 4.1 240 14:48 16.05.2020
3927 Rain 7 998 75 10000 4.1 240 14:21 16.05.2020
3928 Rain 7 998 81 10000 5.1 240 13:59 16.05.2020
3929 Rain 6 998 75 10000 6.2 220 13:41 16.05.2020
3930 Rain 6 998 75 10000 6.2 220 13:41 16.05.2020
3931 Rain 6 998 75 10000 6.2 220 13:22 16.05.2020
3932 Clouds 6 998 81 10000 3.1 220 12:55 16.05.2020
3933 Rain 6 998 86 10000 3.1 230 12:37 16.05.2020
3934 Rain 6 998 93 7000 4.6 230 12:18 16.05.2020
3935 Rain 6 998 86 10000 3.1 220 11:39 16.05.2020
3936 Rain 5 998 86 10000 1.5 250 11:20 16.05.2020
3937 Rain 6 998 86 10000 1.5 250 10:56 16.05.2020
3938 Rain 6 998 86 10000 0.5 0 10:37 16.05.2020
3939 Rain 6 998 86 10000 1 0 10:19 16.05.2020
3940 Rain 5 998 86 10000 1.5 190 09:45 16.05.2020
3941 Rain 5 998 86 10000 1.5 190 09:27 16.05.2020
3942 Rain 5 999 86 10000 0.5 0 08:45 16.05.2020
3943 Rain 5 999 86 10000 0.5 0 08:22 16.05.2020
3944 Rain 5 999 93 10000 2.6 200 07:55 16.05.2020
3945 Rain 5 999 93 10000 1.5 220 07:37 16.05.2020
3946 Rain 4 1000 93 10000 1.5 230 07:19 16.05.2020
3947 Rain 4 1000 93 8000 3.6 230 06:44 16.05.2020
3948 Rain 4 1000 93 5000 6.7 230 06:18 16.05.2020
3949 Clouds 5 1000 86 10000 4.1 160 05:40 16.05.2020
3950 Clouds 5 1001 80 10000 4.1 140 04:31 16.05.2020
3951 Clouds 4 1002 86 10000 3.1 130 03:25 16.05.2020
3952 Clouds 3 1003 80 10000 2.6 130 02:38 16.05.2020
3953 Clouds 2 1003 86 10000 1.5 80 01:56 16.05.2020
3954 Clouds 3 1003 80 10000 1.5 120 01:35 16.05.2020
3955 Clouds 4 1004 64 10000 2.1 170 00:55 16.05.2020
3956 Clouds 4 1004 64 10000 1.5 200 00:37 16.05.2020
3957 Clouds 4 1004 60 10000 1.5 240 00:18 16.05.2020
3958 Clouds 5 1004 56 10000 2.6 250 23:37 15.05.2020
3959 Clouds 5 1005 56 10000 3.1 230 23:18 15.05.2020
3960 Clouds 5 1005 56 10000 3.6 230 22:40 15.05.2020
3961 Clouds 5 1005 56 10000 3.6 230 22:20 15.05.2020
3962 Clouds 6 1005 60 10000 4.1 230 21:55 15.05.2020
3963 Clouds 6 1005 60 10000 4.1 230 21:55 15.05.2020
3964 Clouds 6 1005 60 10000 4.1 220 21:36 15.05.2020
3965 Clouds 6 1004 70 10000 4.1 220 21:18 15.05.2020
3966 Clouds 7 1004 42 10000 4.6 270 20:43 15.05.2020
3967 Clouds 7 1004 42 10000 4.6 270 20:43 15.05.2020
3968 Clouds 7 1004 42 10000 4.6 270 20:25 15.05.2020
3969 Clouds 8 1004 42 10000 5.7 270 19:59 15.05.2020
3970 Clouds 8 1004 36 10000 6.2 260 19:41 15.05.2020
3971 Clouds 9 1004 36 10000 5.7 260 19:22 15.05.2020
3972 Rain 9 1004 42 10000 5.7 270 18:47 15.05.2020
3973 Rain 9 1004 42 10000 5.7 270 18:27 15.05.2020
3974 Rain 9 1004 39 10000 5.1 260 17:57 15.05.2020
3975 Rain 9 1005 45 10000 4.6 250 17:36 15.05.2020
3976 Rain 9 1005 39 10000 6.2 260 17:18 15.05.2020
3977 Rain 9 1005 39 10000 6.2 260 16:54 15.05.2020
3978 Rain 9 1005 42 10000 7.2 240 16:36 15.05.2020
3979 Clouds 9 1005 45 10000 6.2 260 16:18 15.05.2020
3980 Clouds 9 1005 39 10000 6.7 260 15:40 15.05.2020
3981 Clouds 9 1005 39 10000 6.7 260 15:20 15.05.2020
3982 Clouds 9 1005 49 10000 6.2 260 14:56 15.05.2020
3983 Clouds 9 1005 49 10000 7.2 260 14:37 15.05.2020
3984 Clouds 9 1005 49 10000 7.2 260 14:37 15.05.2020
3985 Clouds 9 1005 48 0 6.61 255 14:18 15.05.2020
3986 Clouds 9 1005 49 10000 7.2 260 14:18 15.05.2020
3987 Rain 8 1005 75 10000 3.6 240 13:41 15.05.2020
3988 Rain 7 1005 75 10000 3.6 260 13:20 15.05.2020
3989 Rain 7 1005 75 10000 4.6 280 12:41 15.05.2020
3990 Clouds 6 1005 86 10000 5.1 250 12:21 15.05.2020
3991 Clouds 6 1005 86 10000 5.1 250 11:59 15.05.2020
3992 Clouds 6 1005 86 10000 3.6 230 11:40 15.05.2020
3993 Clouds 5 1005 86 10000 3.6 230 11:40 15.05.2020
3994 Rain 6 1005 86 10000 3.1 230 11:21 15.05.2020
3995 Rain 6 1005 86 10000 3.1 230 11:21 15.05.2020
3996 Rain 6 1005 86 10000 3.1 230 10:59 15.05.2020
3997 Rain 5 1005 86 10000 4.1 210 10:40 15.05.2020
3998 Rain 4 1005 86 10000 3.1 220 10:22 15.05.2020
3999 Clouds 4 1005 86 10000 3.1 220 09:59 15.05.2020
4000 Rain 5 1005 93 10000 3.6 230 09:38 15.05.2020
4001 Clouds 5 1005 86 10000 2.6 210 09:19 15.05.2020
4002 Rain 5 1005 86 10000 2.6 210 08:57 15.05.2020
4003 Rain 5 1005 86 10000 1 0 08:37 15.05.2020
4004 Rain 4 1005 93 10000 1 0 08:18 15.05.2020
4005 Rain 4 1005 93 10000 1 0 08:18 15.05.2020
4006 Rain 4 1005 100 10000 1.5 220 07:44 15.05.2020
4007 Rain 3 1005 100 10000 1.5 220 07:24 15.05.2020
4008 Clouds 1 1005 87 10000 1.5 200 06:41 15.05.2020
4009 Snow 1 1005 93 8000 1.5 170 05:49 15.05.2020
4010 Rain 2 1006 93 4000 1.5 0 04:27 15.05.2020
4011 Rain 3 1006 86 10000 2.1 170 03:45 15.05.2020
4012 Clouds 2 1007 79 10000 1 240 02:30 15.05.2020
4013 Clouds 3 1007 69 10000 2.1 240 01:19 15.05.2020
4014 Clouds 4 1007 69 10000 3.1 230 00:46 15.05.2020
4015 Clouds 4 1007 69 10000 3.1 230 00:28 15.05.2020
4016 Clouds 4 1007 64 10000 3.1 220 23:44 14.05.2020
4017 Clouds 4 1007 64 10000 3.1 220 23:21 14.05.2020
4018 Clouds 4 1007 64 10000 3.1 230 22:57 14.05.2020
4019 Clouds 5 1007 55 10000 2.6 240 22:39 14.05.2020
4020 Clear 5 1007 55 10000 3.6 230 22:19 14.05.2020
4021 Clear 5 1007 55 10000 3.6 230 21:56 14.05.2020
4022 Clear 6 1007 65 10000 2.6 220 21:37 14.05.2020
4023 Clear 6 1007 75 10000 3.1 160 21:19 14.05.2020
4024 Clouds 7 1007 70 10000 3.1 170 20:42 14.05.2020
4025 Rain 7 1007 56 10000 3.1 170 20:21 14.05.2020
4026 Rain 8 1007 56 10000 3.1 170 19:59 14.05.2020
4027 Rain 7 1007 48 10000 4.6 210 19:39 14.05.2020
4028 Rain 7 1007 48 10000 4.6 210 19:20 14.05.2020
4029 Rain 8 1008 42 10000 3.6 270 18:58 14.05.2020
4030 Rain 8 1008 42 10000 3.6 270 18:58 14.05.2020
4031 Rain 8 1008 56 10000 6.2 240 18:38 14.05.2020
4032 Rain 8 1008 56 10000 6.2 240 18:20 14.05.2020
4033 Rain 8 1008 42 10000 6.2 250 17:58 14.05.2020
4034 Rain 9 1008 52 10000 6.2 220 17:37 14.05.2020
4035 Rain 9 1008 52 10000 6.2 220 17:19 14.05.2020
4036 Rain 8 1008 52 10000 7.7 210 16:57 14.05.2020
4037 Rain 8 1008 52 10000 6.7 210 16:38 14.05.2020
4038 Rain 7 1008 60 10000 8.7 250 16:18 14.05.2020
4039 Rain 7 1008 60 10000 8.7 250 15:55 14.05.2020
4040 Rain 8 1008 36 10000 6.2 270 15:36 14.05.2020
4041 Rain 8 1008 36 10000 6.2 270 15:36 14.05.2020
4042 Rain 9 1008 36 10000 8.2 270 15:18 14.05.2020
4043 Rain 9 1008 45 10000 8.7 270 14:40 14.05.2020
4044 Rain 9 1008 45 10000 8.7 270 14:20 14.05.2020
4045 Rain 9 1007 36 10000 5.7 300 13:57 14.05.2020
4046 Rain 10 1007 31 10000 6.2 270 13:38 14.05.2020
4047 Rain 10 1007 31 10000 6.2 270 13:20 14.05.2020
4048 Rain 10 1007 29 10000 6.7 280 12:58 14.05.2020
4049 Rain 9 1007 34 10000 5.7 270 12:38 14.05.2020
4050 Rain 10 1007 34 10000 5.7 270 12:19 14.05.2020
4051 Clouds 10 1007 31 10000 5.1 270 11:57 14.05.2020
4052 Clouds 10 1007 34 10000 6.2 280 11:38 14.05.2020
4053 Clouds 10 1007 34 10000 6.2 280 11:38 14.05.2020
4054 Clouds 9 1007 39 10000 7.2 280 11:19 14.05.2020
4055 Clouds 9 1007 49 10000 6.2 300 10:45 14.05.2020
4056 Clouds 9 1007 49 10000 6.2 300 10:26 14.05.2020
4057 Clouds 9 1006 45 10000 6.2 300 09:57 14.05.2020
4058 Clouds 8 1006 56 10000 5.1 280 09:39 14.05.2020
4059 Clouds 7 1006 65 10000 4.1 280 09:19 14.05.2020
4060 Clouds 7 1006 70 10000 4.1 300 08:40 14.05.2020
4061 Clouds 6 1006 75 10000 4.1 280 08:20 14.05.2020
4062 Clouds 5 1006 80 10000 3.6 280 07:45 14.05.2020
4063 Clouds 5 1006 80 10000 3.6 280 07:45 14.05.2020
4064 Clouds 5 1006 80 10000 3.6 280 07:24 14.05.2020
4065 Clouds 4 1006 86 10000 3.6 290 06:54 14.05.2020
4066 Clouds 3 1006 93 10000 3.6 280 06:29 14.05.2020
4067 Clouds 2 1006 93 10000 3.1 280 05:46 14.05.2020
4068 Clouds 2 1005 100 10000 2.6 290 05:23 14.05.2020
4069 Clouds 2 1005 90 10000 3.6 290 04:25 14.05.2020
4070 Clouds 1 1005 88 10000 3.1 290 03:22 14.05.2020
4071 Clouds 1 1005 87 10000 2.6 290 02:40 14.05.2020
4072 Clouds 0 1004 100 10000 1.5 310 01:56 14.05.2020
4073 Clouds 1 1004 88 10000 1.5 340 01:19 14.05.2020
4074 Clouds 1 1004 88 10000 2.6 320 00:42 14.05.2020
4075 Clouds 1 1004 88 10000 2.1 300 00:21 14.05.2020
4076 Clouds 2 1004 88 10000 2.1 300 23:40 13.05.2020
4077 Clouds 2 1004 86 10000 2.1 300 23:21 13.05.2020
4078 Clouds 2 1003 86 10000 2.6 300 22:42 13.05.2020
4079 Clouds 2 1003 86 10000 2.6 300 22:42 13.05.2020
4080 Clouds 3 1003 83 10000 2.6 300 22:23 13.05.2020
4081 Clouds 3 1003 93 10000 3.1 340 22:23 13.05.2020
4082 Clouds 3 1003 93 10000 3.1 340 21:59 13.05.2020
4083 Clouds 3 1003 93 10000 3.1 340 21:59 13.05.2020
4084 Clouds 4 1003 81 10000 3.6 300 21:40 13.05.2020
4085 Clouds 4 1003 81 10000 1.5 260 21:20 13.05.2020
4086 Clouds 4 1003 81 10000 1.5 260 20:59 13.05.2020
4087 Clouds 4 1003 80 10000 2.6 160 20:39 13.05.2020
4088 Clouds 4 1003 80 10000 2.6 160 20:21 13.05.2020
4089 Clouds 5 1003 76 10000 3.1 170 19:43 13.05.2020
4090 Clouds 5 1003 70 10000 3.1 170 19:24 13.05.2020
4091 Clouds 6 1003 70 10000 3.1 160 18:55 13.05.2020
4092 Clouds 6 1003 67 10000 4.1 150 18:36 13.05.2020
4093 Clouds 6 1003 60 10000 4.1 160 18:18 13.05.2020
4094 Clouds 6 1003 67 10000 5.1 160 17:38 13.05.2020
4095 Clouds 7 1003 67 10000 5.1 160 17:19 13.05.2020
4096 Clouds 7 1003 67 10000 5.7 160 16:41 13.05.2020
4097 Clouds 7 1003 66 10000 5.7 160 16:20 13.05.2020
4098 Rain 7 1003 66 10000 5.1 150 15:59 13.05.2020
4099 Clouds 6 1003 66 10000 5.1 130 15:41 13.05.2020
4100 Rain 6 1003 75 10000 5.7 150 15:18 13.05.2020
4101 Rain 7 1003 75 10000 5.7 150 14:55 13.05.2020
4102 Rain 7 1003 70 10000 5.1 150 14:37 13.05.2020
4103 Rain 7 1003 70 10000 5.1 150 14:19 13.05.2020
4104 Rain 5 1003 75 10000 3.6 170 13:43 13.05.2020
4105 Rain 6 1003 75 10000 3.6 170 13:23 13.05.2020
4106 Rain 6 1003 86 10000 5.7 180 12:59 13.05.2020
4107 Rain 5 1003 86 10000 4.6 170 12:41 13.05.2020
4108 Rain 5 1003 86 10000 4.6 170 12:21 13.05.2020
4109 Rain 5 1003 93 10000 4.1 120 11:56 13.05.2020
4110 Rain 5 1003 93 8000 4.6 110 11:38 13.05.2020
4111 Rain 5 1003 90 0 3.34 193 11:20 13.05.2020
4112 Rain 4 1003 89 8000 4.6 110 10:58 13.05.2020
4113 Rain 4 1003 89 10000 9.8 130 10:38 13.05.2020
4114 Rain 5 1003 65 10000 7.2 150 10:19 13.05.2020
4115 Clouds 5 1003 75 10000 7.2 170 09:47 13.05.2020
4116 Clouds 5 1003 75 10000 7.2 170 09:24 13.05.2020
4117 Clouds 5 1003 68 10000 7.2 130 08:58 13.05.2020
4118 Clouds 6 1003 56 10000 6.7 130 08:39 13.05.2020
4119 Clouds 6 1003 56 10000 6.7 130 08:20 13.05.2020
4120 Clouds 6 1003 70 10000 3.6 110 07:52 13.05.2020
4121 Clouds 6 1003 70 10000 3.6 110 07:32 13.05.2020
4122 Clouds 6 1003 75 10000 2.6 100 06:52 13.05.2020
4123 Clouds 5 1003 80 10000 2.1 100 06:34 13.05.2020
4124 Clouds 1 1004 92 10000 2.1 70 05:43 13.05.2020
4125 Clouds -1 1004 92 10000 2.1 50 03:58 13.05.2020
4126 Clear -1 1004 92 10000 1.5 60 02:38 13.05.2020
4127 Clear 0 1005 92 10000 0.5 0 01:46 13.05.2020
4128 Clear 0 1005 92 10000 1 230 00:58 13.05.2020
4129 Clear 1 1005 82 10000 0.5 0 00:23 13.05.2020
4130 Clear 3 1005 74 10000 2.1 230 23:58 12.05.2020
4131 Clear 3 1005 64 10000 2.1 240 23:39 12.05.2020
4132 Clear 4 1004 64 10000 2.6 230 23:18 12.05.2020
4133 Clear 4 1004 56 10000 2.6 240 22:42 12.05.2020
4134 Rain 5 1004 60 10000 2.6 230 22:22 12.05.2020
4135 Rain 5 1004 60 10000 2.6 230 21:57 12.05.2020
4136 Rain 6 1004 56 10000 2.1 280 21:38 12.05.2020
4137 Rain 6 1004 52 10000 2.6 230 21:19 12.05.2020
4138 Rain 7 1004 52 10000 2.6 230 20:58 12.05.2020
4139 Rain 7 1004 52 10000 3.6 240 20:39 12.05.2020
4140 Rain 7 1004 52 10000 3.6 240 20:20 12.05.2020
4141 Rain 7 1003 65 10000 3.6 140 19:57 12.05.2020
4142 Rain 7 1003 56 10000 4.6 140 19:39 12.05.2020
4143 Rain 8 1003 56 10000 4.6 140 19:20 12.05.2020
4144 Rain 8 1003 56 10000 5.1 140 18:55 12.05.2020
4145 Rain 8 1003 52 10000 4.1 140 18:36 12.05.2020
4146 Rain 8 1003 45 10000 2.6 310 18:18 12.05.2020
4147 Rain 8 1003 48 10000 3.6 340 17:42 12.05.2020
4148 Rain 9 1003 48 10000 3.6 340 17:23 12.05.2020
4149 Rain 9 1003 55 10000 8.7 320 16:47 12.05.2020
4150 Rain 9 1003 54 10000 8.7 320 16:26 12.05.2020
4151 Rain 9 1003 42 10000 3.1 350 15:56 12.05.2020
4152 Rain 9 1003 39 10000 3.6 330 15:38 12.05.2020
4153 Rain 9 1002 39 10000 3.1 270 15:19 12.05.2020
4154 Rain 9 1002 39 10000 3.1 270 14:57 12.05.2020
4155 Rain 9 1002 39 10000 6.2 290 14:37 12.05.2020
4156 Clouds 9 1003 39 0 6.96 254 14:19 12.05.2020
4157 Rain 9 1002 48 10000 4.1 320 13:57 12.05.2020
4158 Rain 9 1001 36 10000 3.1 320 13:39 12.05.2020
4159 Rain 9 1001 39 10000 4.1 270 13:19 12.05.2020
4160 Rain 9 1001 39 10000 4.1 270 13:19 12.05.2020
4161 Rain 9 1001 39 10000 4.1 270 12:57 12.05.2020
4162 Rain 9 1001 39 10000 5.7 290 12:39 12.05.2020
4163 Rain 9 1001 42 10000 2.6 270 12:21 12.05.2020
4164 Rain 10 1001 42 10000 2.6 270 11:57 12.05.2020
4165 Rain 9 1001 48 10000 3.6 270 11:38 12.05.2020
4166 Clouds 9 1001 49 10000 3.6 280 11:20 12.05.2020
4167 Clouds 9 1001 49 10000 3.6 280 10:57 12.05.2020
4168 Clouds 8 1001 52 10000 5.1 280 10:39 12.05.2020
4169 Clouds 7 1001 56 10000 4.1 260 10:19 12.05.2020
4170 Clouds 6 1001 56 10000 4.1 260 09:58 12.05.2020
4171 Clouds 6 1001 60 10000 4.6 280 09:39 12.05.2020
4172 Clouds 5 1001 62 10000 4.1 270 09:20 12.05.2020
4173 Clouds 5 1001 86 10000 3.1 270 08:42 12.05.2020
4174 Clouds 4 1001 86 10000 3.1 270 08:21 12.05.2020
4175 Clouds 3 1000 67 10000 2.1 260 07:57 12.05.2020
4176 Clouds 3 1000 86 10000 2.6 260 07:39 12.05.2020
4177 Clouds 2 1000 86 10000 2.1 270 07:19 12.05.2020
4178 Clouds 2 1000 86 10000 2.1 270 06:38 12.05.2020
4179 Clouds 2 1000 86 10000 2.1 270 06:38 12.05.2020
4180 Clouds 1 1000 80 10000 2.6 270 06:19 12.05.2020
4181 Clouds 1 1000 80 10000 2.6 280 05:45 12.05.2020
4182 Clouds 1 1000 90 10000 2.6 280 03:57 12.05.2020
4183 Clouds 0 1000 86 10000 3.1 280 03:19 12.05.2020
4184 Clouds 1 1000 90 10000 3.1 280 02:27 12.05.2020
4185 Clouds 1 1000 90 10000 4.1 280 01:40 12.05.2020
4186 Clouds 1 1000 88 10000 4.1 280 00:59 12.05.2020
4187 Clouds 1 1000 87 10000 3.1 270 00:24 12.05.2020
4188 Clouds 1 1000 74 10000 3.1 270 23:57 11.05.2020
4189 Clouds 1 1000 74 10000 3.6 280 23:37 11.05.2020
4190 Clouds 1 1000 74 10000 3.6 280 23:19 11.05.2020
4191 Clouds 2 999 74 10000 3.6 280 22:56 11.05.2020
4192 Clouds 2 999 69 10000 3.6 290 22:56 11.05.2020
4193 Clouds 2 999 69 10000 3.6 290 22:38 11.05.2020
4194 Clouds 2 999 69 10000 3.6 290 22:19 11.05.2020
4195 Clouds 2 1000 64 10000 4.1 290 21:55 11.05.2020
4196 Rain 3 999 59 10000 4.6 270 21:36 11.05.2020
4197 Rain 3 999 59 10000 4.6 270 21:36 11.05.2020
4198 Clouds 3 999 64 10000 4.6 270 21:18 11.05.2020
4199 Clouds 3 999 64 10000 5.1 270 20:54 11.05.2020
4200 Clouds 3 999 64 10000 5.1 270 20:36 11.05.2020
4201 Clouds 4 999 74 10000 3.6 270 20:18 11.05.2020
4202 Clouds 4 999 75 10000 3.1 280 19:41 11.05.2020
4203 Clouds 4 999 71 10000 3.6 290 19:22 11.05.2020
4204 Clouds 3 999 71 10000 3.6 290 18:57 11.05.2020
4205 Clouds 3 999 71 10000 3.6 290 18:38 11.05.2020
4206 Clouds 3 999 69 10000 3.6 290 18:19 11.05.2020
4207 Clouds 3 999 69 10000 3.6 290 17:57 11.05.2020
4208 Snow 3 999 69 8000 7.2 300 17:39 11.05.2020
4209 Rain 4 999 70 10000 4.6 310 17:20 11.05.2020
4210 Rain 4 999 70 10000 4.6 310 16:56 11.05.2020
4211 Clouds 4 998 73 10000 4.1 320 16:37 11.05.2020
4212 Clouds 3 998 73 10000 5.7 330 16:18 11.05.2020
4213 Clouds 3 998 73 10000 6.7 330 15:42 11.05.2020
4214 Rain 2 998 86 10000 6.7 320 15:20 11.05.2020
4215 Rain 2 998 86 10000 6.7 320 14:58 11.05.2020
4216 Snow 2 998 86 1200 5.7 320 14:40 11.05.2020
4217 Rain 1 998 95 1100 6.7 320 14:21 11.05.2020
4218 Snow 1 998 95 1200 6.7 320 13:42 11.05.2020
4219 Rain 1 998 95 1200 6.7 320 13:22 11.05.2020
4220 Rain 1 998 95 800 5.1 320 12:59 11.05.2020
4221 Snow 1 998 95 600 6.2 320 12:41 11.05.2020
4222 Snow 1 998 95 1100 5.1 320 12:23 11.05.2020
4223 Snow 1 998 95 1100 5.1 320 11:57 11.05.2020
4224 Snow 2 998 95 1800 4.6 320 11:39 11.05.2020
4225 Snow 1 998 94 1800 4.6 320 11:21 11.05.2020
4226 Snow 2 998 94 2500 5.7 320 10:58 11.05.2020
4227 Rain 3 998 93 8000 7.7 320 10:39 11.05.2020
4228 Rain 4 997 93 10000 8.2 320 10:21 11.05.2020
4229 Rain 4 997 93 10000 8.2 320 10:21 11.05.2020
4230 Rain 5 997 93 10000 8.2 320 09:58 11.05.2020
4231 Rain 6 997 93 10000 5.7 310 09:39 11.05.2020
4232 Rain 7 997 93 10000 5.7 310 09:19 11.05.2020
4233 Rain 7 997 93 9000 6.2 310 09:19 11.05.2020
4234 Rain 8 997 93 9000 3.1 290 08:44 11.05.2020
4235 Rain 8 997 93 9000 3.1 290 08:25 11.05.2020
4236 Rain 9 997 93 8000 3.1 250 07:59 11.05.2020
4237 Rain 9 997 87 10000 3.6 250 07:41 11.05.2020
4238 Rain 9 997 87 10000 3.6 250 07:23 11.05.2020
4239 Clouds 10 998 81 10000 5.1 210 06:34 11.05.2020
4240 Clouds 10 998 76 10000 4.6 200 05:53 11.05.2020
4241 Clouds 10 998 76 10000 4.6 200 05:22 11.05.2020
4242 Rain 10 1000 81 10000 6.2 190 03:56 11.05.2020
4243 Clouds 10 1001 77 0 4.7 212 02:36 11.05.2020
4244 Rain 10 1001 71 10000 5.7 180 01:59 11.05.2020
4245 Clouds 11 1002 66 10000 4.6 200 01:21 11.05.2020
4246 Clouds 10 1002 66 10000 2.6 230 00:41 11.05.2020
4247 Clouds 11 1002 57 10000 2.6 180 00:18 11.05.2020
4248 Clouds 10 1003 61 10000 3.6 140 23:40 10.05.2020
4249 Rain 10 1003 61 10000 3.6 140 23:20 10.05.2020
4250 Rain 10 1003 61 10000 3.6 140 22:55 10.05.2020
4251 Clouds 10 1003 61 10000 4.1 140 22:36 10.05.2020
4252 Clouds 10 1004 57 10000 4.6 140 22:18 10.05.2020
4253 Clouds 10 1004 57 10000 5.1 140 21:42 10.05.2020
4254 Clouds 10 1005 57 10000 4.6 140 21:18 10.05.2020
4255 Clouds 11 1005 50 10000 4.6 140 20:43 10.05.2020
4256 Clouds 11 1005 46 10000 4.6 140 20:24 10.05.2020
4257 Clouds 12 1005 46 10000 4.6 140 19:58 10.05.2020
4258 Clouds 12 1005 43 10000 4.6 140 19:38 10.05.2020
4259 Clouds 13 1005 43 10000 4.6 140 19:20 10.05.2020
4260 Clouds 14 1006 61 10000 5.1 140 18:56 10.05.2020
4261 Clouds 14 1006 61 10000 5.7 130 18:36 10.05.2020
4262 Clouds 14 1006 59 10000 6.2 130 18:18 10.05.2020
4263 Clouds 14 1006 59 10000 6.2 130 17:58 10.05.2020
4264 Clouds 14 1007 35 10000 7.2 140 17:39 10.05.2020
4265 Clouds 14 1007 35 10000 7.2 140 17:20 10.05.2020
4266 Clouds 13 1008 37 10000 5.7 130 16:44 10.05.2020
4267 Clouds 13 1008 37 10000 6.7 130 16:21 10.05.2020
4268 Clouds 13 1008 37 10000 6.7 130 15:58 10.05.2020
4269 Clouds 13 1009 37 10000 7.2 120 15:40 10.05.2020
4270 Clouds 13 1009 37 10000 7.2 120 15:22 10.05.2020
4271 Clouds 14 1009 35 10000 7.2 140 14:56 10.05.2020
4272 Clouds 14 1009 55 10000 6.7 150 14:37 10.05.2020
4273 Clouds 14 1010 52 10000 5.7 130 14:19 10.05.2020
4274 Clouds 14 1010 52 10000 5.7 130 14:19 10.05.2020
4275 Clouds 14 1010 52 10000 5.7 130 13:57 10.05.2020
4276 Clouds 13 1010 37 10000 7.2 140 13:37 10.05.2020
4277 Clouds 13 1010 53 10000 6.2 150 13:18 10.05.2020
4278 Clouds 13 1011 35 10000 6.2 150 12:42 10.05.2020
4279 Clouds 12 1011 40 10000 6.7 160 12:23 10.05.2020
4280 Clouds 12 1011 40 10000 6.7 160 11:59 10.05.2020
4281 Clouds 12 1011 40 10000 6.7 140 11:40 10.05.2020
4282 Clear 12 1011 40 10000 6.7 140 11:21 10.05.2020
4283 Clear 12 1012 58 10000 6.2 150 10:58 10.05.2020
4284 Clear 11 1012 43 10000 5.7 160 10:40 10.05.2020
4285 Clear 11 1012 43 10000 5.7 160 10:22 10.05.2020
4286 Clear 11 1012 46 10000 7.7 150 09:42 10.05.2020
4287 Clear 10 1012 46 10000 7.7 150 09:23 10.05.2020
4288 Clear 10 1012 59 10000 6.7 130 08:59 10.05.2020
4289 Clear 9 1013 59 10000 5.7 130 08:40 10.05.2020
4290 Clouds 9 1013 62 10000 5.7 130 08:22 10.05.2020
4291 Clouds 8 1013 61 10000 5.1 130 07:42 10.05.2020
4292 Clouds 7 1013 67 10000 3.6 120 07:19 10.05.2020
4293 Clouds 6 1013 67 10000 3.6 120 06:50 10.05.2020
4294 Clouds 5 1013 69 10000 2.1 100 06:26 10.05.2020
4295 Clouds 2 1013 72 10000 1 80 05:46 10.05.2020
4296 Clouds 1 1013 79 10000 2.1 90 04:48 10.05.2020
4297 Clouds 1 1013 79 10000 2.1 90 04:29 10.05.2020
4298 Clouds 1 1013 74 10000 1 80 03:51 10.05.2020
4299 Clouds 0 1013 79 10000 2.6 50 02:59 10.05.2020
4300 Clouds 0 1013 79 10000 1 40 02:25 10.05.2020
4301 Clouds 1 1013 74 10000 0.5 0 01:59 10.05.2020
4302 Clouds 1 1013 80 10000 1.5 40 01:39 10.05.2020
4303 Clouds 2 1013 71 10000 0.5 0 01:18 10.05.2020
4304 Clouds 2 1013 71 10000 0.5 0 00:52 10.05.2020
4305 Clouds 3 1013 69 10000 1 340 00:22 10.05.2020
4306 Clouds 4 1013 59 10000 1.5 310 23:40 09.05.2020
4307 Clouds 4 1013 59 10000 1.5 310 23:22 09.05.2020
4308 Clouds 5 1013 47 10000 1.5 300 22:59 09.05.2020
4309 Clouds 5 1013 51 10000 2.1 300 22:40 09.05.2020
4310 Clouds 5 1013 51 10000 2.1 330 22:22 09.05.2020
4311 Clouds 7 1013 33 10000 3.1 320 21:57 09.05.2020
4312 Clouds 8 1013 33 10000 3.1 320 21:39 09.05.2020
4313 Clouds 9 1012 29 10000 3.1 320 21:20 09.05.2020
4314 Clouds 10 1012 29 10000 3.1 320 20:56 09.05.2020
4315 Clouds 10 1012 23 10000 4.1 310 20:38 09.05.2020
4316 Clouds 11 1012 23 10000 4.1 310 20:19 09.05.2020
4317 Clouds 12 1012 25 10000 6.2 320 19:40 09.05.2020
4318 Clear 12 1012 20 10000 6.2 280 19:21 09.05.2020
4319 Clear 12 1012 20 10000 6.2 280 18:59 09.05.2020
4320 Clear 12 1012 18 10000 6.2 310 18:40 09.05.2020
4321 Clear 12 1011 20 10000 5.7 280 18:21 09.05.2020
4322 Clear 13 1011 19 10000 6.7 290 17:44 09.05.2020
4323 Clear 13 1011 19 10000 6.7 290 17:23 09.05.2020
4324 Clear 13 1011 22 10000 6.7 280 16:56 09.05.2020
4325 Clear 14 1011 22 10000 6.7 280 16:37 09.05.2020
4326 Clear 14 1011 19 10000 7.7 300 16:18 09.05.2020
4327 Clear 14 1011 20 10000 7.2 300 15:42 09.05.2020
4328 Clear 14 1011 20 10000 8.2 290 15:22 09.05.2020
4329 Clear 14 1011 20 10000 8.2 290 14:55 09.05.2020
4330 Clear 14 1011 20 10000 7.7 270 14:36 09.05.2020
4331 Clear 14 1011 26 10000 7.7 270 14:18 09.05.2020
4332 Clear 14 1011 28 10000 7.2 270 13:41 09.05.2020
4333 Clear 14 1011 28 10000 7.2 270 13:22 09.05.2020
4334 Clear 13 1011 32 10000 5.7 270 12:58 09.05.2020
4335 Clear 14 1011 32 10000 6.7 270 12:39 09.05.2020
4336 Clear 13 1011 32 10000 6.7 280 12:21 09.05.2020
4337 Clear 13 1010 30 10000 6.2 290 11:44 09.05.2020
4338 Clouds 12 1010 37 10000 6.7 280 11:20 09.05.2020
4339 Clouds 11 1010 37 10000 6.7 280 10:54 09.05.2020
4340 Clouds 11 1010 43 10000 5.7 300 10:36 09.05.2020
4341 Clouds 11 1010 50 10000 6.7 290 10:18 09.05.2020
4342 Clouds 11 1010 53 10000 6.7 280 09:41 09.05.2020
4343 Clouds 10 1010 53 10000 6.7 280 09:20 09.05.2020
4344 Clouds 10 1009 61 10000 6.2 270 08:54 09.05.2020
4345 Clouds 11 1010 57 10000 6.2 280 08:54 09.05.2020
4346 Clouds 10 1009 61 10000 6.2 270 08:35 09.05.2020
4347 Clouds 9 1009 61 10000 4.6 280 07:56 09.05.2020
4348 Clouds 9 1009 65 10000 4.6 280 07:38 09.05.2020
4349 Clouds 8 1009 65 10000 4.6 280 07:20 09.05.2020
4350 Clear 6 1008 81 10000 3.1 270 06:27 09.05.2020
4351 Clear 5 1008 86 10000 3.1 240 05:50 09.05.2020
4352 Clear 5 1008 93 10000 3.1 240 05:19 09.05.2020
4353 Clouds 6 1007 87 10000 3.6 260 03:39 09.05.2020
4354 Clouds 6 1007 87 10000 2.6 230 02:53 09.05.2020
4355 Clouds 6 1007 87 10000 2.6 230 02:29 09.05.2020
4356 Clouds 6 1007 81 10000 3.6 230 01:48 09.05.2020
4357 Clouds 6 1007 81 10000 3.6 230 01:20 09.05.2020
4358 Clouds 7 1007 81 10000 4.6 230 00:42 09.05.2020
4359 Clouds 7 1007 81 10000 5.1 220 00:18 09.05.2020
4360 Clouds 7 1007 81 10000 5.1 220 23:43 08.05.2020
4361 Clouds 8 1007 81 10000 5.1 220 23:24 08.05.2020
4362 Clouds 8 1007 75 10000 7.2 200 22:55 08.05.2020
4363 Clouds 8 1007 65 10000 5.7 200 22:37 08.05.2020
4364 Clouds 8 1007 78 10000 3.1 120 22:18 08.05.2020
4365 Clouds 8 1007 78 10000 3.1 120 21:54 08.05.2020
4366 Clouds 9 1007 52 10000 4.6 120 21:36 08.05.2020
4367 Clouds 8 1007 52 10000 4.1 120 21:18 08.05.2020
4368 Clouds 9 1008 49 10000 5.1 130 20:41 08.05.2020
4369 Clouds 9 1008 49 10000 5.1 130 20:23 08.05.2020
4370 Clouds 9 1008 49 10000 6.2 140 19:58 08.05.2020
4371 Rain 9 1008 43 10000 4.6 180 19:40 08.05.2020
4372 Rain 10 1008 43 10000 4.6 180 19:20 08.05.2020
4373 Clouds 10 1008 40 10000 4.6 190 19:20 08.05.2020
4374 Clouds 11 1008 40 10000 5.1 180 18:45 08.05.2020
4375 Clouds 11 1008 40 10000 5.1 180 18:27 08.05.2020
4376 Clouds 11 1009 34 10000 5.1 180 17:43 08.05.2020
4377 Clouds 11 1009 34 10000 5.1 180 17:43 08.05.2020
4378 Clouds 12 1009 34 10000 7.2 200 17:20 08.05.2020
4379 Clouds 12 1009 34 10000 7.2 200 16:56 08.05.2020
4380 Clouds 12 1009 34 10000 5.7 210 16:37 08.05.2020
4381 Clouds 12 1009 34 10000 5.7 210 16:19 08.05.2020
4382 Clouds 12 1010 52 10000 6.7 180 15:42 08.05.2020
4383 Clouds 12 1010 53 10000 6.7 180 15:22 08.05.2020
4384 Clouds 12 1010 53 10000 6.2 190 14:57 08.05.2020
4385 Clouds 12 1010 53 10000 7.7 160 14:39 08.05.2020
4386 Clouds 11 1011 43 10000 6.7 180 14:19 08.05.2020
4387 Clouds 11 1011 43 10000 6.7 180 13:55 08.05.2020
4388 Clouds 11 1011 37 10000 7.2 180 13:36 08.05.2020
4389 Clouds 11 1011 40 10000 8.2 180 13:18 08.05.2020
4390 Clouds 11 1011 40 10000 7.2 170 12:42 08.05.2020
4391 Clouds 11 1011 37 10000 7.7 170 12:23 08.05.2020
4392 Clouds 11 1011 37 10000 5.7 180 11:44 08.05.2020
4393 Clouds 11 1011 37 10000 5.7 180 11:23 08.05.2020
4394 Clouds 11 1012 32 10000 2.6 0 10:59 08.05.2020
4395 Clouds 11 1012 32 10000 2.6 0 10:59 08.05.2020
4396 Clouds 11 1012 37 10000 3.6 220 10:41 08.05.2020
4397 Clouds 10 1012 39 10000 2.1 0 10:19 08.05.2020
4398 Clouds 10 1012 39 10000 2.1 0 09:58 08.05.2020
4399 Clouds 10 1012 45 10000 3.1 300 09:39 08.05.2020
4400 Clouds 9 1012 49 10000 3.1 280 09:18 08.05.2020
4401 Clouds 9 1012 49 10000 3.1 280 09:18 08.05.2020
4402 Clouds 8 1013 56 10000 2.6 270 08:45 08.05.2020
4403 Clear 8 1013 60 10000 2.6 280 08:22 08.05.2020
4404 Clear 6 1012 65 10000 3.1 270 07:44 08.05.2020
4405 Clear 6 1012 65 10000 3.1 270 07:25 08.05.2020
4406 Clouds 4 1012 74 10000 4.6 290 06:51 08.05.2020
4407 Clouds 4 1012 74 10000 4.6 290 06:24 08.05.2020
4408 Clouds 3 1012 80 10000 3.1 290 05:52 08.05.2020
4409 Clouds 3 1012 80 10000 3.1 300 04:41 08.05.2020
4410 Clouds 3 1012 64 10000 3.6 300 02:35 08.05.2020
4411 Clouds 4 1012 64 10000 4.1 300 01:56 08.05.2020
4412 Clouds 4 1012 60 10000 4.1 300 01:28 08.05.2020
4413 Clouds 5 1012 56 10000 4.6 290 00:53 08.05.2020
4414 Clouds 5 1012 56 10000 4.6 290 00:32 08.05.2020
4415 Clouds 6 1011 56 10000 4.6 290 23:59 07.05.2020
4416 Clouds 6 1011 48 10000 4.1 290 23:40 07.05.2020
4417 Clouds 7 1011 48 10000 4.1 290 23:22 07.05.2020
4418 Clouds 6 1011 52 10000 4.6 290 22:56 07.05.2020
4419 Clouds 7 1011 48 10000 4.6 290 22:38 07.05.2020
4420 Clouds 7 1011 48 10000 4.6 290 22:38 07.05.2020
4421 Clouds 7 1011 48 10000 4.6 290 22:19 07.05.2020
4422 Clouds 8 1011 45 10000 5.1 290 21:55 07.05.2020
4423 Clouds 9 1011 49 10000 4.6 290 21:36 07.05.2020
4424 Clouds 9 1010 45 10000 5.1 290 21:18 07.05.2020
4425 Clouds 11 1010 40 10000 5.1 310 20:42 07.05.2020
4426 Clouds 11 1010 40 10000 5.1 310 20:23 07.05.2020
4427 Clouds 11 1010 43 10000 2.6 320 19:56 07.05.2020
4428 Rain 12 1010 40 10000 4.1 330 19:38 07.05.2020
4429 Rain 12 1010 40 10000 4.1 330 19:38 07.05.2020
4430 Rain 12 1010 40 10000 4.1 330 19:19 07.05.2020
4431 Rain 12 1009 40 10000 2.1 310 18:44 07.05.2020
4432 Rain 12 1009 40 10000 2.1 310 18:26 07.05.2020
4433 Rain 12 1009 40 10000 4.6 350 17:57 07.05.2020
4434 Rain 12 1009 49 10000 8.2 320 17:36 07.05.2020
4435 Rain 13 1009 49 10000 8.2 320 17:18 07.05.2020
4436 Clouds 13 1009 34 10000 5.1 310 16:40 07.05.2020
4437 Clouds 13 1009 37 10000 4.6 310 16:18 07.05.2020
4438 Clouds 13 1008 34 10000 6.7 310 15:56 07.05.2020
4439 Clouds 13 1008 34 10000 6.7 310 15:37 07.05.2020
4440 Clouds 13 1008 32 10000 7.2 300 15:18 07.05.2020
4441 Clouds 13 1008 34 10000 6.2 300 14:44 07.05.2020
4442 Clear 13 1008 35 10000 5.7 290 14:21 07.05.2020
4443 Clear 13 1008 34 10000 6.2 290 13:45 07.05.2020
4444 Clear 12 1008 34 10000 6.2 290 13:26 07.05.2020
4445 Clear 12 1008 32 10000 6.7 290 12:54 07.05.2020
4446 Clear 12 1008 32 10000 6.7 300 12:36 07.05.2020
4447 Clear 12 1008 32 10000 6.7 300 12:18 07.05.2020
4448 -273 0 0 0 0 0 11:39 07.05.2020
4449 Clear 10 1008 37 10000 5.1 290 11:21 07.05.2020
4450 Clouds 10 1008 39 10000 5.7 320 10:43 07.05.2020
4451 Clouds 10 1008 39 10000 5.7 320 10:24 07.05.2020
4452 Clouds 9 1008 42 10000 5.7 320 09:54 07.05.2020
4453 Clouds 8 1008 49 10000 5.1 330 09:36 07.05.2020
4454 Clouds 8 1008 49 10000 4.6 320 09:18 07.05.2020
4455 Clear 7 1008 56 10000 4.6 300 08:41 07.05.2020
4456 Clear 7 1008 56 10000 4.6 300 08:22 07.05.2020
4457 Clear 6 1008 60 10000 5.1 310 07:57 07.05.2020
4458 Clear 6 1008 65 10000 4.1 320 07:39 07.05.2020
4459 Clear 5 1008 69 10000 4.6 310 07:18 07.05.2020
4460 Clear 4 1008 69 10000 4.6 290 06:36 07.05.2020
4461 Clear 3 1008 69 10000 3.6 280 05:40 07.05.2020
4462 Clear 3 1008 69 10000 4.1 290 04:26 07.05.2020
4463 Clear 3 1008 59 10000 4.1 290 03:29 07.05.2020
4464 Clear 4 1008 59 10000 4.6 290 02:55 07.05.2020
4465 Clouds 4 1008 59 10000 5.1 290 02:19 07.05.2020
4466 Clouds 5 1008 55 10000 5.1 300 01:24 07.05.2020
4467 Clouds 5 1007 52 10000 5.1 300 00:50 07.05.2020
4468 Clouds 6 1007 52 10000 5.1 300 00:29 07.05.2020
4469 Clouds 6 1007 48 10000 5.1 300 23:57 06.05.2020
4470 Clouds 6 1007 48 10000 4.6 300 23:38 06.05.2020
4471 Clouds 7 1007 45 10000 5.1 300 23:19 06.05.2020
4472 Clouds 7 1007 45 10000 5.1 300 22:54 06.05.2020
4473 Clouds 7 1007 45 10000 6.2 300 22:36 06.05.2020
4474 Clouds 8 1007 42 10000 6.7 300 22:18 06.05.2020
4475 Clouds 9 1006 42 10000 5.7 290 21:42 06.05.2020
4476 Clouds 9 1006 42 10000 5.7 290 21:21 06.05.2020
4477 Clouds 11 1006 40 10000 7.2 300 20:54 06.05.2020
4478 Clouds 11 1006 40 10000 7.2 300 20:36 06.05.2020
4479 Clouds 12 1006 40 10000 6.7 300 20:18 06.05.2020
4480 Clouds 12 1006 40 10000 6.7 300 19:55 06.05.2020
4481 Clouds 13 1006 32 10000 7.2 300 19:36 06.05.2020
4482 Clouds 13 1006 32 10000 7.2 300 19:18 06.05.2020
4483 Clouds 13 1006 32 10000 6.7 290 18:54 06.05.2020
4484 Clouds 14 1006 30 10000 5.7 320 18:36 06.05.2020
4485 Clouds 14 1006 30 10000 5.7 320 18:18 06.05.2020
4486 Clouds 15 1006 33 10000 6.7 290 17:40 06.05.2020
4487 Clouds 15 1006 30 10000 5.7 300 17:22 06.05.2020
4488 Clouds 15 1006 30 10000 5.7 300 16:59 06.05.2020
4489 Clouds 15 1006 30 10000 6.7 270 16:41 06.05.2020
4490 Clouds 15 1006 30 10000 5.7 280 16:22 06.05.2020
4491 Clouds 15 1006 30 10000 5.7 280 15:59 06.05.2020
4492 Clouds 15 1007 30 10000 5.7 310 15:41 06.05.2020
4493 Clouds 15 1007 30 10000 4.6 280 15:22 06.05.2020
4494 Clouds 15 1007 30 10000 4.6 280 15:22 06.05.2020
4495 Clouds 15 1007 30 10000 4.6 280 14:56 06.05.2020
4496 Clouds 15 1007 30 10000 4.6 270 14:37 06.05.2020
4497 Clouds 15 1008 30 10000 6.2 280 14:18 06.05.2020
4498 Clouds 15 1008 30 10000 6.2 280 13:56 06.05.2020
4499 Clouds 15 1008 30 10000 4.6 280 13:36 06.05.2020
4500 Clouds 15 1008 30 10000 5.1 300 13:18 06.05.2020
4501 Clouds 15 1009 28 10000 5.1 270 12:42 06.05.2020
4502 Clouds 15 1009 28 10000 5.1 270 12:24 06.05.2020
4503 Clouds 14 1009 26 10000 4.1 280 11:41 06.05.2020
4504 Clouds 14 1010 28 10000 4.1 310 11:21 06.05.2020
4505 Clouds 14 1010 28 10000 4.1 310 10:58 06.05.2020
4506 Clouds 13 1010 30 10000 3.6 320 10:38 06.05.2020
4507 Clouds 12 1010 37 10000 3.6 330 10:19 06.05.2020
4508 Clouds 11 1011 37 10000 4.1 320 09:45 06.05.2020
4509 Clouds 11 1011 43 10000 5.7 330 09:24 06.05.2020
4510 Clouds 11 1011 43 10000 5.7 330 08:55 06.05.2020
4511 Clouds 11 1011 43 10000 5.7 330 08:55 06.05.2020
4512 Clouds 10 1011 46 10000 4.6 320 08:36 06.05.2020
4513 Clear 10 1011 60 10000 3.6 310 08:18 06.05.2020
4514 Clear 10 1011 60 10000 4.1 310 07:40 06.05.2020
4515 Clear 9 1011 63 10000 3.1 320 07:21 06.05.2020
4516 Clear 8 1011 63 10000 3.1 320 06:56 06.05.2020
4517 Clear 7 1011 63 10000 3.6 330 06:38 06.05.2020
4518 Clear 7 1011 68 10000 2.1 320 06:18 06.05.2020
4519 Clear 6 1011 68 10000 1 0 05:37 06.05.2020
4520 Clear 5 1012 74 10000 3.1 330 04:41 06.05.2020
4521 Clear 6 1012 75 10000 3.1 340 03:47 06.05.2020
4522 Clear 6 1012 70 10000 3.6 330 03:22 06.05.2020
4523 Clear 6 1013 80 10000 2.1 310 02:30 06.05.2020
4524 Clear 6 1013 70 10000 2.1 300 01:56 06.05.2020
4525 Clear 5 1013 80 10000 2.1 290 01:34 06.05.2020
4526 Clear 5 1013 86 10000 0.5 0 00:55 06.05.2020
4527 Clear 6 1013 75 10000 2.85 344 00:31 06.05.2020
4528 Clear 6 1014 75 10000 1 0 23:57 05.05.2020
4529 Clear 7 1014 70 10000 0.5 0 23:39 05.05.2020
4530 Clear 7 1014 70 10000 0.5 0 23:19 05.05.2020
4531 Clear 8 1014 61 10000 2.1 250 22:42 05.05.2020
4532 Clear 9 1014 61 10000 1.5 230 22:20 05.05.2020
4533 Clear 10 1014 61 10000 1.5 230 21:58 05.05.2020
4534 Clear 10 1014 61 10000 1.5 230 21:58 05.05.2020
4535 Clear 10 1014 61 10000 1.5 230 21:58 05.05.2020
4536 Clear 11 1014 50 10000 1.5 240 21:39 05.05.2020
4537 Clouds 11 1014 50 10000 1.5 240 21:21 05.05.2020
4538 Clouds 12 1014 46 10000 3.1 230 20:58 05.05.2020
4539 Clouds 12 1014 43 10000 3.1 240 20:39 05.05.2020
4540 Clouds 13 1014 41 10000 3.6 220 20:18 05.05.2020
4541 Clouds 13 1014 41 10000 3.6 220 19:54 05.05.2020
4542 Clouds 14 1014 38 10000 3.1 220 19:36 05.05.2020
4543 Clouds 14 1014 70 10000 3.6 220 19:18 05.05.2020
4544 Clouds 15 1014 38 10000 3.1 220 18:42 05.05.2020
4545 Clouds 15 1014 38 10000 3.1 220 18:20 05.05.2020
4546 Clouds 15 1015 38 10000 2.1 220 17:59 05.05.2020
4547 Clouds 15 1015 41 10000 4.1 200 17:41 05.05.2020
4548 Clouds 15 1015 41 10000 4.1 200 17:23 05.05.2020
4549 Clouds 15 1015 36 10000 3.1 190 16:57 05.05.2020
4550 Clouds 15 1015 36 10000 3.1 190 16:57 05.05.2020
4551 Clouds 15 1015 38 10000 3.1 130 16:36 05.05.2020
4552 Clouds 15 1015 38 10000 3.1 140 16:18 05.05.2020
4553 Clouds 15 1015 41 10000 3.1 120 15:42 05.05.2020
4554 Clouds 15 1015 41 10000 3.6 130 15:23 05.05.2020
4555 Clouds 15 1015 41 10000 3.6 130 15:23 05.05.2020
4556 Clouds 15 1015 41 10000 3.6 130 14:58 05.05.2020
4557 Clouds 15 1016 41 10000 4.1 150 14:39 05.05.2020
4558 Clouds 15 1016 41 10000 4.1 150 14:39 05.05.2020
4559 Clear 16 1016 41 10000 4.1 150 14:21 05.05.2020
4560 Clouds 16 1016 41 10000 3.6 160 13:58 05.05.2020
4561 Clouds 15 1016 41 10000 3.6 140 13:40 05.05.2020
4562 Clouds 15 1016 44 10000 3.6 100 13:21 05.05.2020
4563 Clouds 15 1016 44 10000 3.6 100 12:58 05.05.2020
4564 Clouds 15 1016 47 10000 3.6 130 12:39 05.05.2020
4565 Clouds 14 1017 58 10000 2.1 110 12:20 05.05.2020
4566 Clouds 14 1017 58 10000 2.1 110 12:20 05.05.2020
4567 Clouds 14 1017 58 10000 2.1 110 11:55 05.05.2020
4568 Clouds 14 1016 54 10000 3.6 150 11:36 05.05.2020
4569 Clouds 14 1017 62 10000 2.6 140 11:18 05.05.2020
4570 Clouds 13 1017 62 10000 2.1 0 10:39 05.05.2020
4571 Clouds 12 1017 71 10000 1.5 0 10:19 05.05.2020
4572 Clouds 12 1017 71 10000 1.5 0 09:58 05.05.2020
4573 Clouds 11 1017 71 10000 2.1 110 09:40 05.05.2020
4574 Clouds 10 1017 71 10000 2.1 110 09:22 05.05.2020
4575 Clouds 10 1016 76 10000 2.1 80 08:41 05.05.2020
4576 Clouds 7 1017 87 10000 1.5 50 08:20 05.05.2020
4577 Clouds 8 1017 87 10000 1.5 50 07:57 05.05.2020
4578 Clouds 7 1016 93 8000 1.5 320 07:38 05.05.2020
4579 Fog 5 1016 100 800 1 0 07:18 05.05.2020
4580 Fog 4 1016 100 800 1.5 330 06:45 05.05.2020
4581 Fog 3 1016 100 800 1.5 330 06:21 05.05.2020
4582 Fog 1 1016 100 350 2.1 330 05:36 05.05.2020
4583 Fog 1 1016 88 10000 1.5 130 03:34 05.05.2020
4584 Fog 2 1015 89 10000 2.1 310 01:27 05.05.2020
4585 Clouds 3 1016 89 10000 0.5 0 00:50 05.05.2020
4586 Clouds 3 1016 89 10000 0.5 0 00:21 05.05.2020
4587 Clouds 4 1016 100 10000 0.5 310 23:45 04.05.2020
4588 Clouds 5 1016 100 10000 0.5 310 23:21 04.05.2020
4589 Clouds 5 1015 100 10000 1.5 290 22:56 04.05.2020
4590 Clouds 5 1015 100 10000 1.5 290 22:56 04.05.2020
4591 Clouds 5 1015 93 10000 1.5 250 22:38 04.05.2020
4592 Clouds 6 1015 93 10000 1.5 250 22:19 04.05.2020
4593 Clouds 6 1015 87 10000 2.6 230 21:53 04.05.2020
4594 Clouds 6 1015 87 10000 2.6 230 21:33 04.05.2020
4595 Clouds 6 1015 87 10000 2.6 230 21:33 04.05.2020
4596 Clouds 7 1015 87 10000 2.1 230 20:54 04.05.2020
4597 Clouds 8 1015 81 10000 3.1 240 20:36 04.05.2020
4598 Clouds 8 1014 81 10000 3.6 230 20:18 04.05.2020
4599 Clouds 8 1014 81 10000 2.6 220 19:41 04.05.2020
4600 Clouds 9 1014 76 10000 2.1 230 19:21 04.05.2020
4601 Clouds 9 1014 76 10000 2.1 230 18:56 04.05.2020
4602 Clouds 9 1014 76 10000 2.6 260 18:37 04.05.2020
4603 Clouds 9 1014 76 10000 3.6 250 18:18 04.05.2020
4604 Clouds 10 1014 76 10000 3.6 250 17:55 04.05.2020
4605 Clouds 10 1014 76 10000 3.6 250 17:37 04.05.2020
4606 Clouds 10 1014 76 10000 4.1 220 17:18 04.05.2020
4607 Clouds 10 1014 76 10000 3.6 210 16:42 04.05.2020
4608 Clouds 10 1014 76 10000 3.6 210 16:42 04.05.2020
4609 Clouds 9 1014 76 10000 3.6 210 16:21 04.05.2020
4610 Clouds 10 1014 76 10000 3.6 200 15:46 04.05.2020
4611 Clouds 10 1014 76 10000 3.6 220 15:25 04.05.2020
4612 Clouds 10 1014 76 10000 3.6 220 15:25 04.05.2020
4613 Clouds 10 1014 76 10000 3.6 220 14:57 04.05.2020
4614 Clouds 10 1014 76 10000 3.6 220 14:57 04.05.2020
4615 Clouds 9 1014 75 10000 3.6 220 14:38 04.05.2020
4616 Clouds 9 1014 75 10000 3.6 220 14:38 04.05.2020
4617 Clouds 9 1014 75 10000 3.6 220 14:38 04.05.2020
4618 Clouds 9 1014 75 10000 3.6 220 14:38 04.05.2020
4619 Clouds 9 1014 75 10000 3.6 220 14:38 04.05.2020
4620 Clouds 9 1014 76 10000 3.6 210 13:55 04.05.2020
4621 Clouds 9 1014 76 10000 3.6 210 13:55 04.05.2020
4622 Clouds 9 1014 76 10000 3.6 210 13:55 04.05.2020
4623 Clouds 10 1014 76 10000 3.1 230 13:46 04.05.2020
4624 Clouds 10 1014 76 10000 3.1 230 13:46 04.05.2020
4625 Clouds 9 1013 81 10000 4.1 210 12:48 04.05.2020
4626 Clouds 9 1013 81 10000 4.1 210 12:48 04.05.2020
4627 Clouds 9 1013 81 10000 4.1 210 12:48 04.05.2020
4628 Clouds 9 1013 81 10000 3.6 250 12:21 04.05.2020
4629 Clouds 9 1013 81 10000 3.6 250 12:21 04.05.2020
4630 Clouds 9 1013 81 10000 3.6 250 12:21 04.05.2020
4631 Clouds 7 1012 93 10000 4.1 240 09:33 04.05.2020
4632 Clouds 7 1012 93 10000 4.1 220 08:57 04.05.2020
4633 Clouds 7 1012 93 10000 4.1 220 08:57 04.05.2020
4634 Clouds 7 1012 93 10000 4.1 220 08:57 04.05.2020
4635 Clouds 7 1012 93 10000 4.1 220 08:56 04.05.2020
4636 Clouds 7 1012 93 10000 4.1 220 08:56 04.05.2020
4637 Clouds 6 1011 93 10000 3.1 230 07:47 04.05.2020
4638 Clouds 6 1011 93 10000 3.1 230 07:45 04.05.2020
4639 Clouds 6 1010 100 6000 1.5 240 07:18 04.05.2020
4640 Clouds 6 1010 100 6000 1.5 240 07:18 04.05.2020
4641 Mist 5 1010 100 4500 3.6 200 04:55 04.05.2020
4642 Mist 5 1010 100 5000 3.6 230 03:20 04.05.2020
4643 Mist 5 1010 100 5000 3.6 230 03:20 04.05.2020
4644 Mist 5 1010 100 4000 3.6 200 02:30 04.05.2020
4645 Clouds 6 1010 93 10000 3.1 220 00:38 04.05.2020
4646 Clouds 7 1009 87 10000 2.6 200 23:46 03.05.2020
4647 Clouds 7 1009 81 10000 3.1 200 23:24 03.05.2020
4648 Clouds 7 1009 81 10000 3.1 200 22:56 03.05.2020
4649 Clouds 7 1009 81 10000 3.1 200 22:56 03.05.2020
4650 Clouds 8 1009 81 10000 3.1 210 22:38 03.05.2020
4651 Clouds 7 1009 75 10000 3.1 220 22:19 03.05.2020
4652 Clouds 9 1009 66 10000 4.1 210 21:41 03.05.2020
4653 Clouds 9 1009 66 10000 4.1 210 21:41 03.05.2020
4654 Clouds 9 1009 61 10000 3.6 220 21:20 03.05.2020
4655 Clouds 10 1009 66 10000 4.6 210 20:47 03.05.2020
4656 Clouds 10 1009 66 10000 4.6 210 20:23 03.05.2020
4657 Clouds 10 1009 62 10000 4.1 220 19:55 03.05.2020
4658 Clouds 10 1009 62 10000 4.1 220 19:55 03.05.2020
4659 Clouds 11 1008 62 10000 6.2 220 19:36 03.05.2020
4660 Clouds 11 1008 58 10000 5.7 220 19:18 03.05.2020
4661 Clouds 12 1008 58 10000 5.7 230 18:39 03.05.2020
4662 Clouds 13 1008 50 10000 6.2 260 18:20 03.05.2020
4663 Clouds 13 1008 50 10000 4.6 260 17:42 03.05.2020
4664 Clouds 14 1007 50 10000 5.1 270 17:22 03.05.2020
4665 Clouds 14 1007 50 10000 5.1 270 17:22 03.05.2020
4666 Clouds 14 1007 50 10000 5.1 270 16:56 03.05.2020
4667 Clouds 14 1007 50 10000 5.1 270 16:56 03.05.2020
4668 Clouds 14 1007 50 10000 6.2 270 16:56 03.05.2020
4669 Clouds 14 1007 50 10000 5.1 270 16:56 03.05.2020
4670 Clouds 14 1007 50 10000 6.2 270 16:37 03.05.2020
4671 Clouds 14 1007 54 10000 6.2 260 16:18 03.05.2020
4672 Clouds 14 1007 54 10000 6.2 260 15:55 03.05.2020
4673 Clouds 14 1007 58 10000 5.1 250 15:36 03.05.2020
4674 Clouds 14 1007 58 10000 5.1 250 15:18 03.05.2020
4675 Clouds 14 1007 54 10000 4.6 270 15:18 03.05.2020
4676 Clouds 14 1006 54 10000 4.6 260 14:41 03.05.2020
4677 Clouds 12 1006 54 10000 4.6 260 14:22 03.05.2020
4678 Clouds 13 1006 54 10000 6.2 240 13:57 03.05.2020
4679 Clouds 13 1006 58 10000 4.6 270 13:33 03.05.2020
4680 Clouds 13 1006 58 10000 4.6 270 13:33 03.05.2020
4681 Clouds 13 1006 58 10000 4.6 270 13:33 03.05.2020
4682 Clouds 13 1006 58 10000 4.6 270 13:33 03.05.2020
4683 Clouds 13 1006 58 10000 4.6 270 13:33 03.05.2020
4684 Clouds 13 1006 58 10000 4.1 270 12:47 03.05.2020
4685 Clouds 13 1006 58 10000 4.1 270 12:20 03.05.2020
4686 Clouds 13 1006 66 10000 4.1 280 11:57 03.05.2020
4687 Clouds 11 1005 66 10000 4.1 260 11:39 03.05.2020
4688 Clouds 11 1005 71 10000 3.6 290 11:19 03.05.2020
4689 Clouds 11 1005 71 10000 3.6 290 10:52 03.05.2020
4690 Clouds 11 1005 71 10000 3.6 290 10:52 03.05.2020
4691 Clouds 11 1005 76 10000 4.1 270 10:50 03.05.2020
4692 Clouds 11 1005 76 10000 4.1 270 10:50 03.05.2020
4693 Clouds 11 1005 81 10000 4.1 240 10:21 03.05.2020
4694 Clouds 11 1005 81 10000 4.1 240 10:19 03.05.2020
4695 Clouds 11 1005 81 10000 4.1 240 10:19 03.05.2020
4696 Clouds 9 1004 87 10000 4.1 250 09:39 03.05.2020
4697 Clouds 8 1004 87 10000 5.7 250 08:57 03.05.2020
4698 Clouds 9 1004 87 10000 5.7 250 08:57 03.05.2020
4699 Clouds 8 1004 87 10000 4.6 260 08:28 03.05.2020
4700 Clouds 8 1004 87 10000 4.6 260 08:27 03.05.2020
4701 Clouds 8 1004 87 10000 4.6 260 08:27 03.05.2020
4702 Clouds 8 1003 87 10000 4.6 260 07:40 03.05.2020
4703 Clouds 8 1003 87 10000 4.6 260 07:40 03.05.2020
4704 Clouds 8 1003 93 10000 4.1 250 06:31 03.05.2020
4705 Clouds 8 1003 93 10000 4.1 250 06:31 03.05.2020
4706 Clouds 8 1003 93 10000 4.1 250 06:31 03.05.2020
4707 Clouds 8 1003 93 10000 3.1 250 05:49 03.05.2020
4708 Clouds 8 1003 93 10000 3.1 250 05:29 03.05.2020
4709 Clouds 8 1002 93 9000 2.6 240 04:27 03.05.2020
4710 Clouds 8 1002 93 9000 2.6 240 04:27 03.05.2020
4711 Fog 8 1002 100 700 2.1 230 03:29 03.05.2020
4712 Clouds 8 1002 93 6000 2.1 190 02:30 03.05.2020
4713 Clouds 8 1002 100 9000 4.1 140 01:46 03.05.2020
4714 Clouds 8 1002 100 9000 4.1 140 01:27 03.05.2020
4715 Clouds 8 1002 93 10000 3.6 130 00:57 03.05.2020
4716 Clouds 9 1002 93 10000 3.1 120 00:38 03.05.2020
4717 Clouds 8 1002 93 10000 3.1 120 00:19 03.05.2020
4718 Rain 8 1003 100 10000 3.1 110 23:44 02.05.2020
4719 Rain 8 1003 100 10000 3.1 110 23:25 02.05.2020
4720 Rain 8 1003 100 7000 3.1 100 22:44 02.05.2020
4721 Rain 8 1003 100 7000 3.1 100 22:24 02.05.2020
4722 Rain 8 1003 93 10000 4.1 90 21:58 02.05.2020
4723 Rain 8 1003 93 10000 3.6 80 21:40 02.05.2020
4724 Rain 8 1003 93 10000 3.6 80 21:19 02.05.2020
4725 Rain 8 1004 93 10000 3.6 80 20:57 02.05.2020
4726 Rain 8 1004 93 10000 3.6 80 20:37 02.05.2020
4727 Rain 8 1004 93 9000 3.1 90 20:19 02.05.2020
4728 Rain 8 1004 93 9000 3.1 90 19:57 02.05.2020
4729 Rain 8 1004 93 9000 3.1 90 19:57 02.05.2020
4730 Rain 8 1004 93 9000 3.1 90 19:38 02.05.2020
4731 Rain 8 1004 93 9000 3.1 90 19:38 02.05.2020
4732 Rain 8 1004 93 9000 3.1 90 19:38 02.05.2020
4733 Rain 8 1004 93 9000 3.1 90 19:19 02.05.2020
4734 Rain 9 1004 87 10000 3.6 80 18:55 02.05.2020
4735 Rain 9 1004 87 10000 3.6 80 18:55 02.05.2020
4736 Rain 9 1004 81 10000 3.6 90 18:36 02.05.2020
4737 Rain 9 1004 71 10000 4.1 90 18:18 02.05.2020
4738 Rain 10 1004 71 10000 5.1 90 17:39 02.05.2020
4739 Rain 10 1004 54 10000 5.7 110 17:20 02.05.2020
4740 Rain 11 1004 54 10000 5.7 110 16:59 02.05.2020
4741 Rain 11 1004 46 10000 5.7 110 16:39 02.05.2020
4742 Clouds 12 1004 43 10000 5.7 110 16:21 02.05.2020
4743 Rain 12 1004 43 10000 6.7 110 15:43 02.05.2020
4744 Rain 13 1005 43 10000 6.2 110 15:20 02.05.2020
4745 Rain 13 1005 43 10000 6.2 110 15:20 02.05.2020
4746 Rain 13 1005 43 10000 6.2 110 14:58 02.05.2020
4747 Clouds 13 1005 44 10000 8.2 110 14:39 02.05.2020
4748 Clouds 13 1005 44 10000 8.2 110 14:20 02.05.2020
4749 Clouds 13 1005 44 10000 8.7 120 13:40 02.05.2020
4750 Clouds 14 1005 44 10000 8.7 120 13:22 02.05.2020
4751 Clouds 14 1005 47 10000 8.2 130 12:44 02.05.2020
4752 Clouds 14 1005 47 10000 8.2 130 12:25 02.05.2020
4753 Clouds 13 1005 47 10000 6.2 120 11:59 02.05.2020
4754 Clouds 13 1005 47 10000 6.2 120 11:41 02.05.2020
4755 Clouds 13 1005 47 10000 6.2 120 11:22 02.05.2020
4756 Clouds 12 1005 50 10000 5.7 130 10:58 02.05.2020
4757 Clouds 12 1006 50 10000 5.7 130 10:38 02.05.2020
4758 Clouds 12 1006 50 10000 5.7 130 10:20 02.05.2020
4759 Clouds 12 1006 50 10000 5.7 130 10:20 02.05.2020
4760 Clouds 11 1006 53 10000 5.1 130 09:57 02.05.2020
4761 Clouds 11 1006 53 10000 6.2 130 09:38 02.05.2020
4762 Clouds 10 1006 53 10000 6.2 130 09:20 02.05.2020
4763 Clouds 10 1006 57 10000 5.7 120 08:46 02.05.2020
4764 Clouds 9 1006 57 10000 5.7 120 08:27 02.05.2020
4765 Clouds 8 1006 75 10000 5.1 110 07:48 02.05.2020
4766 Clouds 8 1006 76 10000 5.1 110 07:29 02.05.2020
4767 Clouds 7 1006 76 10000 5.1 110 06:51 02.05.2020
4768 Clouds 6 1006 77 10000 5.7 110 05:30 02.05.2020
4769 Clouds 5 1007 60 10000 6.7 110 04:59 02.05.2020
4770 Clouds 6 1007 60 10000 5.7 110 04:25 02.05.2020
4771 Clouds 6 1007 60 10000 6.2 110 03:18 02.05.2020
4772 Clouds 6 1008 56 10000 6.7 110 02:26 02.05.2020
4773 Clouds 7 1008 56 10000 7.7 110 01:50 02.05.2020
4774 Clouds 7 1008 52 10000 8.7 110 00:49 02.05.2020
4775 Clouds 7 1009 52 10000 6.7 110 00:29 02.05.2020
4776 Clouds 7 1009 52 10000 6.7 110 23:59 01.05.2020
4777 Clouds 7 1009 49 10000 5.1 90 23:39 01.05.2020
4778 Clouds 7 1009 52 10000 5.1 90 23:20 01.05.2020
4779 Clouds 7 1009 52 10000 5.1 90 22:55 01.05.2020
4780 Clouds 7 1009 52 10000 5.7 90 22:37 01.05.2020
4781 Clouds 7 1009 52 10000 5.7 90 22:18 01.05.2020
4782 Clouds 7 1009 52 10000 5.7 90 21:55 01.05.2020
4783 Clouds 7 1010 52 10000 6.2 90 21:36 01.05.2020
4784 Clouds 7 1010 52 10000 6.2 100 21:18 01.05.2020
4785 Clouds 7 1010 52 10000 6.2 100 20:54 01.05.2020
4786 Clouds 7 1010 49 10000 6.2 90 20:36 01.05.2020
4787 Clouds 7 1010 49 10000 6.7 90 20:18 01.05.2020
4788 Clouds 8 1010 49 10000 6.7 90 19:41 01.05.2020
4789 Clouds 8 1010 49 10000 6.7 90 19:22 01.05.2020
4790 Clouds 8 1010 49 10000 6.7 100 18:57 01.05.2020
4791 Clouds 8 1010 45 10000 6.7 90 18:38 01.05.2020
4792 Clouds 8 1010 45 10000 8.2 100 18:19 01.05.2020
4793 Clouds 8 1010 45 10000 8.2 100 17:56 01.05.2020
4794 Clouds 8 1010 45 10000 8.2 100 17:37 01.05.2020
4795 Clouds 8 1010 45 10000 8.2 100 17:37 01.05.2020
4796 Clouds 8 1010 45 10000 8.2 100 17:19 01.05.2020
4797 Clouds 8 1011 42 10000 8.2 90 16:55 01.05.2020
4798 Clouds 8 1011 42 10000 8.2 110 16:37 01.05.2020
4799 Clouds 8 1011 42 10000 8.2 110 16:18 01.05.2020
4800 Clouds 9 1011 39 10000 9.3 110 15:42 01.05.2020
4801 Clouds 10 1011 39 10000 9.3 110 15:23 01.05.2020
4802 Clouds 9 1012 42 10000 9.3 100 14:54 01.05.2020
4803 Clouds 9 1012 42 10000 9.3 100 14:36 01.05.2020
4804 Clouds 9 1012 45 10000 8.2 110 14:18 01.05.2020
4805 Clouds 9 1012 45 10000 8.7 110 13:40 01.05.2020
4806 Clouds 9 1012 45 10000 8.7 110 13:22 01.05.2020
4807 Clouds 9 1012 45 10000 8.7 110 12:56 01.05.2020
4808 Clouds 9 1012 46 10000 7.7 120 12:37 01.05.2020
4809 Clouds 9 1012 45 10000 8.2 110 12:19 01.05.2020
4810 Clouds 8 1013 42 10000 7.2 120 11:43 01.05.2020
4811 Clouds 9 1013 42 10000 7.2 120 11:25 01.05.2020
4812 Clouds 9 1013 42 10000 8.2 110 10:58 01.05.2020
4813 Clouds 8 1013 42 10000 6.2 110 10:40 01.05.2020
4814 Clouds 8 1013 42 10000 6.2 110 10:20 01.05.2020
4815 Clouds 8 1013 48 10000 6.2 110 09:44 01.05.2020
4816 Clouds 7 1013 48 10000 6.2 110 09:44 01.05.2020
4817 Clouds 8 1013 56 10000 5.1 100 09:20 01.05.2020
4818 Clouds 7 1013 56 10000 5.1 100 08:58 01.05.2020
4819 Clouds 7 1014 60 10000 4.6 90 08:40 01.05.2020
4820 Clouds 6 1014 60 10000 4.6 90 08:21 01.05.2020
4821 Clouds 5 1014 69 10000 4.1 90 07:44 01.05.2020
4822 Clouds 4 1014 80 10000 3.6 80 07:22 01.05.2020
4823 Clouds 3 1014 80 10000 3.6 70 06:42 01.05.2020
4824 Clouds 0 1014 80 10000 3.1 70 05:35 01.05.2020
4825 Clouds -1 1015 86 10000 2.6 70 04:39 01.05.2020
4826 Clouds -1 1015 86 10000 2.6 70 03:24 01.05.2020
4827 Clouds -1 1015 86 10000 2.6 70 02:43 01.05.2020
4828 Clear -1 1015 86 10000 3.1 70 02:18 01.05.2020
4829 Clear -1 1015 86 10000 2.6 60 01:28 01.05.2020
4830 Clear 0 1015 82 10000 2.6 60 00:58 01.05.2020
4831 Clear 0 1015 80 10000 2.6 70 00:37 01.05.2020
4832 Clear 0 1015 80 10000 2.1 80 00:18 01.05.2020
4833 Clear 0 1015 80 10000 2.1 80 23:54 30.04.2020
4834 Clear 0 1015 80 10000 2.1 80 23:36 30.04.2020
4835 Clear 0 1015 69 10000 2.6 80 23:18 30.04.2020
4836 Clear 0 1015 69 10000 2.6 80 23:18 30.04.2020
4837 Clear 1 1015 82 10000 2.6 70 22:40 30.04.2020
4838 Clear 1 1015 64 10000 2.6 80 22:19 30.04.2020
4839 Clear 2 1015 64 10000 2.6 80 21:55 30.04.2020
4840 Clear 2 1015 64 10000 2.1 120 21:37 30.04.2020
4841 Clear 3 1015 55 10000 3.1 110 21:18 30.04.2020
4842 Clear 3 1015 51 10000 4.1 120 20:42 30.04.2020
4843 Clouds 3 1015 51 10000 4.1 120 20:19 30.04.2020
4844 Clouds 4 1015 48 10000 4.1 120 19:58 30.04.2020
4845 Clouds 5 1014 44 10000 4.1 120 19:39 30.04.2020
4846 Clouds 5 1014 44 10000 4.1 120 19:20 30.04.2020
4847 Clouds 5 1014 41 10000 4.1 110 18:55 30.04.2020
4848 Clouds 5 1014 41 10000 4.1 140 18:36 30.04.2020
4849 Clouds 6 1014 38 10000 3.6 130 18:18 30.04.2020
4850 Clouds 6 1014 41 10000 4.6 130 17:41 30.04.2020
4851 Clouds 7 1014 41 10000 4.6 130 17:22 30.04.2020
4852 Clouds 7 1015 41 10000 4.1 130 16:59 30.04.2020
4853 Clouds 7 1015 41 10000 4.6 130 16:40 30.04.2020
4854 Clouds 7 1015 41 10000 3.1 140 16:20 30.04.2020
4855 Clouds 6 1015 41 10000 3.1 140 15:57 30.04.2020
4856 Clouds 6 1015 41 10000 2.6 0 15:39 30.04.2020
4857 Clouds 6 1015 45 10000 3.6 170 15:21 30.04.2020
4858 Clouds 6 1015 44 10000 3.6 160 14:40 30.04.2020
4859 Clouds 6 1015 48 10000 4.6 140 14:20 30.04.2020
4860 Clouds 6 1015 48 10000 4.6 140 13:57 30.04.2020
4861 Clouds 6 1015 48 10000 4.1 160 13:39 30.04.2020
4862 Clouds 6 1015 48 10000 4.1 160 13:20 30.04.2020
4863 Clouds 5 1015 41 10000 2.6 190 12:42 30.04.2020
4864 Clouds 5 1015 41 10000 2.6 190 12:42 30.04.2020
4865 Clouds 6 1015 41 10000 2.6 190 12:21 30.04.2020
4866 Clouds 6 1015 38 10000 1.5 330 11:59 30.04.2020
4867 Clouds 6 1015 41 10000 1.5 40 11:38 30.04.2020
4868 Clouds 5 1015 41 10000 2.6 60 11:18 30.04.2020
4869 Clouds 5 1015 41 10000 2.6 60 11:18 30.04.2020
4870 Clouds 5 1015 41 10000 2.6 60 10:55 30.04.2020
4871 Clouds 5 1015 41 10000 2.6 60 10:55 30.04.2020
4872 Clouds 5 1015 44 10000 1 0 10:37 30.04.2020
4873 Clouds 5 1015 44 10000 1 0 10:18 30.04.2020
4874 Clouds 5 1015 48 10000 3.1 80 09:43 30.04.2020
4875 Clouds 4 1015 48 10000 3.1 80 09:23 30.04.2020
4876 Clear 4 1015 55 10000 2.1 50 08:49 30.04.2020
4877 Clear 3 1015 55 10000 2.1 50 08:27 30.04.2020
4878 Clear 3 1015 59 10000 2.6 40 07:59 30.04.2020
4879 Clear 2 1015 75 10000 2.1 30 07:40 30.04.2020
4880 Clear 1 1015 80 10000 2.1 30 07:22 30.04.2020
4881 Clear 0 1014 74 10000 2.1 10 06:39 30.04.2020
4882 Clear -1 1014 79 10000 1.5 20 05:49 30.04.2020
4883 Clear -2 1014 79 10000 1.5 20 05:27 30.04.2020
4884 Clear -2 1014 79 10000 1.5 20 04:30 30.04.2020
4885 Clear -2 1013 86 10000 1.5 10 02:59 30.04.2020
4886 Clear -2 1013 86 10000 1.5 10 02:29 30.04.2020
4887 Clear -1 1013 86 10000 1.5 10 01:56 30.04.2020
4888 Clouds -1 1012 100 10000 1 330 01:20 30.04.2020
4889 Clouds -1 1012 100 10000 1.5 350 00:37 30.04.2020
4890 Clouds -2 1012 100 10000 1.5 350 00:18 30.04.2020
4891 Clear -1 1012 92 10000 1 0 23:42 29.04.2020
4892 Clear 0 1012 92 10000 1 0 23:24 29.04.2020
4893 Clear 0 1012 92 10000 1 310 22:59 29.04.2020
4894 Clear 1 1011 92 10000 1.5 330 22:39 29.04.2020
4895 Clouds 0 1011 92 10000 1.5 330 22:20 29.04.2020
4896 Clouds 2 1011 74 10000 0.5 50 21:39 29.04.2020
4897 Clouds 2 1011 69 10000 2.1 30 21:21 29.04.2020
4898 Clouds 3 1011 69 10000 2.1 30 20:59 29.04.2020
4899 Clouds 3 1011 69 10000 2.1 30 20:59 29.04.2020
4900 Clouds 3 1011 81 10000 2.1 30 20:40 29.04.2020
4901 Rain 3 1011 79 10000 2.1 30 20:19 29.04.2020
4902 Rain 3 1010 79 10000 0.5 0 19:57 29.04.2020
4903 Rain 4 1010 69 10000 2.1 140 19:39 29.04.2020
4904 Rain 4 1010 74 10000 3.6 70 19:18 29.04.2020
4905 Rain 4 1009 65 10000 1.5 230 18:42 29.04.2020
4906 Rain 4 1009 64 10000 1 0 18:21 29.04.2020
4907 Rain 5 1009 64 10000 1 0 17:56 29.04.2020
4908 Rain 4 1009 69 10000 5.1 340 17:37 29.04.2020
4909 Snow 4 1009 69 10000 5.1 340 17:19 29.04.2020
4910 Rain 5 1008 69 10000 1.5 210 16:38 29.04.2020
4911 Rain 5 1008 69 10000 1.5 210 16:38 29.04.2020
4912 Rain 4 1008 86 10000 1.5 0 16:19 29.04.2020
4913 Clouds 4 1008 69 8000 2.1 0 15:57 29.04.2020
4914 Clouds 4 1008 69 8000 2.1 0 15:39 29.04.2020
4915 Clouds 4 1008 67 8000 2.1 0 15:20 29.04.2020
4916 Clouds 3 1008 66 7000 6.2 20 14:46 29.04.2020
4917 Clouds 3 1008 65 7000 6.2 20 14:27 29.04.2020
4918 Rain 5 1007 60 10000 3.1 50 13:59 29.04.2020
4919 Rain 5 1007 69 10000 3.6 50 13:40 29.04.2020
4920 Rain 5 1007 69 10000 3.6 50 13:20 29.04.2020
4921 Rain 5 1007 69 10000 3.6 50 13:20 29.04.2020
4922 Rain 4 1007 86 10000 4.6 350 12:57 29.04.2020
4923 Snow 5 1006 67 10000 6.2 340 12:38 29.04.2020
4924 Snow 5 1006 69 10000 5.1 330 12:18 29.04.2020
4925 Rain 5 1006 67 10000 3.6 50 11:39 29.04.2020
4926 Rain 5 1006 70 10000 3.6 50 11:20 29.04.2020
4927 Rain 5 1006 70 10000 3.1 10 10:57 29.04.2020
4928 Snow 4 1006 74 10000 4.1 20 10:37 29.04.2020
4929 Snow 4 1006 74 10000 4.1 20 10:37 29.04.2020
4930 Clouds 5 1005 69 10000 4.6 360 10:19 29.04.2020
4931 Clouds 4 1005 73 10000 5.1 360 09:42 29.04.2020
4932 Clouds 3 1005 74 10000 4.6 360 09:22 29.04.2020
4933 Clouds 3 1005 74 10000 4.6 10 08:55 29.04.2020
4934 Clouds 3 1005 74 10000 4.6 10 08:36 29.04.2020
4935 Clouds 2 1004 77 10000 4.6 350 08:18 29.04.2020
4936 Clouds 2 1004 77 10000 4.1 350 07:39 29.04.2020
4937 Clouds 2 1004 82 10000 5.7 350 07:18 29.04.2020
4938 Clouds 1 1003 82 10000 3.6 330 06:48 29.04.2020
4939 Clouds 1 1003 87 10000 3.6 330 06:30 29.04.2020
4940 Clouds 1 1003 90 10000 3.1 340 05:21 29.04.2020
4941 Snow 1 1003 88 10000 3.6 330 04:21 29.04.2020
4942 Snow 1 1002 88 10000 3.6 340 03:59 29.04.2020
4943 Snow 1 1002 87 8000 4.1 360 02:39 29.04.2020
4944 Rain 1 1002 95 6000 3.6 350 01:44 29.04.2020
4945 Rain 1 1002 95 6000 3.6 350 01:20 29.04.2020
4946 Clouds 2 1001 95 10000 4.1 10 00:39 29.04.2020
4947 Clouds 2 1001 94 10000 4.6 10 00:19 29.04.2020
4948 Clouds 2 1001 94 10000 4.1 10 23:47 28.04.2020
4949 Snow 2 1002 93 10000 4.1 10 23:23 28.04.2020
4950 Rain 3 1002 89 10000 4.6 10 22:40 28.04.2020
4951 Rain 3 1002 89 10000 4.6 10 22:22 28.04.2020
4952 Clouds 3 1002 74 10000 4.6 10 21:59 28.04.2020
4953 Rain 3 1002 74 10000 5.1 10 21:41 28.04.2020
4954 Rain 3 1002 74 10000 5.1 10 21:23 28.04.2020
4955 Clouds 4 1002 60 10000 3.1 20 20:59 28.04.2020
4956 Clouds 4 1002 60 10000 3.1 20 20:59 28.04.2020
4957 Clouds 4 1002 60 10000 3.6 20 20:40 28.04.2020
4958 Clouds 4 1002 60 10000 4.6 10 20:21 28.04.2020
4959 Clouds 4 1002 60 10000 4.6 10 19:58 28.04.2020
4960 Clouds 4 1002 55 10000 4.1 60 19:39 28.04.2020
4961 Clouds 4 1002 55 10000 4.1 60 19:20 28.04.2020
4962 Clouds 4 1002 52 10000 4.1 50 18:57 28.04.2020
4963 Clouds 5 1002 56 10000 4.1 70 18:38 28.04.2020
4964 Clouds 4 1003 52 10000 4.1 90 18:18 28.04.2020
4965 Clouds 5 1003 55 10000 3.6 70 17:38 28.04.2020
4966 Clouds 4 1003 55 10000 3.6 70 17:19 28.04.2020
4967 Clouds 4 1003 55 10000 3.6 70 17:19 28.04.2020
4968 Clouds 4 1003 60 10000 3.6 80 16:58 28.04.2020
4969 Clouds 5 1003 60 10000 2.1 130 16:40 28.04.2020
4970 Clouds 5 1003 60 10000 2.1 130 16:22 28.04.2020
4971 Clouds 5 1004 60 10000 5.1 120 15:56 28.04.2020
4972 Clouds 5 1004 60 10000 5.1 120 15:38 28.04.2020
4973 Clouds 5 1004 55 10000 4.6 100 15:20 28.04.2020
4974 Clouds 6 1004 52 10000 4.1 130 14:55 28.04.2020
4975 Clouds 6 1004 52 10000 4.1 130 14:37 28.04.2020
4976 Clouds 6 1004 52 10000 5.1 130 14:18 28.04.2020
4977 Clouds 6 1004 52 10000 5.1 130 13:55 28.04.2020
4978 Clouds 6 1004 41 10000 4.6 110 13:37 28.04.2020
4979 Clouds 6 1005 41 10000 5.1 170 13:19 28.04.2020
4980 Clouds 6 1005 38 10000 3.1 0 12:43 28.04.2020
4981 Clouds 6 1005 38 10000 4.1 110 12:23 28.04.2020
4982 Clouds 6 1005 36 10000 3.6 140 11:43 28.04.2020
4983 Clouds 7 1006 36 10000 2.6 140 11:23 28.04.2020
4984 Clouds 7 1006 36 10000 2.6 140 10:58 28.04.2020
4985 Clouds 7 1006 36 10000 2.6 130 10:38 28.04.2020
4986 Clouds 7 1006 36 10000 2.6 130 10:19 28.04.2020
4987 Clouds 6 1006 41 10000 2.1 150 09:45 28.04.2020
4988 Clouds 6 1006 41 10000 2.1 150 09:26 28.04.2020
4989 Clouds 6 1007 35 10000 2.1 160 08:57 28.04.2020
4990 Clouds 5 1007 56 10000 2.1 140 08:38 28.04.2020
4991 Clouds 5 1007 65 10000 2.1 140 08:20 28.04.2020
4992 Clouds 5 1007 69 10000 1.5 140 07:44 28.04.2020
4993 Clouds 5 1007 72 10000 1.5 140 07:19 28.04.2020
4994 Clouds 4 1007 80 10000 1.5 120 06:43 28.04.2020
4995 Clouds 2 1008 74 10000 1.5 110 05:53 28.04.2020
4996 Clouds 2 1008 74 10000 1.5 60 05:35 28.04.2020
4997 Clouds 2 1008 86 10000 1 80 04:39 28.04.2020
4998 Clouds 2 1009 80 10000 0.5 90 02:39 28.04.2020
4999 Clouds 3 1009 80 10000 1 50 01:58 28.04.2020
5000 Clouds 3 1009 80 10000 1.5 10 01:22 28.04.2020
5001 Clouds 3 1010 74 10000 1.5 210 00:45 28.04.2020
5002 Clouds 3 1010 69 10000 0.5 0 00:18 28.04.2020
5003 Clouds 4 1010 69 10000 1.5 240 23:43 27.04.2020
5004 Clouds 4 1010 69 10000 1.5 240 23:21 27.04.2020
5005 Clouds 3 1010 60 10000 1.5 220 22:43 27.04.2020
5006 Clouds 3 1010 60 10000 1.5 220 22:43 27.04.2020
5007 Clouds 4 1010 60 10000 1.5 220 22:23 27.04.2020
5008 Clouds 4 1010 60 10000 2.1 230 21:58 27.04.2020
5009 Clouds 5 1010 56 10000 2.1 230 21:39 27.04.2020
5010 Clouds 5 1010 56 10000 2.1 230 21:20 27.04.2020
5011 Clouds 5 1010 52 10000 3.6 240 20:58 27.04.2020
5012 Clouds 5 1010 48 10000 3.1 240 20:39 27.04.2020
5013 Clouds 6 1010 48 10000 3.1 240 20:21 27.04.2020
5014 Clouds 6 1010 48 10000 4.1 240 19:57 27.04.2020
5015 Clouds 6 1010 45 10000 2.6 230 19:38 27.04.2020
5016 Clouds 7 1010 33 10000 2.6 360 19:19 27.04.2020
5017 Clouds 7 1010 33 10000 2.6 360 18:56 27.04.2020
5018 Clouds 7 1010 30 10000 2.1 320 18:37 27.04.2020
5019 Clouds 8 1010 31 10000 2.6 300 18:18 27.04.2020
5020 Clouds 8 1010 30 10000 2.1 340 17:41 27.04.2020
5021 Clouds 8 1010 33 10000 3.1 320 17:20 27.04.2020
5022 Clouds 8 1010 33 10000 3.1 320 16:54 27.04.2020
5023 Clouds 8 1010 33 10000 3.1 350 16:36 27.04.2020
5024 Clouds 8 1010 33 10000 2.1 0 16:18 27.04.2020
5025 Clouds 8 1010 33 10000 2.1 0 15:55 27.04.2020
5026 Clouds 8 1010 33 10000 2.6 0 15:36 27.04.2020
5027 Clouds 8 1010 36 10000 3.6 330 15:18 27.04.2020
5028 Clouds 8 1010 30 10000 3.1 10 14:40 27.04.2020
5029 Rain 8 1010 36 10000 4.1 340 14:19 27.04.2020
5030 Rain 8 1010 36 10000 4.1 340 13:57 27.04.2020
5031 Rain 7 1010 33 10000 4.1 330 13:38 27.04.2020
5032 Rain 8 1010 36 10000 3.1 330 13:18 27.04.2020
5033 Rain 7 1010 35 10000 3.6 310 12:43 27.04.2020
5034 Rain 7 1010 35 10000 3.6 310 12:22 27.04.2020
5035 Rain 6 1010 35 10000 5.7 320 11:56 27.04.2020
5036 Clouds 7 1010 38 10000 4.1 340 11:37 27.04.2020
5037 Clouds 6 1010 48 10000 4.1 350 11:18 27.04.2020
5038 Clouds 7 1009 45 10000 4.1 340 10:42 27.04.2020
5039 Clouds 7 1009 45 10000 4.1 340 10:24 27.04.2020
5040 Clouds 6 1009 48 10000 4.6 330 09:58 27.04.2020
5041 Clouds 5 1009 51 10000 4.6 310 09:39 27.04.2020
5042 Clouds 5 1009 51 10000 4.6 310 09:18 27.04.2020
5043 Clouds 4 1009 55 10000 4.1 320 08:52 27.04.2020
5044 Clear 3 1009 55 10000 3.1 320 08:32 27.04.2020
5045 Clear 2 1008 64 10000 4.1 340 07:45 27.04.2020
5046 Clear 2 1008 64 10000 4.1 340 07:25 27.04.2020
5047 Clear 2 1008 69 10000 4.1 320 06:58 27.04.2020
5048 Clear 1 1008 87 10000 3.1 320 06:30 27.04.2020
5049 Clear 0 1008 87 10000 3.1 330 05:56 27.04.2020
5050 Clear 0 1008 87 10000 2.6 330 05:19 27.04.2020
5051 Clear 0 1007 87 10000 3.1 340 04:39 27.04.2020
5052 Clear 1 1007 87 10000 3.1 320 03:45 27.04.2020
5053 Clear 0 1007 87 10000 3.1 320 03:45 27.04.2020
5054 Clouds 1 1007 69 10000 3.1 320 02:30 27.04.2020
5055 Clouds 2 1006 64 10000 3.6 320 01:20 27.04.2020
5056 Clouds 3 1006 64 10000 3.1 320 00:40 27.04.2020
5057 Clouds 3 1006 64 10000 3.1 320 00:40 27.04.2020
5058 Clouds 3 1006 64 10000 3.1 310 00:18 27.04.2020
5059 Clouds 4 1006 64 10000 3.1 310 23:55 26.04.2020
5060 Clouds 4 1005 64 10000 3.1 310 23:36 26.04.2020
5061 Clouds 4 1005 64 10000 3.1 310 23:36 26.04.2020
5062 Clouds 4 1005 60 10000 2.6 310 23:18 26.04.2020
5063 Clouds 4 1005 64 10000 2.6 310 22:40 26.04.2020
5064 Clouds 4 1005 64 10000 3.1 320 22:21 26.04.2020
5065 Clouds 5 1005 64 10000 3.1 320 21:59 26.04.2020
5066 Clouds 5 1005 64 10000 3.1 320 21:59 26.04.2020
5067 Clouds 5 1005 75 10000 2.1 290 21:40 26.04.2020
5068 Clouds 5 1005 75 10000 2.1 290 21:40 26.04.2020
5069 Clouds 5 1005 69 10000 2.1 290 21:19 26.04.2020
5070 Clouds 5 1005 69 10000 1.5 290 20:56 26.04.2020
5071 Clouds 5 1004 60 10000 1.5 310 20:37 26.04.2020
5072 Clouds 5 1004 60 10000 1.5 310 20:19 26.04.2020
5073 Clouds 5 1004 60 10000 2.1 320 20:19 26.04.2020
5074 Clouds 5 1004 60 10000 2.1 320 19:57 26.04.2020
5075 Rain 6 1004 56 10000 2.6 330 19:37 26.04.2020
5076 Rain 6 1004 56 10000 5.1 330 19:19 26.04.2020
5077 Rain 6 1003 56 10000 3.1 280 18:43 26.04.2020
5078 Rain 6 1003 56 10000 3.1 280 18:24 26.04.2020
5079 Rain 6 1003 56 10000 3.1 280 18:24 26.04.2020
5080 Rain 7 1003 48 10000 3.6 270 17:44 26.04.2020
5081 Rain 7 1003 48 10000 3.6 270 17:44 26.04.2020
5082 Rain 8 1003 52 10000 4.1 250 17:24 26.04.2020
5083 Rain 8 1003 52 10000 4.1 250 16:59 26.04.2020
5084 Rain 8 1003 48 10000 5.7 280 16:40 26.04.2020
5085 Rain 8 1003 45 10000 3.6 260 16:20 26.04.2020
5086 Rain 8 1003 45 10000 3.6 260 15:58 26.04.2020
5087 Rain 8 1003 56 10000 5.7 280 15:38 26.04.2020
5088 Rain 8 1003 45 10000 5.7 310 15:19 26.04.2020
5089 Rain 8 1003 42 10000 4.6 310 14:41 26.04.2020
5090 Rain 8 1002 39 10000 4.6 330 14:20 26.04.2020
5091 -273 0 0 0 0 0 13:59 26.04.2020
5092 Rain 8 1002 39 10000 4.6 330 13:59 26.04.2020
5093 Rain 9 1002 36 10000 3.1 300 13:41 26.04.2020
5094 Rain 8 1002 36 10000 3.1 300 13:22 26.04.2020
5095 Clouds 8 1002 33 10000 5.1 280 12:57 26.04.2020
5096 Clouds 8 1002 33 10000 5.1 280 12:39 26.04.2020
5097 Clouds 8 1002 33 10000 5.1 280 12:20 26.04.2020
5098 Clouds 8 1002 31 10000 6.2 280 11:55 26.04.2020
5099 Clouds 8 1002 31 10000 5.1 270 11:37 26.04.2020
5100 Clouds 8 1002 33 10000 4.6 280 11:19 26.04.2020
5101 Clouds 8 1002 33 10000 4.6 280 10:55 26.04.2020
5102 Clouds 8 1002 33 10000 4.1 290 10:36 26.04.2020
5103 Clouds 7 1002 38 10000 2.6 280 10:18 26.04.2020
5104 Clouds 6 1002 41 10000 2.1 270 09:39 26.04.2020
5105 Clouds 5 1002 41 10000 2.1 270 09:20 26.04.2020
5106 Clouds 5 1001 55 10000 2.6 280 08:42 26.04.2020
5107 Clouds 4 1001 55 10000 2.6 280 08:23 26.04.2020
5108 Clouds 2 1001 64 10000 2.1 280 07:50 26.04.2020
5109 Clouds 1 1001 64 10000 2.1 280 07:25 26.04.2020
5110 Clouds 1 1001 80 10000 3.1 280 06:55 26.04.2020
5111 Clouds 0 1001 80 10000 3.1 280 06:32 26.04.2020
5112 Clouds -1 1001 79 10000 3.6 290 05:54 26.04.2020
5113 Clouds -1 1001 79 10000 3.1 280 05:34 26.04.2020
5114 Clouds -2 1001 79 10000 3.1 280 04:42 26.04.2020
5115 Clouds -1 1001 86 10000 3.1 290 03:46 26.04.2020
5116 Clouds 0 1001 86 10000 3.1 310 02:40 26.04.2020
5117 Clouds 0 1001 86 10000 3.6 300 02:19 26.04.2020
5118 Clouds 0 1001 85 10000 3.6 290 01:37 26.04.2020
5119 Clouds 1 1000 74 10000 3.6 290 01:18 26.04.2020
5120 Clouds 2 1000 74 10000 3.1 290 00:37 26.04.2020
5121 Clouds 1 1000 74 10000 3.1 290 00:18 26.04.2020
5122 Clouds 3 1000 74 10000 3.1 270 23:38 25.04.2020
5123 Clouds 3 1000 74 10000 3.1 280 23:19 25.04.2020
5124 Clouds 3 1000 74 10000 3.6 290 22:43 25.04.2020
5125 Clouds 3 1000 69 10000 3.1 280 22:21 25.04.2020
5126 Clouds 3 1000 69 10000 3.1 280 21:59 25.04.2020
5127 Clouds 4 1000 69 10000 4.6 290 21:39 25.04.2020
5128 Clouds 4 1000 69 10000 4.6 290 21:19 25.04.2020
5129 Clouds 4 1000 64 10000 4.1 280 20:55 25.04.2020
5130 Clouds 5 999 60 10000 3.1 260 20:37 25.04.2020
5131 Clouds 5 999 60 10000 3.1 260 20:37 25.04.2020
5132 Clouds 5 999 60 10000 3.1 260 20:18 25.04.2020
5133 Clouds 5 999 60 10000 4.1 280 19:40 25.04.2020
5134 Clouds 5 999 60 10000 4.1 280 19:22 25.04.2020
5135 Clouds 6 999 60 10000 4.6 280 18:57 25.04.2020
5136 Clouds 6 1000 73 10000 6.2 300 18:38 25.04.2020
5137 Clouds 6 1000 65 10000 8.2 290 18:19 25.04.2020
5138 Clouds 6 1000 65 10000 8.2 290 17:55 25.04.2020
5139 Rain 7 1000 45 10000 6.7 280 17:37 25.04.2020
5140 Clouds 8 1000 39 10000 6.2 290 17:18 25.04.2020
5141 Clouds 8 1000 33 10000 4.6 310 16:48 25.04.2020
5142 Clouds 8 1000 33 10000 4.6 310 16:28 25.04.2020
5143 Clouds 8 1000 36 10000 6.2 300 15:58 25.04.2020
5144 Clouds 8 1000 31 10000 5.7 270 15:39 25.04.2020
5145 Clouds 9 1001 35 0 6.63 258 15:19 25.04.2020
5146 Clouds 8 1001 33 10000 4.6 280 14:57 25.04.2020
5147 Clouds 8 1001 33 10000 5.1 260 14:38 25.04.2020
5148 Clouds 9 1001 33 10000 5.7 280 14:19 25.04.2020
5149 Clouds 8 1001 33 10000 6.2 290 13:42 25.04.2020
5150 Clouds 8 1002 33 10000 5.7 250 13:19 25.04.2020
5151 Clouds 7 1002 33 10000 5.7 250 12:58 25.04.2020
5152 Clouds 7 1002 35 10000 5.7 300 12:39 25.04.2020
5153 Clear 7 1002 35 10000 5.7 300 12:20 25.04.2020
5154 Clear 6 1002 35 10000 4.1 310 11:55 25.04.2020
5155 Clear 6 1002 35 10000 4.6 340 11:37 25.04.2020
5156 Clear 6 1002 35 10000 4.6 340 11:19 25.04.2020
5157 Clouds 5 1003 40 10000 5.1 330 10:42 25.04.2020
5158 Clouds 5 1003 40 10000 5.1 330 10:22 25.04.2020
5159 Clouds 4 1003 43 10000 4.6 350 09:47 25.04.2020
5160 Clouds 3 1003 43 10000 4.6 350 09:27 25.04.2020
5161 Clouds 3 1003 47 10000 4.6 340 08:57 25.04.2020
5162 Clear 2 1003 50 10000 4.1 340 08:38 25.04.2020
5163 Clear 2 1003 50 10000 4.1 330 08:20 25.04.2020
5164 Clear 2 1003 50 10000 4.1 340 08:20 25.04.2020
5165 Clear 1 1003 78 10000 3.1 340 07:46 25.04.2020
5166 Clear 1 1003 63 10000 3.1 330 07:24 25.04.2020
5167 Clear 0 1003 68 10000 3.1 320 06:44 25.04.2020
5168 Clear -1 1003 68 10000 2.6 320 05:56 25.04.2020
5169 Clear -2 1003 68 10000 2.6 320 05:31 25.04.2020
5170 Clear -2 1003 63 10000 3.1 340 04:42 25.04.2020
5171 Clear -1 1003 58 10000 3.6 340 02:59 25.04.2020
5172 Clouds -1 1002 58 10000 3.1 340 02:20 25.04.2020
5173 Clouds 0 1002 43 10000 4.6 340 01:50 25.04.2020
5174 Clouds 1 1002 43 10000 4.6 340 01:27 25.04.2020
5175 Clouds 1 1002 37 10000 4.6 350 00:50 25.04.2020
5176 Clouds 1 1002 37 10000 4.6 350 00:29 25.04.2020
5177 Clouds 3 1001 34 10000 5.1 350 23:43 24.04.2020
5178 Clouds 3 1001 44 10000 4.6 330 23:22 24.04.2020
5179 Clouds 3 1001 44 10000 4.6 330 22:54 24.04.2020
5180 Clouds 3 1001 44 10000 4.6 330 22:54 24.04.2020
5181 Clouds 4 1001 47 10000 4.1 320 22:36 24.04.2020
5182 Clouds 3 1001 51 10000 3.6 310 22:18 24.04.2020
5183 Clouds 4 1001 51 10000 3.6 310 21:54 24.04.2020
5184 Clouds 5 1001 48 10000 4.1 330 21:36 24.04.2020
5185 Clouds 5 1001 44 10000 3.6 330 21:18 24.04.2020
5186 Clouds 6 1001 48 10000 5.1 320 20:42 24.04.2020
5187 Clouds 7 1001 56 10000 3.6 300 20:19 24.04.2020
5188 Clouds 7 1001 56 10000 3.6 300 19:58 24.04.2020
5189 Clouds 7 1001 52 10000 3.6 320 19:38 24.04.2020
5190 Clouds 7 1001 52 10000 4.6 330 19:20 24.04.2020
5191 Clouds 8 1001 48 10000 6.2 340 18:43 24.04.2020
5192 Clouds 8 1001 48 10000 6.2 340 18:25 24.04.2020
5193 Rain 8 1001 52 10000 5.7 330 17:54 24.04.2020
5194 Rain 8 1001 62 10000 5.1 340 17:36 24.04.2020
5195 Rain 8 1001 62 10000 4.6 340 17:18 24.04.2020
5196 Rain 8 1001 62 10000 4.6 340 16:55 24.04.2020
5197 Rain 8 1001 65 10000 9.3 340 16:37 24.04.2020
5198 Rain 8 1001 65 10000 9.3 340 16:19 24.04.2020
5199 Rain 8 1001 52 10000 4.1 320 16:19 24.04.2020
5200 Rain 9 1001 49 10000 4.6 320 15:40 24.04.2020
5201 Rain 9 1001 49 10000 4.6 320 15:20 24.04.2020
5202 Rain 9 1002 49 10000 6.2 340 14:41 24.04.2020
5203 Rain 9 1002 49 10000 6.2 340 14:22 24.04.2020
5204 Rain 9 1002 49 10000 6.7 340 13:59 24.04.2020
5205 Rain 9 1002 49 10000 7.7 330 13:40 24.04.2020
5206 Rain 9 1002 49 10000 7.7 330 13:20 24.04.2020
5207 Clouds 9 1002 49 10000 5.7 310 12:46 24.04.2020
5208 Clouds 9 1002 49 10000 5.7 310 12:26 24.04.2020
5209 Clouds 9 1002 71 10000 5.7 330 11:59 24.04.2020
5210 Clouds 9 1002 71 10000 6.2 300 11:40 24.04.2020
5211 Clouds 9 1002 71 10000 6.2 300 11:21 24.04.2020
5212 Clouds 9 1002 61 10000 5.1 290 10:57 24.04.2020
5213 Clouds 8 1002 61 10000 5.1 290 10:38 24.04.2020
5214 Clouds 8 1002 71 10000 6.7 310 10:19 24.04.2020
5215 Clouds 8 1002 71 10000 6.7 310 10:19 24.04.2020
5216 Clouds 8 1002 71 10000 6.7 310 10:19 24.04.2020
5217 Clouds 7 1003 70 10000 6.2 300 09:54 24.04.2020
5218 Clouds 7 1003 70 10000 6.2 300 09:36 24.04.2020
5219 Clouds 7 1003 75 10000 4.6 300 09:18 24.04.2020
5220 Clouds 6 1003 78 10000 5.1 310 08:41 24.04.2020
5221 Clouds 6 1003 78 10000 5.1 310 08:19 24.04.2020
5222 Clouds 5 1003 78 10000 4.1 300 07:47 24.04.2020
5223 Clouds 5 1003 78 10000 4.1 300 07:27 24.04.2020
5224 Clouds 5 1003 69 10000 4.1 300 06:59 24.04.2020
5225 Clouds 5 1004 69 10000 4.6 300 06:40 24.04.2020
5226 Clouds 4 1004 64 10000 5.1 310 05:49 24.04.2020
5227 Clouds 4 1005 64 10000 4.1 300 04:46 24.04.2020
5228 Clouds 4 1005 64 10000 4.1 280 03:28 24.04.2020
5229 Clouds 5 1006 69 10000 2.1 290 02:47 24.04.2020
5230 Clouds 5 1007 69 10000 1 320 02:20 24.04.2020
5231 Clouds 5 1007 56 10000 1 320 01:37 24.04.2020
5232 Clouds 5 1008 64 10000 2.1 310 00:43 24.04.2020
5233 Clouds 5 1008 64 10000 2.1 320 00:18 24.04.2020
5234 Clouds 5 1008 69 10000 2.1 330 23:45 23.04.2020
5235 Clouds 5 1008 69 10000 2.1 330 23:26 23.04.2020
5236 Clouds 5 1008 64 10000 2.1 350 22:55 23.04.2020
5237 Clouds 5 1009 64 10000 2.1 350 22:37 23.04.2020
5238 Clouds 5 1009 60 10000 2.1 340 22:19 23.04.2020
5239 Clouds 6 1009 60 10000 2.1 340 21:56 23.04.2020
5240 Clouds 6 1009 52 10000 1.5 340 21:38 23.04.2020
5241 Clouds 7 1009 52 10000 1.5 340 21:20 23.04.2020
5242 Clouds 8 1010 34 10000 3.1 340 20:54 23.04.2020
5243 Clouds 9 1010 34 10000 3.1 340 20:36 23.04.2020
5244 Clouds 9 1010 29 10000 3.1 350 20:18 23.04.2020
5245 Clouds 10 1010 27 10000 4.6 350 19:42 23.04.2020
5246 Clouds 11 1011 32 10000 5.1 340 19:22 23.04.2020
5247 Clouds 11 1011 32 10000 5.1 340 18:58 23.04.2020
5248 Clouds 12 1011 32 10000 5.7 330 18:39 23.04.2020
5249 Clouds 12 1011 30 10000 5.1 330 18:21 23.04.2020
5250 Clouds 12 1011 30 10000 5.1 330 17:56 23.04.2020
5251 Clouds 13 1011 30 10000 5.1 320 17:38 23.04.2020
5252 Clouds 13 1012 28 10000 4.6 310 17:19 23.04.2020
5253 Clouds 13 1012 28 10000 5.7 320 16:43 23.04.2020
5254 Clouds 14 1013 30 10000 4.1 330 16:21 23.04.2020
5255 Clouds 13 1013 28 10000 5.1 340 15:43 23.04.2020
5256 Clouds 13 1013 28 10000 4.1 310 15:24 23.04.2020
5257 Clouds 14 1013 28 10000 4.1 310 14:59 23.04.2020
5258 Clouds 14 1014 28 10000 3.6 330 14:40 23.04.2020
5259 Clouds 13 1014 30 10000 4.6 350 14:21 23.04.2020
5260 Clouds 13 1014 30 10000 4.6 350 13:58 23.04.2020
5261 Clouds 12 1015 34 10000 5.1 320 13:39 23.04.2020
5262 Clouds 12 1015 37 10000 4.1 320 13:20 23.04.2020
5263 Clouds 12 1015 34 10000 4.6 310 12:56 23.04.2020
5264 Clouds 12 1015 34 10000 4.6 310 12:38 23.04.2020
5265 Clouds 12 1015 40 10000 4.6 300 12:19 23.04.2020
5266 Clouds 12 1016 43 10000 3.6 310 11:46 23.04.2020
5267 Clouds 11 1016 43 10000 3.6 310 11:27 23.04.2020
5268 Clouds 11 1016 46 10000 3.6 310 10:56 23.04.2020
5269 Clouds 11 1016 46 10000 3.1 320 10:38 23.04.2020
5270 Clouds 11 1016 46 10000 3.1 320 10:19 23.04.2020
5271 Clouds 9 1017 49 10000 1 0 09:38 23.04.2020
5272 Clouds 9 1017 49 10000 1 0 09:18 23.04.2020
5273 Clouds 7 1018 60 10000 2.1 340 08:47 23.04.2020
5274 Clouds 7 1018 60 10000 2.1 340 08:29 23.04.2020
5275 Clouds 5 1018 69 10000 1.5 320 07:45 23.04.2020
5276 Clouds 5 1018 69 10000 1.5 320 07:24 23.04.2020
5277 Clouds 4 1018 74 10000 2.1 330 06:57 23.04.2020
5278 Clouds 3 1018 86 10000 2.6 320 06:39 23.04.2020
5279 Clouds 2 1018 79 10000 2.1 290 05:32 23.04.2020
5280 Clouds 2 1019 80 10000 2.1 310 04:54 23.04.2020
5281 Clear 2 1020 73 10000 2.6 320 02:41 23.04.2020
5282 Clear 2 1020 73 10000 2.6 320 02:22 23.04.2020
5283 Clear 3 1020 73 10000 1.5 300 01:35 23.04.2020
5284 Clear 4 1020 74 10000 2.1 350 00:49 23.04.2020
5285 Clear 4 1020 80 10000 2.1 330 00:24 23.04.2020
5286 Clear 5 1020 69 10000 3.1 290 23:53 22.04.2020
5287 Clear 5 1020 69 10000 3.1 290 23:26 22.04.2020
5288 Clear 5 1021 80 10000 1 0 22:58 22.04.2020
5289 Clear 5 1021 65 10000 2.1 240 22:39 22.04.2020
5290 Clear 5 1021 77 10000 2.1 240 22:19 22.04.2020
5291 Clear 5 1021 77 10000 2.1 240 21:56 22.04.2020
5292 Clear 5 1021 77 10000 2.1 220 21:38 22.04.2020
5293 Clouds 6 1022 56 10000 1 0 21:20 22.04.2020
5294 Clouds 7 1022 56 10000 1 0 20:54 22.04.2020
5295 Clouds 7 1022 52 10000 2.6 190 20:36 22.04.2020
5296 Clouds 8 1022 52 10000 2.6 190 20:18 22.04.2020
5297 Clouds 9 1022 49 10000 3.6 190 19:54 22.04.2020
5298 Clouds 9 1022 49 10000 3.6 190 19:54 22.04.2020
5299 Clouds 9 1022 49 10000 3.6 190 19:36 22.04.2020
5300 Clouds 9 1022 49 10000 3.6 190 19:36 22.04.2020
5301 Clouds 9 1022 46 10000 4.1 190 19:18 22.04.2020
5302 Clouds 9 1022 46 10000 4.1 190 19:18 22.04.2020
5303 Clouds 10 1022 46 10000 4.1 190 18:55 22.04.2020
5304 Clouds 10 1023 46 10000 5.1 190 18:36 22.04.2020
5305 Clouds 10 1023 40 10000 4.6 190 18:18 22.04.2020
5306 Clouds 11 1024 43 10000 4.6 190 17:42 22.04.2020
5307 Clouds 11 1024 43 10000 5.1 180 17:23 22.04.2020
5308 Clouds 12 1025 43 10000 4.6 180 16:46 22.04.2020
5309 Clouds 11 1025 43 10000 4.6 180 16:28 22.04.2020
5310 Clouds 11 1025 43 10000 5.1 180 15:54 22.04.2020
5311 Clouds 11 1025 43 10000 5.1 180 15:54 22.04.2020
5312 Clouds 11 1026 40 10000 4.1 180 15:36 22.04.2020
5313 Clear 12 1026 40 10000 4.1 190 15:18 22.04.2020
5314 Clear 12 1026 40 10000 4.1 190 14:55 22.04.2020
5315 Clear 12 1027 43 10000 4.6 180 14:36 22.04.2020
5316 Clear 11 1027 43 10000 4.6 180 14:18 22.04.2020
5317 Clear 12 1027 40 10000 4.6 180 13:43 22.04.2020
5318 Clear 12 1028 43 10000 4.1 150 13:20 22.04.2020
5319 Clear 11 1028 34 10000 2.6 0 12:42 22.04.2020
5320 Clear 12 1028 34 10000 2.6 0 12:23 22.04.2020
5321 Clear 11 1028 37 10000 3.1 290 11:58 22.04.2020
5322 Clear 11 1029 39 10000 2.1 0 11:38 22.04.2020
5323 Clear 11 1029 39 10000 2.1 0 11:18 22.04.2020
5324 Clear 11 1029 43 10000 2.1 0 10:42 22.04.2020
5325 Clear 11 1029 43 10000 2.1 0 10:24 22.04.2020
5326 Clear 10 1029 45 10000 2.6 60 09:43 22.04.2020
5327 Clear 9 1029 49 10000 3.6 70 09:24 22.04.2020
5328 Clear 9 1029 49 10000 3.6 70 08:59 22.04.2020
5329 Clear 9 1029 49 10000 3.6 70 08:59 22.04.2020
5330 Clear 9 1030 52 10000 4.1 60 08:41 22.04.2020
5331 Clear 9 1030 52 10000 4.1 60 08:41 22.04.2020
5332 Clear 8 1030 52 10000 4.1 60 08:23 22.04.2020
5333 Clear 7 1030 60 10000 4.6 40 07:54 22.04.2020
5334 Clear 7 1030 60 10000 4.6 40 07:33 22.04.2020
5335 Clear 6 1029 60 10000 3.1 40 06:59 22.04.2020
5336 Clear 5 1029 69 10000 2.6 40 06:39 22.04.2020
5337 Clear 4 1029 64 10000 3.1 40 05:39 22.04.2020
5338 Clear 5 1029 60 10000 5.1 50 04:34 22.04.2020
5339 Clear 5 1028 60 10000 4.1 10 02:59 22.04.2020
5340 Clear 4 1027 74 10000 0.5 0 01:56 22.04.2020
5341 Clear 4 1027 74 10000 0.5 0 01:38 22.04.2020
5342 Clear 4 1027 74 10000 1 0 01:19 22.04.2020
5343 Clear 5 1027 69 10000 1.5 300 00:41 22.04.2020
5344 Clear 5 1027 80 10000 3.09 346 00:20 22.04.2020
5345 Clear 6 1027 69 10000 1 0 23:44 21.04.2020
5346 Clear 5 1027 69 10000 1 0 23:21 21.04.2020
5347 Clear 5 1027 74 10000 1 300 22:55 21.04.2020
5348 Clear 6 1027 69 10000 1 0 22:37 21.04.2020
5349 Clear 6 1027 65 10000 1 0 22:19 21.04.2020
5350 Clear 7 1027 75 10000 1 0 21:42 21.04.2020
5351 Clear 8 1027 68 10000 1 0 21:23 21.04.2020
5352 Clear 9 1027 49 10000 1.5 320 20:58 21.04.2020
5353 Clear 10 1027 37 10000 2.6 330 20:40 21.04.2020
5354 Clear 11 1027 30 10000 2.6 330 20:21 21.04.2020
5355 Clear 13 1027 28 10000 4.6 310 19:41 21.04.2020
5356 Clear 14 1027 30 10000 5.1 330 19:20 21.04.2020
5357 Clear 14 1027 30 10000 5.1 330 18:59 21.04.2020
5358 Clear 14 1027 28 10000 6.2 330 18:39 21.04.2020
5359 Clear 14 1027 28 10000 6.2 330 18:39 21.04.2020
5360 Clear 15 1027 26 10000 6.7 320 18:19 21.04.2020
5361 Clear 15 1027 26 10000 6.7 320 17:59 21.04.2020
5362 Clear 15 1027 26 10000 6.7 340 17:39 21.04.2020
5363 Clear 15 1027 26 10000 6.2 320 17:19 21.04.2020
5364 Clear 15 1027 26 10000 6.7 340 17:19 21.04.2020
5365 Clear 15 1027 22 10000 4.6 330 16:54 21.04.2020
5366 Clear 15 1027 22 10000 4.6 330 16:36 21.04.2020
5367 Clear 15 1027 24 10000 5.7 320 16:18 21.04.2020
5368 Clear 15 1027 22 10000 4.1 340 15:42 21.04.2020
5369 Clouds 15 1028 22 10000 5.7 340 15:23 21.04.2020
5370 Clouds 15 1028 22 10000 5.7 340 14:58 21.04.2020
5371 Clouds 14 1028 22 10000 5.1 320 14:40 21.04.2020
5372 Clouds 14 1028 22 10000 5.1 320 14:22 21.04.2020
5373 Clouds 14 1028 24 10000 4.1 320 13:54 21.04.2020
5374 Clouds 13 1028 28 10000 5.7 310 13:36 21.04.2020
5375 Clouds 13 1029 32 10000 5.7 320 13:18 21.04.2020
5376 Clouds 13 1029 40 10000 5.1 340 12:38 21.04.2020
5377 Clouds 12 1029 32 10000 5.1 360 12:19 21.04.2020
5378 Clouds 12 1029 32 10000 5.1 360 11:57 21.04.2020
5379 Clouds 12 1029 37 10000 4.6 350 11:38 21.04.2020
5380 Clouds 11 1029 40 10000 5.1 10 11:18 21.04.2020
5381 Clouds 12 1029 65 10000 4.6 350 10:57 21.04.2020
5382 Clouds 11 1029 65 10000 4.6 350 10:39 21.04.2020
5383 Clouds 11 1029 65 10000 4.6 350 10:20 21.04.2020
5384 Clouds 9 1029 57 10000 4.1 350 09:38 21.04.2020
5385 Clouds 9 1029 57 10000 4.1 350 09:20 21.04.2020
5386 Clouds 8 1029 57 10000 4.1 10 08:58 21.04.2020
5387 Clouds 7 1029 65 10000 3.6 350 08:39 21.04.2020
5388 Clouds 8 1029 65 10000 4.1 340 08:19 21.04.2020
5389 Clouds 7 1029 65 10000 4.1 340 07:49 21.04.2020
5390 Clouds 6 1029 80 10000 4.1 340 07:24 21.04.2020
5391 Clouds 5 1029 80 10000 4.1 340 06:50 21.04.2020
5392 Clouds 4 1029 86 10000 3.6 340 06:22 21.04.2020
5393 Clouds 4 1028 80 10000 4.1 340 05:49 21.04.2020
5394 Clouds 5 1028 75 10000 3.6 350 04:24 21.04.2020
5395 Clouds 5 1028 65 10000 3.1 350 03:45 21.04.2020
5396 Clouds 6 1027 61 10000 4.1 360 01:46 21.04.2020
5397 Clouds 7 1027 61 10000 4.1 360 01:28 21.04.2020
5398 Clouds 8 1027 57 10000 5.1 10 00:37 21.04.2020
5399 Rain 9 1026 61 10000 5.1 360 23:47 20.04.2020
5400 Rain 9 1026 61 10000 5.1 360 23:25 20.04.2020
5401 Clouds 10 1026 57 10000 4.6 350 22:58 20.04.2020
5402 Clouds 10 1026 61 10000 4.1 350 22:39 20.04.2020
5403 Clouds 10 1026 61 10000 4.1 350 22:21 20.04.2020
5404 Rain 9 1025 66 10000 2.6 270 21:58 20.04.2020
5405 Clouds 10 1025 61 10000 3.1 230 21:39 20.04.2020
5406 Clouds 10 1025 61 10000 3.1 230 21:19 20.04.2020
5407 Clouds 10 1025 61 10000 2.1 230 20:58 20.04.2020
5408 Clouds 10 1025 70 10000 2.89 294 20:39 20.04.2020
5409 Clouds 10 1025 61 10000 2.89 294 20:19 20.04.2020
5410 Clouds 10 1025 61 10000 2.89 294 19:58 20.04.2020
5411 Clouds 10 1024 53 10000 2.89 294 19:39 20.04.2020
5412 Clouds 11 1024 50 10000 1 0 19:19 20.04.2020
5413 Clouds 12 1024 46 10000 1.5 10 18:43 20.04.2020
5414 Clouds 12 1024 46 10000 1.5 10 18:24 20.04.2020
5415 Clouds 12 1024 46 10000 2.1 340 17:58 20.04.2020
5416 Clouds 12 1024 50 10000 2.1 310 17:39 20.04.2020
5417 Clouds 12 1024 50 10000 2.1 310 17:21 20.04.2020
5418 Clouds 12 1024 50 10000 3.6 330 16:59 20.04.2020
5419 Clouds 12 1024 53 10000 3.1 320 16:39 20.04.2020
5420 Clouds 12 1025 53 10000 4.6 340 16:19 20.04.2020
5421 Clouds 12 1025 50 10000 4.6 350 15:45 20.04.2020
5422 Clouds 12 1025 57 10000 4.6 330 15:24 20.04.2020
5423 Clouds 11 1025 57 10000 4.6 330 14:58 20.04.2020
5424 Clouds 11 1025 53 10000 5.1 340 14:40 20.04.2020
5425 Clouds 11 1025 57 10000 5.1 340 14:19 20.04.2020
5426 Clouds 11 1025 57 10000 5.1 340 13:54 20.04.2020
5427 Clouds 11 1025 57 10000 5.1 340 13:54 20.04.2020
5428 Clouds 11 1025 57 10000 5.1 340 13:54 20.04.2020
5429 Clouds 11 1024 53 10000 5.7 360 13:36 20.04.2020
5430 Clouds 11 1024 53 10000 6.2 330 13:18 20.04.2020
5431 Clouds 11 1024 53 10000 6.2 340 12:42 20.04.2020
5432 Clouds 10 1024 53 10000 6.2 340 12:21 20.04.2020
5433 Clouds 10 1024 53 10000 6.2 350 11:42 20.04.2020
5434 Clouds 10 1024 53 10000 6.2 350 11:22 20.04.2020
5435 Clouds 10 1024 53 10000 6.7 330 10:57 20.04.2020
5436 Clouds 10 1023 53 10000 5.1 330 10:39 20.04.2020
5437 Clouds 10 1023 53 10000 5.1 330 10:20 20.04.2020
5438 Clouds 10 1024 53 10000 5.7 330 09:58 20.04.2020
5439 Clouds 9 1024 73 10000 4.6 340 09:39 20.04.2020
5440 Clouds 8 1024 80 10000 4.6 340 09:21 20.04.2020
5441 Clouds 7 1023 65 10000 5.7 340 08:41 20.04.2020
5442 Clouds 6 1023 80 10000 5.1 330 08:23 20.04.2020
5443 Clouds 6 1023 70 10000 3.6 320 07:53 20.04.2020
5444 Clouds 6 1023 70 10000 3.6 320 07:29 20.04.2020
5445 Clouds 6 1023 70 10000 3.6 320 07:29 20.04.2020
5446 Clouds 5 1023 80 10000 3.6 320 06:58 20.04.2020
5447 Clouds 5 1023 85 10000 3.6 320 06:36 20.04.2020
5448 Clouds 5 1022 85 10000 3.1 300 05:44 20.04.2020
5449 Clouds 5 1022 85 10000 3.1 310 04:28 20.04.2020
5450 Clouds 5 1022 80 10000 2.6 310 02:47 20.04.2020
5451 Clouds 5 1022 81 10000 3.1 310 01:56 20.04.2020
5452 Clouds 5 1022 81 10000 2.6 310 01:28 20.04.2020
5453 Clouds 6 1021 81 10000 3.1 310 00:39 20.04.2020
5454 Clouds 6 1021 60 10000 3.1 300 23:59 19.04.2020
5455 Clouds 6 1021 76 10000 3.1 310 23:39 19.04.2020
5456 Clouds 6 1021 76 10000 3.1 310 23:20 19.04.2020
5457 Clouds 6 1021 76 10000 2.1 270 22:44 19.04.2020
5458 Clouds 6 1021 76 10000 2.1 270 22:24 19.04.2020
5459 -273 0 0 0 0 0 21:59 19.04.2020
5460 Clouds 6 1021 65 10000 1.5 300 21:41 19.04.2020
5461 Clouds 6 1021 65 10000 1.5 300 21:41 19.04.2020
5462 Clouds 6 1020 70 10000 1 310 21:22 19.04.2020
5463 Clouds 7 1020 70 10000 1 310 20:56 19.04.2020
5464 Clouds 7 1020 60 10000 1 330 20:38 19.04.2020
5465 Clouds 7 1020 48 10000 1.5 360 20:20 19.04.2020
5466 Clouds 8 1020 48 10000 1.5 360 19:55 19.04.2020
5467 Clouds 8 1020 45 10000 3.6 10 19:37 19.04.2020
5468 Clouds 8 1020 45 10000 4.6 350 19:19 19.04.2020
5469 Clouds 9 1020 42 10000 3.1 340 18:54 19.04.2020
5470 Clouds 9 1020 42 10000 3.1 340 18:36 19.04.2020
5471 Clouds 9 1020 45 10000 4.6 340 18:18 19.04.2020
5472 Clouds 9 1019 42 10000 5.1 330 17:41 19.04.2020
5473 Clouds 9 1019 42 10000 5.1 330 17:23 19.04.2020
5474 Clouds 9 1020 39 10000 5.7 320 16:59 19.04.2020
5475 Clouds 10 1020 39 10000 4.1 330 16:39 19.04.2020
5476 Clouds 10 1020 39 10000 4.1 320 16:21 19.04.2020
5477 Clouds 10 1019 39 10000 4.6 330 15:54 19.04.2020
5478 Clouds 10 1019 39 10000 4.6 330 15:36 19.04.2020
5479 Clouds 9 1019 39 10000 4.6 330 15:18 19.04.2020
5480 Clouds 9 1019 39 10000 4.1 320 14:38 19.04.2020
5481 Clouds 9 1019 39 10000 4.1 320 14:20 19.04.2020
5482 Clouds 9 1019 42 10000 4.1 320 13:54 19.04.2020
5483 Clouds 8 1019 42 10000 4.6 320 13:36 19.04.2020
5484 Clouds 8 1019 45 10000 4.1 340 13:18 19.04.2020
5485 Clouds 8 1019 45 10000 6.2 330 12:42 19.04.2020
5486 Clouds 8 1019 45 10000 5.7 330 12:23 19.04.2020
5487 Clouds 7 1019 48 10000 6.2 340 11:39 19.04.2020
5488 Clouds 7 1019 52 10000 5.1 340 11:20 19.04.2020
5489 Clouds 6 1019 52 10000 5.1 340 10:59 19.04.2020
5490 Clouds 6 1019 56 10000 5.1 350 10:40 19.04.2020
5491 Clouds 5 1019 60 10000 5.7 320 10:20 19.04.2020
5492 Clouds 5 1018 64 10000 4.6 330 09:47 19.04.2020
5493 Clouds 4 1018 64 10000 4.6 330 09:28 19.04.2020
5494 Clear 4 1018 64 10000 5.1 330 08:59 19.04.2020
5495 Clear 3 1018 69 10000 4.6 330 08:38 19.04.2020
5496 Clear 3 1018 69 10000 4.6 340 08:18 19.04.2020
5497 Clear 3 1017 69 10000 5.1 340 07:44 19.04.2020
5498 Clear 3 1017 69 10000 5.1 340 07:25 19.04.2020
5499 Clear 3 1017 69 10000 5.1 340 07:25 19.04.2020
5500 Clear 2 1017 74 10000 4.6 330 06:37 19.04.2020
5501 Clear 1 1016 74 10000 4.1 330 06:18 19.04.2020
5502 Clear 2 1016 69 10000 4.6 340 04:56 19.04.2020
5503 Clouds 3 1015 64 10000 5.7 340 03:21 19.04.2020
5504 Clouds 3 1014 59 10000 5.1 330 02:22 19.04.2020
5505 Clouds 3 1014 59 10000 4.6 330 01:39 19.04.2020
5506 Clouds 3 1014 59 10000 4.6 330 01:18 19.04.2020
5507 Clouds 4 1013 55 10000 4.6 330 00:38 19.04.2020
5508 Clouds 4 1013 51 10000 5.7 330 00:19 19.04.2020
5509 Clouds 4 1013 51 10000 4.6 340 23:40 18.04.2020
5510 Clouds 4 1013 51 10000 4.6 340 23:19 18.04.2020
5511 Clouds 4 1013 51 10000 4.6 330 22:43 18.04.2020
5512 Clouds 4 1013 51 10000 4.6 330 22:23 18.04.2020
5513 Clouds 5 1012 48 10000 6.7 340 21:58 18.04.2020
5514 Clouds 5 1012 48 10000 5.1 340 21:38 18.04.2020
5515 Clouds 5 1012 48 10000 6.7 340 21:20 18.04.2020
5516 Clouds 5 1012 48 10000 6.7 340 20:54 18.04.2020
5517 Clouds 6 1011 41 10000 7.7 340 20:36 18.04.2020
5518 Clouds 6 1011 41 10000 7.2 340 20:18 18.04.2020
5519 Clouds 6 1011 42 10000 5.7 330 19:40 18.04.2020
5520 Clouds 7 1011 42 10000 5.7 330 19:22 18.04.2020
5521 Clouds 7 1010 36 10000 8.2 320 18:39 18.04.2020
5522 Clouds 8 1010 36 10000 8.7 320 18:20 18.04.2020
5523 Clouds 9 1010 36 10000 8.7 320 17:56 18.04.2020
5524 Clouds 9 1010 39 10000 8.2 330 17:38 18.04.2020
5525 Clouds 9 1010 39 10000 8.2 320 17:18 18.04.2020
5526 Clouds 9 1010 39 10000 8.2 330 16:42 18.04.2020
5527 Clouds 9 1010 39 10000 8.7 310 16:22 18.04.2020
5528 Clouds 9 1010 39 10000 8.7 320 15:55 18.04.2020
5529 Clouds 9 1010 39 10000 8.7 320 15:37 18.04.2020
5530 Clouds 9 1010 42 10000 8.7 310 15:19 18.04.2020
5531 Clouds 9 1010 36 10000 8.2 310 14:42 18.04.2020
5532 Clouds 9 1010 36 10000 8.2 310 14:19 18.04.2020
5533 Clouds 9 1010 39 10000 9.3 310 13:43 18.04.2020
5534 Clouds 9 1010 39 10000 9.3 310 13:43 18.04.2020
5535 Clouds 8 1010 39 10000 9.3 310 13:21 18.04.2020
5536 Clouds 8 1010 42 10000 9.3 320 12:43 18.04.2020
5537 Clouds 8 1010 42 10000 9.3 320 12:25 18.04.2020
5538 Clouds 8 1010 42 10000 9.8 320 11:59 18.04.2020
5539 Clouds 8 1010 45 10000 8.7 310 11:40 18.04.2020
5540 Clouds 7 1010 45 10000 8.7 310 11:21 18.04.2020
5541 Clouds 7 1010 48 10000 8.2 320 10:54 18.04.2020
5542 Clouds 7 1010 48 10000 7.7 300 10:36 18.04.2020
5543 Clouds 6 1010 48 10000 8.2 320 10:18 18.04.2020
5544 Clouds 5 1010 52 10000 7.2 320 09:40 18.04.2020
5545 Clouds 5 1010 52 10000 7.7 300 09:20 18.04.2020
5546 Clouds 4 1010 60 10000 6.2 310 08:43 18.04.2020
5547 Clouds 3 1010 64 10000 5.1 320 08:22 18.04.2020
5548 Clouds 2 1009 64 10000 6.2 310 07:49 18.04.2020
5549 Clouds 2 1009 64 10000 6.2 310 07:29 18.04.2020
5550 Clouds 2 1009 64 10000 7.2 310 06:49 18.04.2020
5551 Clear 2 1009 64 10000 7.2 310 05:49 18.04.2020
5552 Clear 1 1009 64 10000 6.7 300 04:56 18.04.2020
5553 Clear 1 1008 64 10000 6.7 290 04:31 18.04.2020
5554 Clear 1 1008 59 10000 5.7 290 03:43 18.04.2020
5555 Clouds 2 1008 59 10000 6.2 290 02:42 18.04.2020
5556 Clouds 2 1008 59 10000 6.2 290 02:21 18.04.2020
5557 Clouds 2 1008 59 10000 6.2 290 02:21 18.04.2020
5558 Clouds 2 1008 59 10000 5.1 290 01:45 18.04.2020
5559 Clouds 2 1007 59 10000 5.1 290 01:22 18.04.2020
5560 Clouds 2 1007 55 10000 5.7 290 00:37 18.04.2020
5561 Clouds 3 1007 55 10000 6.2 290 00:18 18.04.2020
5562 Clouds 3 1007 51 10000 5.7 290 23:41 17.04.2020
5563 Clouds 3 1007 51 10000 5.7 290 23:20 17.04.2020
5564 Clouds 4 1007 51 10000 5.7 290 22:58 17.04.2020
5565 Clouds 4 1007 51 10000 5.1 300 22:40 17.04.2020
5566 Clouds 4 1007 55 10000 5.1 310 22:20 17.04.2020
5567 Clouds 4 1007 55 10000 5.1 310 21:58 17.04.2020
5568 Clouds 5 1007 55 10000 5.7 310 21:39 17.04.2020
5569 Clouds 5 1007 48 10000 6.2 310 21:19 17.04.2020
5570 Clouds 5 1007 48 10000 6.2 310 20:55 17.04.2020
5571 Clouds 5 1006 48 10000 7.2 320 20:36 17.04.2020
5572 Clouds 5 1006 52 10000 7.2 320 20:18 17.04.2020
5573 Clouds 5 1006 52 10000 8.2 320 19:46 17.04.2020
5574 Clouds 5 1006 52 10000 8.2 320 19:24 17.04.2020
5575 Clouds 5 1005 56 10000 7.7 320 18:47 17.04.2020
5576 Clouds 6 1005 60 10000 9.3 310 18:25 17.04.2020
5577 Clouds 6 1005 60 10000 9.3 310 17:59 17.04.2020
5578 Clouds 6 1004 60 10000 9.8 320 17:37 17.04.2020
5579 Clouds 6 1004 52 10000 8.2 310 17:19 17.04.2020
5580 Clouds 6 1004 52 10000 8.2 310 17:19 17.04.2020
5581 Clouds 6 1003 48 10000 9.8 330 16:44 17.04.2020
5582 Clouds 6 1003 48 10000 9.8 330 16:23 17.04.2020
5583 Clouds 7 1003 42 10000 11.3 310 15:58 17.04.2020
5584 Clouds 7 1003 42 10000 8.7 310 15:38 17.04.2020
5585 Clouds 7 1002 45 10000 10.3 310 15:19 17.04.2020
5586 Clouds 7 1002 42 10000 9.3 310 14:41 17.04.2020
5587 Clouds 7 1002 42 10000 9.3 310 14:40 17.04.2020
5588 Clouds 7 1002 42 10000 9.3 310 14:22 17.04.2020
5589 Clouds 7 1002 45 10000 9.3 310 13:58 17.04.2020
5590 Clouds 6 1002 44 10000 9.3 310 13:37 17.04.2020
5591 Clouds 6 1002 48 10000 8.7 300 13:18 17.04.2020
5592 Clouds 6 1001 45 10000 9.3 310 12:46 17.04.2020
5593 Clouds 6 1001 45 10000 9.3 310 12:26 17.04.2020
5594 Clouds 6 1001 56 10000 9.3 300 11:42 17.04.2020
5595 Clouds 5 1001 56 10000 8.2 300 11:20 17.04.2020
5596 Clouds 5 1001 56 10000 8.2 300 10:59 17.04.2020
5597 Clouds 5 1001 65 10000 9.3 290 10:39 17.04.2020
5598 Clouds 5 1001 60 10000 8.2 290 10:19 17.04.2020
5599 Clouds 4 1001 60 10000 8.2 290 09:54 17.04.2020
5600 Clouds 4 1001 64 10000 7.2 300 09:36 17.04.2020
5601 Clouds 3 1001 69 10000 6.7 300 09:18 17.04.2020
5602 Clouds 3 1001 69 10000 6.7 300 08:44 17.04.2020
5603 Clouds 3 1001 69 10000 6.2 290 08:24 17.04.2020
5604 Clouds 2 1001 74 10000 6.2 290 07:44 17.04.2020
5605 Clouds 2 1001 74 10000 6.2 290 07:24 17.04.2020
5606 Clouds 1 1000 74 10000 5.7 290 06:52 17.04.2020
5607 Clouds 1 1000 80 10000 5.7 290 06:23 17.04.2020
5608 Clouds 0 1000 90 10000 5.7 280 05:38 17.04.2020
5609 Clear 0 1000 87 10000 5.7 290 03:21 17.04.2020
5610 Clear 0 1000 80 10000 5.1 280 02:34 17.04.2020
5611 Clear 1 1000 80 10000 5.7 280 01:30 17.04.2020
5612 Clouds 1 1000 86 10000 6.2 280 00:53 17.04.2020
5613 Clouds 1 1000 86 10000 6.2 280 00:19 17.04.2020
5614 Clouds 1 1000 80 10000 5.7 270 23:45 16.04.2020
5615 Clouds 1 1000 80 10000 5.1 270 23:23 16.04.2020
5616 Clouds 1 1000 80 10000 4.6 280 22:58 16.04.2020
5617 Clouds 2 1000 80 10000 4.6 280 22:38 16.04.2020
5618 Clouds 2 1000 80 10000 4.6 280 22:20 16.04.2020
5619 Clouds 2 1000 80 10000 5.7 280 21:43 16.04.2020
5620 Clouds 2 999 85 10000 5.7 280 21:21 16.04.2020
5621 Clouds 2 999 85 10000 4.6 270 20:59 16.04.2020
5622 Clouds 3 999 85 10000 4.6 270 20:40 16.04.2020
5623 Rain 3 999 86 10000 5.1 280 20:21 16.04.2020
5624 Rain 3 999 80 10000 7.2 300 19:55 16.04.2020
5625 Rain 3 999 80 10000 7.2 300 19:37 16.04.2020
5626 Rain 4 999 80 10000 6.2 290 19:18 16.04.2020
5627 Rain 4 999 86 10000 6.2 300 18:43 16.04.2020
5628 Rain 5 998 86 10000 5.1 300 18:25 16.04.2020
5629 Rain 5 997 75 10000 8.7 290 17:57 16.04.2020
5630 Rain 5 997 75 10000 8.7 290 17:39 16.04.2020
5631 Clouds 6 997 70 10000 8.2 290 17:20 16.04.2020
5632 Clouds 6 997 70 10000 8.2 290 16:43 16.04.2020
5633 Clouds 6 997 75 10000 7.7 290 16:25 16.04.2020
5634 Clouds 5 997 75 10000 7.7 300 15:46 16.04.2020
5635 Clouds 5 996 75 10000 5.7 310 15:20 16.04.2020
5636 Rain 5 996 80 10000 5.1 310 14:59 16.04.2020
5637 Rain 4 995 80 10000 6.2 310 14:41 16.04.2020
5638 Rain 4 995 80 10000 6.2 310 14:23 16.04.2020
5639 Rain 4 995 86 10000 5.7 320 13:58 16.04.2020
5640 Rain 4 995 86 10000 5.7 320 13:40 16.04.2020
5641 Rain 3 994 86 10000 5.7 320 13:21 16.04.2020
5642 Rain 3 993 93 10000 5.1 320 12:57 16.04.2020
5643 Rain 3 993 93 10000 5.1 320 12:38 16.04.2020
5644 Rain 2 993 93 10000 4.1 330 12:19 16.04.2020
5645 Rain 2 992 100 6000 4.1 350 11:56 16.04.2020
5646 Rain 1 991 96 2500 4.1 350 11:38 16.04.2020
5647 Snow 1 991 96 2500 4.1 350 11:19 16.04.2020
5648 Snow 1 990 96 1200 3.1 330 10:54 16.04.2020
5649 Snow 1 990 96 1200 3.1 330 10:54 16.04.2020
5650 Snow 1 990 96 1200 3.1 330 10:36 16.04.2020
5651 Snow 1 989 96 1200 3.1 340 10:18 16.04.2020
5652 Rain 1 988 96 5000 4.1 20 09:39 16.04.2020
5653 Rain 1 988 97 5000 4.1 20 09:20 16.04.2020
5654 Rain 1 988 96 5000 4.1 20 09:20 16.04.2020
5655 Snow 1 987 97 9000 4.6 40 08:45 16.04.2020
5656 Snow 1 987 97 3000 4.6 50 08:26 16.04.2020
5657 Snow 1 987 97 2500 3.6 30 07:59 16.04.2020
5658 Snow 1 987 97 2500 3.6 30 07:41 16.04.2020
5659 Snow 0 987 97 2200 3.1 30 07:20 16.04.2020
5660 Snow 0 986 97 2700 3.6 50 06:41 16.04.2020
5661 Snow 0 986 96 2700 3.6 50 06:22 16.04.2020
5662 Snow 0 987 96 2600 4.6 90 04:52 16.04.2020
5663 Snow 0 990 96 1500 3.1 110 03:25 16.04.2020
5664 Snow 0 991 94 2400 3.1 110 02:58 16.04.2020
5665 Rain 1 992 100 4000 2.6 110 02:34 16.04.2020
5666 Rain 2 994 94 6000 4.1 220 01:23 16.04.2020
5667 Rain 3 995 94 10000 3.1 200 00:49 16.04.2020
5668 Clouds 3 995 64 10000 5.1 230 00:21 16.04.2020
5669 Clouds 3 996 69 10000 3.6 220 23:44 15.04.2020
5670 Clouds 3 996 74 10000 4.1 220 23:24 15.04.2020
5671 Clouds 3 996 69 10000 3.1 230 22:59 15.04.2020
5672 Clouds 2 996 69 10000 2.6 240 22:38 15.04.2020
5673 Clouds 2 996 69 10000 2.6 240 22:20 15.04.2020
5674 Clouds 2 997 69 10000 3.1 270 21:54 15.04.2020
5675 Clouds 3 997 69 10000 3.1 270 21:36 15.04.2020
5676 Clouds 3 997 64 10000 3.1 260 21:18 15.04.2020
5677 Clouds 4 998 69 10000 3.6 260 20:41 15.04.2020
5678 Clouds 4 998 76 10000 2.6 250 20:22 15.04.2020
5679 Clouds 5 998 75 10000 2.1 20 19:59 15.04.2020
5680 Clouds 5 998 75 10000 2.1 20 19:40 15.04.2020
5681 Rain 6 998 75 10000 0.5 0 19:20 15.04.2020
5682 Rain 6 998 65 10000 2.6 320 18:41 15.04.2020
5683 Rain 7 998 65 10000 2.6 320 18:22 15.04.2020
5684 Rain 7 998 65 10000 4.1 320 17:58 15.04.2020
5685 Rain 7 998 65 10000 4.1 320 17:39 15.04.2020
5686 Clouds 7 998 65 10000 5.1 310 17:20 15.04.2020
5687 Clouds 7 997 65 10000 6.2 310 16:56 15.04.2020
5688 Clouds 7 997 65 10000 6.2 310 16:37 15.04.2020
5689 Rain 7 997 75 10000 4.6 330 16:19 15.04.2020
5690 Rain 6 997 75 10000 4.6 320 15:56 15.04.2020
5691 Rain 6 997 75 10000 4.6 320 15:38 15.04.2020
5692 Rain 6 996 81 10000 7.2 330 15:19 15.04.2020
5693 Rain 6 996 75 10000 7.2 320 14:55 15.04.2020
5694 Rain 6 996 80 10000 6.2 320 14:37 15.04.2020
5695 Rain 6 996 80 10000 6.2 320 14:19 15.04.2020
5696 Clouds 5 995 86 10000 5.7 330 13:56 15.04.2020
5697 Clouds 5 995 86 10000 5.7 330 13:36 15.04.2020
5698 Rain 5 995 86 10000 4.6 310 13:18 15.04.2020
5699 Rain 4 995 86 10000 3.1 300 12:42 15.04.2020
5700 Rain 3 995 93 10000 2.1 280 12:23 15.04.2020
5701 Rain 3 994 93 10000 1 0 11:58 15.04.2020
5702 Rain 3 994 93 10000 1.5 160 11:39 15.04.2020
5703 Rain 3 994 93 10000 1.5 160 11:21 15.04.2020
5704 Drizzle 2 994 100 10000 2.6 130 10:39 15.04.2020
5705 Rain 2 994 93 5000 3.1 140 10:21 15.04.2020
5706 Rain 1 994 93 2500 3.6 140 09:57 15.04.2020
5707 Snow 1 994 93 2500 3.6 140 09:39 15.04.2020
5708 Snow 1 994 96 2300 3.1 130 09:21 15.04.2020
5709 Snow 1 995 96 1200 2.6 120 08:55 15.04.2020
5710 Snow 1 995 96 1200 2.6 120 08:37 15.04.2020
5711 Snow 1 995 96 1000 2.6 130 08:19 15.04.2020
5712 Snow 0 995 96 1700 2.1 160 07:49 15.04.2020
5713 Snow 0 996 96 1400 1.5 200 07:30 15.04.2020
5714 Snow 0 996 94 4500 3.6 230 06:33 15.04.2020
5715 Clouds 0 996 94 10000 3.1 190 05:50 15.04.2020
5716 Clouds 0 997 92 10000 3.1 210 04:50 15.04.2020
5717 Clouds 0 998 92 10000 2.1 220 04:26 15.04.2020
5718 Clouds 0 998 92 10000 2.1 220 03:26 15.04.2020
5719 Clouds 0 999 92 10000 1.5 240 02:52 15.04.2020
5720 Clouds 0 999 92 10000 2.1 260 01:54 15.04.2020
5721 Clouds -1 999 92 10000 3.1 260 01:25 15.04.2020
5722 Clouds 0 999 92 10000 3.1 270 00:52 15.04.2020
5723 Clouds 0 1000 92 10000 4.1 270 00:31 15.04.2020
5724 Clouds 0 1000 92 10000 4.1 280 23:57 14.04.2020
5725 Clouds 0 1000 92 10000 4.1 280 23:39 14.04.2020
5726 Clouds 0 1000 89 10000 4.1 280 23:21 14.04.2020
5727 Clouds 0 1000 89 10000 4.1 270 22:58 14.04.2020
5728 Clouds 0 1000 89 10000 4.1 270 22:39 14.04.2020
5729 Clouds 0 1000 89 10000 4.1 280 22:21 14.04.2020
5730 Rain 1 1000 86 10000 4.6 270 21:58 14.04.2020
5731 Rain 1 1000 86 10000 4.6 270 21:40 14.04.2020
5732 Clouds 1 1000 80 10000 3.1 270 21:20 14.04.2020
5733 Clouds 1 1000 80 3000 2.6 340 20:59 14.04.2020
5734 Clouds 1 1000 80 3000 2.6 340 20:40 14.04.2020
5735 Rain 1 1000 86 10000 4.1 280 20:21 14.04.2020
5736 Rain 1 1000 86 10000 4.1 280 20:21 14.04.2020
5737 Rain 1 999 86 10000 3.6 290 19:41 14.04.2020
5738 Clouds 2 999 80 10000 4.6 290 19:23 14.04.2020
5739 Clouds 2 999 80 10000 4.6 290 19:23 14.04.2020
5740 Snow 2 999 80 2500 5.1 300 18:59 14.04.2020
5741 Rain 2 999 74 10000 4.1 300 18:41 14.04.2020
5742 Rain 3 999 74 10000 4.1 300 18:22 14.04.2020
5743 Rain 3 998 69 10000 4.1 290 17:58 14.04.2020
5744 Rain 3 998 74 10000 4.1 340 17:39 14.04.2020
5745 Rain 4 998 74 10000 4.1 340 17:20 14.04.2020
5746 Rain 4 998 69 10000 5.1 360 16:57 14.04.2020
5747 Rain 4 997 64 10000 5.1 350 16:38 14.04.2020
5748 Rain 4 997 64 10000 5.1 350 16:20 14.04.2020
5749 Snow 4 997 80 10000 5.7 330 15:56 14.04.2020
5750 Snow 4 997 80 10000 5.7 330 15:38 14.04.2020
5751 Snow 4 997 72 3500 10.3 350 15:18 14.04.2020
5752 Rain 5 997 60 10000 8.2 320 14:56 14.04.2020
5753 Rain 5 997 60 10000 8.2 320 14:38 14.04.2020
5754 Rain 5 996 56 10000 7.2 320 14:19 14.04.2020
5755 Rain 5 996 56 10000 7.2 320 14:19 14.04.2020
5756 Rain 4 996 64 10000 5.7 330 13:43 14.04.2020
5757 Rain 4 996 64 10000 5.7 330 13:43 14.04.2020
5758 Clouds 4 996 69 10000 6.7 330 13:24 14.04.2020
5759 Clouds 4 996 69 10000 6.7 330 12:56 14.04.2020
5760 Clouds 3 995 80 10000 8.2 320 12:38 14.04.2020
5761 Clouds 3 995 80 10000 8.2 320 12:18 14.04.2020
5762 Rain 3 995 80 10000 7.7 320 11:41 14.04.2020
5763 Snow 3 995 80 10000 6.7 320 11:22 14.04.2020
5764 Snow 2 995 83 0 6.06 343 10:55 14.04.2020
5765 Snow 2 994 86 3500 6.2 320 10:37 14.04.2020
5766 Snow 2 994 86 3500 6.2 320 10:18 14.04.2020
5767 Rain 1 993 86 10000 5.7 340 09:41 14.04.2020
5768 Rain 1 993 86 10000 5.7 340 09:22 14.04.2020
5769 Rain 1 993 90 5000 5.1 330 08:55 14.04.2020
5770 Rain 1 993 90 5000 5.1 330 08:36 14.04.2020
5771 Snow 1 994 90 0 6.33 314 08:18 14.04.2020
5772 Snow 1 994 90 0 6.33 314 07:49 14.04.2020
5773 Snow 1 994 90 0 6.33 314 07:25 14.04.2020
5774 Snow 0 992 90 3500 3.6 270 06:45 14.04.2020
5775 Snow 0 992 90 3500 3.6 270 06:45 14.04.2020
5776 Snow 0 992 96 4000 4.1 260 05:43 14.04.2020
5777 Snow 0 992 92 10000 5.1 280 03:28 14.04.2020
5778 Snow 0 992 93 10000 3.6 240 02:33 14.04.2020
5779 Clouds 0 992 93 10000 3.6 240 01:27 14.04.2020
5780 Clouds 0 992 93 10000 4.1 240 00:50 14.04.2020
5781 Snow 0 993 86 10000 3.6 230 00:24 14.04.2020
5782 Snow 0 993 86 10000 3.6 230 23:57 13.04.2020
5783 Snow 0 993 86 10000 3.6 230 23:37 13.04.2020
5784 Snow 1 993 86 8000 4.6 230 23:18 13.04.2020
5785 Snow 0 993 86 10000 4.6 230 22:42 13.04.2020
5786 Snow 0 993 86 10000 4.6 230 22:42 13.04.2020
5787 Rain 1 993 80 10000 4.6 230 22:23 13.04.2020
5788 Clouds 1 993 80 10000 4.1 230 21:59 13.04.2020
5789 Clouds 1 993 80 10000 4.1 230 21:40 13.04.2020
5790 Rain 1 993 80 10000 4.6 240 21:21 13.04.2020
5791 Rain 1 993 80 10000 6.7 250 20:58 13.04.2020
5792 Rain 1 993 80 10000 6.7 250 20:58 13.04.2020
5793 Rain 1 993 80 10000 6.7 250 20:39 13.04.2020
5794 Clouds 1 993 80 10000 4.6 230 20:19 13.04.2020
5795 Clouds 1 993 69 10000 5.7 250 19:58 13.04.2020
5796 Clouds 2 993 69 10000 5.7 250 19:37 13.04.2020
5797 Clouds 2 993 69 10000 5.7 250 19:18 13.04.2020
5798 Clouds 2 993 69 10000 7.2 260 18:56 13.04.2020
5799 Snow 2 993 74 10000 8.7 260 18:37 13.04.2020
5800 Snow 3 993 74 10000 8.7 260 18:18 13.04.2020
5801 Rain 3 993 69 10000 6.7 280 17:56 13.04.2020
5802 Clouds 3 993 74 7000 11.3 290 17:36 13.04.2020
5803 Clouds 4 993 74 7000 11.3 290 17:18 13.04.2020
5804 Clouds 5 992 52 10000 6.2 280 16:56 13.04.2020
5805 Rain 5 992 41 10000 6.2 260 16:37 13.04.2020
5806 Rain 6 992 41 10000 6.2 260 16:18 13.04.2020
5807 Rain 6 992 41 10000 6.2 260 16:18 13.04.2020
5808 Clouds 6 992 38 10000 8.7 270 15:46 13.04.2020
5809 Clouds 6 991 39 10000 6.7 260 15:28 13.04.2020
5810 Clouds 6 991 38 10000 8.2 250 14:58 13.04.2020
5811 Clouds 6 991 38 10000 8.2 250 14:40 13.04.2020
5812 Clouds 7 991 36 10000 7.7 250 14:21 13.04.2020
5813 Clouds 7 991 42 10000 6.2 280 13:56 13.04.2020
5814 Clouds 6 991 41 10000 6.7 270 13:38 13.04.2020
5815 Clouds 6 991 41 10000 6.7 270 13:19 13.04.2020
5816 Clouds 6 991 45 10000 7.2 260 12:58 13.04.2020
5817 Clouds 6 991 45 10000 7.2 260 12:39 13.04.2020
5818 Clouds 6 991 41 10000 7.7 280 12:19 13.04.2020
5819 Clouds 6 991 41 10000 7.7 280 12:19 13.04.2020
5820 Clouds 6 991 41 10000 7.7 280 12:19 13.04.2020
5821 Clouds 6 991 48 10000 7.2 260 11:57 13.04.2020
5822 Clouds 6 991 48 10000 7.2 260 11:38 13.04.2020
5823 Clouds 5 991 52 10000 6.7 270 11:18 13.04.2020
5824 Clouds 5 991 60 10000 5.7 290 10:54 13.04.2020
5825 Clouds 4 991 60 10000 5.7 290 10:36 13.04.2020
5826 Clouds 4 990 60 10000 5.7 280 10:18 13.04.2020
5827 Clouds 4 990 64 10000 5.1 300 09:43 13.04.2020
5828 Clouds 3 990 74 10000 5.7 290 09:24 13.04.2020
5829 Clouds 3 990 74 10000 6.2 290 08:45 13.04.2020
5830 Clouds 3 990 79 10000 5.1 290 08:26 13.04.2020
5831 Clouds 3 990 79 10000 6.2 290 07:45 13.04.2020
5832 Clouds 3 989 86 10000 6.2 280 07:26 13.04.2020
5833 Clouds 3 989 86 10000 7.2 280 06:56 13.04.2020
5834 Clouds 3 989 93 10000 5.1 280 06:37 13.04.2020
5835 Clouds 3 988 93 10000 5.7 300 05:40 13.04.2020
5836 Rain 4 988 93 10000 4.1 240 05:19 13.04.2020
5837 Clouds 4 988 100 10000 4.1 230 04:31 13.04.2020
5838 Clouds 4 988 93 10000 4.1 230 03:54 13.04.2020
5839 Clouds 4 988 93 10000 4.1 200 03:34 13.04.2020
5840 Clouds 4 989 100 10000 4.1 210 02:40 13.04.2020
5841 Rain 5 990 93 10000 5.1 210 01:46 13.04.2020
5842 Rain 5 991 91 0 8.67 226 01:27 13.04.2020
5843 Rain 5 991 91 0 8.67 226 01:27 13.04.2020
5844 Clouds 6 991 93 10000 7.2 200 00:46 13.04.2020
5845 Clouds 5 991 93 10000 8.2 190 00:24 13.04.2020
5846 Clouds 6 992 93 10000 9.3 200 23:56 12.04.2020
5847 Clouds 6 993 93 10000 8.2 200 23:37 12.04.2020
5848 Clouds 6 993 93 10000 8.2 200 23:18 12.04.2020
5849 Clouds 6 993 93 10000 8.2 210 22:41 12.04.2020
5850 Clouds 6 993 93 10000 8.2 210 22:19 12.04.2020
5851 Clouds 6 993 93 10000 8.2 210 22:19 12.04.2020
5852 Clouds 6 994 93 10000 8.7 210 21:59 12.04.2020
5853 Rain 6 994 93 10000 8.7 210 21:37 12.04.2020
5854 Rain 6 994 93 10000 8.7 210 21:18 12.04.2020
5855 Clouds 6 995 93 10000 9.3 210 20:42 12.04.2020
5856 Clouds 6 995 93 10000 10.3 210 20:23 12.04.2020
5857 Clouds 6 996 93 10000 7.7 210 19:58 12.04.2020
5858 Clouds 6 996 93 10000 7.7 210 19:39 12.04.2020
5859 Clouds 6 996 93 8000 8.2 210 19:19 12.04.2020
5860 Rain 6 996 93 5000 8.7 210 18:56 12.04.2020
5861 Rain 6 997 93 8000 9.3 210 18:37 12.04.2020
5862 Rain 6 997 93 7000 9.8 200 18:18 12.04.2020
5863 Rain 5 997 93 7000 9.8 200 17:41 12.04.2020
5864 Clouds 5 998 93 8000 8.7 210 17:23 12.04.2020
5865 Drizzle 5 998 93 5000 8.7 210 16:59 12.04.2020
5866 Drizzle 5 998 93 5000 8.7 210 16:39 12.04.2020
5867 Drizzle 5 999 93 5000 9.8 200 16:20 12.04.2020
5868 Drizzle 5 999 93 4000 9.3 210 15:49 12.04.2020
5869 Drizzle 5 1000 100 3000 8.7 190 15:31 12.04.2020
5870 Drizzle 5 1000 93 3000 8.7 190 14:56 12.04.2020
5871 Drizzle 5 1001 93 4000 9.3 190 14:37 12.04.2020
5872 Drizzle 5 1001 93 4000 9.3 190 14:18 12.04.2020
5873 Drizzle 4 1002 100 3000 8.2 180 13:43 12.04.2020
5874 Rain 4 1003 93 5000 8.7 180 13:25 12.04.2020
5875 Rain 4 1003 93 10000 8.7 180 12:55 12.04.2020
5876 Rain 4 1004 100 6000 8.7 180 12:37 12.04.2020
5877 Rain 4 1004 100 6000 8.7 180 12:18 12.04.2020
5878 Rain 4 1005 93 10000 8.7 170 11:56 12.04.2020
5879 Rain 3 1006 93 7000 8.7 170 11:36 12.04.2020
5880 Rain 3 1006 93 7000 8.7 170 11:18 12.04.2020
5881 Rain 3 1007 93 10000 7.7 170 10:54 12.04.2020
5882 Rain 3 1007 86 10000 7.7 160 10:36 12.04.2020
5883 Rain 3 1007 86 10000 7.7 160 10:18 12.04.2020
5884 Rain 3 1008 86 10000 8.2 170 09:40 12.04.2020
5885 Rain 3 1009 86 10000 8.7 170 09:21 12.04.2020
5886 Rain 3 1009 93 10000 7.2 170 08:56 12.04.2020
5887 Rain 3 1009 93 10000 7.2 170 08:38 12.04.2020
5888 Rain 3 1010 86 10000 6.7 160 08:19 12.04.2020
5889 Rain 3 1011 93 10000 6.2 150 07:42 12.04.2020
5890 Rain 3 1011 94 10000 6.7 160 07:18 12.04.2020
5891 Clouds 3 1013 94 10000 5.7 150 06:35 12.04.2020
5892 Clouds 2 1014 80 10000 4.6 140 05:51 12.04.2020
5893 Rain 2 1014 80 10000 4.1 140 05:29 12.04.2020
5894 Clouds 1 1016 69 10000 3.1 180 03:44 12.04.2020
5895 Clouds 1 1017 82 10000 3.1 170 03:22 12.04.2020
5896 Clouds 0 1018 69 10000 3.1 190 02:34 12.04.2020
5897 Clouds 0 1018 79 10000 1 200 01:48 12.04.2020
5898 Clouds 0 1019 86 10000 3.64 221 00:58 12.04.2020
5899 Clouds 0 1019 80 10000 0.5 270 00:39 12.04.2020
5900 Clouds 0 1019 80 10000 0.5 270 00:19 12.04.2020
5901 Clouds 1 1019 64 10000 1.5 250 23:46 11.04.2020
5902 Clouds 1 1020 82 10000 3.1 270 23:25 11.04.2020
5903 Clouds 1 1020 64 10000 3.1 260 22:42 11.04.2020
5904 Clouds 1 1020 74 10000 0.5 0 22:23 11.04.2020
5905 Clouds 1 1020 74 10000 0.5 0 22:23 11.04.2020
5906 Clouds 1 1020 74 10000 0.5 0 22:23 11.04.2020
5907 Clouds 1 1020 80 10000 0.5 210 21:57 11.04.2020
5908 Clouds 1 1020 80 10000 0.5 210 21:38 11.04.2020
5909 Clouds 1 1020 74 10000 3.4 285 21:19 11.04.2020
5910 Clouds 2 1020 74 10000 3.4 285 20:58 11.04.2020
5911 Clouds 2 1020 74 10000 3.4 285 20:40 11.04.2020
5912 Clouds 3 1020 55 10000 1.5 250 20:21 11.04.2020
5913 Clouds 3 1020 55 10000 1.5 250 20:21 11.04.2020
5914 Clouds 4 1020 41 10000 2.1 270 19:58 11.04.2020
5915 Clouds 4 1020 41 10000 2.1 270 19:40 11.04.2020
5916 Clouds 5 1020 38 10000 2.1 300 19:20 11.04.2020
5917 Clouds 6 1020 35 10000 3.6 290 18:58 11.04.2020
5918 Clouds 6 1020 35 10000 3.6 290 18:39 11.04.2020
5919 Clouds 7 1020 33 10000 4.6 320 18:21 11.04.2020
5920 Clouds 7 1020 33 10000 4.1 320 17:59 11.04.2020
5921 Clouds 7 1020 33 10000 4.1 320 17:41 11.04.2020
5922 Clouds 7 1020 28 10000 4.6 270 17:22 11.04.2020
5923 Clouds 7 1020 33 10000 5.1 300 16:59 11.04.2020
5924 Clouds 7 1020 33 10000 5.1 300 16:41 11.04.2020
5925 Clouds 8 1021 36 10000 5.1 290 16:20 11.04.2020
5926 Clouds 7 1021 36 10000 5.1 290 16:20 11.04.2020
5927 Clouds 7 1021 36 10000 5.1 310 15:39 11.04.2020
5928 Clouds 7 1021 36 10000 5.1 290 15:19 11.04.2020
5929 Clouds 7 1021 36 10000 5.1 290 15:19 11.04.2020
5930 Clouds 7 1021 36 10000 6.2 300 14:44 11.04.2020
5931 Clouds 7 1021 38 10000 6.2 290 14:25 11.04.2020
5932 Clouds 7 1021 36 10000 6.2 290 13:59 11.04.2020
5933 Clouds 7 1021 36 10000 6.2 290 13:40 11.04.2020
5934 Snow 6 1021 44 10000 5.7 310 13:22 11.04.2020
5935 Snow 6 1021 44 10000 5.7 310 13:22 11.04.2020
5936 Clouds 6 1021 41 10000 5.1 290 12:43 11.04.2020
5937 Clouds 6 1021 48 10000 6.2 290 12:22 11.04.2020
5938 Clouds 6 1021 45 10000 7.2 280 11:58 11.04.2020
5939 Clouds 6 1021 45 10000 7.2 280 11:40 11.04.2020
5940 Clouds 6 1021 45 10000 7.2 270 11:19 11.04.2020
5941 Clouds 6 1021 52 10000 7.2 280 10:55 11.04.2020
5942 Clouds 6 1021 52 10000 7.2 280 10:36 11.04.2020
5943 Clouds 5 1020 56 10000 6.7 290 10:18 11.04.2020
5944 Clouds 5 1020 60 10000 4.6 280 09:41 11.04.2020
5945 Clouds 4 1020 64 10000 5.1 280 09:22 11.04.2020
5946 Clouds 3 1020 69 10000 4.1 280 08:51 11.04.2020
5947 Clouds 2 1020 69 10000 5.1 280 08:29 11.04.2020
5948 Clear 2 1020 74 10000 5.7 270 07:56 11.04.2020
5949 Clear 1 1020 77 10000 5.1 270 07:38 11.04.2020
5950 Clear 0 1020 77 10000 5.1 270 07:19 11.04.2020
5951 Clear -1 1020 80 10000 5.1 280 06:35 11.04.2020
5952 Clear -1 1020 74 10000 4.6 270 05:56 11.04.2020
5953 Clear -2 1020 86 10000 2.6 240 03:48 11.04.2020
5954 Clouds -2 1019 79 10000 2.6 270 02:50 11.04.2020
5955 Clouds -1 1019 79 10000 3.6 290 01:26 11.04.2020
5956 Clouds -1 1019 80 10000 3.6 290 00:54 11.04.2020
5957 Clouds -1 1019 80 10000 3.6 290 00:36 11.04.2020
5958 Clouds -1 1019 80 10000 3.6 290 00:18 11.04.2020
5959 Clouds 0 1018 80 10000 3.6 310 23:41 10.04.2020
5960 Clouds 0 1018 80 10000 3.6 310 23:19 10.04.2020
5961 Clouds 0 1018 83 10000 3.6 320 22:55 10.04.2020
5962 Clouds 1 1018 69 10000 4.6 340 22:37 10.04.2020
5963 Clouds 1 1018 69 10000 4.6 340 22:18 10.04.2020
5964 Clouds 1 1018 69 10000 4.6 340 22:18 10.04.2020
5965 Clouds 1 1018 69 10000 7.2 330 21:41 10.04.2020
5966 Clouds 2 1017 74 10000 5.7 290 21:21 10.04.2020
5967 Clouds 2 1017 64 10000 6.2 290 20:57 10.04.2020
5968 Clouds 2 1017 64 10000 6.2 290 20:38 10.04.2020
5969 Clouds 2 1017 64 10000 6.2 290 20:38 10.04.2020
5970 Rain 3 1016 59 10000 5.7 280 20:19 10.04.2020
5971 Rain 3 1016 59 10000 9.3 280 19:54 10.04.2020
5972 Rain 3 1016 59 10000 9.3 280 19:36 10.04.2020
5973 Rain 4 1016 55 10000 3.6 260 19:18 10.04.2020
5974 Clouds 5 1016 48 10000 4.6 280 18:55 10.04.2020
5975 Clouds 5 1016 48 10000 5.1 280 18:36 10.04.2020
5976 Clouds 5 1016 48 10000 5.1 280 18:18 10.04.2020
5977 Clouds 5 1016 52 10000 6.2 310 17:56 10.04.2020
5978 Clouds 6 1016 52 10000 6.2 310 17:37 10.04.2020
5979 Snow 5 1016 55 10000 7.2 290 17:18 10.04.2020
5980 Rain 6 1016 35 10000 6.2 300 16:41 10.04.2020
5981 Rain 7 1016 35 10000 6.2 300 16:23 10.04.2020
5982 Snow 7 1016 31 10000 6.2 300 15:58 10.04.2020
5983 Snow 7 1016 31 10000 6.2 300 15:39 10.04.2020
5984 Clear 7 1016 30 10000 6.2 300 15:20 10.04.2020
5985 Clear 8 1017 28 10000 5.7 300 14:58 10.04.2020
5986 Clear 8 1017 28 10000 5.7 300 14:58 10.04.2020
5987 Clear 7 1017 28 10000 6.7 280 14:39 10.04.2020
5988 Clear 7 1017 28 10000 6.7 280 14:21 10.04.2020
5989 Clear 7 1016 28 10000 6.2 290 13:45 10.04.2020
5990 Clear 7 1017 30 10000 6.2 320 13:23 10.04.2020
5991 Clear 7 1017 30 10000 7.7 330 12:56 10.04.2020
5992 Clear 7 1017 30 10000 7.7 330 12:37 10.04.2020
5993 Clear 6 1017 33 10000 7.7 300 12:19 10.04.2020
5994 Clouds 5 1017 38 10000 7.7 320 11:43 10.04.2020
5995 Clouds 5 1017 38 10000 8.2 310 11:24 10.04.2020
5996 Clouds 5 1016 44 10000 7.7 300 10:57 10.04.2020
5997 Clouds 5 1016 44 10000 7.7 300 10:38 10.04.2020
5998 Clouds 4 1016 41 10000 8.2 320 10:19 10.04.2020
5999 Clouds 4 1016 48 10000 8.2 320 09:43 10.04.2020
6000 Clouds 4 1016 48 10000 8.2 320 09:43 10.04.2020
6001 Clouds 4 1016 64 10000 7.7 310 09:21 10.04.2020
6002 Clouds 3 1016 69 10000 6.2 320 08:48 10.04.2020
6003 Clouds 3 1015 74 10000 6.2 300 08:27 10.04.2020
6004 Clouds 3 1015 74 10000 6.2 300 08:27 10.04.2020
6005 Clouds 2 1015 80 10000 6.2 290 07:55 10.04.2020
6006 Clouds 1 1015 79 10000 5.1 290 07:37 10.04.2020
6007 Clouds 1 1015 79 10000 5.1 290 07:19 10.04.2020
6008 Clear -1 1015 86 10000 3.1 270 06:31 10.04.2020
6009 Clear 0 1015 86 10000 3.1 270 06:31 10.04.2020
6010 Clear -1 1014 86 10000 3.6 280 05:59 10.04.2020
6011 Clear -1 1014 86 10000 3.6 280 05:59 10.04.2020
6012 Clear -1 1014 80 10000 3.1 270 05:29 10.04.2020
6013 Clear 0 1014 85 10000 3.6 260 04:54 10.04.2020
6014 Clear 0 1014 84 10000 2.6 270 03:35 10.04.2020
6015 Clear 0 1014 86 10000 3.6 280 02:51 10.04.2020
6016 Clear 0 1014 84 10000 3.1 280 02:32 10.04.2020
6017 Clear 1 1014 84 10000 3.1 300 01:46 10.04.2020
6018 Clear 1 1014 74 10000 4.1 290 01:25 10.04.2020
6019 Clear 2 1014 74 10000 5.1 290 00:46 10.04.2020
6020 Clear 2 1014 74 10000 4.1 280 00:20 10.04.2020
6021 Clear 2 1014 74 10000 4.1 280 00:20 10.04.2020
6022 Clear 2 1013 74 10000 3.6 280 23:41 09.04.2020
6023 Clear 3 1013 69 10000 4.1 290 23:23 09.04.2020
6024 Clear 3 1013 64 10000 4.1 280 22:57 09.04.2020
6025 Clear 4 1012 60 10000 5.7 290 22:38 09.04.2020
6026 Clear 4 1012 60 10000 5.7 290 22:20 09.04.2020
6027 Clear 4 1012 64 10000 4.6 290 21:38 09.04.2020
6028 Clouds 4 1011 64 10000 4.6 290 21:20 09.04.2020
6029 Clouds 5 1011 64 10000 3.6 300 20:47 09.04.2020
6030 Clouds 5 1010 60 10000 4.1 300 20:23 09.04.2020
6031 Rain 6 1010 60 10000 3.6 290 19:59 09.04.2020
6032 Clouds 6 1010 60 10000 3.1 300 19:38 09.04.2020
6033 Clouds 6 1010 60 10000 3.1 300 19:20 09.04.2020
6034 Clouds 7 1009 60 10000 3.6 280 18:42 09.04.2020
6035 Rain 7 1009 60 10000 3.1 280 18:20 09.04.2020
6036 Rain 7 1009 60 10000 3.1 290 17:43 09.04.2020
6037 Rain 7 1009 67 0 6.31 315 17:24 09.04.2020
6038 -273 0 0 0 0 0 17:00 09.04.2020
6039 Rain 8 1007 39 10000 7.2 280 16:39 09.04.2020
6040 Rain 8 1007 39 10000 7.2 280 16:19 09.04.2020
6041 Rain 8 1007 39 10000 8.2 300 15:56 09.04.2020
6042 Rain 9 1007 39 10000 8.7 300 15:37 09.04.2020
6043 Rain 8 1007 39 10000 8.2 300 15:37 09.04.2020
6044 Rain 9 1007 39 10000 8.7 300 15:18 09.04.2020
6045 Rain 8 1007 39 10000 8.7 300 14:42 09.04.2020
6046 Clouds 8 1006 36 10000 7.7 290 14:21 09.04.2020
6047 Clouds 8 1006 36 10000 8.7 280 13:56 09.04.2020
6048 Clouds 9 1006 36 10000 8.7 280 13:38 09.04.2020
6049 Clouds 10 1006 34 10000 8.2 270 13:19 09.04.2020
6050 Clouds 9 1006 37 10000 8.7 280 12:43 09.04.2020
6051 Clouds 9 1006 36 10000 7.2 270 12:23 09.04.2020
6052 Clouds 9 1006 39 10000 6.7 280 11:59 09.04.2020
6053 Clouds 8 1006 39 10000 6.7 280 11:40 09.04.2020
6054 Clouds 8 1005 42 10000 6.2 290 11:20 09.04.2020
6055 Clouds 8 1005 45 10000 7.7 290 10:57 09.04.2020
6056 Clouds 8 1005 45 10000 7.7 290 10:38 09.04.2020
6057 Clouds 7 1005 60 10000 6.2 290 10:19 09.04.2020
6058 Clouds 6 1005 60 10000 6.2 300 09:55 09.04.2020
6059 Clouds 6 1005 60 10000 6.2 300 09:37 09.04.2020
6060 Clouds 6 1005 60 10000 6.2 300 09:19 09.04.2020
6061 Clouds 6 1005 77 10000 8.2 300 08:43 09.04.2020
6062 Clouds 5 1004 75 10000 6.7 290 08:23 09.04.2020
6063 Clouds 5 1004 75 10000 6.7 290 08:23 09.04.2020
6064 Rain 5 1004 80 10000 4.1 280 07:53 09.04.2020
6065 Rain 5 1004 80 10000 3.6 280 07:24 09.04.2020
6066 Rain 5 1004 75 10000 4.1 270 06:52 09.04.2020
6067 Clouds 5 1004 80 10000 4.1 220 05:59 09.04.2020
6068 Clouds 5 1004 80 10000 4.1 220 05:38 09.04.2020
6069 Clouds 5 1006 80 10000 6.2 200 03:20 09.04.2020
6070 Clouds 5 1008 80 10000 6.2 210 02:21 09.04.2020
6071 Clouds 5 1008 80 10000 7.2 200 01:40 09.04.2020
6072 Clouds 5 1009 80 10000 6.7 200 01:19 09.04.2020
6073 Clouds 4 1010 75 10000 6.7 200 00:39 09.04.2020
6074 Clouds 5 1010 75 10000 6.7 200 00:19 09.04.2020
6075 Clouds 4 1010 75 10000 6.7 200 00:19 09.04.2020
6076 Clouds 5 1011 75 10000 6.7 210 23:55 08.04.2020
6077 Clouds 5 1012 75 10000 7.2 210 23:37 08.04.2020
6078 Clouds 5 1012 75 10000 7.2 210 23:19 08.04.2020
6079 Clouds 5 1013 75 10000 6.2 200 22:42 08.04.2020
6080 Clouds 5 1013 75 10000 6.2 200 22:23 08.04.2020
6081 Clouds 5 1013 80 10000 5.1 200 21:56 08.04.2020
6082 Clouds 5 1014 75 10000 5.7 210 21:37 08.04.2020
6083 Clouds 5 1014 75 10000 5.7 210 21:19 08.04.2020
6084 Clouds 5 1014 75 10000 5.7 220 20:54 08.04.2020
6085 Clouds 5 1014 75 10000 5.7 220 20:54 08.04.2020
6086 Clouds 5 1014 75 10000 5.7 220 20:54 08.04.2020
6087 Clouds 5 1015 80 10000 5.1 220 20:36 08.04.2020
6088 Clouds 5 1015 80 10000 5.1 220 20:18 08.04.2020
6089 Clouds 6 1015 70 10000 6.7 220 19:41 08.04.2020
6090 Clouds 6 1016 74 10000 6.7 210 19:21 08.04.2020
6091 Clouds 7 1016 74 10000 6.7 210 19:21 08.04.2020
6092 Clouds 7 1016 74 10000 7.7 210 18:55 08.04.2020
6093 Clouds 8 1016 69 10000 7.7 210 18:37 08.04.2020
6094 Clouds 8 1016 69 10000 9.3 210 18:19 08.04.2020
6095 Clouds 8 1016 69 10000 9.3 210 18:19 08.04.2020
6096 Clouds 9 1016 69 10000 9.3 210 17:42 08.04.2020
6097 Clouds 9 1017 69 10000 10.8 210 17:20 08.04.2020
6098 Clouds 10 1018 69 10000 9.3 210 16:57 08.04.2020
6099 Clouds 10 1018 69 10000 9.3 210 16:39 08.04.2020
6100 Clouds 11 1018 69 10000 9.3 210 16:19 08.04.2020
6101 Clouds 11 1019 43 10000 9.8 210 15:39 08.04.2020
6102 Clouds 11 1020 43 10000 9.3 220 15:21 08.04.2020
6103 Clouds 11 1020 43 10000 9.3 220 14:57 08.04.2020
6104 Clouds 11 1020 43 10000 9.3 220 14:39 08.04.2020
6105 Clouds 11 1021 40 10000 10.3 210 14:21 08.04.2020
6106 Clouds 11 1022 34 10000 9.3 210 13:44 08.04.2020
6107 Clouds 11 1022 34 10000 9.3 210 13:21 08.04.2020
6108 Clouds 11 1022 40 10000 7.7 220 12:54 08.04.2020
6109 Clouds 11 1022 40 10000 7.7 220 12:36 08.04.2020
6110 Clear 11 1023 40 10000 8.2 210 12:18 08.04.2020
6111 Clear 11 1023 40 10000 8.2 210 12:18 08.04.2020
6112 Clear 11 1023 40 10000 8.2 210 12:18 08.04.2020
6113 Clear 11 1023 37 10000 6.7 220 11:41 08.04.2020
6114 Clear 11 1023 37 10000 6.7 220 11:41 08.04.2020
6115 Clear 10 1024 43 10000 5.7 220 11:22 08.04.2020
6116 Clear 10 1024 45 10000 5.1 220 10:58 08.04.2020
6117 Clear 9 1024 45 10000 3.6 240 10:39 08.04.2020
6118 Clear 9 1024 45 10000 3.6 240 10:20 08.04.2020
6119 Clear 8 1024 64 10000 2.1 270 09:57 08.04.2020
6120 Clear 8 1024 64 10000 2.1 270 09:39 08.04.2020
6121 Clear 6 1024 76 10000 3.1 280 09:18 08.04.2020
6122 Clear 6 1024 76 10000 3.1 280 09:18 08.04.2020
6123 Clear 6 1024 76 10000 2.6 270 08:56 08.04.2020
6124 Clear 5 1024 76 10000 2.6 270 08:38 08.04.2020
6125 Clear 4 1025 76 10000 3.1 280 08:20 08.04.2020
6126 Clear 3 1024 76 10000 4.1 280 07:42 08.04.2020
6127 Clear 2 1024 76 10000 3.1 290 07:20 08.04.2020
6128 Clear 2 1024 86 10000 3.6 290 06:22 08.04.2020
6129 Clear 2 1024 80 10000 4.6 290 04:44 08.04.2020
6130 Clouds 4 1022 80 10000 5.1 290 02:49 08.04.2020
6131 Clouds 4 1021 86 10000 4.6 290 02:21 08.04.2020
6132 Clouds 4 1021 86 10000 4.6 290 01:51 08.04.2020
6133 Clouds 4 1020 86 10000 5.7 300 01:27 08.04.2020
6134 Clouds 5 1020 86 10000 6.7 300 00:44 08.04.2020
6135 Clouds 5 1019 81 10000 6.2 310 00:23 08.04.2020
6136 Clouds 6 1018 87 10000 8.7 310 23:40 07.04.2020
6137 Clouds 6 1018 87 10000 9.8 310 23:22 07.04.2020
6138 Clouds 6 1017 87 10000 8.2 320 22:58 07.04.2020
6139 Clouds 6 1017 87 10000 8.2 320 22:40 07.04.2020
6140 Clouds 6 1016 87 10000 8.7 310 22:20 07.04.2020
6141 Clouds 7 1015 87 10000 9.3 310 21:57 07.04.2020
6142 Clouds 6 1015 87 10000 9.3 310 21:39 07.04.2020
6143 Rain 6 1015 87 10000 6.2 290 21:20 07.04.2020
6144 Rain 6 1014 87 10000 5.7 280 20:57 07.04.2020
6145 Drizzle 6 1014 93 6000 4.6 260 20:38 07.04.2020
6146 Drizzle 6 1014 93 6000 4.6 260 20:20 07.04.2020
6147 Clouds 6 1014 93 10000 5.1 240 19:57 07.04.2020
6148 Clouds 6 1014 93 10000 5.7 230 19:36 07.04.2020
6149 Clouds 6 1014 93 10000 5.7 230 19:18 07.04.2020
6150 Clouds 6 1014 93 10000 8.2 220 18:56 07.04.2020
6151 Rain 6 1014 93 10000 8.2 220 18:38 07.04.2020
6152 Rain 7 1014 70 10000 3.6 220 18:19 07.04.2020
6153 Rain 9 1014 57 10000 6.2 230 17:44 07.04.2020
6154 Rain 10 1014 50 10000 7.2 220 17:20 07.04.2020
6155 Rain 10 1014 50 10000 7.2 220 16:46 07.04.2020
6156 Rain 11 1015 44 10000 8.2 220 16:27 07.04.2020
6157 Rain 12 1015 44 10000 8.2 220 15:56 07.04.2020
6158 Rain 13 1015 44 10000 8.7 210 15:38 07.04.2020
6159 Clouds 13 1015 44 10000 8.7 210 15:19 07.04.2020
6160 Clouds 13 1015 44 10000 7.2 220 14:41 07.04.2020
6161 Clouds 13 1015 43 10000 8.2 210 14:22 07.04.2020
6162 Clouds 12 1016 43 10000 8.2 210 13:56 07.04.2020
6163 Clouds 13 1016 43 10000 8.2 210 13:37 07.04.2020
6164 Clouds 13 1016 47 10000 8.2 200 13:18 07.04.2020
6165 Clouds 13 1016 43 10000 7.7 210 12:54 07.04.2020
6166 Clouds 11 1017 46 10000 7.7 200 12:36 07.04.2020
6167 Clouds 12 1017 46 10000 7.7 200 12:18 07.04.2020
6168 Clouds 11 1017 73 10000 6.2 190 11:42 07.04.2020
6169 Clouds 11 1017 73 10000 6.2 190 11:22 07.04.2020
6170 Clouds 10 1018 73 10000 5.1 180 10:57 07.04.2020
6171 Clouds 10 1018 73 10000 5.7 180 10:37 07.04.2020
6172 Clouds 10 1018 73 10000 5.7 180 10:18 07.04.2020
6173 Clouds 9 1019 75 10000 5.7 170 09:44 07.04.2020
6174 Clouds 8 1019 77 10000 4.1 180 09:18 07.04.2020
6175 Clouds 8 1020 77 10000 4.6 180 08:43 07.04.2020
6176 Clouds 7 1020 77 10000 4.6 180 08:25 07.04.2020
6177 Clouds 7 1020 77 10000 5.1 180 07:59 07.04.2020
6178 Clouds 6 1020 77 10000 5.1 180 07:40 07.04.2020
6179 Clouds 6 1021 77 10000 5.1 180 07:40 07.04.2020
6180 Clouds 5 1021 77 10000 5.1 180 07:21 07.04.2020
6181 Clouds 4 1021 77 10000 6.2 190 06:49 07.04.2020
6182 Clouds 4 1022 77 10000 5.7 180 06:21 07.04.2020
6183 Clouds 4 1022 77 10000 4.6 180 05:38 07.04.2020
6184 Clouds 4 1023 77 10000 4.1 180 04:40 07.04.2020
6185 Clouds 4 1024 74 10000 3.6 160 03:25 07.04.2020
6186 Clouds 3 1025 74 10000 4.1 170 02:48 07.04.2020
6187 Clouds 4 1026 79 10000 3.6 180 01:48 07.04.2020
6188 Clouds 4 1026 79 10000 3.6 180 01:25 07.04.2020
6189 Clouds 4 1027 74 10000 4.6 190 00:29 07.04.2020
6190 Clouds 4 1027 74 10000 3.6 190 23:55 06.04.2020
6191 Clouds 4 1027 74 10000 3.6 190 23:36 06.04.2020
6192 Clouds 4 1027 74 10000 4.1 190 23:18 06.04.2020
6193 Clouds 5 1027 74 10000 3.6 190 22:39 06.04.2020
6194 Clouds 4 1027 65 10000 3.6 200 22:21 06.04.2020
6195 Clouds 5 1027 56 10000 3.6 210 21:57 06.04.2020
6196 Clouds 5 1027 56 10000 3.6 210 21:38 06.04.2020
6197 Clouds 6 1027 56 10000 4.1 210 21:18 06.04.2020
6198 Clouds 6 1027 52 10000 4.6 210 20:55 06.04.2020
6199 Clouds 7 1027 49 10000 4.6 210 20:37 06.04.2020
6200 Clouds 7 1027 49 10000 4.6 210 20:18 06.04.2020
6201 Clouds 8 1027 74 10000 5.7 210 19:41 06.04.2020
6202 Clouds 8 1027 74 10000 5.7 210 19:22 06.04.2020
6203 Clouds 9 1027 74 10000 6.7 210 18:57 06.04.2020
6204 Clouds 10 1027 50 10000 6.7 220 18:39 06.04.2020
6205 Clouds 10 1027 50 10000 6.7 220 18:20 06.04.2020
6206 Clouds 11 1027 70 10000 7.2 220 17:42 06.04.2020
6207 Clouds 12 1027 58 10000 6.2 200 17:20 06.04.2020
6208 Clouds 12 1027 44 10000 6.2 220 16:50 06.04.2020
6209 Clouds 13 1027 47 10000 6.2 220 16:31 06.04.2020
6210 Clouds 13 1027 54 10000 6.2 190 15:41 06.04.2020
6211 Clouds 12 1028 66 10000 4.1 160 14:00 06.04.2020
6212 Clouds 12 1028 58 10000 4.6 170 14:00 06.04.2020
6213 Clouds 12 1028 66 10000 4.1 160 13:40 06.04.2020
6214 Clouds 12 1028 66 10000 4.1 160 13:40 06.04.2020
6215 Clouds 12 1028 66 10000 2.6 160 13:19 06.04.2020
6216 Clouds 11 1028 66 10000 2.6 160 13:19 06.04.2020
6217 Clouds 12 1028 66 10000 2.6 160 13:19 06.04.2020
6218 Clouds 11 1028 66 10000 2.6 160 13:19 06.04.2020
6219 Clouds 9 1028 76 10000 2.1 180 12:22 06.04.2020
6220 Clouds 9 1028 81 10000 2.1 190 11:55 06.04.2020
6221 Clouds 8 1028 81 10000 2.1 190 11:33 06.04.2020
6222 Clouds 8 1028 81 10000 2.1 190 11:33 06.04.2020
6223 Clouds 8 1028 81 10000 2.1 190 11:33 06.04.2020
6224 Clouds 8 1028 81 10000 2.1 190 11:33 06.04.2020
6225 Clouds 8 1028 81 10000 2.1 190 11:33 06.04.2020
6226 Clouds 7 1028 87 10000 1.5 180 10:52 06.04.2020
6227 Clouds 7 1028 87 10000 1.5 180 10:52 06.04.2020
6228 Clouds 7 1028 87 10000 1.5 180 10:52 06.04.2020
6229 Clouds 7 1028 87 10000 1.5 180 10:52 06.04.2020
6230 Clouds 7 1028 87 10000 1.5 180 10:52 06.04.2020
6231 Clouds 6 1028 93 10000 2.1 200 10:22 06.04.2020
6232 Clouds 5 1028 93 10000 2.1 210 09:47 06.04.2020
6233 Clouds 5 1028 93 10000 2.1 210 09:47 06.04.2020
6234 Clouds 5 1028 93 10000 2.1 210 09:47 06.04.2020
6235 Clouds 5 1028 100 6000 2.6 220 09:21 06.04.2020
6236 Mist 4 1028 93 5000 3.1 210 08:55 06.04.2020
6237 Mist 4 1028 93 5000 3.1 210 08:30 06.04.2020
6238 Mist 3 1028 100 5000 2.6 190 07:39 06.04.2020
6239 Clouds 3 1028 93 10000 3.6 190 06:47 06.04.2020
6240 Rain 3 1028 93 10000 3.1 170 06:24 06.04.2020
6241 Rain 2 1028 94 10000 3.1 170 04:20 06.04.2020
6242 Rain 1 1029 80 10000 2.6 210 02:59 06.04.2020
6243 Rain 1 1029 69 10000 1.5 190 02:36 06.04.2020
6244 Clouds 1 1029 82 10000 2.1 190 01:28 06.04.2020
6245 Clouds 1 1029 80 10000 3.1 210 00:44 06.04.2020
6246 Clouds 0 1029 74 10000 2.6 220 00:23 06.04.2020
6247 Clouds 0 1029 86 10000 1 0 23:44 05.04.2020
6248 Clouds 0 1029 68 10000 1.5 210 23:25 05.04.2020
6249 Clouds 0 1029 68 10000 1.5 210 23:25 05.04.2020
6250 Clouds 0 1029 68 10000 2.37 275 22:55 05.04.2020
6251 Clouds 0 1029 68 10000 2.37 275 22:37 05.04.2020
6252 Clouds 0 1029 68 10000 2.37 275 22:18 05.04.2020
6253 Clouds 1 1029 81 10000 1 240 21:46 05.04.2020
6254 Clear 0 1029 58 10000 1 0 21:25 05.04.2020
6255 Clear 1 1029 79 10000 1.5 260 20:47 05.04.2020
6256 Clear 2 1028 37 10000 2.6 280 20:18 05.04.2020
6257 Clear 2 1028 37 10000 2.6 280 20:18 05.04.2020
6258 Clear 2 1028 37 10000 2.6 280 20:18 05.04.2020
6259 Clear 2 1028 37 10000 2.6 280 20:18 05.04.2020
6260 Clear 3 1028 40 10000 2.6 300 19:37 05.04.2020
6261 Clear 4 1028 35 10000 2.6 280 19:19 05.04.2020
6262 Clear 5 1028 32 10000 4.1 270 18:44 05.04.2020
6263 Clear 5 1028 32 10000 4.1 270 18:44 05.04.2020
6264 Clear 5 1028 32 10000 4.1 270 18:44 05.04.2020
6265 Clear 5 1028 32 10000 4.1 270 18:44 05.04.2020
6266 Clear 5 1028 32 10000 4.1 270 18:44 05.04.2020
6267 Clear 6 1028 26 10000 6.2 270 17:52 05.04.2020
6268 Clear 6 1028 26 10000 6.2 270 17:52 05.04.2020
6269 Clear 6 1028 26 10000 6.2 270 17:52 05.04.2020
6270 Clear 6 1028 26 10000 6.2 270 17:52 05.04.2020
6271 Clear 6 1028 26 10000 6.2 270 17:52 05.04.2020
6272 Clear 7 1028 26 10000 5.1 270 17:24 05.04.2020
6273 Clear 7 1028 26 10000 5.1 270 17:24 05.04.2020
6274 Clear 7 1028 26 10000 4.6 260 16:53 05.04.2020
6275 Clear 7 1028 26 10000 4.6 260 16:53 05.04.2020
6276 Clear 7 1028 26 10000 4.6 260 16:52 05.04.2020
6277 Clear 7 1028 26 10000 4.6 260 16:52 05.04.2020
6278 -273 0 0 0 0 0 16:52 05.04.2020
6279 Clear 7 1028 30 10000 6.2 290 16:20 05.04.2020
6280 Clear 7 1028 28 10000 7.2 290 15:51 05.04.2020
6281 Clear 7 1028 28 10000 7.2 290 15:32 05.04.2020
6282 Clear 7 1028 28 10000 7.2 290 15:32 05.04.2020
6283 Clear 6 1029 28 10000 7.2 270 14:50 05.04.2020
6284 Clear 6 1029 28 10000 7.2 270 14:50 05.04.2020
6285 Clear 6 1029 26 10000 6.2 280 14:25 05.04.2020
6286 Clear 6 1029 26 10000 6.2 280 14:25 05.04.2020
6287 Clear 6 1029 30 10000 6.2 270 13:43 05.04.2020
6288 Clear 6 1029 30 10000 6.2 270 13:43 05.04.2020
6289 Clear 5 1028 32 10000 7.2 270 12:49 05.04.2020
6290 Clear 5 1028 32 10000 7.2 270 12:49 05.04.2020
6291 Clouds 4 1028 38 10000 5.7 310 11:41 05.04.2020
6292 Clouds 4 1028 40 10000 7.7 310 11:21 05.04.2020
6293 Clouds 4 1027 40 10000 7.2 300 10:49 05.04.2020
6294 Clouds 3 1027 44 10000 6.7 310 10:24 05.04.2020
6295 Clouds 3 1027 44 10000 6.7 310 10:24 05.04.2020
6296 Clouds 3 1027 44 10000 6.7 310 09:58 05.04.2020
6297 Clouds 3 1027 47 10000 6.7 300 09:58 05.04.2020
6298 Clouds 3 1027 47 10000 6.7 300 09:38 05.04.2020
6299 Clouds 3 1027 47 10000 6.7 300 09:38 05.04.2020
6300 Clouds 2 1026 59 10000 5.1 290 09:19 05.04.2020
6301 Clouds 2 1026 59 10000 5.1 290 09:19 05.04.2020
6302 Clouds 2 1026 59 10000 5.1 290 09:19 05.04.2020
6303 Clouds 2 1026 59 10000 5.1 290 09:18 05.04.2020
6304 Clouds 2 1026 59 10000 5.1 290 09:18 05.04.2020
6305 Clear -1 1025 68 10000 4.1 270 07:31 05.04.2020
6306 Clouds -2 1023 79 10000 2.6 270 04:36 05.04.2020
6307 Clouds -2 1022 74 10000 4.1 270 03:31 05.04.2020
6308 Clear -2 1021 68 10000 4.6 260 02:51 05.04.2020
6309 Clear -2 1020 63 10000 3.6 260 01:47 05.04.2020
6310 Clear -1 1020 63 10000 3.6 260 01:28 05.04.2020
6311 Clear -1 1020 63 10000 4.1 260 00:44 05.04.2020
6312 Clear -1 1019 63 10000 4.1 260 00:21 05.04.2020
6313 Clear -1 1019 63 10000 3.6 270 23:43 04.04.2020
6314 Clear -1 1018 81 10000 2.6 270 23:23 04.04.2020
6315 Clear 0 1018 81 10000 4.1 270 22:59 04.04.2020
6316 Clear 0 1018 81 10000 4.1 270 22:40 04.04.2020
6317 Clear 0 1017 50 10000 4.6 280 22:21 04.04.2020
6318 Clear 0 1017 50 10000 4.6 280 21:58 04.04.2020
6319 Clear 1 1017 50 10000 4.1 280 21:39 04.04.2020
6320 Clouds 1 1016 47 10000 4.6 270 21:19 04.04.2020
6321 Clouds 1 1016 47 10000 4.6 270 20:58 04.04.2020
6322 Clouds 2 1016 43 10000 5.1 270 20:39 04.04.2020
6323 Clouds 2 1015 37 10000 4.6 270 20:20 04.04.2020
6324 Clouds 2 1015 37 10000 4.6 270 19:57 04.04.2020
6325 Clouds 3 1015 34 10000 6.2 280 19:37 04.04.2020
6326 Clouds 3 1014 29 10000 7.2 260 19:18 04.04.2020
6327 Rain 4 1014 35 10000 6.7 260 18:55 04.04.2020
6328 Rain 4 1014 35 10000 6.7 260 18:37 04.04.2020
6329 Rain 4 1013 30 10000 6.7 250 18:18 04.04.2020
6330 Rain 5 1013 32 10000 7.7 260 17:40 04.04.2020
6331 Rain 5 1013 32 10000 7.7 260 17:20 04.04.2020
6332 Rain 5 1013 35 10000 7.7 250 16:55 04.04.2020
6333 Rain 5 1013 35 10000 7.7 250 16:37 04.04.2020
6334 Rain 5 1013 35 10000 7.7 250 16:37 04.04.2020
6335 Rain 5 1012 33 10000 9.3 230 16:18 04.04.2020
6336 Rain 5 1012 35 10000 5.1 270 15:40 04.04.2020
6337 Rain 5 1012 30 10000 7.2 250 15:22 04.04.2020
6338 Rain 5 1012 30 10000 7.2 250 14:57 04.04.2020
6339 Rain 5 1012 30 10000 7.2 250 14:57 04.04.2020
6340 Rain 6 1012 33 10000 8.7 240 14:39 04.04.2020
6341 Rain 6 1011 35 10000 6.2 250 14:20 04.04.2020
6342 Snow 6 1011 35 10000 6.7 240 13:55 04.04.2020
6343 Snow 6 1011 35 10000 6.7 240 13:37 04.04.2020
6344 Snow 5 1011 35 10000 8.2 250 13:18 04.04.2020
6345 Snow 5 1011 38 10000 6.2 270 12:43 04.04.2020
6346 Clouds 5 1010 41 10000 7.2 280 12:23 04.04.2020
6347 Clouds 5 1010 44 10000 6.7 270 11:55 04.04.2020
6348 Clouds 4 1010 44 10000 6.7 270 11:36 04.04.2020
6349 Clouds 4 1010 47 10000 7.2 280 11:18 04.04.2020
6350 Clouds 4 1009 51 10000 6.2 270 10:55 04.04.2020
6351 Clouds 4 1009 51 10000 6.2 270 10:37 04.04.2020
6352 Clouds 3 1009 51 10000 6.7 260 10:18 04.04.2020
6353 Clouds 3 1008 59 10000 6.2 270 09:44 04.04.2020
6354 Clouds 2 1008 59 10000 6.7 280 09:25 04.04.2020
6355 Clouds 2 1008 59 10000 6.7 280 08:58 04.04.2020
6356 Clouds 1 1008 69 10000 5.7 270 08:38 04.04.2020
6357 Clouds 1 1007 69 10000 5.1 260 08:19 04.04.2020
6358 Clear 0 1006 83 10000 4.1 250 07:40 04.04.2020
6359 Clear -1 1006 80 10000 2.6 250 07:22 04.04.2020
6360 Clear -2 1005 86 10000 3.1 250 06:46 04.04.2020
6361 Clouds -2 1004 86 10000 3.1 260 05:57 04.04.2020
6362 Clouds -2 1004 86 10000 3.1 260 05:39 04.04.2020
6363 Clouds -2 1004 80 10000 4.1 260 05:21 04.04.2020
6364 Clouds -1 1003 80 10000 3.6 260 04:24 04.04.2020
6365 Clouds -1 1002 80 10000 4.1 270 03:45 04.04.2020
6366 Clouds -1 1001 80 10000 3.1 250 02:49 04.04.2020
6367 Clouds -1 1001 80 10000 3.1 250 02:30 04.04.2020
6368 Clouds -1 1000 80 10000 3.6 260 01:50 04.04.2020
6369 Clouds -1 1000 80 10000 3.6 250 01:22 04.04.2020
6370 Clouds -1 999 80 10000 4.1 240 00:47 04.04.2020
6371 Clouds -1 999 80 10000 3.6 250 00:26 04.04.2020
6372 Clouds -1 998 89 10000 4.6 270 23:39 03.04.2020
6373 Clouds 0 998 89 10000 4.6 270 23:21 03.04.2020
6374 Clouds 0 997 89 10000 5.7 270 22:56 03.04.2020
6375 Clouds 0 997 89 10000 5.7 270 22:37 03.04.2020
6376 Clouds 0 996 89 10000 6.2 260 22:18 03.04.2020
6377 Clouds 1 996 89 10000 5.7 260 21:43 03.04.2020
6378 Clouds 1 995 64 10000 6.7 280 21:22 03.04.2020
6379 Clouds 1 995 64 10000 7.2 280 20:56 03.04.2020
6380 Clouds 1 995 64 10000 7.2 280 20:36 03.04.2020
6381 Clouds 1 995 64 10000 7.2 280 20:36 03.04.2020
6382 Clouds 1 994 64 10000 8.2 280 20:18 03.04.2020
6383 Clouds 1 993 64 10000 9.8 280 19:56 03.04.2020
6384 Clouds 1 993 64 10000 9.8 280 19:37 03.04.2020
6385 Clouds 1 992 64 10000 7.7 270 19:19 03.04.2020
6386 Clouds 1 991 64 10000 6.2 280 18:58 03.04.2020
6387 Clouds 2 991 64 10000 6.2 280 18:40 03.04.2020
6388 Clouds 2 990 64 10000 8.7 280 18:21 03.04.2020
6389 Rain 3 989 64 10000 8.2 280 17:43 03.04.2020
6390 Snow 3 988 64 10000 8.2 280 17:21 03.04.2020
6391 Snow 3 988 64 10000 8.2 280 17:21 03.04.2020
6392 Rain 3 986 69 10000 7.7 290 16:57 03.04.2020
6393 Rain 4 986 69 10000 7.7 290 16:38 03.04.2020
6394 Rain 4 985 69 10000 8.2 290 16:20 03.04.2020
6395 Rain 4 984 69 10000 9.8 280 15:56 03.04.2020
6396 Rain 4 984 69 10000 9.8 280 15:37 03.04.2020
6397 Rain 4 983 65 10000 8.7 270 15:19 03.04.2020
6398 Snow 4 979 74 10000 7.7 280 14:41 03.04.2020
6399 Snow 4 979 74 10000 7.7 280 14:22 03.04.2020
6400 Snow 4 979 74 10000 7.7 280 13:57 03.04.2020
6401 Snow 3 979 74 10000 7.7 280 13:37 03.04.2020
6402 Clouds 3 978 80 10000 5.1 280 13:18 03.04.2020
6403 Rain 2 977 73 10000 3.6 280 12:43 03.04.2020
6404 Rain 2 976 94 3500 3.1 250 12:20 03.04.2020
6405 Rain 1 975 94 1400 4.1 220 11:56 03.04.2020
6406 Rain 1 975 94 1400 4.1 220 11:37 03.04.2020
6407 Rain 1 975 86 5000 4.6 200 11:18 03.04.2020
6408 Rain 1 975 86 5000 4.6 200 10:57 03.04.2020
6409 Rain 2 975 74 9000 4.6 190 10:38 03.04.2020
6410 Rain 2 975 74 10000 6.7 190 10:20 03.04.2020
6411 Rain 2 975 74 9000 6.2 210 09:57 03.04.2020
6412 Rain 2 975 74 9000 6.2 210 09:39 03.04.2020
6413 Rain 2 975 74 9000 6.2 210 09:39 03.04.2020
6414 Rain 2 975 81 10000 5.1 210 09:21 03.04.2020
6415 Rain 2 975 81 10000 5.1 210 08:55 03.04.2020
6416 Rain 2 975 81 10000 5.1 210 08:36 03.04.2020
6417 Rain 2 975 81 10000 6.7 210 08:18 03.04.2020
6418 Clouds 1 975 81 1500 6.2 210 07:41 03.04.2020
6419 Clouds 1 975 81 10000 7.2 220 07:23 03.04.2020
6420 Snow 0 974 81 10000 6.2 200 06:34 03.04.2020
6421 Snow 0 974 88 1200 3.6 180 05:43 03.04.2020
6422 Snow 0 975 88 1400 2.6 240 05:21 03.04.2020
6423 Clouds 2 975 69 10000 6.2 220 03:37 03.04.2020
6424 Clouds 2 976 74 10000 7.7 210 02:47 03.04.2020
6425 Clouds 2 976 74 10000 9.3 220 01:30 03.04.2020
6426 Clouds 2 975 78 10000 11.8 210 00:56 03.04.2020
6427 Clouds 3 975 78 10000 9.8 200 00:33 03.04.2020
6428 Clouds 3 975 88 10000 9.8 200 23:57 02.04.2020
6429 Rain 3 975 86 10000 10.3 200 23:38 02.04.2020
6430 Rain 3 976 93 5000 12.3 200 23:18 02.04.2020
6431 Rain 4 976 86 7000 11.8 190 22:42 02.04.2020
6432 Rain 4 976 86 7000 11.8 190 22:42 02.04.2020
6433 Rain 4 978 86 10000 10.8 190 22:23 02.04.2020
6434 Rain 4 978 86 10000 10.8 190 21:59 02.04.2020
6435 Rain 4 979 75 10000 11.8 190 21:37 02.04.2020
6436 Rain 5 979 75 10000 11.8 200 21:19 02.04.2020
6437 Rain 5 980 75 10000 11.3 200 20:45 02.04.2020
6438 Rain 5 980 80 10000 12.3 210 20:25 02.04.2020
6439 Rain 5 981 80 10000 10.8 210 19:59 02.04.2020
6440 Rain 5 981 80 10000 10.8 210 19:59 02.04.2020
6441 Rain 5 981 80 10000 10.8 210 19:40 02.04.2020
6442 Clouds 5 982 80 10000 10.8 210 19:20 02.04.2020
6443 Clouds 5 982 80 10000 11.3 210 18:56 02.04.2020
6444 Clouds 5 982 80 10000 11.3 210 18:38 02.04.2020
6445 Clouds 5 983 78 10000 10.8 210 18:18 02.04.2020
6446 Clouds 5 983 75 10000 10.8 210 17:43 02.04.2020
6447 Clouds 5 984 78 10000 10.3 210 17:24 02.04.2020
6448 Clouds 6 984 70 10000 10.3 210 16:58 02.04.2020
6449 Clouds 6 984 70 10000 10.3 210 16:40 02.04.2020
6450 Clouds 6 984 70 10000 10.8 210 16:22 02.04.2020
6451 Clouds 6 984 65 10000 8.7 200 15:57 02.04.2020
6452 Clouds 6 984 65 10000 8.7 200 15:39 02.04.2020
6453 Clouds 6 985 65 10000 10.3 200 15:19 02.04.2020
6454 Clouds 6 985 65 10000 7.7 210 14:57 02.04.2020
6455 Clouds 6 985 65 10000 7.7 210 14:38 02.04.2020
6456 Clouds 7 985 70 10000 8.7 210 14:18 02.04.2020
6457 Clouds 7 986 70 10000 8.2 210 13:55 02.04.2020
6458 Clouds 7 986 70 10000 8.2 210 13:37 02.04.2020
6459 Clouds 7 986 70 10000 8.2 200 13:18 02.04.2020
6460 Clouds 7 986 70 10000 8.2 200 12:45 02.04.2020
6461 Clouds 6 986 75 10000 7.2 210 12:19 02.04.2020
6462 Clouds 6 987 75 10000 6.7 210 11:57 02.04.2020
6463 Clouds 6 987 75 10000 6.7 210 11:57 02.04.2020
6464 Clouds 6 987 75 10000 6.7 210 11:39 02.04.2020
6465 Clouds 6 987 75 10000 4.6 210 11:20 02.04.2020
6466 Clouds 5 987 75 10000 4.6 210 11:20 02.04.2020
6467 Clouds 5 987 75 10000 4.6 210 10:56 02.04.2020
6468 Clouds 5 987 80 10000 5.7 220 10:38 02.04.2020
6469 Clouds 5 987 80 10000 5.7 220 10:38 02.04.2020
6470 Clouds 5 987 86 10000 6.7 210 10:20 02.04.2020
6471 Clouds 5 988 86 10000 6.2 210 09:58 02.04.2020
6472 Clouds 5 987 86 10000 6.7 210 09:58 02.04.2020
6473 Clouds 5 988 86 10000 6.2 210 09:39 02.04.2020
6474 Clouds 5 988 86 10000 5.1 210 09:20 02.04.2020
6475 Clouds 4 988 93 10000 5.7 200 08:47 02.04.2020
6476 Clouds 4 988 93 10000 5.7 210 08:27 02.04.2020
6477 Rain 4 988 93 10000 5.7 210 07:47 02.04.2020
6478 Rain 3 989 93 10000 6.2 210 07:22 02.04.2020
6479 Rain 3 989 93 10000 6.2 210 06:59 02.04.2020
6480 Rain 3 989 93 10000 5.7 210 06:23 02.04.2020
6481 Rain 3 990 93 10000 5.7 200 05:45 02.04.2020
6482 Rain 3 991 86 10000 4.1 180 04:50 02.04.2020
6483 Clouds 0 994 92 10000 2.1 120 02:19 02.04.2020
6484 Snow 0 995 92 10000 1.5 230 00:58 02.04.2020
6485 Snow 0 995 92 10000 1.5 230 00:36 02.04.2020
6486 Clouds 0 996 86 10000 1.5 240 00:18 02.04.2020
6487 Clouds 0 996 86 10000 2.6 240 23:38 01.04.2020
6488 Clouds 0 996 86 10000 3.1 240 23:18 01.04.2020
6489 Clouds 0 996 86 10000 3.1 230 22:41 01.04.2020
6490 Clouds 0 997 86 10000 2.6 250 22:22 01.04.2020
6491 Clouds 0 997 86 10000 2.6 250 21:58 01.04.2020
6492 Clouds 0 997 55 10000 3.6 260 21:39 01.04.2020
6493 Clouds 1 997 47 10000 3.1 230 21:19 01.04.2020
6494 Clouds 1 997 47 10000 3.1 230 21:19 01.04.2020
6495 Clouds 1 997 43 10000 2.6 280 20:56 01.04.2020
6496 Clouds 2 997 43 10000 2.6 280 20:38 01.04.2020
6497 Clouds 2 997 43 10000 3.6 280 20:18 01.04.2020
6498 Clouds 2 997 43 10000 3.6 280 19:55 01.04.2020
6499 Clouds 3 997 40 10000 5.7 290 19:37 01.04.2020
6500 Clouds 3 997 38 10000 5.7 270 19:19 01.04.2020
6501 Clouds 4 996 35 10000 6.2 290 18:41 01.04.2020
6502 Clouds 5 996 32 10000 7.2 280 18:21 01.04.2020
6503 Clouds 5 996 30 10000 8.2 280 17:56 01.04.2020
6504 Clouds 5 996 30 10000 8.2 280 17:37 01.04.2020
6505 Clouds 6 996 30 10000 8.2 280 17:18 01.04.2020
6506 Clouds 6 996 30 10000 8.2 280 16:55 01.04.2020
6507 Clouds 6 996 33 10000 8.2 270 16:36 01.04.2020
6508 Clouds 6 996 33 10000 8.7 290 16:18 01.04.2020
6509 Clouds 7 996 30 10000 8.7 290 15:42 01.04.2020
6510 Clouds 7 996 36 10000 9.3 280 15:22 01.04.2020
6511 Clouds 7 996 36 10000 9.3 280 14:58 01.04.2020
6512 Clouds 7 996 33 10000 8.2 290 14:39 01.04.2020
6513 Clouds 7 996 36 10000 9.3 270 14:20 01.04.2020
6514 Clouds 7 996 39 10000 8.7 280 13:58 01.04.2020
6515 Clouds 6 996 39 10000 8.7 280 13:38 01.04.2020
6516 Clouds 6 996 45 10000 8.2 270 13:19 01.04.2020
6517 Clouds 6 996 52 10000 9.3 270 12:56 01.04.2020
6518 Clouds 6 996 52 10000 9.3 270 12:37 01.04.2020
6519 Clouds 6 996 56 10000 8.2 270 12:18 01.04.2020
6520 Clouds 5 996 56 10000 7.2 260 11:54 01.04.2020
6521 Clouds 5 996 56 10000 7.2 260 11:36 01.04.2020
6522 Clouds 5 996 60 10000 6.7 260 11:18 01.04.2020
6523 Clouds 5 996 60 10000 7.7 270 10:38 01.04.2020
6524 Clouds 4 996 64 10000 6.7 270 10:20 01.04.2020
6525 Clouds 4 996 64 10000 6.7 270 09:58 01.04.2020
6526 Clouds 4 996 64 10000 6.7 270 09:39 01.04.2020
6527 Clouds 3 996 64 10000 6.2 270 09:19 01.04.2020
6528 Clouds 2 997 69 10000 6.2 260 08:43 01.04.2020
6529 Clouds 2 997 69 10000 6.2 260 08:18 01.04.2020
6530 Clouds 1 997 74 10000 5.1 250 07:48 01.04.2020
6531 Clouds 1 997 84 10000 4.6 250 07:22 01.04.2020
6532 Clouds 0 997 84 10000 4.1 250 06:58 01.04.2020
6533 Clouds 0 997 86 10000 4.6 240 06:27 01.04.2020
6534 Clouds 0 997 86 10000 4.6 240 05:59 01.04.2020
6535 Clouds 0 998 87 10000 3.6 250 04:36 01.04.2020
6536 Clouds 1 998 86 10000 3.6 260 03:33 01.04.2020
6537 Clouds 1 998 85 10000 3.1 250 02:57 01.04.2020
6538 Clouds 2 999 86 10000 4.1 230 01:59 01.04.2020
6539 Clouds 2 999 86 10000 4.1 230 01:40 01.04.2020
6540 Clouds 2 999 86 10000 4.1 230 01:40 01.04.2020
6541 Rain 2 1000 86 10000 4.6 230 01:20 01.04.2020
6542 Rain 2 1000 86 10000 6.2 220 00:46 01.04.2020
6543 Snow 2 1001 95 10000 5.7 220 00:21 01.04.2020
6544 Snow 1 1001 95 10000 4.6 230 23:48 31.03.2020
6545 Clouds 1 1002 95 10000 6.7 220 23:28 31.03.2020
6546 Snow 1 1003 95 7000 6.7 220 22:59 31.03.2020
6547 Snow 1 1004 95 4000 6.7 220 22:37 31.03.2020
6548 Snow 1 1004 95 4000 6.7 220 22:19 31.03.2020
6549 Snow 1 1004 95 5000 6.7 220 21:57 31.03.2020
6550 Snow 1 1005 95 4000 7.7 230 21:39 31.03.2020
6551 Snow 1 1005 84 4000 7.7 230 21:20 31.03.2020
6552 Snow 1 1005 84 4000 7.7 230 20:55 31.03.2020
6553 Clouds 1 1006 69 10000 8.7 220 20:37 31.03.2020
6554 Clouds 1 1006 69 10000 8.7 220 20:18 31.03.2020
6555 Clouds 1 1007 84 10000 9.3 220 19:42 31.03.2020
6556 Clouds 0 1008 84 10000 8.7 220 19:24 31.03.2020
6557 Clouds 0 1008 84 10000 8.7 220 18:59 31.03.2020
6558 Clouds 0 1008 84 10000 8.7 220 18:59 31.03.2020
6559 Clouds 0 1008 84 10000 10.8 220 18:40 31.03.2020
6560 Clouds 0 1009 94 10000 10.3 220 18:19 31.03.2020
6561 Snow 0 1010 94 10000 9.3 220 17:55 31.03.2020
6562 Snow 0 1010 94 10000 9.3 220 17:37 31.03.2020
6563 Snow 0 1011 74 9000 9.8 230 17:19 31.03.2020
6564 Snow 0 1012 74 9000 9.8 230 16:41 31.03.2020
6565 Snow 0 1012 94 10000 10.8 230 16:20 31.03.2020
6566 Snow 0 1012 94 10000 10.8 230 15:58 31.03.2020
6567 Clouds 1 1013 47 10000 10.3 240 15:40 31.03.2020
6568 Clouds 1 1013 47 10000 10.3 240 15:22 31.03.2020
6569 Clouds 1 1014 37 10000 9.8 230 14:57 31.03.2020
6570 Clouds 1 1014 37 10000 9.8 230 14:39 31.03.2020
6571 Clouds 1 1015 40 10000 10.3 220 14:20 31.03.2020
6572 Clouds 2 1016 43 10000 8.2 240 13:43 31.03.2020
6573 Clouds 2 1017 43 10000 8.2 240 13:20 31.03.2020
6574 Clouds 1 1017 47 10000 8.7 230 12:57 31.03.2020
6575 Clouds 1 1017 47 10000 8.7 230 12:39 31.03.2020
6576 Clouds 2 1018 43 10000 8.2 240 12:19 31.03.2020
6577 Clouds 1 1019 37 10000 9.3 240 11:40 31.03.2020
6578 Clouds 1 1020 34 10000 8.2 240 11:20 31.03.2020
6579 Clouds 1 1020 34 10000 8.2 240 10:58 31.03.2020
6580 Clouds 1 1020 34 10000 8.2 240 10:58 31.03.2020
6581 Clouds 1 1021 37 10000 8.2 250 10:40 31.03.2020
6582 Clouds 1 1021 40 10000 5.7 240 10:21 31.03.2020
6583 Clouds 0 1021 81 10000 5.1 230 09:57 31.03.2020
6584 Clouds 0 1021 81 10000 5.1 230 09:39 31.03.2020
6585 Clear 0 1022 58 10000 5.1 230 09:21 31.03.2020
6586 Clear -1 1022 63 10000 3.1 230 08:57 31.03.2020
6587 Clear -2 1022 63 10000 3.1 230 08:38 31.03.2020
6588 Clear -2 1023 73 10000 2.1 220 08:19 31.03.2020
6589 Clear -5 1023 85 10000 1.5 220 07:56 31.03.2020
6590 Clear -5 1023 85 10000 1.5 220 07:37 31.03.2020
6591 Clear -5 1024 78 0 0.45 295 07:18 31.03.2020
6592 Clear -7 1023 92 10000 1 250 06:43 31.03.2020
6593 Clear -7 1024 92 10000 2.24 301 05:59 31.03.2020
6594 Clear -7 1024 92 10000 2.24 301 05:39 31.03.2020
6595 Clear -7 1025 85 10000 1 310 03:34 31.03.2020
6596 Clear -6 1025 85 10000 1.5 300 01:54 31.03.2020
6597 Clear -5 1025 79 10000 1.5 330 01:34 31.03.2020
6598 Clear -5 1025 79 10000 1 340 00:46 31.03.2020
6599 Clouds -5 1025 73 10000 1 300 00:25 31.03.2020
6600 Clouds -5 1025 79 10000 0.5 360 23:41 30.03.2020
6601 Clouds -5 1025 85 10000 1 340 23:20 30.03.2020
6602 Clouds -4 1025 85 10000 1 340 22:58 30.03.2020
6603 Clouds -4 1025 68 10000 1.5 350 22:39 30.03.2020
6604 Clouds -4 1024 68 10000 2.1 360 22:20 30.03.2020
6605 Clouds -3 1024 68 10000 2.1 360 21:58 30.03.2020
6606 Clouds -3 1024 63 10000 1.5 40 21:39 30.03.2020
6607 Clouds -3 1024 63 10000 1.5 40 21:39 30.03.2020
6608 Clouds -3 1024 73 10000 2.6 330 21:20 30.03.2020
6609 Clouds -3 1024 73 10000 1 10 20:59 30.03.2020
6610 Clouds -3 1024 73 10000 1 10 20:39 30.03.2020
6611 Clouds -2 1023 68 10000 1.74 69 20:20 30.03.2020
6612 Clouds -3 1023 68 10000 1.74 69 20:20 30.03.2020
6613 Clouds -2 1023 58 10000 1 0 19:56 30.03.2020
6614 Clouds -1 1023 58 10000 1 0 19:38 30.03.2020
6615 Clouds -1 1023 58 10000 1 0 19:38 30.03.2020
6616 Clouds -1 1023 58 10000 2.6 320 19:20 30.03.2020
6617 Rain 0 1022 58 10000 2.1 310 18:43 30.03.2020
6618 Rain 0 1022 73 10000 1.5 0 18:25 30.03.2020
6619 Rain 0 1022 43 10000 2.1 360 17:58 30.03.2020
6620 Rain 1 1022 43 10000 2.1 360 17:39 30.03.2020
6621 Rain 1 1022 40 10000 2.1 0 17:20 30.03.2020
6622 Rain 1 1022 40 10000 2.1 0 16:58 30.03.2020
6623 Rain 1 1022 37 10000 1 0 16:39 30.03.2020
6624 Rain 1 1022 73 10000 3.1 80 16:20 30.03.2020
6625 -273 0 0 0 0 0 16:20 30.03.2020
6626 -273 0 0 0 0 0 16:20 30.03.2020
6627 Rain 1 1022 43 10000 2.6 0 15:55 30.03.2020
6628 Rain 1 1022 43 10000 2.6 0 15:37 30.03.2020
6629 Rain 1 1021 43 10000 2.6 170 15:19 30.03.2020
6630 Rain 1 1021 43 10000 2.6 170 15:19 30.03.2020
6631 Snow 1 1021 72 10000 1.5 0 14:55 30.03.2020
6632 Snow 1 1021 72 10000 1.5 0 14:37 30.03.2020
6633 Clouds 1 1022 46 0 3.88 84 14:18 30.03.2020
6634 Rain 1 1021 73 10000 3.6 50 13:55 30.03.2020
6635 Rain 1 1021 73 10000 3.6 50 13:55 30.03.2020
6636 Rain 1 1021 73 10000 3.6 50 13:37 30.03.2020
6637 Rain 1 1021 34 10000 2.6 110 13:18 30.03.2020
6638 Rain 1 1020 34 10000 4.1 80 12:43 30.03.2020
6639 Clouds 1 1020 77 10000 2.6 80 12:20 30.03.2020
6640 Clouds 1 1020 77 10000 2.6 80 11:57 30.03.2020
6641 Clouds 1 1020 77 10000 3.1 40 11:39 30.03.2020
6642 Clouds 0 1020 77 10000 2.1 30 11:21 30.03.2020
6643 Clouds 0 1020 50 10000 3.1 20 10:41 30.03.2020
6644 Clouds 0 1020 50 10000 3.1 20 10:22 30.03.2020
6645 Clouds -1 1020 50 10000 2.1 350 09:58 30.03.2020
6646 Clouds -1 1019 50 10000 2.6 10 09:39 30.03.2020
6647 Clouds -1 1019 50 10000 3.1 350 09:19 30.03.2020
6648 Clouds -2 1019 58 10000 3.6 360 08:43 30.03.2020
6649 Clouds -2 1019 58 10000 3.1 350 08:23 30.03.2020
6650 Clouds -2 1019 63 10000 2.6 350 07:53 30.03.2020
6651 Clouds -3 1019 63 10000 2.6 350 07:34 30.03.2020
6652 Clouds -3 1019 68 10000 2.6 350 06:57 30.03.2020
6653 Clouds -3 1019 68 10000 2.6 350 06:33 30.03.2020
6654 Clouds -4 1018 68 10000 1.5 300 05:55 30.03.2020
6655 Clouds -4 1018 68 10000 1.5 300 05:33 30.03.2020
6656 Clouds -4 1018 68 10000 2.6 280 04:24 30.03.2020
6657 Clouds -4 1018 79 10000 2.1 280 03:44 30.03.2020
6658 Clouds -4 1018 79 10000 0.5 0 02:42 30.03.2020
6659 Clouds -4 1019 67 10000 1.5 310 01:48 30.03.2020
6660 Clouds -4 1019 73 10000 2.1 280 00:55 30.03.2020
6661 Clouds -4 1019 73 10000 1.5 300 00:24 30.03.2020
6662 Clouds -4 1019 67 10000 2.6 290 23:43 29.03.2020
6663 Clouds -4 1019 67 10000 3.6 290 23:24 29.03.2020
6664 Clouds -3 1019 67 10000 3.6 290 22:59 29.03.2020
6665 Clouds -3 1019 68 10000 3.1 280 22:39 29.03.2020
6666 Clouds -3 1019 68 10000 2.6 280 22:19 29.03.2020
6667 Clouds -3 1019 68 10000 2.6 280 21:57 29.03.2020
6668 Clouds -3 1019 68 10000 2.6 280 21:36 29.03.2020
6669 Clouds -2 1019 68 10000 2.1 270 21:18 29.03.2020
6670 Clouds -2 1019 68 10000 2.6 280 20:55 29.03.2020
6671 Clouds -3 1019 68 10000 2.6 280 20:36 29.03.2020
6672 Clouds -2 1019 58 10000 2.6 280 20:18 29.03.2020
6673 Clouds -2 1019 58 10000 2.6 310 19:42 29.03.2020
6674 Rain -1 1019 50 10000 3.6 350 19:24 29.03.2020
6675 Rain 0 1019 58 10000 7.7 320 18:58 29.03.2020
6676 Rain 0 1019 58 10000 7.7 320 18:40 29.03.2020
6677 Rain 0 1019 40 10000 5.1 290 18:21 29.03.2020
6678 Rain 1 1019 37 10000 4.6 300 17:59 29.03.2020
6679 Rain 1 1019 37 10000 4.6 300 17:41 29.03.2020
6680 Rain 1 1019 31 10000 4.6 320 17:22 29.03.2020
6681 Rain 1 1019 31 10000 4.6 320 17:22 29.03.2020
6682 Rain 1 1019 29 10000 5.1 280 16:58 29.03.2020
6683 Rain 1 1019 29 10000 5.1 280 16:39 29.03.2020
6684 Rain 2 1019 26 10000 6.2 300 16:20 29.03.2020
6685 Rain 1 1019 26 10000 6.2 300 15:56 29.03.2020
6686 Rain 2 1019 22 10000 5.1 310 15:37 29.03.2020
6687 Rain 2 1020 24 10000 4.1 300 15:19 29.03.2020
6688 Rain 2 1020 24 10000 5.7 320 14:55 29.03.2020
6689 Rain 2 1020 24 10000 5.7 320 14:36 29.03.2020
6690 Clouds 2 1020 24 10000